<?xml version="1.0" encoding="UTF-8"?>
<gpx version="1.0" creator="GPSBabel - http://www.gpsbabel.org" xmlns="http://www.topografix.com/GPX/1/0">
  <time>2020-02-16T20:32:17.291Z</time>
  <bounds minlat="16.995260540" minlon="-96.472880630" maxlat="17.125148450" maxlon="-96.411031367"/>
  <wpt lat="17.018492032" lon="-96.411031367">
    <ele>0.000</ele>
    <name>San Miguel del Valle</name>
    <cmt>San Miguel del Valle</cmt>
    <desc>San Miguel del Valle</desc>
  </wpt>
  <trk>
    <name>Cueva de Bandidos Drivein.PatMemo.2020-01-20</name>
    <trkseg>
      <trkpt lat="17.018479490" lon="-96.411996440">
        <ele>1892.800</ele>
        <time>2020-01-20T17:57:43Z</time>
      </trkpt>
      <trkpt lat="17.019744910" lon="-96.419509500">
        <ele>1775.200</ele>
        <time>2020-01-20T18:15:20Z</time>
      </trkpt>
      <trkpt lat="17.019682400" lon="-96.419538850">
        <ele>1770.800</ele>
        <time>2020-01-20T18:15:21Z</time>
      </trkpt>
      <trkpt lat="17.019634420" lon="-96.419561530">
        <ele>1767.600</ele>
        <time>2020-01-20T18:15:22Z</time>
      </trkpt>
      <trkpt lat="17.019587310" lon="-96.419591440">
        <ele>1770.300</ele>
        <time>2020-01-20T18:15:23Z</time>
      </trkpt>
      <trkpt lat="17.019548670" lon="-96.419615760">
        <ele>1769.300</ele>
        <time>2020-01-20T18:15:24Z</time>
      </trkpt>
      <trkpt lat="17.019508950" lon="-96.419629180">
        <ele>1770.300</ele>
        <time>2020-01-20T18:15:25Z</time>
      </trkpt>
      <trkpt lat="17.019470900" lon="-96.419642470">
        <ele>1770.700</ele>
        <time>2020-01-20T18:15:26Z</time>
      </trkpt>
      <trkpt lat="17.019426660" lon="-96.419649650">
        <ele>1772.400</ele>
        <time>2020-01-20T18:15:29Z</time>
      </trkpt>
      <trkpt lat="17.019382240" lon="-96.419667320">
        <ele>1772.300</ele>
        <time>2020-01-20T18:15:32Z</time>
      </trkpt>
      <trkpt lat="17.019316510" lon="-96.419672640">
        <ele>1772.500</ele>
        <time>2020-01-20T18:15:33Z</time>
      </trkpt>
      <trkpt lat="17.019268870" lon="-96.419674070">
        <ele>1772.300</ele>
        <time>2020-01-20T18:15:34Z</time>
      </trkpt>
      <trkpt lat="17.019193870" lon="-96.419683300">
        <ele>1773.000</ele>
        <time>2020-01-20T18:15:36Z</time>
      </trkpt>
      <trkpt lat="17.019153610" lon="-96.419694250">
        <ele>1772.700</ele>
        <time>2020-01-20T18:15:38Z</time>
      </trkpt>
      <trkpt lat="17.019112540" lon="-96.419692240">
        <ele>1773.000</ele>
        <time>2020-01-20T18:15:41Z</time>
      </trkpt>
      <trkpt lat="17.019042200" lon="-96.419682940">
        <ele>1771.800</ele>
        <time>2020-01-20T18:15:43Z</time>
      </trkpt>
      <trkpt lat="17.018987550" lon="-96.419658030">
        <ele>1770.600</ele>
        <time>2020-01-20T18:15:44Z</time>
      </trkpt>
      <trkpt lat="17.018938370" lon="-96.419621870">
        <ele>1770.700</ele>
        <time>2020-01-20T18:15:45Z</time>
      </trkpt>
      <trkpt lat="17.018893640" lon="-96.419582180">
        <ele>1770.500</ele>
        <time>2020-01-20T18:15:46Z</time>
      </trkpt>
      <trkpt lat="17.018848530" lon="-96.419537220">
        <ele>1770.200</ele>
        <time>2020-01-20T18:15:47Z</time>
      </trkpt>
      <trkpt lat="17.018794500" lon="-96.419499070">
        <ele>1770.400</ele>
        <time>2020-01-20T18:15:48Z</time>
      </trkpt>
      <trkpt lat="17.018738540" lon="-96.419456970">
        <ele>1770.400</ele>
        <time>2020-01-20T18:15:49Z</time>
      </trkpt>
      <trkpt lat="17.018682820" lon="-96.419407640">
        <ele>1768.900</ele>
        <time>2020-01-20T18:15:50Z</time>
      </trkpt>
      <trkpt lat="17.018629110" lon="-96.419357020">
        <ele>1767.900</ele>
        <time>2020-01-20T18:15:51Z</time>
      </trkpt>
      <trkpt lat="17.018578040" lon="-96.419314780">
        <ele>1768.300</ele>
        <time>2020-01-20T18:15:52Z</time>
      </trkpt>
      <trkpt lat="17.018522810" lon="-96.419268230">
        <ele>1767.400</ele>
        <time>2020-01-20T18:15:53Z</time>
      </trkpt>
      <trkpt lat="17.018471150" lon="-96.419229310">
        <ele>1767.700</ele>
        <time>2020-01-20T18:15:54Z</time>
      </trkpt>
      <trkpt lat="17.018422720" lon="-96.419192820">
        <ele>1767.400</ele>
        <time>2020-01-20T18:15:55Z</time>
      </trkpt>
      <trkpt lat="17.018380370" lon="-96.419160350">
        <ele>1767.300</ele>
        <time>2020-01-20T18:15:56Z</time>
      </trkpt>
      <trkpt lat="17.018346720" lon="-96.419136640">
        <ele>1767.000</ele>
        <time>2020-01-20T18:15:57Z</time>
      </trkpt>
      <trkpt lat="17.018312540" lon="-96.419106160">
        <ele>1766.800</ele>
        <time>2020-01-20T18:15:59Z</time>
      </trkpt>
      <trkpt lat="17.018274490" lon="-96.419077420">
        <ele>1766.500</ele>
        <time>2020-01-20T18:16:01Z</time>
      </trkpt>
      <trkpt lat="17.018233170" lon="-96.419042080">
        <ele>1766.400</ele>
        <time>2020-01-20T18:16:03Z</time>
      </trkpt>
      <trkpt lat="17.018200490" lon="-96.419022910">
        <ele>1765.500</ele>
        <time>2020-01-20T18:16:04Z</time>
      </trkpt>
      <trkpt lat="17.018146700" lon="-96.418983780">
        <ele>1765.000</ele>
        <time>2020-01-20T18:16:05Z</time>
      </trkpt>
      <trkpt lat="17.018096750" lon="-96.418951020">
        <ele>1764.700</ele>
        <time>2020-01-20T18:16:06Z</time>
      </trkpt>
      <trkpt lat="17.018045300" lon="-96.418920560">
        <ele>1765.000</ele>
        <time>2020-01-20T18:16:07Z</time>
      </trkpt>
      <trkpt lat="17.017989270" lon="-96.418886110">
        <ele>1764.000</ele>
        <time>2020-01-20T18:16:08Z</time>
      </trkpt>
      <trkpt lat="17.017917600" lon="-96.418853050">
        <ele>1765.000</ele>
        <time>2020-01-20T18:16:09Z</time>
      </trkpt>
      <trkpt lat="17.017844750" lon="-96.418814680">
        <ele>1764.400</ele>
        <time>2020-01-20T18:16:10Z</time>
      </trkpt>
      <trkpt lat="17.017767460" lon="-96.418779260">
        <ele>1763.600</ele>
        <time>2020-01-20T18:16:11Z</time>
      </trkpt>
      <trkpt lat="17.017684720" lon="-96.418745260">
        <ele>1764.200</ele>
        <time>2020-01-20T18:16:12Z</time>
      </trkpt>
      <trkpt lat="17.017599700" lon="-96.418706870">
        <ele>1764.300</ele>
        <time>2020-01-20T18:16:13Z</time>
      </trkpt>
      <trkpt lat="17.017521610" lon="-96.418673920">
        <ele>1764.200</ele>
        <time>2020-01-20T18:16:14Z</time>
      </trkpt>
      <trkpt lat="17.017440460" lon="-96.418639800">
        <ele>1765.000</ele>
        <time>2020-01-20T18:16:15Z</time>
      </trkpt>
      <trkpt lat="17.017365730" lon="-96.418604710">
        <ele>1764.700</ele>
        <time>2020-01-20T18:16:16Z</time>
      </trkpt>
      <trkpt lat="17.017295040" lon="-96.418568880">
        <ele>1764.000</ele>
        <time>2020-01-20T18:16:17Z</time>
      </trkpt>
      <trkpt lat="17.017242980" lon="-96.418534730">
        <ele>1763.200</ele>
        <time>2020-01-20T18:16:18Z</time>
      </trkpt>
      <trkpt lat="17.017187830" lon="-96.418509550">
        <ele>1763.300</ele>
        <time>2020-01-20T18:16:19Z</time>
      </trkpt>
      <trkpt lat="17.017134890" lon="-96.418488570">
        <ele>1764.300</ele>
        <time>2020-01-20T18:16:20Z</time>
      </trkpt>
      <trkpt lat="17.017077670" lon="-96.418471420">
        <ele>1763.600</ele>
        <time>2020-01-20T18:16:21Z</time>
      </trkpt>
      <trkpt lat="17.017017510" lon="-96.418452000">
        <ele>1763.500</ele>
        <time>2020-01-20T18:16:22Z</time>
      </trkpt>
      <trkpt lat="17.016953170" lon="-96.418430010">
        <ele>1763.100</ele>
        <time>2020-01-20T18:16:23Z</time>
      </trkpt>
      <trkpt lat="17.016892860" lon="-96.418408070">
        <ele>1762.300</ele>
        <time>2020-01-20T18:16:24Z</time>
      </trkpt>
      <trkpt lat="17.016838250" lon="-96.418391210">
        <ele>1762.400</ele>
        <time>2020-01-20T18:16:25Z</time>
      </trkpt>
      <trkpt lat="17.016792790" lon="-96.418381190">
        <ele>1761.800</ele>
        <time>2020-01-20T18:16:26Z</time>
      </trkpt>
      <trkpt lat="17.016734510" lon="-96.418367920">
        <ele>1761.200</ele>
        <time>2020-01-20T18:16:28Z</time>
      </trkpt>
      <trkpt lat="17.016691360" lon="-96.418354950">
        <ele>1760.000</ele>
        <time>2020-01-20T18:16:30Z</time>
      </trkpt>
      <trkpt lat="17.016613800" lon="-96.418332380">
        <ele>1759.600</ele>
        <time>2020-01-20T18:16:32Z</time>
      </trkpt>
      <trkpt lat="17.016560060" lon="-96.418316110">
        <ele>1758.900</ele>
        <time>2020-01-20T18:16:33Z</time>
      </trkpt>
      <trkpt lat="17.016496180" lon="-96.418299480">
        <ele>1758.500</ele>
        <time>2020-01-20T18:16:34Z</time>
      </trkpt>
      <trkpt lat="17.016426960" lon="-96.418288450">
        <ele>1758.500</ele>
        <time>2020-01-20T18:16:35Z</time>
      </trkpt>
      <trkpt lat="17.016354490" lon="-96.418270000">
        <ele>1757.900</ele>
        <time>2020-01-20T18:16:36Z</time>
      </trkpt>
      <trkpt lat="17.016280870" lon="-96.418255630">
        <ele>1757.400</ele>
        <time>2020-01-20T18:16:37Z</time>
      </trkpt>
      <trkpt lat="17.016206320" lon="-96.418239690">
        <ele>1756.600</ele>
        <time>2020-01-20T18:16:38Z</time>
      </trkpt>
      <trkpt lat="17.016129320" lon="-96.418226990">
        <ele>1756.200</ele>
        <time>2020-01-20T18:16:39Z</time>
      </trkpt>
      <trkpt lat="17.016052690" lon="-96.418207880">
        <ele>1755.900</ele>
        <time>2020-01-20T18:16:40Z</time>
      </trkpt>
      <trkpt lat="17.015976760" lon="-96.418193510">
        <ele>1755.700</ele>
        <time>2020-01-20T18:16:41Z</time>
      </trkpt>
      <trkpt lat="17.015896750" lon="-96.418177700">
        <ele>1755.200</ele>
        <time>2020-01-20T18:16:42Z</time>
      </trkpt>
      <trkpt lat="17.015820130" lon="-96.418162420">
        <ele>1754.700</ele>
        <time>2020-01-20T18:16:43Z</time>
      </trkpt>
      <trkpt lat="17.015746260" lon="-96.418144330">
        <ele>1754.100</ele>
        <time>2020-01-20T18:16:44Z</time>
      </trkpt>
      <trkpt lat="17.015666270" lon="-96.418127320">
        <ele>1753.300</ele>
        <time>2020-01-20T18:16:45Z</time>
      </trkpt>
      <trkpt lat="17.015589020" lon="-96.418105830">
        <ele>1752.800</ele>
        <time>2020-01-20T18:16:46Z</time>
      </trkpt>
      <trkpt lat="17.015516040" lon="-96.418089310">
        <ele>1752.700</ele>
        <time>2020-01-20T18:16:47Z</time>
      </trkpt>
      <trkpt lat="17.015456310" lon="-96.418071750">
        <ele>1752.100</ele>
        <time>2020-01-20T18:16:48Z</time>
      </trkpt>
      <trkpt lat="17.015404850" lon="-96.418054470">
        <ele>1751.800</ele>
        <time>2020-01-20T18:16:49Z</time>
      </trkpt>
      <trkpt lat="17.015361680" lon="-96.418041500">
        <ele>1751.500</ele>
        <time>2020-01-20T18:16:50Z</time>
      </trkpt>
      <trkpt lat="17.015320550" lon="-96.418028880">
        <ele>1751.000</ele>
        <time>2020-01-20T18:16:51Z</time>
      </trkpt>
      <trkpt lat="17.015271450" lon="-96.418021360">
        <ele>1750.500</ele>
        <time>2020-01-20T18:16:52Z</time>
      </trkpt>
      <trkpt lat="17.015215340" lon="-96.418011670">
        <ele>1750.300</ele>
        <time>2020-01-20T18:16:53Z</time>
      </trkpt>
      <trkpt lat="17.015155630" lon="-96.418004260">
        <ele>1750.300</ele>
        <time>2020-01-20T18:16:54Z</time>
      </trkpt>
      <trkpt lat="17.015089330" lon="-96.418005140">
        <ele>1749.800</ele>
        <time>2020-01-20T18:16:55Z</time>
      </trkpt>
      <trkpt lat="17.015031090" lon="-96.418012480">
        <ele>1749.400</ele>
        <time>2020-01-20T18:16:56Z</time>
      </trkpt>
      <trkpt lat="17.014966640" lon="-96.418032310">
        <ele>1748.600</ele>
        <time>2020-01-20T18:16:57Z</time>
      </trkpt>
      <trkpt lat="17.014918800" lon="-96.418064250">
        <ele>1747.800</ele>
        <time>2020-01-20T18:16:58Z</time>
      </trkpt>
      <trkpt lat="17.014880820" lon="-96.418105190">
        <ele>1747.100</ele>
        <time>2020-01-20T18:16:59Z</time>
      </trkpt>
      <trkpt lat="17.014855650" lon="-96.418152020">
        <ele>1746.800</ele>
        <time>2020-01-20T18:17:00Z</time>
      </trkpt>
      <trkpt lat="17.014848730" lon="-96.418204200">
        <ele>1746.300</ele>
        <time>2020-01-20T18:17:02Z</time>
      </trkpt>
      <trkpt lat="17.014842940" lon="-96.418249070">
        <ele>1745.200</ele>
        <time>2020-01-20T18:17:04Z</time>
      </trkpt>
      <trkpt lat="17.014839980" lon="-96.418286940">
        <ele>1745.100</ele>
        <time>2020-01-20T18:17:05Z</time>
      </trkpt>
      <trkpt lat="17.014845920" lon="-96.418341560">
        <ele>1744.600</ele>
        <time>2020-01-20T18:17:06Z</time>
      </trkpt>
      <trkpt lat="17.014853370" lon="-96.418401610">
        <ele>1743.900</ele>
        <time>2020-01-20T18:17:07Z</time>
      </trkpt>
      <trkpt lat="17.014863630" lon="-96.418466970">
        <ele>1744.000</ele>
        <time>2020-01-20T18:17:08Z</time>
      </trkpt>
      <trkpt lat="17.014877810" lon="-96.418541060">
        <ele>1743.100</ele>
        <time>2020-01-20T18:17:09Z</time>
      </trkpt>
      <trkpt lat="17.014892550" lon="-96.418617190">
        <ele>1742.600</ele>
        <time>2020-01-20T18:17:10Z</time>
      </trkpt>
      <trkpt lat="17.014911190" lon="-96.418699280">
        <ele>1742.700</ele>
        <time>2020-01-20T18:17:11Z</time>
      </trkpt>
      <trkpt lat="17.014927020" lon="-96.418781050">
        <ele>1742.300</ele>
        <time>2020-01-20T18:17:12Z</time>
      </trkpt>
      <trkpt lat="17.014935990" lon="-96.418865510">
        <ele>1742.400</ele>
        <time>2020-01-20T18:17:13Z</time>
      </trkpt>
      <trkpt lat="17.014938390" lon="-96.418949860">
        <ele>1743.000</ele>
        <time>2020-01-20T18:17:14Z</time>
      </trkpt>
      <trkpt lat="17.014923840" lon="-96.419025470">
        <ele>1743.000</ele>
        <time>2020-01-20T18:17:15Z</time>
      </trkpt>
      <trkpt lat="17.014893640" lon="-96.419090820">
        <ele>1743.400</ele>
        <time>2020-01-20T18:17:16Z</time>
      </trkpt>
      <trkpt lat="17.014851570" lon="-96.419142390">
        <ele>1744.000</ele>
        <time>2020-01-20T18:17:17Z</time>
      </trkpt>
      <trkpt lat="17.014802640" lon="-96.419179630">
        <ele>1744.500</ele>
        <time>2020-01-20T18:17:18Z</time>
      </trkpt>
      <trkpt lat="17.014751410" lon="-96.419201300">
        <ele>1744.600</ele>
        <time>2020-01-20T18:17:19Z</time>
      </trkpt>
      <trkpt lat="17.014695750" lon="-96.419214380">
        <ele>1744.900</ele>
        <time>2020-01-20T18:17:20Z</time>
      </trkpt>
      <trkpt lat="17.014641300" lon="-96.419218680">
        <ele>1745.100</ele>
        <time>2020-01-20T18:17:21Z</time>
      </trkpt>
      <trkpt lat="17.014591080" lon="-96.419207760">
        <ele>1746.400</ele>
        <time>2020-01-20T18:17:22Z</time>
      </trkpt>
      <trkpt lat="17.014543430" lon="-96.419192090">
        <ele>1747.000</ele>
        <time>2020-01-20T18:17:23Z</time>
      </trkpt>
      <trkpt lat="17.014496770" lon="-96.419174010">
        <ele>1747.100</ele>
        <time>2020-01-20T18:17:25Z</time>
      </trkpt>
      <trkpt lat="17.014460220" lon="-96.419151450">
        <ele>1747.600</ele>
        <time>2020-01-20T18:17:27Z</time>
      </trkpt>
      <trkpt lat="17.014426170" lon="-96.419128450">
        <ele>1747.900</ele>
        <time>2020-01-20T18:17:28Z</time>
      </trkpt>
      <trkpt lat="17.014388260" lon="-96.419097430">
        <ele>1748.100</ele>
        <time>2020-01-20T18:17:29Z</time>
      </trkpt>
      <trkpt lat="17.014342470" lon="-96.419061090">
        <ele>1748.200</ele>
        <time>2020-01-20T18:17:30Z</time>
      </trkpt>
      <trkpt lat="17.014296330" lon="-96.419025690">
        <ele>1748.200</ele>
        <time>2020-01-20T18:17:31Z</time>
      </trkpt>
      <trkpt lat="17.014246110" lon="-96.418995470">
        <ele>1747.900</ele>
        <time>2020-01-20T18:17:32Z</time>
      </trkpt>
      <trkpt lat="17.014192810" lon="-96.418976720">
        <ele>1748.000</ele>
        <time>2020-01-20T18:17:33Z</time>
      </trkpt>
      <trkpt lat="17.014139630" lon="-96.418955410">
        <ele>1747.500</ele>
        <time>2020-01-20T18:17:34Z</time>
      </trkpt>
      <trkpt lat="17.014081870" lon="-96.418947180">
        <ele>1746.700</ele>
        <time>2020-01-20T18:17:35Z</time>
      </trkpt>
      <trkpt lat="17.014025320" lon="-96.418946830">
        <ele>1746.300</ele>
        <time>2020-01-20T18:17:36Z</time>
      </trkpt>
      <trkpt lat="17.013967290" lon="-96.418951000">
        <ele>1746.000</ele>
        <time>2020-01-20T18:17:37Z</time>
      </trkpt>
      <trkpt lat="17.013913970" lon="-96.418964780">
        <ele>1745.600</ele>
        <time>2020-01-20T18:17:38Z</time>
      </trkpt>
      <trkpt lat="17.013869170" lon="-96.418982060">
        <ele>1744.900</ele>
        <time>2020-01-20T18:17:39Z</time>
      </trkpt>
      <trkpt lat="17.013829520" lon="-96.419001570">
        <ele>1744.500</ele>
        <time>2020-01-20T18:17:40Z</time>
      </trkpt>
      <trkpt lat="17.013790820" lon="-96.419022100">
        <ele>1744.100</ele>
        <time>2020-01-20T18:17:41Z</time>
      </trkpt>
      <trkpt lat="17.013756580" lon="-96.419047700">
        <ele>1743.400</ele>
        <time>2020-01-20T18:17:42Z</time>
      </trkpt>
      <trkpt lat="17.013725240" lon="-96.419072100">
        <ele>1742.700</ele>
        <time>2020-01-20T18:17:43Z</time>
      </trkpt>
      <trkpt lat="17.013682980" lon="-96.419118820">
        <ele>1742.800</ele>
        <time>2020-01-20T18:17:45Z</time>
      </trkpt>
      <trkpt lat="17.013659190" lon="-96.419155540">
        <ele>1743.100</ele>
        <time>2020-01-20T18:17:47Z</time>
      </trkpt>
      <trkpt lat="17.013634550" lon="-96.419202930">
        <ele>1743.100</ele>
        <time>2020-01-20T18:17:49Z</time>
      </trkpt>
      <trkpt lat="17.013618050" lon="-96.419239420">
        <ele>1742.600</ele>
        <time>2020-01-20T18:17:50Z</time>
      </trkpt>
      <trkpt lat="17.013603250" lon="-96.419289980">
        <ele>1742.000</ele>
        <time>2020-01-20T18:17:51Z</time>
      </trkpt>
      <trkpt lat="17.013586080" lon="-96.419354330">
        <ele>1741.900</ele>
        <time>2020-01-20T18:17:52Z</time>
      </trkpt>
      <trkpt lat="17.013568440" lon="-96.419430860">
        <ele>1742.000</ele>
        <time>2020-01-20T18:17:53Z</time>
      </trkpt>
      <trkpt lat="17.013553990" lon="-96.419514340">
        <ele>1741.700</ele>
        <time>2020-01-20T18:17:54Z</time>
      </trkpt>
      <trkpt lat="17.013544540" lon="-96.419610630">
        <ele>1741.200</ele>
        <time>2020-01-20T18:17:55Z</time>
      </trkpt>
      <trkpt lat="17.013534600" lon="-96.419705800">
        <ele>1740.700</ele>
        <time>2020-01-20T18:17:56Z</time>
      </trkpt>
      <trkpt lat="17.013524410" lon="-96.419804700">
        <ele>1740.300</ele>
        <time>2020-01-20T18:17:57Z</time>
      </trkpt>
      <trkpt lat="17.013511590" lon="-96.419909620">
        <ele>1739.800</ele>
        <time>2020-01-20T18:17:58Z</time>
      </trkpt>
      <trkpt lat="17.013484580" lon="-96.420014560">
        <ele>1739.300</ele>
        <time>2020-01-20T18:17:59Z</time>
      </trkpt>
      <trkpt lat="17.013448740" lon="-96.420124110">
        <ele>1739.100</ele>
        <time>2020-01-20T18:18:00Z</time>
      </trkpt>
      <trkpt lat="17.013404530" lon="-96.420229940">
        <ele>1739.500</ele>
        <time>2020-01-20T18:18:01Z</time>
      </trkpt>
      <trkpt lat="17.013351670" lon="-96.420325170">
        <ele>1739.600</ele>
        <time>2020-01-20T18:18:02Z</time>
      </trkpt>
      <trkpt lat="17.013297580" lon="-96.420415360">
        <ele>1739.800</ele>
        <time>2020-01-20T18:18:03Z</time>
      </trkpt>
      <trkpt lat="17.013239430" lon="-96.420499970">
        <ele>1739.500</ele>
        <time>2020-01-20T18:18:04Z</time>
      </trkpt>
      <trkpt lat="17.013187680" lon="-96.420579770">
        <ele>1738.700</ele>
        <time>2020-01-20T18:18:05Z</time>
      </trkpt>
      <trkpt lat="17.013137650" lon="-96.420660560">
        <ele>1738.700</ele>
        <time>2020-01-20T18:18:06Z</time>
      </trkpt>
      <trkpt lat="17.013091210" lon="-96.420729900">
        <ele>1738.800</ele>
        <time>2020-01-20T18:18:07Z</time>
      </trkpt>
      <trkpt lat="17.013049130" lon="-96.420800660">
        <ele>1738.700</ele>
        <time>2020-01-20T18:18:08Z</time>
      </trkpt>
      <trkpt lat="17.013006430" lon="-96.420868730">
        <ele>1739.200</ele>
        <time>2020-01-20T18:18:09Z</time>
      </trkpt>
      <trkpt lat="17.012962210" lon="-96.420933620">
        <ele>1739.200</ele>
        <time>2020-01-20T18:18:10Z</time>
      </trkpt>
      <trkpt lat="17.012909780" lon="-96.420991730">
        <ele>1738.900</ele>
        <time>2020-01-20T18:18:11Z</time>
      </trkpt>
      <trkpt lat="17.012852760" lon="-96.421050220">
        <ele>1739.200</ele>
        <time>2020-01-20T18:18:12Z</time>
      </trkpt>
      <trkpt lat="17.012784430" lon="-96.421109480">
        <ele>1739.600</ele>
        <time>2020-01-20T18:18:13Z</time>
      </trkpt>
      <trkpt lat="17.012704880" lon="-96.421161170">
        <ele>1739.400</ele>
        <time>2020-01-20T18:18:14Z</time>
      </trkpt>
      <trkpt lat="17.012615200" lon="-96.421204870">
        <ele>1739.400</ele>
        <time>2020-01-20T18:18:15Z</time>
      </trkpt>
      <trkpt lat="17.012516060" lon="-96.421241130">
        <ele>1739.100</ele>
        <time>2020-01-20T18:18:16Z</time>
      </trkpt>
      <trkpt lat="17.012413010" lon="-96.421281610">
        <ele>1739.700</ele>
        <time>2020-01-20T18:18:17Z</time>
      </trkpt>
      <trkpt lat="17.012309200" lon="-96.421327050">
        <ele>1739.700</ele>
        <time>2020-01-20T18:18:18Z</time>
      </trkpt>
      <trkpt lat="17.012202220" lon="-96.421377200">
        <ele>1740.000</ele>
        <time>2020-01-20T18:18:19Z</time>
      </trkpt>
      <trkpt lat="17.012103090" lon="-96.421442430">
        <ele>1740.600</ele>
        <time>2020-01-20T18:18:20Z</time>
      </trkpt>
      <trkpt lat="17.012012950" lon="-96.421520790">
        <ele>1740.600</ele>
        <time>2020-01-20T18:18:21Z</time>
      </trkpt>
      <trkpt lat="17.011927690" lon="-96.421604060">
        <ele>1740.600</ele>
        <time>2020-01-20T18:18:22Z</time>
      </trkpt>
      <trkpt lat="17.011846690" lon="-96.421685940">
        <ele>1740.500</ele>
        <time>2020-01-20T18:18:23Z</time>
      </trkpt>
      <trkpt lat="17.011776120" lon="-96.421771440">
        <ele>1740.500</ele>
        <time>2020-01-20T18:18:24Z</time>
      </trkpt>
      <trkpt lat="17.011709970" lon="-96.421852970">
        <ele>1740.400</ele>
        <time>2020-01-20T18:18:25Z</time>
      </trkpt>
      <trkpt lat="17.011649700" lon="-96.421935330">
        <ele>1740.000</ele>
        <time>2020-01-20T18:18:26Z</time>
      </trkpt>
      <trkpt lat="17.011588940" lon="-96.422015900">
        <ele>1739.700</ele>
        <time>2020-01-20T18:18:27Z</time>
      </trkpt>
      <trkpt lat="17.011524200" lon="-96.422095450">
        <ele>1739.700</ele>
        <time>2020-01-20T18:18:28Z</time>
      </trkpt>
      <trkpt lat="17.011466600" lon="-96.422174320">
        <ele>1739.400</ele>
        <time>2020-01-20T18:18:29Z</time>
      </trkpt>
      <trkpt lat="17.011412190" lon="-96.422251220">
        <ele>1739.400</ele>
        <time>2020-01-20T18:18:30Z</time>
      </trkpt>
      <trkpt lat="17.011360140" lon="-96.422326900">
        <ele>1739.200</ele>
        <time>2020-01-20T18:18:31Z</time>
      </trkpt>
      <trkpt lat="17.011310990" lon="-96.422399730">
        <ele>1739.500</ele>
        <time>2020-01-20T18:18:32Z</time>
      </trkpt>
      <trkpt lat="17.011266080" lon="-96.422469680">
        <ele>1739.500</ele>
        <time>2020-01-20T18:18:33Z</time>
      </trkpt>
      <trkpt lat="17.011226480" lon="-96.422531620">
        <ele>1739.300</ele>
        <time>2020-01-20T18:18:34Z</time>
      </trkpt>
      <trkpt lat="17.011193420" lon="-96.422585180">
        <ele>1739.400</ele>
        <time>2020-01-20T18:18:35Z</time>
      </trkpt>
      <trkpt lat="17.011164050" lon="-96.422627120">
        <ele>1738.900</ele>
        <time>2020-01-20T18:18:36Z</time>
      </trkpt>
      <trkpt lat="17.011143780" lon="-96.422668500">
        <ele>1740.300</ele>
        <time>2020-01-20T18:18:37Z</time>
      </trkpt>
      <trkpt lat="17.011129820" lon="-96.422717650">
        <ele>1740.500</ele>
        <time>2020-01-20T18:18:39Z</time>
      </trkpt>
      <trkpt lat="17.011103220" lon="-96.422751480">
        <ele>1740.800</ele>
        <time>2020-01-20T18:18:41Z</time>
      </trkpt>
      <trkpt lat="17.011063620" lon="-96.422786800">
        <ele>1739.300</ele>
        <time>2020-01-20T18:18:43Z</time>
      </trkpt>
      <trkpt lat="17.011013270" lon="-96.422839730">
        <ele>1739.200</ele>
        <time>2020-01-20T18:18:45Z</time>
      </trkpt>
      <trkpt lat="17.010987980" lon="-96.422885650">
        <ele>1738.800</ele>
        <time>2020-01-20T18:18:46Z</time>
      </trkpt>
      <trkpt lat="17.010952830" lon="-96.422931310">
        <ele>1738.900</ele>
        <time>2020-01-20T18:18:47Z</time>
      </trkpt>
      <trkpt lat="17.010913760" lon="-96.422986000">
        <ele>1738.400</ele>
        <time>2020-01-20T18:18:48Z</time>
      </trkpt>
      <trkpt lat="17.010872010" lon="-96.423045690">
        <ele>1738.300</ele>
        <time>2020-01-20T18:18:49Z</time>
      </trkpt>
      <trkpt lat="17.010825830" lon="-96.423112070">
        <ele>1738.100</ele>
        <time>2020-01-20T18:18:50Z</time>
      </trkpt>
      <trkpt lat="17.010777620" lon="-96.423184260">
        <ele>1738.200</ele>
        <time>2020-01-20T18:18:51Z</time>
      </trkpt>
      <trkpt lat="17.010730230" lon="-96.423254800">
        <ele>1737.500</ele>
        <time>2020-01-20T18:18:52Z</time>
      </trkpt>
      <trkpt lat="17.010680660" lon="-96.423324830">
        <ele>1737.300</ele>
        <time>2020-01-20T18:18:53Z</time>
      </trkpt>
      <trkpt lat="17.010626730" lon="-96.423397030">
        <ele>1736.600</ele>
        <time>2020-01-20T18:18:54Z</time>
      </trkpt>
      <trkpt lat="17.010576960" lon="-96.423479610">
        <ele>1736.900</ele>
        <time>2020-01-20T18:18:55Z</time>
      </trkpt>
      <trkpt lat="17.010522600" lon="-96.423557860">
        <ele>1735.800</ele>
        <time>2020-01-20T18:18:56Z</time>
      </trkpt>
      <trkpt lat="17.010464570" lon="-96.423641160">
        <ele>1734.400</ele>
        <time>2020-01-20T18:18:57Z</time>
      </trkpt>
      <trkpt lat="17.010407700" lon="-96.423726810">
        <ele>1733.700</ele>
        <time>2020-01-20T18:18:58Z</time>
      </trkpt>
      <trkpt lat="17.010348480" lon="-96.423817100">
        <ele>1733.600</ele>
        <time>2020-01-20T18:18:59Z</time>
      </trkpt>
      <trkpt lat="17.010280190" lon="-96.423911480">
        <ele>1733.000</ele>
        <time>2020-01-20T18:19:00Z</time>
      </trkpt>
      <trkpt lat="17.010210970" lon="-96.424012760">
        <ele>1732.800</ele>
        <time>2020-01-20T18:19:01Z</time>
      </trkpt>
      <trkpt lat="17.010139010" lon="-96.424115880">
        <ele>1733.000</ele>
        <time>2020-01-20T18:19:02Z</time>
      </trkpt>
      <trkpt lat="17.010064670" lon="-96.424223750">
        <ele>1732.200</ele>
        <time>2020-01-20T18:19:03Z</time>
      </trkpt>
      <trkpt lat="17.009991400" lon="-96.424327330">
        <ele>1732.300</ele>
        <time>2020-01-20T18:19:04Z</time>
      </trkpt>
      <trkpt lat="17.009917510" lon="-96.424437990">
        <ele>1732.000</ele>
        <time>2020-01-20T18:19:05Z</time>
      </trkpt>
      <trkpt lat="17.009846250" lon="-96.424544160">
        <ele>1731.500</ele>
        <time>2020-01-20T18:19:06Z</time>
      </trkpt>
      <trkpt lat="17.009771700" lon="-96.424647640">
        <ele>1731.200</ele>
        <time>2020-01-20T18:19:07Z</time>
      </trkpt>
      <trkpt lat="17.009700070" lon="-96.424755090">
        <ele>1730.900</ele>
        <time>2020-01-20T18:19:08Z</time>
      </trkpt>
      <trkpt lat="17.009634100" lon="-96.424860220">
        <ele>1730.400</ele>
        <time>2020-01-20T18:19:09Z</time>
      </trkpt>
      <trkpt lat="17.009563880" lon="-96.424962700">
        <ele>1730.100</ele>
        <time>2020-01-20T18:19:10Z</time>
      </trkpt>
      <trkpt lat="17.009493280" lon="-96.425059610">
        <ele>1730.200</ele>
        <time>2020-01-20T18:19:11Z</time>
      </trkpt>
      <trkpt lat="17.009417990" lon="-96.425159940">
        <ele>1730.000</ele>
        <time>2020-01-20T18:19:12Z</time>
      </trkpt>
      <trkpt lat="17.009348460" lon="-96.425261530">
        <ele>1730.400</ele>
        <time>2020-01-20T18:19:13Z</time>
      </trkpt>
      <trkpt lat="17.009265240" lon="-96.425361550">
        <ele>1730.600</ele>
        <time>2020-01-20T18:19:14Z</time>
      </trkpt>
      <trkpt lat="17.009173440" lon="-96.425458590">
        <ele>1731.300</ele>
        <time>2020-01-20T18:19:15Z</time>
      </trkpt>
      <trkpt lat="17.009069160" lon="-96.425550270">
        <ele>1731.900</ele>
        <time>2020-01-20T18:19:16Z</time>
      </trkpt>
      <trkpt lat="17.008961430" lon="-96.425639820">
        <ele>1732.800</ele>
        <time>2020-01-20T18:19:17Z</time>
      </trkpt>
      <trkpt lat="17.008848180" lon="-96.425726770">
        <ele>1733.400</ele>
        <time>2020-01-20T18:19:18Z</time>
      </trkpt>
      <trkpt lat="17.008727430" lon="-96.425806110">
        <ele>1734.100</ele>
        <time>2020-01-20T18:19:19Z</time>
      </trkpt>
      <trkpt lat="17.008604900" lon="-96.425884080">
        <ele>1734.300</ele>
        <time>2020-01-20T18:19:20Z</time>
      </trkpt>
      <trkpt lat="17.008482080" lon="-96.425963450">
        <ele>1734.600</ele>
        <time>2020-01-20T18:19:21Z</time>
      </trkpt>
      <trkpt lat="17.008357290" lon="-96.426040910">
        <ele>1735.000</ele>
        <time>2020-01-20T18:19:22Z</time>
      </trkpt>
      <trkpt lat="17.008234970" lon="-96.426116460">
        <ele>1735.400</ele>
        <time>2020-01-20T18:19:23Z</time>
      </trkpt>
      <trkpt lat="17.008111230" lon="-96.426203020">
        <ele>1735.200</ele>
        <time>2020-01-20T18:19:24Z</time>
      </trkpt>
      <trkpt lat="17.007991150" lon="-96.426285510">
        <ele>1735.500</ele>
        <time>2020-01-20T18:19:25Z</time>
      </trkpt>
      <trkpt lat="17.007872980" lon="-96.426365260">
        <ele>1735.400</ele>
        <time>2020-01-20T18:19:26Z</time>
      </trkpt>
      <trkpt lat="17.007749650" lon="-96.426440610">
        <ele>1735.500</ele>
        <time>2020-01-20T18:19:27Z</time>
      </trkpt>
      <trkpt lat="17.007632190" lon="-96.426514510">
        <ele>1735.300</ele>
        <time>2020-01-20T18:19:28Z</time>
      </trkpt>
      <trkpt lat="17.007518600" lon="-96.426590220">
        <ele>1735.100</ele>
        <time>2020-01-20T18:19:29Z</time>
      </trkpt>
      <trkpt lat="17.007402140" lon="-96.426668860">
        <ele>1734.800</ele>
        <time>2020-01-20T18:19:30Z</time>
      </trkpt>
      <trkpt lat="17.007281900" lon="-96.426744680">
        <ele>1734.200</ele>
        <time>2020-01-20T18:19:31Z</time>
      </trkpt>
      <trkpt lat="17.007162270" lon="-96.426825290">
        <ele>1733.200</ele>
        <time>2020-01-20T18:19:32Z</time>
      </trkpt>
      <trkpt lat="17.007042440" lon="-96.426904900">
        <ele>1732.200</ele>
        <time>2020-01-20T18:19:33Z</time>
      </trkpt>
      <trkpt lat="17.006922920" lon="-96.426986780">
        <ele>1731.500</ele>
        <time>2020-01-20T18:19:34Z</time>
      </trkpt>
      <trkpt lat="17.006803970" lon="-96.427068880">
        <ele>1730.400</ele>
        <time>2020-01-20T18:19:35Z</time>
      </trkpt>
      <trkpt lat="17.006684240" lon="-96.427148470">
        <ele>1729.800</ele>
        <time>2020-01-20T18:19:36Z</time>
      </trkpt>
      <trkpt lat="17.006564700" lon="-96.427226800">
        <ele>1728.900</ele>
        <time>2020-01-20T18:19:37Z</time>
      </trkpt>
      <trkpt lat="17.006440880" lon="-96.427297770">
        <ele>1728.500</ele>
        <time>2020-01-20T18:19:38Z</time>
      </trkpt>
      <trkpt lat="17.006309500" lon="-96.427358680">
        <ele>1727.800</ele>
        <time>2020-01-20T18:19:39Z</time>
      </trkpt>
      <trkpt lat="17.006171140" lon="-96.427405260">
        <ele>1727.500</ele>
        <time>2020-01-20T18:19:40Z</time>
      </trkpt>
      <trkpt lat="17.006025770" lon="-96.427432220">
        <ele>1727.200</ele>
        <time>2020-01-20T18:19:41Z</time>
      </trkpt>
      <trkpt lat="17.005878740" lon="-96.427443100">
        <ele>1727.400</ele>
        <time>2020-01-20T18:19:42Z</time>
      </trkpt>
      <trkpt lat="17.005727400" lon="-96.427438650">
        <ele>1728.200</ele>
        <time>2020-01-20T18:19:43Z</time>
      </trkpt>
      <trkpt lat="17.005582430" lon="-96.427422550">
        <ele>1729.200</ele>
        <time>2020-01-20T18:19:44Z</time>
      </trkpt>
      <trkpt lat="17.005440890" lon="-96.427407760">
        <ele>1730.300</ele>
        <time>2020-01-20T18:19:45Z</time>
      </trkpt>
      <trkpt lat="17.005307370" lon="-96.427396360">
        <ele>1731.100</ele>
        <time>2020-01-20T18:19:46Z</time>
      </trkpt>
      <trkpt lat="17.005178220" lon="-96.427385630">
        <ele>1732.200</ele>
        <time>2020-01-20T18:19:47Z</time>
      </trkpt>
      <trkpt lat="17.005048880" lon="-96.427373680">
        <ele>1732.800</ele>
        <time>2020-01-20T18:19:48Z</time>
      </trkpt>
      <trkpt lat="17.004922420" lon="-96.427365650">
        <ele>1733.500</ele>
        <time>2020-01-20T18:19:49Z</time>
      </trkpt>
      <trkpt lat="17.004797890" lon="-96.427357210">
        <ele>1733.900</ele>
        <time>2020-01-20T18:19:50Z</time>
      </trkpt>
      <trkpt lat="17.004673400" lon="-96.427349530">
        <ele>1734.200</ele>
        <time>2020-01-20T18:19:51Z</time>
      </trkpt>
      <trkpt lat="17.004559710" lon="-96.427338640">
        <ele>1734.700</ele>
        <time>2020-01-20T18:19:52Z</time>
      </trkpt>
      <trkpt lat="17.004449440" lon="-96.427338520">
        <ele>1735.000</ele>
        <time>2020-01-20T18:19:53Z</time>
      </trkpt>
      <trkpt lat="17.004348530" lon="-96.427353090">
        <ele>1735.300</ele>
        <time>2020-01-20T18:19:54Z</time>
      </trkpt>
      <trkpt lat="17.004250120" lon="-96.427395320">
        <ele>1735.400</ele>
        <time>2020-01-20T18:19:55Z</time>
      </trkpt>
      <trkpt lat="17.004171030" lon="-96.427454040">
        <ele>1736.600</ele>
        <time>2020-01-20T18:19:56Z</time>
      </trkpt>
      <trkpt lat="17.004103170" lon="-96.427529760">
        <ele>1737.000</ele>
        <time>2020-01-20T18:19:57Z</time>
      </trkpt>
      <trkpt lat="17.004041450" lon="-96.427618820">
        <ele>1737.900</ele>
        <time>2020-01-20T18:19:58Z</time>
      </trkpt>
      <trkpt lat="17.003980690" lon="-96.427705090">
        <ele>1738.800</ele>
        <time>2020-01-20T18:19:59Z</time>
      </trkpt>
      <trkpt lat="17.003918680" lon="-96.427789650">
        <ele>1739.500</ele>
        <time>2020-01-20T18:20:00Z</time>
      </trkpt>
      <trkpt lat="17.003853930" lon="-96.427862450">
        <ele>1740.200</ele>
        <time>2020-01-20T18:20:01Z</time>
      </trkpt>
      <trkpt lat="17.003778990" lon="-96.427924530">
        <ele>1741.300</ele>
        <time>2020-01-20T18:20:02Z</time>
      </trkpt>
      <trkpt lat="17.003694850" lon="-96.427970170">
        <ele>1741.700</ele>
        <time>2020-01-20T18:20:03Z</time>
      </trkpt>
      <trkpt lat="17.003604120" lon="-96.427999210">
        <ele>1741.400</ele>
        <time>2020-01-20T18:20:04Z</time>
      </trkpt>
      <trkpt lat="17.003512880" lon="-96.428011560">
        <ele>1741.700</ele>
        <time>2020-01-20T18:20:05Z</time>
      </trkpt>
      <trkpt lat="17.003419560" lon="-96.428016460">
        <ele>1741.900</ele>
        <time>2020-01-20T18:20:06Z</time>
      </trkpt>
      <trkpt lat="17.003325490" lon="-96.428014240">
        <ele>1742.200</ele>
        <time>2020-01-20T18:20:07Z</time>
      </trkpt>
      <trkpt lat="17.003233170" lon="-96.428015390">
        <ele>1742.500</ele>
        <time>2020-01-20T18:20:08Z</time>
      </trkpt>
      <trkpt lat="17.003141470" lon="-96.428011370">
        <ele>1742.700</ele>
        <time>2020-01-20T18:20:09Z</time>
      </trkpt>
      <trkpt lat="17.003050210" lon="-96.428021920">
        <ele>1742.700</ele>
        <time>2020-01-20T18:20:10Z</time>
      </trkpt>
      <trkpt lat="17.002960770" lon="-96.428040540">
        <ele>1742.600</ele>
        <time>2020-01-20T18:20:11Z</time>
      </trkpt>
      <trkpt lat="17.002881440" lon="-96.428084970">
        <ele>1745.800</ele>
        <time>2020-01-20T18:20:12Z</time>
      </trkpt>
      <trkpt lat="17.002811410" lon="-96.428136720">
        <ele>1745.300</ele>
        <time>2020-01-20T18:20:13Z</time>
      </trkpt>
      <trkpt lat="17.002765250" lon="-96.428224600">
        <ele>1744.500</ele>
        <time>2020-01-20T18:20:14Z</time>
      </trkpt>
      <trkpt lat="17.002720070" lon="-96.428318030">
        <ele>1743.700</ele>
        <time>2020-01-20T18:20:15Z</time>
      </trkpt>
      <trkpt lat="17.002679530" lon="-96.428415670">
        <ele>1742.600</ele>
        <time>2020-01-20T18:20:16Z</time>
      </trkpt>
      <trkpt lat="17.002635510" lon="-96.428516440">
        <ele>1742.300</ele>
        <time>2020-01-20T18:20:17Z</time>
      </trkpt>
      <trkpt lat="17.002588180" lon="-96.428623300">
        <ele>1741.600</ele>
        <time>2020-01-20T18:20:18Z</time>
      </trkpt>
      <trkpt lat="17.002538250" lon="-96.428729030">
        <ele>1740.600</ele>
        <time>2020-01-20T18:20:19Z</time>
      </trkpt>
      <trkpt lat="17.002485080" lon="-96.428835230">
        <ele>1740.200</ele>
        <time>2020-01-20T18:20:20Z</time>
      </trkpt>
      <trkpt lat="17.002435080" lon="-96.428936840">
        <ele>1739.500</ele>
        <time>2020-01-20T18:20:21Z</time>
      </trkpt>
      <trkpt lat="17.002384940" lon="-96.429036410">
        <ele>1739.700</ele>
        <time>2020-01-20T18:20:22Z</time>
      </trkpt>
      <trkpt lat="17.002346930" lon="-96.429130190">
        <ele>1739.300</ele>
        <time>2020-01-20T18:20:23Z</time>
      </trkpt>
      <trkpt lat="17.002328170" lon="-96.429229080">
        <ele>1738.300</ele>
        <time>2020-01-20T18:20:24Z</time>
      </trkpt>
      <trkpt lat="17.002324870" lon="-96.429334050">
        <ele>1738.100</ele>
        <time>2020-01-20T18:20:25Z</time>
      </trkpt>
      <trkpt lat="17.002343300" lon="-96.429442460">
        <ele>1737.000</ele>
        <time>2020-01-20T18:20:26Z</time>
      </trkpt>
      <trkpt lat="17.002366490" lon="-96.429549250">
        <ele>1736.500</ele>
        <time>2020-01-20T18:20:27Z</time>
      </trkpt>
      <trkpt lat="17.002384240" lon="-96.429655730">
        <ele>1735.800</ele>
        <time>2020-01-20T18:20:28Z</time>
      </trkpt>
      <trkpt lat="17.002399750" lon="-96.429758590">
        <ele>1735.300</ele>
        <time>2020-01-20T18:20:29Z</time>
      </trkpt>
      <trkpt lat="17.002413180" lon="-96.429868210">
        <ele>1735.100</ele>
        <time>2020-01-20T18:20:30Z</time>
      </trkpt>
      <trkpt lat="17.002413350" lon="-96.429978920">
        <ele>1734.400</ele>
        <time>2020-01-20T18:20:31Z</time>
      </trkpt>
      <trkpt lat="17.002407590" lon="-96.430097270">
        <ele>1734.000</ele>
        <time>2020-01-20T18:20:32Z</time>
      </trkpt>
      <trkpt lat="17.002379640" lon="-96.430207740">
        <ele>1733.600</ele>
        <time>2020-01-20T18:20:33Z</time>
      </trkpt>
      <trkpt lat="17.002342620" lon="-96.430313740">
        <ele>1732.800</ele>
        <time>2020-01-20T18:20:34Z</time>
      </trkpt>
      <trkpt lat="17.002303620" lon="-96.430416080">
        <ele>1732.400</ele>
        <time>2020-01-20T18:20:35Z</time>
      </trkpt>
      <trkpt lat="17.002267940" lon="-96.430510680">
        <ele>1731.400</ele>
        <time>2020-01-20T18:20:36Z</time>
      </trkpt>
      <trkpt lat="17.002234510" lon="-96.430601060">
        <ele>1730.800</ele>
        <time>2020-01-20T18:20:37Z</time>
      </trkpt>
      <trkpt lat="17.002206040" lon="-96.430679450">
        <ele>1730.600</ele>
        <time>2020-01-20T18:20:38Z</time>
      </trkpt>
      <trkpt lat="17.002178240" lon="-96.430748520">
        <ele>1730.300</ele>
        <time>2020-01-20T18:20:39Z</time>
      </trkpt>
      <trkpt lat="17.002149430" lon="-96.430805640">
        <ele>1729.500</ele>
        <time>2020-01-20T18:20:40Z</time>
      </trkpt>
      <trkpt lat="17.002117830" lon="-96.430861300">
        <ele>1729.100</ele>
        <time>2020-01-20T18:20:41Z</time>
      </trkpt>
      <trkpt lat="17.002087850" lon="-96.430901920">
        <ele>1728.500</ele>
        <time>2020-01-20T18:20:42Z</time>
      </trkpt>
      <trkpt lat="17.002051830" lon="-96.430938660">
        <ele>1728.600</ele>
        <time>2020-01-20T18:20:43Z</time>
      </trkpt>
      <trkpt lat="17.002010890" lon="-96.430968190">
        <ele>1727.800</ele>
        <time>2020-01-20T18:20:44Z</time>
      </trkpt>
      <trkpt lat="17.001959170" lon="-96.430995670">
        <ele>1727.100</ele>
        <time>2020-01-20T18:20:45Z</time>
      </trkpt>
      <trkpt lat="17.001905980" lon="-96.431014140">
        <ele>1726.300</ele>
        <time>2020-01-20T18:20:46Z</time>
      </trkpt>
      <trkpt lat="17.001851070" lon="-96.431030510">
        <ele>1725.800</ele>
        <time>2020-01-20T18:20:47Z</time>
      </trkpt>
      <trkpt lat="17.001797580" lon="-96.431045340">
        <ele>1724.900</ele>
        <time>2020-01-20T18:20:48Z</time>
      </trkpt>
      <trkpt lat="17.001739120" lon="-96.431061770">
        <ele>1724.000</ele>
        <time>2020-01-20T18:20:49Z</time>
      </trkpt>
      <trkpt lat="17.001677020" lon="-96.431081950">
        <ele>1723.000</ele>
        <time>2020-01-20T18:20:50Z</time>
      </trkpt>
      <trkpt lat="17.001613060" lon="-96.431097770">
        <ele>1722.300</ele>
        <time>2020-01-20T18:20:51Z</time>
      </trkpt>
      <trkpt lat="17.001546350" lon="-96.431123340">
        <ele>1721.200</ele>
        <time>2020-01-20T18:20:52Z</time>
      </trkpt>
      <trkpt lat="17.001478040" lon="-96.431152020">
        <ele>1720.200</ele>
        <time>2020-01-20T18:20:53Z</time>
      </trkpt>
      <trkpt lat="17.001410160" lon="-96.431177840">
        <ele>1719.800</ele>
        <time>2020-01-20T18:20:54Z</time>
      </trkpt>
      <trkpt lat="17.001348310" lon="-96.431196780">
        <ele>1719.100</ele>
        <time>2020-01-20T18:20:55Z</time>
      </trkpt>
      <trkpt lat="17.001289410" lon="-96.431219930">
        <ele>1718.800</ele>
        <time>2020-01-20T18:20:56Z</time>
      </trkpt>
      <trkpt lat="17.001229130" lon="-96.431244590">
        <ele>1718.400</ele>
        <time>2020-01-20T18:20:57Z</time>
      </trkpt>
      <trkpt lat="17.001163510" lon="-96.431271910">
        <ele>1718.200</ele>
        <time>2020-01-20T18:20:58Z</time>
      </trkpt>
      <trkpt lat="17.001097820" lon="-96.431307320">
        <ele>1717.900</ele>
        <time>2020-01-20T18:20:59Z</time>
      </trkpt>
      <trkpt lat="17.001028650" lon="-96.431336150">
        <ele>1717.700</ele>
        <time>2020-01-20T18:21:00Z</time>
      </trkpt>
      <trkpt lat="17.000960210" lon="-96.431368480">
        <ele>1717.000</ele>
        <time>2020-01-20T18:21:01Z</time>
      </trkpt>
      <trkpt lat="17.000889020" lon="-96.431393500">
        <ele>1716.700</ele>
        <time>2020-01-20T18:21:02Z</time>
      </trkpt>
      <trkpt lat="17.000819340" lon="-96.431419390">
        <ele>1716.700</ele>
        <time>2020-01-20T18:21:03Z</time>
      </trkpt>
      <trkpt lat="17.000747680" lon="-96.431445180">
        <ele>1716.700</ele>
        <time>2020-01-20T18:21:04Z</time>
      </trkpt>
      <trkpt lat="17.000678820" lon="-96.431471590">
        <ele>1716.500</ele>
        <time>2020-01-20T18:21:05Z</time>
      </trkpt>
      <trkpt lat="17.000606640" lon="-96.431499740">
        <ele>1716.700</ele>
        <time>2020-01-20T18:21:06Z</time>
      </trkpt>
      <trkpt lat="17.000540800" lon="-96.431537350">
        <ele>1716.200</ele>
        <time>2020-01-20T18:21:07Z</time>
      </trkpt>
      <trkpt lat="17.000473790" lon="-96.431572160">
        <ele>1715.400</ele>
        <time>2020-01-20T18:21:08Z</time>
      </trkpt>
      <trkpt lat="17.000407270" lon="-96.431608160">
        <ele>1715.000</ele>
        <time>2020-01-20T18:21:09Z</time>
      </trkpt>
      <trkpt lat="17.000346090" lon="-96.431642160">
        <ele>1715.200</ele>
        <time>2020-01-20T18:21:10Z</time>
      </trkpt>
      <trkpt lat="17.000279170" lon="-96.431665700">
        <ele>1715.100</ele>
        <time>2020-01-20T18:21:11Z</time>
      </trkpt>
      <trkpt lat="17.000216750" lon="-96.431691830">
        <ele>1714.500</ele>
        <time>2020-01-20T18:21:12Z</time>
      </trkpt>
      <trkpt lat="17.000151850" lon="-96.431719030">
        <ele>1714.200</ele>
        <time>2020-01-20T18:21:13Z</time>
      </trkpt>
      <trkpt lat="17.000091400" lon="-96.431740980">
        <ele>1714.400</ele>
        <time>2020-01-20T18:21:14Z</time>
      </trkpt>
      <trkpt lat="17.000024000" lon="-96.431769010">
        <ele>1713.300</ele>
        <time>2020-01-20T18:21:15Z</time>
      </trkpt>
      <trkpt lat="16.999964840" lon="-96.431793070">
        <ele>1713.300</ele>
        <time>2020-01-20T18:21:16Z</time>
      </trkpt>
      <trkpt lat="16.999904110" lon="-96.431817030">
        <ele>1713.200</ele>
        <time>2020-01-20T18:21:17Z</time>
      </trkpt>
      <trkpt lat="16.999853590" lon="-96.431846820">
        <ele>1713.600</ele>
        <time>2020-01-20T18:21:18Z</time>
      </trkpt>
      <trkpt lat="16.999807410" lon="-96.431868270">
        <ele>1713.000</ele>
        <time>2020-01-20T18:21:19Z</time>
      </trkpt>
      <trkpt lat="16.999761590" lon="-96.431886880">
        <ele>1712.600</ele>
        <time>2020-01-20T18:21:20Z</time>
      </trkpt>
      <trkpt lat="16.999721390" lon="-96.431901770">
        <ele>1712.600</ele>
        <time>2020-01-20T18:21:21Z</time>
      </trkpt>
      <trkpt lat="16.999659270" lon="-96.431929960">
        <ele>1712.300</ele>
        <time>2020-01-20T18:21:23Z</time>
      </trkpt>
      <trkpt lat="16.999594880" lon="-96.431959360">
        <ele>1711.700</ele>
        <time>2020-01-20T18:21:25Z</time>
      </trkpt>
      <trkpt lat="16.999556280" lon="-96.431974490">
        <ele>1712.000</ele>
        <time>2020-01-20T18:21:26Z</time>
      </trkpt>
      <trkpt lat="16.999519030" lon="-96.431981900">
        <ele>1711.300</ele>
        <time>2020-01-20T18:21:27Z</time>
      </trkpt>
      <trkpt lat="16.999454070" lon="-96.431953510">
        <ele>1710.100</ele>
        <time>2020-01-20T18:21:29Z</time>
      </trkpt>
      <trkpt lat="16.999415650" lon="-96.431892920">
        <ele>1710.300</ele>
        <time>2020-01-20T18:21:31Z</time>
      </trkpt>
      <trkpt lat="16.999398330" lon="-96.431843420">
        <ele>1709.900</ele>
        <time>2020-01-20T18:21:33Z</time>
      </trkpt>
      <trkpt lat="16.999386030" lon="-96.431794390">
        <ele>1709.600</ele>
        <time>2020-01-20T18:21:35Z</time>
      </trkpt>
      <trkpt lat="16.999365000" lon="-96.431724680">
        <ele>1709.500</ele>
        <time>2020-01-20T18:21:37Z</time>
      </trkpt>
      <trkpt lat="16.999348270" lon="-96.431674300">
        <ele>1709.500</ele>
        <time>2020-01-20T18:21:38Z</time>
      </trkpt>
      <trkpt lat="16.999327660" lon="-96.431627270">
        <ele>1709.500</ele>
        <time>2020-01-20T18:21:39Z</time>
      </trkpt>
      <trkpt lat="16.999304850" lon="-96.431577040">
        <ele>1709.400</ele>
        <time>2020-01-20T18:21:40Z</time>
      </trkpt>
      <trkpt lat="16.999280780" lon="-96.431526750">
        <ele>1709.400</ele>
        <time>2020-01-20T18:21:41Z</time>
      </trkpt>
      <trkpt lat="16.999262330" lon="-96.431474140">
        <ele>1709.500</ele>
        <time>2020-01-20T18:21:42Z</time>
      </trkpt>
      <trkpt lat="16.999244820" lon="-96.431428870">
        <ele>1708.800</ele>
        <time>2020-01-20T18:21:43Z</time>
      </trkpt>
      <trkpt lat="16.999221200" lon="-96.431387780">
        <ele>1709.700</ele>
        <time>2020-01-20T18:21:44Z</time>
      </trkpt>
      <trkpt lat="16.999204590" lon="-96.431352070">
        <ele>1709.700</ele>
        <time>2020-01-20T18:21:45Z</time>
      </trkpt>
      <trkpt lat="16.999174650" lon="-96.431303820">
        <ele>1709.700</ele>
        <time>2020-01-20T18:21:47Z</time>
      </trkpt>
      <trkpt lat="16.999150280" lon="-96.431260230">
        <ele>1709.400</ele>
        <time>2020-01-20T18:21:49Z</time>
      </trkpt>
      <trkpt lat="16.999132730" lon="-96.431226440">
        <ele>1709.300</ele>
        <time>2020-01-20T18:21:50Z</time>
      </trkpt>
      <trkpt lat="16.999109950" lon="-96.431184180">
        <ele>1709.200</ele>
        <time>2020-01-20T18:21:51Z</time>
      </trkpt>
      <trkpt lat="16.999087940" lon="-96.431139780">
        <ele>1709.200</ele>
        <time>2020-01-20T18:21:52Z</time>
      </trkpt>
      <trkpt lat="16.999067780" lon="-96.431097890">
        <ele>1709.200</ele>
        <time>2020-01-20T18:21:53Z</time>
      </trkpt>
      <trkpt lat="16.999037000" lon="-96.431044230">
        <ele>1708.600</ele>
        <time>2020-01-20T18:21:55Z</time>
      </trkpt>
      <trkpt lat="16.999013160" lon="-96.431000760">
        <ele>1708.200</ele>
        <time>2020-01-20T18:21:57Z</time>
      </trkpt>
      <trkpt lat="16.998971210" lon="-96.430919380">
        <ele>1708.100</ele>
        <time>2020-01-20T18:21:59Z</time>
      </trkpt>
      <trkpt lat="16.998948760" lon="-96.430874810">
        <ele>1708.100</ele>
        <time>2020-01-20T18:22:00Z</time>
      </trkpt>
      <trkpt lat="16.998923560" lon="-96.430831380">
        <ele>1707.900</ele>
        <time>2020-01-20T18:22:01Z</time>
      </trkpt>
      <trkpt lat="16.998902240" lon="-96.430782700">
        <ele>1707.700</ele>
        <time>2020-01-20T18:22:02Z</time>
      </trkpt>
      <trkpt lat="16.998885220" lon="-96.430728750">
        <ele>1707.900</ele>
        <time>2020-01-20T18:22:03Z</time>
      </trkpt>
      <trkpt lat="16.998856910" lon="-96.430682110">
        <ele>1707.600</ele>
        <time>2020-01-20T18:22:04Z</time>
      </trkpt>
      <trkpt lat="16.998838650" lon="-96.430642030">
        <ele>1706.800</ele>
        <time>2020-01-20T18:22:05Z</time>
      </trkpt>
      <trkpt lat="16.998821200" lon="-96.430596220">
        <ele>1706.900</ele>
        <time>2020-01-20T18:22:06Z</time>
      </trkpt>
      <trkpt lat="16.998800790" lon="-96.430562160">
        <ele>1706.200</ele>
        <time>2020-01-20T18:22:07Z</time>
      </trkpt>
      <trkpt lat="16.998774360" lon="-96.430508650">
        <ele>1705.200</ele>
        <time>2020-01-20T18:22:09Z</time>
      </trkpt>
      <trkpt lat="16.998755360" lon="-96.430463370">
        <ele>1705.400</ele>
        <time>2020-01-20T18:22:11Z</time>
      </trkpt>
      <trkpt lat="16.998722120" lon="-96.430419700">
        <ele>1705.200</ele>
        <time>2020-01-20T18:22:13Z</time>
      </trkpt>
      <trkpt lat="16.998661420" lon="-96.430402520">
        <ele>1719.600</ele>
        <time>2020-01-20T18:22:15Z</time>
      </trkpt>
      <trkpt lat="16.998626490" lon="-96.430413170">
        <ele>1713.100</ele>
        <time>2020-01-20T18:22:16Z</time>
      </trkpt>
      <trkpt lat="16.998592530" lon="-96.430434700">
        <ele>1710.200</ele>
        <time>2020-01-20T18:22:17Z</time>
      </trkpt>
      <trkpt lat="16.998559260" lon="-96.430462790">
        <ele>1708.600</ele>
        <time>2020-01-20T18:22:18Z</time>
      </trkpt>
      <trkpt lat="16.998516620" lon="-96.430488420">
        <ele>1707.400</ele>
        <time>2020-01-20T18:22:19Z</time>
      </trkpt>
      <trkpt lat="16.998481020" lon="-96.430517850">
        <ele>1707.300</ele>
        <time>2020-01-20T18:22:20Z</time>
      </trkpt>
      <trkpt lat="16.998436080" lon="-96.430548630">
        <ele>1706.600</ele>
        <time>2020-01-20T18:22:21Z</time>
      </trkpt>
      <trkpt lat="16.998386400" lon="-96.430578310">
        <ele>1705.300</ele>
        <time>2020-01-20T18:22:22Z</time>
      </trkpt>
      <trkpt lat="16.998342380" lon="-96.430601840">
        <ele>1704.600</ele>
        <time>2020-01-20T18:22:23Z</time>
      </trkpt>
      <trkpt lat="16.998292540" lon="-96.430632480">
        <ele>1704.100</ele>
        <time>2020-01-20T18:22:24Z</time>
      </trkpt>
      <trkpt lat="16.998251980" lon="-96.430662030">
        <ele>1702.800</ele>
        <time>2020-01-20T18:22:25Z</time>
      </trkpt>
      <trkpt lat="16.998211100" lon="-96.430687330">
        <ele>1701.600</ele>
        <time>2020-01-20T18:22:26Z</time>
      </trkpt>
      <trkpt lat="16.998164420" lon="-96.430713700">
        <ele>1700.600</ele>
        <time>2020-01-20T18:22:27Z</time>
      </trkpt>
      <trkpt lat="16.998119040" lon="-96.430743600">
        <ele>1700.200</ele>
        <time>2020-01-20T18:22:28Z</time>
      </trkpt>
      <trkpt lat="16.998071080" lon="-96.430768430">
        <ele>1699.800</ele>
        <time>2020-01-20T18:22:29Z</time>
      </trkpt>
      <trkpt lat="16.998023720" lon="-96.430790950">
        <ele>1699.700</ele>
        <time>2020-01-20T18:22:30Z</time>
      </trkpt>
      <trkpt lat="16.997976590" lon="-96.430807770">
        <ele>1700.100</ele>
        <time>2020-01-20T18:22:31Z</time>
      </trkpt>
      <trkpt lat="16.997939070" lon="-96.430829320">
        <ele>1700.000</ele>
        <time>2020-01-20T18:22:32Z</time>
      </trkpt>
      <trkpt lat="16.997905570" lon="-96.430847090">
        <ele>1700.300</ele>
        <time>2020-01-20T18:22:33Z</time>
      </trkpt>
      <trkpt lat="16.997856320" lon="-96.430878410">
        <ele>1700.100</ele>
        <time>2020-01-20T18:22:35Z</time>
      </trkpt>
      <trkpt lat="16.997809980" lon="-96.430903080">
        <ele>1700.000</ele>
        <time>2020-01-20T18:22:37Z</time>
      </trkpt>
      <trkpt lat="16.997769130" lon="-96.430925090">
        <ele>1699.600</ele>
        <time>2020-01-20T18:22:39Z</time>
      </trkpt>
      <trkpt lat="16.997720550" lon="-96.430946500">
        <ele>1699.700</ele>
        <time>2020-01-20T18:22:41Z</time>
      </trkpt>
      <trkpt lat="16.997668150" lon="-96.430965340">
        <ele>1700.100</ele>
        <time>2020-01-20T18:22:43Z</time>
      </trkpt>
      <trkpt lat="16.997616790" lon="-96.430982810">
        <ele>1699.800</ele>
        <time>2020-01-20T18:22:45Z</time>
      </trkpt>
      <trkpt lat="16.997557940" lon="-96.431003610">
        <ele>1699.800</ele>
        <time>2020-01-20T18:22:47Z</time>
      </trkpt>
      <trkpt lat="16.997492620" lon="-96.431028510">
        <ele>1699.100</ele>
        <time>2020-01-20T18:22:49Z</time>
      </trkpt>
      <trkpt lat="16.997421880" lon="-96.431054750">
        <ele>1699.000</ele>
        <time>2020-01-20T18:22:51Z</time>
      </trkpt>
      <trkpt lat="16.997385570" lon="-96.431067340">
        <ele>1698.800</ele>
        <time>2020-01-20T18:22:52Z</time>
      </trkpt>
      <trkpt lat="16.997320180" lon="-96.431088640">
        <ele>1698.700</ele>
        <time>2020-01-20T18:22:54Z</time>
      </trkpt>
      <trkpt lat="16.997259380" lon="-96.431107080">
        <ele>1699.100</ele>
        <time>2020-01-20T18:22:56Z</time>
      </trkpt>
      <trkpt lat="16.997224250" lon="-96.431117480">
        <ele>1699.100</ele>
        <time>2020-01-20T18:22:57Z</time>
      </trkpt>
      <trkpt lat="16.997188150" lon="-96.431128400">
        <ele>1698.900</ele>
        <time>2020-01-20T18:22:58Z</time>
      </trkpt>
      <trkpt lat="16.997152230" lon="-96.431139360">
        <ele>1698.800</ele>
        <time>2020-01-20T18:22:59Z</time>
      </trkpt>
      <trkpt lat="16.997116630" lon="-96.431150180">
        <ele>1698.900</ele>
        <time>2020-01-20T18:23:00Z</time>
      </trkpt>
      <trkpt lat="16.997079990" lon="-96.431161850">
        <ele>1698.900</ele>
        <time>2020-01-20T18:23:01Z</time>
      </trkpt>
      <trkpt lat="16.997041110" lon="-96.431174500">
        <ele>1698.900</ele>
        <time>2020-01-20T18:23:02Z</time>
      </trkpt>
      <trkpt lat="16.997002210" lon="-96.431186670">
        <ele>1698.700</ele>
        <time>2020-01-20T18:23:03Z</time>
      </trkpt>
      <trkpt lat="16.996965830" lon="-96.431197910">
        <ele>1698.600</ele>
        <time>2020-01-20T18:23:04Z</time>
      </trkpt>
      <trkpt lat="16.996929270" lon="-96.431208760">
        <ele>1698.700</ele>
        <time>2020-01-20T18:23:05Z</time>
      </trkpt>
      <trkpt lat="16.996893220" lon="-96.431219970">
        <ele>1698.600</ele>
        <time>2020-01-20T18:23:06Z</time>
      </trkpt>
      <trkpt lat="16.996856160" lon="-96.431230890">
        <ele>1698.500</ele>
        <time>2020-01-20T18:23:07Z</time>
      </trkpt>
      <trkpt lat="16.996820080" lon="-96.431242300">
        <ele>1698.600</ele>
        <time>2020-01-20T18:23:08Z</time>
      </trkpt>
      <trkpt lat="16.996751910" lon="-96.431263980">
        <ele>1698.700</ele>
        <time>2020-01-20T18:23:10Z</time>
      </trkpt>
      <trkpt lat="16.996683460" lon="-96.431286750">
        <ele>1699.300</ele>
        <time>2020-01-20T18:23:12Z</time>
      </trkpt>
      <trkpt lat="16.996619250" lon="-96.431305180">
        <ele>1699.500</ele>
        <time>2020-01-20T18:23:14Z</time>
      </trkpt>
      <trkpt lat="16.996551030" lon="-96.431315910">
        <ele>1698.700</ele>
        <time>2020-01-20T18:23:16Z</time>
      </trkpt>
      <trkpt lat="16.996477360" lon="-96.431317310">
        <ele>1698.900</ele>
        <time>2020-01-20T18:23:18Z</time>
      </trkpt>
      <trkpt lat="16.996406580" lon="-96.431305520">
        <ele>1698.500</ele>
        <time>2020-01-20T18:23:20Z</time>
      </trkpt>
      <trkpt lat="16.996341560" lon="-96.431294020">
        <ele>1698.400</ele>
        <time>2020-01-20T18:23:22Z</time>
      </trkpt>
      <trkpt lat="16.996276450" lon="-96.431287470">
        <ele>1698.100</ele>
        <time>2020-01-20T18:23:24Z</time>
      </trkpt>
      <trkpt lat="16.996211210" lon="-96.431299710">
        <ele>1697.600</ele>
        <time>2020-01-20T18:23:26Z</time>
      </trkpt>
      <trkpt lat="16.996170980" lon="-96.431339850">
        <ele>1695.400</ele>
        <time>2020-01-20T18:23:28Z</time>
      </trkpt>
      <trkpt lat="16.996156160" lon="-96.431386150">
        <ele>1695.600</ele>
        <time>2020-01-20T18:23:30Z</time>
      </trkpt>
      <trkpt lat="16.996144450" lon="-96.431428300">
        <ele>1697.400</ele>
        <time>2020-01-20T18:23:32Z</time>
      </trkpt>
      <trkpt lat="16.996126590" lon="-96.431496790">
        <ele>1696.500</ele>
        <time>2020-01-20T18:23:34Z</time>
      </trkpt>
      <trkpt lat="16.996111620" lon="-96.431574410">
        <ele>1695.700</ele>
        <time>2020-01-20T18:23:36Z</time>
      </trkpt>
      <trkpt lat="16.996107250" lon="-96.431612230">
        <ele>1695.900</ele>
        <time>2020-01-20T18:23:37Z</time>
      </trkpt>
      <trkpt lat="16.996106450" lon="-96.431672250">
        <ele>1695.900</ele>
        <time>2020-01-20T18:23:39Z</time>
      </trkpt>
      <trkpt lat="16.996104090" lon="-96.431734520">
        <ele>1696.700</ele>
        <time>2020-01-20T18:23:41Z</time>
      </trkpt>
      <trkpt lat="16.996112240" lon="-96.431804540">
        <ele>1696.700</ele>
        <time>2020-01-20T18:23:43Z</time>
      </trkpt>
      <trkpt lat="16.996119920" lon="-96.431842070">
        <ele>1696.700</ele>
        <time>2020-01-20T18:23:44Z</time>
      </trkpt>
      <trkpt lat="16.996128960" lon="-96.431879560">
        <ele>1696.900</ele>
        <time>2020-01-20T18:23:45Z</time>
      </trkpt>
      <trkpt lat="16.996139390" lon="-96.431915940">
        <ele>1697.500</ele>
        <time>2020-01-20T18:23:46Z</time>
      </trkpt>
      <trkpt lat="16.996159230" lon="-96.431988460">
        <ele>1697.600</ele>
        <time>2020-01-20T18:23:48Z</time>
      </trkpt>
      <trkpt lat="16.996169180" lon="-96.432026010">
        <ele>1697.600</ele>
        <time>2020-01-20T18:23:49Z</time>
      </trkpt>
      <trkpt lat="16.996181960" lon="-96.432067760">
        <ele>1698.200</ele>
        <time>2020-01-20T18:23:50Z</time>
      </trkpt>
      <trkpt lat="16.996193160" lon="-96.432108380">
        <ele>1698.600</ele>
        <time>2020-01-20T18:23:51Z</time>
      </trkpt>
      <trkpt lat="16.996205020" lon="-96.432145970">
        <ele>1699.100</ele>
        <time>2020-01-20T18:23:52Z</time>
      </trkpt>
      <trkpt lat="16.996215140" lon="-96.432183440">
        <ele>1699.100</ele>
        <time>2020-01-20T18:23:53Z</time>
      </trkpt>
      <trkpt lat="16.996224680" lon="-96.432220410">
        <ele>1699.500</ele>
        <time>2020-01-20T18:23:54Z</time>
      </trkpt>
      <trkpt lat="16.996240300" lon="-96.432289840">
        <ele>1700.600</ele>
        <time>2020-01-20T18:23:56Z</time>
      </trkpt>
      <trkpt lat="16.996257500" lon="-96.432355880">
        <ele>1701.600</ele>
        <time>2020-01-20T18:23:58Z</time>
      </trkpt>
      <trkpt lat="16.996275390" lon="-96.432405960">
        <ele>1702.100</ele>
        <time>2020-01-20T18:24:00Z</time>
      </trkpt>
      <trkpt lat="16.996292900" lon="-96.432446920">
        <ele>1703.000</ele>
        <time>2020-01-20T18:24:02Z</time>
      </trkpt>
      <trkpt lat="16.996305060" lon="-96.432484670">
        <ele>1703.400</ele>
        <time>2020-01-20T18:24:04Z</time>
      </trkpt>
      <trkpt lat="16.996318990" lon="-96.432528110">
        <ele>1703.200</ele>
        <time>2020-01-20T18:24:06Z</time>
      </trkpt>
      <trkpt lat="16.996328910" lon="-96.432567890">
        <ele>1703.700</ele>
        <time>2020-01-20T18:24:08Z</time>
      </trkpt>
      <trkpt lat="16.996332130" lon="-96.432605900">
        <ele>1703.300</ele>
        <time>2020-01-20T18:24:10Z</time>
      </trkpt>
      <trkpt lat="16.996322850" lon="-96.432651480">
        <ele>1703.800</ele>
        <time>2020-01-20T18:24:12Z</time>
      </trkpt>
      <trkpt lat="16.996293130" lon="-96.432683980">
        <ele>1703.800</ele>
        <time>2020-01-20T18:24:14Z</time>
      </trkpt>
      <trkpt lat="16.996258720" lon="-96.432702220">
        <ele>1704.400</ele>
        <time>2020-01-20T18:24:16Z</time>
      </trkpt>
      <trkpt lat="16.996210450" lon="-96.432721810">
        <ele>1704.100</ele>
        <time>2020-01-20T18:24:18Z</time>
      </trkpt>
      <trkpt lat="16.996157080" lon="-96.432747040">
        <ele>1704.100</ele>
        <time>2020-01-20T18:24:20Z</time>
      </trkpt>
      <trkpt lat="16.996101500" lon="-96.432777940">
        <ele>1703.200</ele>
        <time>2020-01-20T18:24:22Z</time>
      </trkpt>
      <trkpt lat="16.996042030" lon="-96.432807870">
        <ele>1703.900</ele>
        <time>2020-01-20T18:24:24Z</time>
      </trkpt>
      <trkpt lat="16.995984980" lon="-96.432840000">
        <ele>1705.500</ele>
        <time>2020-01-20T18:24:26Z</time>
      </trkpt>
      <trkpt lat="16.995924480" lon="-96.432869600">
        <ele>1705.900</ele>
        <time>2020-01-20T18:24:28Z</time>
      </trkpt>
      <trkpt lat="16.995891550" lon="-96.432885430">
        <ele>1706.100</ele>
        <time>2020-01-20T18:24:29Z</time>
      </trkpt>
      <trkpt lat="16.995855900" lon="-96.432902740">
        <ele>1706.400</ele>
        <time>2020-01-20T18:24:30Z</time>
      </trkpt>
      <trkpt lat="16.995822720" lon="-96.432918210">
        <ele>1706.600</ele>
        <time>2020-01-20T18:24:31Z</time>
      </trkpt>
      <trkpt lat="16.995762880" lon="-96.432945390">
        <ele>1706.800</ele>
        <time>2020-01-20T18:24:33Z</time>
      </trkpt>
      <trkpt lat="16.995703750" lon="-96.432974680">
        <ele>1707.600</ele>
        <time>2020-01-20T18:24:35Z</time>
      </trkpt>
      <trkpt lat="16.995649480" lon="-96.433002830">
        <ele>1707.800</ele>
        <time>2020-01-20T18:24:37Z</time>
      </trkpt>
      <trkpt lat="16.995598180" lon="-96.433030990">
        <ele>1707.600</ele>
        <time>2020-01-20T18:24:39Z</time>
      </trkpt>
      <trkpt lat="16.995549980" lon="-96.433054900">
        <ele>1708.700</ele>
        <time>2020-01-20T18:24:41Z</time>
      </trkpt>
      <trkpt lat="16.995506650" lon="-96.433078540">
        <ele>1709.100</ele>
        <time>2020-01-20T18:24:43Z</time>
      </trkpt>
      <trkpt lat="16.995461430" lon="-96.433104610">
        <ele>1709.000</ele>
        <time>2020-01-20T18:24:45Z</time>
      </trkpt>
      <trkpt lat="16.995406400" lon="-96.433130100">
        <ele>1709.000</ele>
        <time>2020-01-20T18:24:47Z</time>
      </trkpt>
      <trkpt lat="16.995347420" lon="-96.433153520">
        <ele>1709.100</ele>
        <time>2020-01-20T18:24:49Z</time>
      </trkpt>
      <trkpt lat="16.995284540" lon="-96.433188550">
        <ele>1709.000</ele>
        <time>2020-01-20T18:24:51Z</time>
      </trkpt>
      <trkpt lat="16.995264480" lon="-96.433226300">
        <ele>1709.000</ele>
        <time>2020-01-20T18:24:52Z</time>
      </trkpt>
      <trkpt lat="16.995260540" lon="-96.433269990">
        <ele>1709.400</ele>
        <time>2020-01-20T18:24:53Z</time>
      </trkpt>
      <trkpt lat="16.995268440" lon="-96.433322190">
        <ele>1709.600</ele>
        <time>2020-01-20T18:24:54Z</time>
      </trkpt>
      <trkpt lat="16.995275960" lon="-96.433377140">
        <ele>1709.900</ele>
        <time>2020-01-20T18:24:55Z</time>
      </trkpt>
      <trkpt lat="16.995283710" lon="-96.433430240">
        <ele>1710.400</ele>
        <time>2020-01-20T18:24:56Z</time>
      </trkpt>
      <trkpt lat="16.995283180" lon="-96.433483330">
        <ele>1710.100</ele>
        <time>2020-01-20T18:24:57Z</time>
      </trkpt>
      <trkpt lat="16.995291050" lon="-96.433534570">
        <ele>1710.900</ele>
        <time>2020-01-20T18:24:58Z</time>
      </trkpt>
      <trkpt lat="16.995298710" lon="-96.433589980">
        <ele>1711.300</ele>
        <time>2020-01-20T18:24:59Z</time>
      </trkpt>
      <trkpt lat="16.995308890" lon="-96.433647840">
        <ele>1711.300</ele>
        <time>2020-01-20T18:25:00Z</time>
      </trkpt>
      <trkpt lat="16.995314970" lon="-96.433708850">
        <ele>1711.200</ele>
        <time>2020-01-20T18:25:01Z</time>
      </trkpt>
      <trkpt lat="16.995322320" lon="-96.433773740">
        <ele>1711.200</ele>
        <time>2020-01-20T18:25:02Z</time>
      </trkpt>
      <trkpt lat="16.995330990" lon="-96.433840610">
        <ele>1710.900</ele>
        <time>2020-01-20T18:25:03Z</time>
      </trkpt>
      <trkpt lat="16.995339950" lon="-96.433907130">
        <ele>1710.900</ele>
        <time>2020-01-20T18:25:04Z</time>
      </trkpt>
      <trkpt lat="16.995349620" lon="-96.433971350">
        <ele>1710.900</ele>
        <time>2020-01-20T18:25:05Z</time>
      </trkpt>
      <trkpt lat="16.995358460" lon="-96.434033550">
        <ele>1710.400</ele>
        <time>2020-01-20T18:25:06Z</time>
      </trkpt>
      <trkpt lat="16.995365100" lon="-96.434087260">
        <ele>1710.400</ele>
        <time>2020-01-20T18:25:07Z</time>
      </trkpt>
      <trkpt lat="16.995372910" lon="-96.434130900">
        <ele>1710.600</ele>
        <time>2020-01-20T18:25:08Z</time>
      </trkpt>
      <trkpt lat="16.995381550" lon="-96.434185930">
        <ele>1710.300</ele>
        <time>2020-01-20T18:25:10Z</time>
      </trkpt>
      <trkpt lat="16.995398640" lon="-96.434250050">
        <ele>1709.400</ele>
        <time>2020-01-20T18:25:12Z</time>
      </trkpt>
      <trkpt lat="16.995406210" lon="-96.434294750">
        <ele>1709.100</ele>
        <time>2020-01-20T18:25:13Z</time>
      </trkpt>
      <trkpt lat="16.995415620" lon="-96.434347740">
        <ele>1708.800</ele>
        <time>2020-01-20T18:25:14Z</time>
      </trkpt>
      <trkpt lat="16.995432240" lon="-96.434405330">
        <ele>1708.700</ele>
        <time>2020-01-20T18:25:15Z</time>
      </trkpt>
      <trkpt lat="16.995452430" lon="-96.434465020">
        <ele>1708.000</ele>
        <time>2020-01-20T18:25:16Z</time>
      </trkpt>
      <trkpt lat="16.995472550" lon="-96.434529240">
        <ele>1708.200</ele>
        <time>2020-01-20T18:25:17Z</time>
      </trkpt>
      <trkpt lat="16.995490600" lon="-96.434598680">
        <ele>1708.100</ele>
        <time>2020-01-20T18:25:18Z</time>
      </trkpt>
      <trkpt lat="16.995504150" lon="-96.434677840">
        <ele>1708.300</ele>
        <time>2020-01-20T18:25:19Z</time>
      </trkpt>
      <trkpt lat="16.995518320" lon="-96.434753340">
        <ele>1708.600</ele>
        <time>2020-01-20T18:25:20Z</time>
      </trkpt>
      <trkpt lat="16.995528650" lon="-96.434835230">
        <ele>1708.800</ele>
        <time>2020-01-20T18:25:21Z</time>
      </trkpt>
      <trkpt lat="16.995545870" lon="-96.434929210">
        <ele>1709.000</ele>
        <time>2020-01-20T18:25:22Z</time>
      </trkpt>
      <trkpt lat="16.995556970" lon="-96.435018810">
        <ele>1709.200</ele>
        <time>2020-01-20T18:25:23Z</time>
      </trkpt>
      <trkpt lat="16.995569230" lon="-96.435095070">
        <ele>1709.500</ele>
        <time>2020-01-20T18:25:24Z</time>
      </trkpt>
      <trkpt lat="16.995574570" lon="-96.435143980">
        <ele>1709.200</ele>
        <time>2020-01-20T18:25:25Z</time>
      </trkpt>
      <trkpt lat="16.995583050" lon="-96.435186330">
        <ele>1709.500</ele>
        <time>2020-01-20T18:25:26Z</time>
      </trkpt>
      <trkpt lat="16.995590040" lon="-96.435228610">
        <ele>1708.500</ele>
        <time>2020-01-20T18:25:28Z</time>
      </trkpt>
      <trkpt lat="16.995588570" lon="-96.435324120">
        <ele>1708.400</ele>
        <time>2020-01-20T18:25:30Z</time>
      </trkpt>
      <trkpt lat="16.995600440" lon="-96.435391370">
        <ele>1708.700</ele>
        <time>2020-01-20T18:25:31Z</time>
      </trkpt>
      <trkpt lat="16.995603630" lon="-96.435458420">
        <ele>1707.400</ele>
        <time>2020-01-20T18:25:32Z</time>
      </trkpt>
      <trkpt lat="16.995614200" lon="-96.435532810">
        <ele>1707.500</ele>
        <time>2020-01-20T18:25:33Z</time>
      </trkpt>
      <trkpt lat="16.995622500" lon="-96.435615720">
        <ele>1710.400</ele>
        <time>2020-01-20T18:25:34Z</time>
      </trkpt>
      <trkpt lat="16.995629280" lon="-96.435697500">
        <ele>1709.500</ele>
        <time>2020-01-20T18:25:35Z</time>
      </trkpt>
      <trkpt lat="16.995636290" lon="-96.435776400">
        <ele>1708.200</ele>
        <time>2020-01-20T18:25:36Z</time>
      </trkpt>
      <trkpt lat="16.995639010" lon="-96.435849680">
        <ele>1707.900</ele>
        <time>2020-01-20T18:25:37Z</time>
      </trkpt>
      <trkpt lat="16.995646390" lon="-96.435917920">
        <ele>1708.100</ele>
        <time>2020-01-20T18:25:38Z</time>
      </trkpt>
      <trkpt lat="16.995650540" lon="-96.435972660">
        <ele>1708.300</ele>
        <time>2020-01-20T18:25:39Z</time>
      </trkpt>
      <trkpt lat="16.995651880" lon="-96.436028300">
        <ele>1708.300</ele>
        <time>2020-01-20T18:25:40Z</time>
      </trkpt>
      <trkpt lat="16.995660140" lon="-96.436081980">
        <ele>1708.200</ele>
        <time>2020-01-20T18:25:41Z</time>
      </trkpt>
      <trkpt lat="16.995670190" lon="-96.436135890">
        <ele>1708.400</ele>
        <time>2020-01-20T18:25:42Z</time>
      </trkpt>
      <trkpt lat="16.995673620" lon="-96.436199360">
        <ele>1708.400</ele>
        <time>2020-01-20T18:25:43Z</time>
      </trkpt>
      <trkpt lat="16.995681810" lon="-96.436273730">
        <ele>1708.600</ele>
        <time>2020-01-20T18:25:44Z</time>
      </trkpt>
      <trkpt lat="16.995691300" lon="-96.436351850">
        <ele>1709.100</ele>
        <time>2020-01-20T18:25:45Z</time>
      </trkpt>
      <trkpt lat="16.995701300" lon="-96.436432700">
        <ele>1709.000</ele>
        <time>2020-01-20T18:25:46Z</time>
      </trkpt>
      <trkpt lat="16.995712680" lon="-96.436522200">
        <ele>1708.800</ele>
        <time>2020-01-20T18:25:47Z</time>
      </trkpt>
      <trkpt lat="16.995729640" lon="-96.436614410">
        <ele>1709.100</ele>
        <time>2020-01-20T18:25:48Z</time>
      </trkpt>
      <trkpt lat="16.995752970" lon="-96.436714250">
        <ele>1709.900</ele>
        <time>2020-01-20T18:25:49Z</time>
      </trkpt>
      <trkpt lat="16.995776430" lon="-96.436811650">
        <ele>1709.800</ele>
        <time>2020-01-20T18:25:50Z</time>
      </trkpt>
      <trkpt lat="16.995798480" lon="-96.436907880">
        <ele>1710.100</ele>
        <time>2020-01-20T18:25:51Z</time>
      </trkpt>
      <trkpt lat="16.995815320" lon="-96.437003370">
        <ele>1710.200</ele>
        <time>2020-01-20T18:25:52Z</time>
      </trkpt>
      <trkpt lat="16.995840260" lon="-96.437101050">
        <ele>1710.500</ele>
        <time>2020-01-20T18:25:53Z</time>
      </trkpt>
      <trkpt lat="16.995864190" lon="-96.437201060">
        <ele>1710.900</ele>
        <time>2020-01-20T18:25:54Z</time>
      </trkpt>
      <trkpt lat="16.995888320" lon="-96.437306650">
        <ele>1710.500</ele>
        <time>2020-01-20T18:25:55Z</time>
      </trkpt>
      <trkpt lat="16.995913150" lon="-96.437414540">
        <ele>1710.800</ele>
        <time>2020-01-20T18:25:56Z</time>
      </trkpt>
      <trkpt lat="16.995928900" lon="-96.437526960">
        <ele>1710.800</ele>
        <time>2020-01-20T18:25:57Z</time>
      </trkpt>
      <trkpt lat="16.995946280" lon="-96.437636280">
        <ele>1711.000</ele>
        <time>2020-01-20T18:25:58Z</time>
      </trkpt>
      <trkpt lat="16.995960370" lon="-96.437752470">
        <ele>1711.200</ele>
        <time>2020-01-20T18:25:59Z</time>
      </trkpt>
      <trkpt lat="16.995971960" lon="-96.437863270">
        <ele>1711.500</ele>
        <time>2020-01-20T18:26:00Z</time>
      </trkpt>
      <trkpt lat="16.995988580" lon="-96.437977300">
        <ele>1711.400</ele>
        <time>2020-01-20T18:26:01Z</time>
      </trkpt>
      <trkpt lat="16.995999040" lon="-96.438085910">
        <ele>1712.200</ele>
        <time>2020-01-20T18:26:02Z</time>
      </trkpt>
      <trkpt lat="16.996011480" lon="-96.438197630">
        <ele>1711.900</ele>
        <time>2020-01-20T18:26:03Z</time>
      </trkpt>
      <trkpt lat="16.996021350" lon="-96.438312680">
        <ele>1711.700</ele>
        <time>2020-01-20T18:26:04Z</time>
      </trkpt>
      <trkpt lat="16.996029320" lon="-96.438426810">
        <ele>1711.500</ele>
        <time>2020-01-20T18:26:05Z</time>
      </trkpt>
      <trkpt lat="16.996045200" lon="-96.438527650">
        <ele>1711.000</ele>
        <time>2020-01-20T18:26:06Z</time>
      </trkpt>
      <trkpt lat="16.996062240" lon="-96.438636390">
        <ele>1711.100</ele>
        <time>2020-01-20T18:26:07Z</time>
      </trkpt>
      <trkpt lat="16.996091000" lon="-96.438743830">
        <ele>1711.300</ele>
        <time>2020-01-20T18:26:08Z</time>
      </trkpt>
      <trkpt lat="16.996137680" lon="-96.438851730">
        <ele>1711.000</ele>
        <time>2020-01-20T18:26:09Z</time>
      </trkpt>
      <trkpt lat="16.996189380" lon="-96.438953580">
        <ele>1711.200</ele>
        <time>2020-01-20T18:26:10Z</time>
      </trkpt>
      <trkpt lat="16.996246490" lon="-96.439058390">
        <ele>1711.500</ele>
        <time>2020-01-20T18:26:11Z</time>
      </trkpt>
      <trkpt lat="16.996303810" lon="-96.439159240">
        <ele>1711.700</ele>
        <time>2020-01-20T18:26:12Z</time>
      </trkpt>
      <trkpt lat="16.996363050" lon="-96.439255860">
        <ele>1711.700</ele>
        <time>2020-01-20T18:26:13Z</time>
      </trkpt>
      <trkpt lat="16.996418710" lon="-96.439355870">
        <ele>1711.800</ele>
        <time>2020-01-20T18:26:14Z</time>
      </trkpt>
      <trkpt lat="16.996472320" lon="-96.439449230">
        <ele>1712.100</ele>
        <time>2020-01-20T18:26:15Z</time>
      </trkpt>
      <trkpt lat="16.996522050" lon="-96.439542520">
        <ele>1712.300</ele>
        <time>2020-01-20T18:26:16Z</time>
      </trkpt>
      <trkpt lat="16.996567560" lon="-96.439628780">
        <ele>1712.900</ele>
        <time>2020-01-20T18:26:17Z</time>
      </trkpt>
      <trkpt lat="16.996605090" lon="-96.439710310">
        <ele>1713.400</ele>
        <time>2020-01-20T18:26:18Z</time>
      </trkpt>
      <trkpt lat="16.996632560" lon="-96.439785840">
        <ele>1713.200</ele>
        <time>2020-01-20T18:26:19Z</time>
      </trkpt>
      <trkpt lat="16.996650420" lon="-96.439854750">
        <ele>1713.000</ele>
        <time>2020-01-20T18:26:20Z</time>
      </trkpt>
      <trkpt lat="16.996665070" lon="-96.439926770">
        <ele>1712.700</ele>
        <time>2020-01-20T18:26:21Z</time>
      </trkpt>
      <trkpt lat="16.996672800" lon="-96.440000400">
        <ele>1712.600</ele>
        <time>2020-01-20T18:26:22Z</time>
      </trkpt>
      <trkpt lat="16.996668470" lon="-96.440071150">
        <ele>1712.600</ele>
        <time>2020-01-20T18:26:23Z</time>
      </trkpt>
      <trkpt lat="16.996663160" lon="-96.440142470">
        <ele>1712.700</ele>
        <time>2020-01-20T18:26:24Z</time>
      </trkpt>
      <trkpt lat="16.996654680" lon="-96.440211450">
        <ele>1712.800</ele>
        <time>2020-01-20T18:26:25Z</time>
      </trkpt>
      <trkpt lat="16.996643300" lon="-96.440286730">
        <ele>1713.900</ele>
        <time>2020-01-20T18:26:26Z</time>
      </trkpt>
      <trkpt lat="16.996640360" lon="-96.440367930">
        <ele>1714.400</ele>
        <time>2020-01-20T18:26:27Z</time>
      </trkpt>
      <trkpt lat="16.996630910" lon="-96.440451060">
        <ele>1714.500</ele>
        <time>2020-01-20T18:26:28Z</time>
      </trkpt>
      <trkpt lat="16.996618460" lon="-96.440545300">
        <ele>1714.900</ele>
        <time>2020-01-20T18:26:29Z</time>
      </trkpt>
      <trkpt lat="16.996605990" lon="-96.440649100">
        <ele>1715.000</ele>
        <time>2020-01-20T18:26:30Z</time>
      </trkpt>
      <trkpt lat="16.996594470" lon="-96.440759950">
        <ele>1715.700</ele>
        <time>2020-01-20T18:26:31Z</time>
      </trkpt>
      <trkpt lat="16.996585120" lon="-96.440878150">
        <ele>1716.300</ele>
        <time>2020-01-20T18:26:32Z</time>
      </trkpt>
      <trkpt lat="16.996573750" lon="-96.441000230">
        <ele>1717.100</ele>
        <time>2020-01-20T18:26:33Z</time>
      </trkpt>
      <trkpt lat="16.996569040" lon="-96.441127670">
        <ele>1717.200</ele>
        <time>2020-01-20T18:26:34Z</time>
      </trkpt>
      <trkpt lat="16.996558550" lon="-96.441255430">
        <ele>1717.500</ele>
        <time>2020-01-20T18:26:35Z</time>
      </trkpt>
      <trkpt lat="16.996550830" lon="-96.441392530">
        <ele>1717.700</ele>
        <time>2020-01-20T18:26:36Z</time>
      </trkpt>
      <trkpt lat="16.996547210" lon="-96.441527970">
        <ele>1718.000</ele>
        <time>2020-01-20T18:26:37Z</time>
      </trkpt>
      <trkpt lat="16.996553130" lon="-96.441657740">
        <ele>1718.200</ele>
        <time>2020-01-20T18:26:38Z</time>
      </trkpt>
      <trkpt lat="16.996560620" lon="-96.441797500">
        <ele>1718.500</ele>
        <time>2020-01-20T18:26:39Z</time>
      </trkpt>
      <trkpt lat="16.996568990" lon="-96.441936880">
        <ele>1718.600</ele>
        <time>2020-01-20T18:26:40Z</time>
      </trkpt>
      <trkpt lat="16.996578750" lon="-96.442077610">
        <ele>1718.700</ele>
        <time>2020-01-20T18:26:41Z</time>
      </trkpt>
      <trkpt lat="16.996587040" lon="-96.442217070">
        <ele>1719.100</ele>
        <time>2020-01-20T18:26:42Z</time>
      </trkpt>
      <trkpt lat="16.996592870" lon="-96.442362130">
        <ele>1718.200</ele>
        <time>2020-01-20T18:26:43Z</time>
      </trkpt>
      <trkpt lat="16.996601890" lon="-96.442505830">
        <ele>1718.100</ele>
        <time>2020-01-20T18:26:44Z</time>
      </trkpt>
      <trkpt lat="16.996610130" lon="-96.442649310">
        <ele>1718.300</ele>
        <time>2020-01-20T18:26:45Z</time>
      </trkpt>
      <trkpt lat="16.996611770" lon="-96.442801960">
        <ele>1719.100</ele>
        <time>2020-01-20T18:26:46Z</time>
      </trkpt>
      <trkpt lat="16.996618800" lon="-96.442948120">
        <ele>1721.000</ele>
        <time>2020-01-20T18:26:47Z</time>
      </trkpt>
      <trkpt lat="16.996627140" lon="-96.443100170">
        <ele>1721.400</ele>
        <time>2020-01-20T18:26:48Z</time>
      </trkpt>
      <trkpt lat="16.996635450" lon="-96.443251120">
        <ele>1721.800</ele>
        <time>2020-01-20T18:26:49Z</time>
      </trkpt>
      <trkpt lat="16.996642170" lon="-96.443403830">
        <ele>1722.200</ele>
        <time>2020-01-20T18:26:50Z</time>
      </trkpt>
      <trkpt lat="16.996648800" lon="-96.443560300">
        <ele>1722.400</ele>
        <time>2020-01-20T18:26:51Z</time>
      </trkpt>
      <trkpt lat="16.996649020" lon="-96.443710310">
        <ele>1722.600</ele>
        <time>2020-01-20T18:26:52Z</time>
      </trkpt>
      <trkpt lat="16.996656120" lon="-96.443866050">
        <ele>1722.700</ele>
        <time>2020-01-20T18:26:53Z</time>
      </trkpt>
      <trkpt lat="16.996656840" lon="-96.444026090">
        <ele>1722.900</ele>
        <time>2020-01-20T18:26:54Z</time>
      </trkpt>
      <trkpt lat="16.996659800" lon="-96.444185780">
        <ele>1724.000</ele>
        <time>2020-01-20T18:26:55Z</time>
      </trkpt>
      <trkpt lat="16.996664010" lon="-96.444348240">
        <ele>1724.900</ele>
        <time>2020-01-20T18:26:56Z</time>
      </trkpt>
      <trkpt lat="16.996666640" lon="-96.444504560">
        <ele>1725.600</ele>
        <time>2020-01-20T18:26:57Z</time>
      </trkpt>
      <trkpt lat="16.996668980" lon="-96.444663750">
        <ele>1725.900</ele>
        <time>2020-01-20T18:26:58Z</time>
      </trkpt>
      <trkpt lat="16.996667740" lon="-96.444824000">
        <ele>1726.300</ele>
        <time>2020-01-20T18:26:59Z</time>
      </trkpt>
      <trkpt lat="16.996665580" lon="-96.444984770">
        <ele>1727.000</ele>
        <time>2020-01-20T18:27:00Z</time>
      </trkpt>
      <trkpt lat="16.996662190" lon="-96.445143850">
        <ele>1727.800</ele>
        <time>2020-01-20T18:27:01Z</time>
      </trkpt>
      <trkpt lat="16.996660470" lon="-96.445300460">
        <ele>1728.200</ele>
        <time>2020-01-20T18:27:02Z</time>
      </trkpt>
      <trkpt lat="16.996659380" lon="-96.445457830">
        <ele>1729.000</ele>
        <time>2020-01-20T18:27:03Z</time>
      </trkpt>
      <trkpt lat="16.996656430" lon="-96.445609360">
        <ele>1729.700</ele>
        <time>2020-01-20T18:27:04Z</time>
      </trkpt>
      <trkpt lat="16.996653690" lon="-96.445753220">
        <ele>1730.400</ele>
        <time>2020-01-20T18:27:05Z</time>
      </trkpt>
      <trkpt lat="16.996654100" lon="-96.445892430">
        <ele>1731.000</ele>
        <time>2020-01-20T18:27:06Z</time>
      </trkpt>
      <trkpt lat="16.996660430" lon="-96.446023410">
        <ele>1731.400</ele>
        <time>2020-01-20T18:27:07Z</time>
      </trkpt>
      <trkpt lat="16.996678170" lon="-96.446154750">
        <ele>1732.000</ele>
        <time>2020-01-20T18:27:08Z</time>
      </trkpt>
      <trkpt lat="16.996709930" lon="-96.446279880">
        <ele>1732.400</ele>
        <time>2020-01-20T18:27:09Z</time>
      </trkpt>
      <trkpt lat="16.996761740" lon="-96.446394450">
        <ele>1732.700</ele>
        <time>2020-01-20T18:27:10Z</time>
      </trkpt>
      <trkpt lat="16.996834140" lon="-96.446503420">
        <ele>1733.100</ele>
        <time>2020-01-20T18:27:11Z</time>
      </trkpt>
      <trkpt lat="16.996926600" lon="-96.446602700">
        <ele>1733.100</ele>
        <time>2020-01-20T18:27:12Z</time>
      </trkpt>
      <trkpt lat="16.997031610" lon="-96.446681920">
        <ele>1733.500</ele>
        <time>2020-01-20T18:27:13Z</time>
      </trkpt>
      <trkpt lat="16.997144320" lon="-96.446755350">
        <ele>1733.600</ele>
        <time>2020-01-20T18:27:14Z</time>
      </trkpt>
      <trkpt lat="16.997263830" lon="-96.446826650">
        <ele>1734.300</ele>
        <time>2020-01-20T18:27:15Z</time>
      </trkpt>
      <trkpt lat="16.997383940" lon="-96.446900050">
        <ele>1734.700</ele>
        <time>2020-01-20T18:27:16Z</time>
      </trkpt>
      <trkpt lat="16.997504910" lon="-96.446980530">
        <ele>1735.400</ele>
        <time>2020-01-20T18:27:17Z</time>
      </trkpt>
      <trkpt lat="16.997628570" lon="-96.447061030">
        <ele>1735.900</ele>
        <time>2020-01-20T18:27:18Z</time>
      </trkpt>
      <trkpt lat="16.997756660" lon="-96.447144940">
        <ele>1736.900</ele>
        <time>2020-01-20T18:27:19Z</time>
      </trkpt>
      <trkpt lat="16.997889060" lon="-96.447225380">
        <ele>1737.600</ele>
        <time>2020-01-20T18:27:20Z</time>
      </trkpt>
      <trkpt lat="16.998020430" lon="-96.447306290">
        <ele>1738.500</ele>
        <time>2020-01-20T18:27:21Z</time>
      </trkpt>
      <trkpt lat="16.998154160" lon="-96.447386800">
        <ele>1738.800</ele>
        <time>2020-01-20T18:27:22Z</time>
      </trkpt>
      <trkpt lat="16.998289980" lon="-96.447472730">
        <ele>1739.500</ele>
        <time>2020-01-20T18:27:23Z</time>
      </trkpt>
      <trkpt lat="16.998427190" lon="-96.447558410">
        <ele>1740.000</ele>
        <time>2020-01-20T18:27:24Z</time>
      </trkpt>
      <trkpt lat="16.998561140" lon="-96.447642920">
        <ele>1740.200</ele>
        <time>2020-01-20T18:27:25Z</time>
      </trkpt>
      <trkpt lat="16.998694260" lon="-96.447727260">
        <ele>1741.200</ele>
        <time>2020-01-20T18:27:26Z</time>
      </trkpt>
      <trkpt lat="16.998830810" lon="-96.447814610">
        <ele>1741.600</ele>
        <time>2020-01-20T18:27:27Z</time>
      </trkpt>
      <trkpt lat="16.998966680" lon="-96.447904450">
        <ele>1742.100</ele>
        <time>2020-01-20T18:27:28Z</time>
      </trkpt>
      <trkpt lat="16.999101790" lon="-96.447992780">
        <ele>1742.700</ele>
        <time>2020-01-20T18:27:29Z</time>
      </trkpt>
      <trkpt lat="16.999237490" lon="-96.448086180">
        <ele>1743.100</ele>
        <time>2020-01-20T18:27:30Z</time>
      </trkpt>
      <trkpt lat="16.999373330" lon="-96.448179790">
        <ele>1743.800</ele>
        <time>2020-01-20T18:27:31Z</time>
      </trkpt>
      <trkpt lat="16.999512420" lon="-96.448274360">
        <ele>1744.500</ele>
        <time>2020-01-20T18:27:32Z</time>
      </trkpt>
      <trkpt lat="16.999638710" lon="-96.448364340">
        <ele>1744.500</ele>
        <time>2020-01-20T18:27:33Z</time>
      </trkpt>
      <trkpt lat="16.999781370" lon="-96.448460480">
        <ele>1745.400</ele>
        <time>2020-01-20T18:27:34Z</time>
      </trkpt>
      <trkpt lat="16.999918070" lon="-96.448549010">
        <ele>1745.900</ele>
        <time>2020-01-20T18:27:35Z</time>
      </trkpt>
      <trkpt lat="17.000056210" lon="-96.448642320">
        <ele>1746.500</ele>
        <time>2020-01-20T18:27:36Z</time>
      </trkpt>
      <trkpt lat="17.000192120" lon="-96.448728580">
        <ele>1746.900</ele>
        <time>2020-01-20T18:27:37Z</time>
      </trkpt>
      <trkpt lat="17.000329210" lon="-96.448817920">
        <ele>1747.100</ele>
        <time>2020-01-20T18:27:38Z</time>
      </trkpt>
      <trkpt lat="17.000470710" lon="-96.448910630">
        <ele>1747.000</ele>
        <time>2020-01-20T18:27:39Z</time>
      </trkpt>
      <trkpt lat="17.000612500" lon="-96.449005470">
        <ele>1747.500</ele>
        <time>2020-01-20T18:27:40Z</time>
      </trkpt>
      <trkpt lat="17.000753710" lon="-96.449095700">
        <ele>1748.100</ele>
        <time>2020-01-20T18:27:41Z</time>
      </trkpt>
      <trkpt lat="17.000897500" lon="-96.449189910">
        <ele>1748.800</ele>
        <time>2020-01-20T18:27:42Z</time>
      </trkpt>
      <trkpt lat="17.001042590" lon="-96.449286050">
        <ele>1749.400</ele>
        <time>2020-01-20T18:27:43Z</time>
      </trkpt>
      <trkpt lat="17.001186030" lon="-96.449383470">
        <ele>1750.100</ele>
        <time>2020-01-20T18:27:44Z</time>
      </trkpt>
      <trkpt lat="17.001327640" lon="-96.449482400">
        <ele>1750.600</ele>
        <time>2020-01-20T18:27:45Z</time>
      </trkpt>
      <trkpt lat="17.001467780" lon="-96.449574660">
        <ele>1751.400</ele>
        <time>2020-01-20T18:27:46Z</time>
      </trkpt>
      <trkpt lat="17.001606900" lon="-96.449666440">
        <ele>1752.300</ele>
        <time>2020-01-20T18:27:47Z</time>
      </trkpt>
      <trkpt lat="17.001749380" lon="-96.449760250">
        <ele>1752.900</ele>
        <time>2020-01-20T18:27:48Z</time>
      </trkpt>
      <trkpt lat="17.001891570" lon="-96.449858610">
        <ele>1754.200</ele>
        <time>2020-01-20T18:27:49Z</time>
      </trkpt>
      <trkpt lat="17.002034780" lon="-96.449957140">
        <ele>1755.400</ele>
        <time>2020-01-20T18:27:50Z</time>
      </trkpt>
      <trkpt lat="17.002173590" lon="-96.450054050">
        <ele>1756.300</ele>
        <time>2020-01-20T18:27:51Z</time>
      </trkpt>
      <trkpt lat="17.002312780" lon="-96.450146420">
        <ele>1757.600</ele>
        <time>2020-01-20T18:27:52Z</time>
      </trkpt>
      <trkpt lat="17.002450900" lon="-96.450241060">
        <ele>1759.100</ele>
        <time>2020-01-20T18:27:53Z</time>
      </trkpt>
      <trkpt lat="17.002585970" lon="-96.450331030">
        <ele>1760.100</ele>
        <time>2020-01-20T18:27:54Z</time>
      </trkpt>
      <trkpt lat="17.002724240" lon="-96.450426430">
        <ele>1760.900</ele>
        <time>2020-01-20T18:27:55Z</time>
      </trkpt>
      <trkpt lat="17.002862270" lon="-96.450517450">
        <ele>1762.100</ele>
        <time>2020-01-20T18:27:56Z</time>
      </trkpt>
      <trkpt lat="17.002997950" lon="-96.450608450">
        <ele>1763.600</ele>
        <time>2020-01-20T18:27:57Z</time>
      </trkpt>
      <trkpt lat="17.003127890" lon="-96.450691620">
        <ele>1764.800</ele>
        <time>2020-01-20T18:27:58Z</time>
      </trkpt>
      <trkpt lat="17.003247680" lon="-96.450781840">
        <ele>1765.800</ele>
        <time>2020-01-20T18:27:59Z</time>
      </trkpt>
      <trkpt lat="17.003350170" lon="-96.450880260">
        <ele>1767.000</ele>
        <time>2020-01-20T18:28:00Z</time>
      </trkpt>
      <trkpt lat="17.003429450" lon="-96.450988020">
        <ele>1768.800</ele>
        <time>2020-01-20T18:28:01Z</time>
      </trkpt>
      <trkpt lat="17.003490220" lon="-96.451112310">
        <ele>1770.900</ele>
        <time>2020-01-20T18:28:02Z</time>
      </trkpt>
      <trkpt lat="17.003534170" lon="-96.451244170">
        <ele>1771.800</ele>
        <time>2020-01-20T18:28:03Z</time>
      </trkpt>
      <trkpt lat="17.003571390" lon="-96.451377900">
        <ele>1773.000</ele>
        <time>2020-01-20T18:28:04Z</time>
      </trkpt>
      <trkpt lat="17.003606320" lon="-96.451505700">
        <ele>1774.000</ele>
        <time>2020-01-20T18:28:05Z</time>
      </trkpt>
      <trkpt lat="17.003636830" lon="-96.451625730">
        <ele>1775.500</ele>
        <time>2020-01-20T18:28:06Z</time>
      </trkpt>
      <trkpt lat="17.003666750" lon="-96.451744010">
        <ele>1776.800</ele>
        <time>2020-01-20T18:28:07Z</time>
      </trkpt>
      <trkpt lat="17.003697390" lon="-96.451861700">
        <ele>1777.600</ele>
        <time>2020-01-20T18:28:08Z</time>
      </trkpt>
      <trkpt lat="17.003732780" lon="-96.451975500">
        <ele>1778.700</ele>
        <time>2020-01-20T18:28:09Z</time>
      </trkpt>
      <trkpt lat="17.003779010" lon="-96.452081280">
        <ele>1779.500</ele>
        <time>2020-01-20T18:28:10Z</time>
      </trkpt>
      <trkpt lat="17.003842440" lon="-96.452173830">
        <ele>1780.400</ele>
        <time>2020-01-20T18:28:11Z</time>
      </trkpt>
      <trkpt lat="17.003922610" lon="-96.452253120">
        <ele>1781.600</ele>
        <time>2020-01-20T18:28:12Z</time>
      </trkpt>
      <trkpt lat="17.004020080" lon="-96.452311990">
        <ele>1783.200</ele>
        <time>2020-01-20T18:28:13Z</time>
      </trkpt>
      <trkpt lat="17.004122350" lon="-96.452360830">
        <ele>1784.500</ele>
        <time>2020-01-20T18:28:14Z</time>
      </trkpt>
      <trkpt lat="17.004228810" lon="-96.452407610">
        <ele>1785.700</ele>
        <time>2020-01-20T18:28:15Z</time>
      </trkpt>
      <trkpt lat="17.004336410" lon="-96.452455710">
        <ele>1786.800</ele>
        <time>2020-01-20T18:28:16Z</time>
      </trkpt>
      <trkpt lat="17.004447950" lon="-96.452502580">
        <ele>1778.900</ele>
        <time>2020-01-20T18:28:17Z</time>
      </trkpt>
      <trkpt lat="17.004563740" lon="-96.452547070">
        <ele>1783.500</ele>
        <time>2020-01-20T18:28:18Z</time>
      </trkpt>
      <trkpt lat="17.004681390" lon="-96.452595870">
        <ele>1786.900</ele>
        <time>2020-01-20T18:28:19Z</time>
      </trkpt>
      <trkpt lat="17.004797840" lon="-96.452652640">
        <ele>1788.700</ele>
        <time>2020-01-20T18:28:20Z</time>
      </trkpt>
      <trkpt lat="17.004908020" lon="-96.452715060">
        <ele>1790.800</ele>
        <time>2020-01-20T18:28:21Z</time>
      </trkpt>
      <trkpt lat="17.005008250" lon="-96.452793970">
        <ele>1791.000</ele>
        <time>2020-01-20T18:28:22Z</time>
      </trkpt>
      <trkpt lat="17.005102410" lon="-96.452886590">
        <ele>1793.100</ele>
        <time>2020-01-20T18:28:23Z</time>
      </trkpt>
      <trkpt lat="17.005180020" lon="-96.452987570">
        <ele>1794.900</ele>
        <time>2020-01-20T18:28:24Z</time>
      </trkpt>
      <trkpt lat="17.005258350" lon="-96.453101770">
        <ele>1796.200</ele>
        <time>2020-01-20T18:28:25Z</time>
      </trkpt>
      <trkpt lat="17.005336770" lon="-96.453216300">
        <ele>1798.000</ele>
        <time>2020-01-20T18:28:26Z</time>
      </trkpt>
      <trkpt lat="17.005419700" lon="-96.453336060">
        <ele>1799.300</ele>
        <time>2020-01-20T18:28:27Z</time>
      </trkpt>
      <trkpt lat="17.005505580" lon="-96.453457860">
        <ele>1800.100</ele>
        <time>2020-01-20T18:28:28Z</time>
      </trkpt>
      <trkpt lat="17.005589410" lon="-96.453574390">
        <ele>1800.900</ele>
        <time>2020-01-20T18:28:29Z</time>
      </trkpt>
      <trkpt lat="17.005667360" lon="-96.453683510">
        <ele>1801.700</ele>
        <time>2020-01-20T18:28:30Z</time>
      </trkpt>
      <trkpt lat="17.005738140" lon="-96.453785590">
        <ele>1803.100</ele>
        <time>2020-01-20T18:28:31Z</time>
      </trkpt>
      <trkpt lat="17.005810600" lon="-96.453883080">
        <ele>1804.000</ele>
        <time>2020-01-20T18:28:32Z</time>
      </trkpt>
      <trkpt lat="17.005885780" lon="-96.453962090">
        <ele>1804.500</ele>
        <time>2020-01-20T18:28:33Z</time>
      </trkpt>
      <trkpt lat="17.005972570" lon="-96.454020790">
        <ele>1805.400</ele>
        <time>2020-01-20T18:28:34Z</time>
      </trkpt>
      <trkpt lat="17.006072930" lon="-96.454044680">
        <ele>1805.900</ele>
        <time>2020-01-20T18:28:35Z</time>
      </trkpt>
      <trkpt lat="17.006181220" lon="-96.454042330">
        <ele>1806.300</ele>
        <time>2020-01-20T18:28:36Z</time>
      </trkpt>
      <trkpt lat="17.006295570" lon="-96.454024150">
        <ele>1806.900</ele>
        <time>2020-01-20T18:28:37Z</time>
      </trkpt>
      <trkpt lat="17.006401930" lon="-96.453986260">
        <ele>1807.500</ele>
        <time>2020-01-20T18:28:38Z</time>
      </trkpt>
      <trkpt lat="17.006511930" lon="-96.453934670">
        <ele>1808.400</ele>
        <time>2020-01-20T18:28:39Z</time>
      </trkpt>
      <trkpt lat="17.006617830" lon="-96.453878800">
        <ele>1809.400</ele>
        <time>2020-01-20T18:28:40Z</time>
      </trkpt>
      <trkpt lat="17.006711560" lon="-96.453800290">
        <ele>1810.800</ele>
        <time>2020-01-20T18:28:41Z</time>
      </trkpt>
      <trkpt lat="17.006787410" lon="-96.453705800">
        <ele>1811.700</ele>
        <time>2020-01-20T18:28:42Z</time>
      </trkpt>
      <trkpt lat="17.006860160" lon="-96.453609680">
        <ele>1812.600</ele>
        <time>2020-01-20T18:28:43Z</time>
      </trkpt>
      <trkpt lat="17.006937490" lon="-96.453528910">
        <ele>1813.400</ele>
        <time>2020-01-20T18:28:44Z</time>
      </trkpt>
      <trkpt lat="17.007023970" lon="-96.453466720">
        <ele>1814.500</ele>
        <time>2020-01-20T18:28:45Z</time>
      </trkpt>
      <trkpt lat="17.007123370" lon="-96.453429770">
        <ele>1816.000</ele>
        <time>2020-01-20T18:28:46Z</time>
      </trkpt>
      <trkpt lat="17.007227430" lon="-96.453421140">
        <ele>1817.000</ele>
        <time>2020-01-20T18:28:47Z</time>
      </trkpt>
      <trkpt lat="17.007335000" lon="-96.453442670">
        <ele>1817.400</ele>
        <time>2020-01-20T18:28:48Z</time>
      </trkpt>
      <trkpt lat="17.007435020" lon="-96.453479300">
        <ele>1818.400</ele>
        <time>2020-01-20T18:28:49Z</time>
      </trkpt>
      <trkpt lat="17.007533900" lon="-96.453523100">
        <ele>1819.300</ele>
        <time>2020-01-20T18:28:50Z</time>
      </trkpt>
      <trkpt lat="17.007635450" lon="-96.453565940">
        <ele>1821.000</ele>
        <time>2020-01-20T18:28:51Z</time>
      </trkpt>
      <trkpt lat="17.007739310" lon="-96.453608730">
        <ele>1822.600</ele>
        <time>2020-01-20T18:28:52Z</time>
      </trkpt>
      <trkpt lat="17.007846560" lon="-96.453653910">
        <ele>1824.000</ele>
        <time>2020-01-20T18:28:53Z</time>
      </trkpt>
      <trkpt lat="17.007957260" lon="-96.453697650">
        <ele>1825.400</ele>
        <time>2020-01-20T18:28:54Z</time>
      </trkpt>
      <trkpt lat="17.008075700" lon="-96.453742560">
        <ele>1826.200</ele>
        <time>2020-01-20T18:28:55Z</time>
      </trkpt>
      <trkpt lat="17.008190540" lon="-96.453776980">
        <ele>1827.100</ele>
        <time>2020-01-20T18:28:56Z</time>
      </trkpt>
      <trkpt lat="17.008309460" lon="-96.453799080">
        <ele>1828.300</ele>
        <time>2020-01-20T18:28:57Z</time>
      </trkpt>
      <trkpt lat="17.008426990" lon="-96.453798300">
        <ele>1829.900</ele>
        <time>2020-01-20T18:28:58Z</time>
      </trkpt>
      <trkpt lat="17.008543530" lon="-96.453769600">
        <ele>1831.900</ele>
        <time>2020-01-20T18:28:59Z</time>
      </trkpt>
      <trkpt lat="17.008658020" lon="-96.453726760">
        <ele>1832.900</ele>
        <time>2020-01-20T18:29:00Z</time>
      </trkpt>
      <trkpt lat="17.008771160" lon="-96.453667790">
        <ele>1834.300</ele>
        <time>2020-01-20T18:29:01Z</time>
      </trkpt>
      <trkpt lat="17.008881050" lon="-96.453608930">
        <ele>1816.200</ele>
        <time>2020-01-20T18:29:02Z</time>
      </trkpt>
      <trkpt lat="17.008990960" lon="-96.453548920">
        <ele>1824.500</ele>
        <time>2020-01-20T18:29:03Z</time>
      </trkpt>
      <trkpt lat="17.009095990" lon="-96.453489490">
        <ele>1830.300</ele>
        <time>2020-01-20T18:29:04Z</time>
      </trkpt>
      <trkpt lat="17.009199820" lon="-96.453434550">
        <ele>1834.000</ele>
        <time>2020-01-20T18:29:05Z</time>
      </trkpt>
      <trkpt lat="17.009308640" lon="-96.453392150">
        <ele>1837.100</ele>
        <time>2020-01-20T18:29:06Z</time>
      </trkpt>
      <trkpt lat="17.009416680" lon="-96.453360520">
        <ele>1839.700</ele>
        <time>2020-01-20T18:29:07Z</time>
      </trkpt>
      <trkpt lat="17.009526090" lon="-96.453348120">
        <ele>1841.500</ele>
        <time>2020-01-20T18:29:08Z</time>
      </trkpt>
      <trkpt lat="17.009634590" lon="-96.453357990">
        <ele>1843.000</ele>
        <time>2020-01-20T18:29:09Z</time>
      </trkpt>
      <trkpt lat="17.009740490" lon="-96.453390370">
        <ele>1844.600</ele>
        <time>2020-01-20T18:29:10Z</time>
      </trkpt>
      <trkpt lat="17.009848020" lon="-96.453438090">
        <ele>1846.000</ele>
        <time>2020-01-20T18:29:11Z</time>
      </trkpt>
      <trkpt lat="17.009944620" lon="-96.453505460">
        <ele>1846.900</ele>
        <time>2020-01-20T18:29:12Z</time>
      </trkpt>
      <trkpt lat="17.010030770" lon="-96.453592290">
        <ele>1848.200</ele>
        <time>2020-01-20T18:29:13Z</time>
      </trkpt>
      <trkpt lat="17.010102420" lon="-96.453693700">
        <ele>1849.900</ele>
        <time>2020-01-20T18:29:14Z</time>
      </trkpt>
      <trkpt lat="17.010167410" lon="-96.453796690">
        <ele>1851.200</ele>
        <time>2020-01-20T18:29:15Z</time>
      </trkpt>
      <trkpt lat="17.010221090" lon="-96.453901230">
        <ele>1852.400</ele>
        <time>2020-01-20T18:29:16Z</time>
      </trkpt>
      <trkpt lat="17.010246610" lon="-96.454004120">
        <ele>1853.600</ele>
        <time>2020-01-20T18:29:17Z</time>
      </trkpt>
      <trkpt lat="17.010239810" lon="-96.454107030">
        <ele>1854.900</ele>
        <time>2020-01-20T18:29:18Z</time>
      </trkpt>
      <trkpt lat="17.010209980" lon="-96.454204610">
        <ele>1855.500</ele>
        <time>2020-01-20T18:29:19Z</time>
      </trkpt>
      <trkpt lat="17.010150660" lon="-96.454287530">
        <ele>1856.700</ele>
        <time>2020-01-20T18:29:20Z</time>
      </trkpt>
      <trkpt lat="17.010071500" lon="-96.454362310">
        <ele>1858.000</ele>
        <time>2020-01-20T18:29:21Z</time>
      </trkpt>
      <trkpt lat="17.009986310" lon="-96.454429980">
        <ele>1858.900</ele>
        <time>2020-01-20T18:29:22Z</time>
      </trkpt>
      <trkpt lat="17.009896650" lon="-96.454495110">
        <ele>1859.800</ele>
        <time>2020-01-20T18:29:23Z</time>
      </trkpt>
      <trkpt lat="17.009810050" lon="-96.454559290">
        <ele>1860.700</ele>
        <time>2020-01-20T18:29:24Z</time>
      </trkpt>
      <trkpt lat="17.009722270" lon="-96.454625510">
        <ele>1861.500</ele>
        <time>2020-01-20T18:29:25Z</time>
      </trkpt>
      <trkpt lat="17.009633620" lon="-96.454695320">
        <ele>1862.700</ele>
        <time>2020-01-20T18:29:26Z</time>
      </trkpt>
      <trkpt lat="17.009544010" lon="-96.454769530">
        <ele>1863.100</ele>
        <time>2020-01-20T18:29:27Z</time>
      </trkpt>
      <trkpt lat="17.009454150" lon="-96.454856880">
        <ele>1864.900</ele>
        <time>2020-01-20T18:29:28Z</time>
      </trkpt>
      <trkpt lat="17.009376640" lon="-96.454952590">
        <ele>1865.700</ele>
        <time>2020-01-20T18:29:29Z</time>
      </trkpt>
      <trkpt lat="17.009311720" lon="-96.455048270">
        <ele>1866.600</ele>
        <time>2020-01-20T18:29:30Z</time>
      </trkpt>
      <trkpt lat="17.009254390" lon="-96.455150440">
        <ele>1868.000</ele>
        <time>2020-01-20T18:29:31Z</time>
      </trkpt>
      <trkpt lat="17.009207390" lon="-96.455256590">
        <ele>1869.700</ele>
        <time>2020-01-20T18:29:32Z</time>
      </trkpt>
      <trkpt lat="17.009164820" lon="-96.455364070">
        <ele>1871.100</ele>
        <time>2020-01-20T18:29:33Z</time>
      </trkpt>
      <trkpt lat="17.009150600" lon="-96.455479600">
        <ele>1872.100</ele>
        <time>2020-01-20T18:29:34Z</time>
      </trkpt>
      <trkpt lat="17.009163000" lon="-96.455594260">
        <ele>1872.900</ele>
        <time>2020-01-20T18:29:35Z</time>
      </trkpt>
      <trkpt lat="17.009195800" lon="-96.455704560">
        <ele>1873.400</ele>
        <time>2020-01-20T18:29:36Z</time>
      </trkpt>
      <trkpt lat="17.009260390" lon="-96.455814490">
        <ele>1874.200</ele>
        <time>2020-01-20T18:29:37Z</time>
      </trkpt>
      <trkpt lat="17.009339170" lon="-96.455910290">
        <ele>1875.900</ele>
        <time>2020-01-20T18:29:38Z</time>
      </trkpt>
      <trkpt lat="17.009427270" lon="-96.456000580">
        <ele>1876.600</ele>
        <time>2020-01-20T18:29:39Z</time>
      </trkpt>
      <trkpt lat="17.009519410" lon="-96.456096400">
        <ele>1877.300</ele>
        <time>2020-01-20T18:29:40Z</time>
      </trkpt>
      <trkpt lat="17.009614670" lon="-96.456197170">
        <ele>1878.100</ele>
        <time>2020-01-20T18:29:41Z</time>
      </trkpt>
      <trkpt lat="17.009711230" lon="-96.456300270">
        <ele>1879.100</ele>
        <time>2020-01-20T18:29:42Z</time>
      </trkpt>
      <trkpt lat="17.009813790" lon="-96.456411630">
        <ele>1879.600</ele>
        <time>2020-01-20T18:29:43Z</time>
      </trkpt>
      <trkpt lat="17.009911340" lon="-96.456524140">
        <ele>1881.000</ele>
        <time>2020-01-20T18:29:44Z</time>
      </trkpt>
      <trkpt lat="17.010009400" lon="-96.456637560">
        <ele>1882.100</ele>
        <time>2020-01-20T18:29:45Z</time>
      </trkpt>
      <trkpt lat="17.010107110" lon="-96.456755080">
        <ele>1882.900</ele>
        <time>2020-01-20T18:29:46Z</time>
      </trkpt>
      <trkpt lat="17.010207570" lon="-96.456874540">
        <ele>1883.500</ele>
        <time>2020-01-20T18:29:47Z</time>
      </trkpt>
      <trkpt lat="17.010306990" lon="-96.457001850">
        <ele>1884.300</ele>
        <time>2020-01-20T18:29:48Z</time>
      </trkpt>
      <trkpt lat="17.010414860" lon="-96.457132340">
        <ele>1885.200</ele>
        <time>2020-01-20T18:29:49Z</time>
      </trkpt>
      <trkpt lat="17.010516040" lon="-96.457261640">
        <ele>1886.600</ele>
        <time>2020-01-20T18:29:50Z</time>
      </trkpt>
      <trkpt lat="17.010611560" lon="-96.457389590">
        <ele>1887.300</ele>
        <time>2020-01-20T18:29:51Z</time>
      </trkpt>
      <trkpt lat="17.010711190" lon="-96.457520040">
        <ele>1889.300</ele>
        <time>2020-01-20T18:29:52Z</time>
      </trkpt>
      <trkpt lat="17.010815070" lon="-96.457648860">
        <ele>1890.800</ele>
        <time>2020-01-20T18:29:53Z</time>
      </trkpt>
      <trkpt lat="17.010920430" lon="-96.457776990">
        <ele>1892.000</ele>
        <time>2020-01-20T18:29:54Z</time>
      </trkpt>
      <trkpt lat="17.011027140" lon="-96.457905400">
        <ele>1893.900</ele>
        <time>2020-01-20T18:29:55Z</time>
      </trkpt>
      <trkpt lat="17.011137500" lon="-96.458037800">
        <ele>1895.300</ele>
        <time>2020-01-20T18:29:56Z</time>
      </trkpt>
      <trkpt lat="17.011235640" lon="-96.458167800">
        <ele>1897.000</ele>
        <time>2020-01-20T18:29:57Z</time>
      </trkpt>
      <trkpt lat="17.011340220" lon="-96.458301170">
        <ele>1898.900</ele>
        <time>2020-01-20T18:29:58Z</time>
      </trkpt>
      <trkpt lat="17.011445490" lon="-96.458432960">
        <ele>1901.000</ele>
        <time>2020-01-20T18:29:59Z</time>
      </trkpt>
      <trkpt lat="17.011552800" lon="-96.458566370">
        <ele>1903.000</ele>
        <time>2020-01-20T18:30:00Z</time>
      </trkpt>
      <trkpt lat="17.011675990" lon="-96.458692740">
        <ele>1905.600</ele>
        <time>2020-01-20T18:30:01Z</time>
      </trkpt>
      <trkpt lat="17.011785680" lon="-96.458830980">
        <ele>1907.600</ele>
        <time>2020-01-20T18:30:02Z</time>
      </trkpt>
      <trkpt lat="17.011893640" lon="-96.458969360">
        <ele>1909.200</ele>
        <time>2020-01-20T18:30:03Z</time>
      </trkpt>
      <trkpt lat="17.012003710" lon="-96.459112980">
        <ele>1910.500</ele>
        <time>2020-01-20T18:30:04Z</time>
      </trkpt>
      <trkpt lat="17.012111050" lon="-96.459256040">
        <ele>1912.200</ele>
        <time>2020-01-20T18:30:05Z</time>
      </trkpt>
      <trkpt lat="17.012224560" lon="-96.459391870">
        <ele>1914.800</ele>
        <time>2020-01-20T18:30:06Z</time>
      </trkpt>
      <trkpt lat="17.012340670" lon="-96.459526390">
        <ele>1917.500</ele>
        <time>2020-01-20T18:30:07Z</time>
      </trkpt>
      <trkpt lat="17.012453460" lon="-96.459665980">
        <ele>1919.700</ele>
        <time>2020-01-20T18:30:08Z</time>
      </trkpt>
      <trkpt lat="17.012563790" lon="-96.459810360">
        <ele>1922.600</ele>
        <time>2020-01-20T18:30:09Z</time>
      </trkpt>
      <trkpt lat="17.012673800" lon="-96.459955610">
        <ele>1925.100</ele>
        <time>2020-01-20T18:30:10Z</time>
      </trkpt>
      <trkpt lat="17.012780810" lon="-96.460094370">
        <ele>1927.700</ele>
        <time>2020-01-20T18:30:11Z</time>
      </trkpt>
      <trkpt lat="17.012891320" lon="-96.460233810">
        <ele>1929.500</ele>
        <time>2020-01-20T18:30:12Z</time>
      </trkpt>
      <trkpt lat="17.013000660" lon="-96.460368310">
        <ele>1930.700</ele>
        <time>2020-01-20T18:30:13Z</time>
      </trkpt>
      <trkpt lat="17.013111060" lon="-96.460510660">
        <ele>1933.100</ele>
        <time>2020-01-20T18:30:14Z</time>
      </trkpt>
      <trkpt lat="17.013221700" lon="-96.460643210">
        <ele>1934.700</ele>
        <time>2020-01-20T18:30:15Z</time>
      </trkpt>
      <trkpt lat="17.013328940" lon="-96.460780610">
        <ele>1936.300</ele>
        <time>2020-01-20T18:30:16Z</time>
      </trkpt>
      <trkpt lat="17.013433780" lon="-96.460917960">
        <ele>1937.900</ele>
        <time>2020-01-20T18:30:17Z</time>
      </trkpt>
      <trkpt lat="17.013538010" lon="-96.461053220">
        <ele>1939.100</ele>
        <time>2020-01-20T18:30:18Z</time>
      </trkpt>
      <trkpt lat="17.013638120" lon="-96.461187060">
        <ele>1940.400</ele>
        <time>2020-01-20T18:30:19Z</time>
      </trkpt>
      <trkpt lat="17.013742040" lon="-96.461318770">
        <ele>1941.500</ele>
        <time>2020-01-20T18:30:20Z</time>
      </trkpt>
      <trkpt lat="17.013849750" lon="-96.461455480">
        <ele>1942.600</ele>
        <time>2020-01-20T18:30:21Z</time>
      </trkpt>
      <trkpt lat="17.013961150" lon="-96.461586570">
        <ele>1943.900</ele>
        <time>2020-01-20T18:30:22Z</time>
      </trkpt>
      <trkpt lat="17.014073010" lon="-96.461720170">
        <ele>1945.300</ele>
        <time>2020-01-20T18:30:23Z</time>
      </trkpt>
      <trkpt lat="17.014177570" lon="-96.461853720">
        <ele>1946.500</ele>
        <time>2020-01-20T18:30:24Z</time>
      </trkpt>
      <trkpt lat="17.014283050" lon="-96.461984780">
        <ele>1947.400</ele>
        <time>2020-01-20T18:30:25Z</time>
      </trkpt>
      <trkpt lat="17.014393330" lon="-96.462119700">
        <ele>1948.700</ele>
        <time>2020-01-20T18:30:26Z</time>
      </trkpt>
      <trkpt lat="17.014503220" lon="-96.462253890">
        <ele>1949.700</ele>
        <time>2020-01-20T18:30:27Z</time>
      </trkpt>
      <trkpt lat="17.014613170" lon="-96.462387160">
        <ele>1950.900</ele>
        <time>2020-01-20T18:30:28Z</time>
      </trkpt>
      <trkpt lat="17.014722690" lon="-96.462522220">
        <ele>1952.100</ele>
        <time>2020-01-20T18:30:29Z</time>
      </trkpt>
      <trkpt lat="17.014829080" lon="-96.462654320">
        <ele>1953.700</ele>
        <time>2020-01-20T18:30:30Z</time>
      </trkpt>
      <trkpt lat="17.014935150" lon="-96.462784790">
        <ele>1955.600</ele>
        <time>2020-01-20T18:30:31Z</time>
      </trkpt>
      <trkpt lat="17.015044760" lon="-96.462914770">
        <ele>1956.800</ele>
        <time>2020-01-20T18:30:32Z</time>
      </trkpt>
      <trkpt lat="17.015148570" lon="-96.463042740">
        <ele>1958.700</ele>
        <time>2020-01-20T18:30:33Z</time>
      </trkpt>
      <trkpt lat="17.015252700" lon="-96.463170460">
        <ele>1960.800</ele>
        <time>2020-01-20T18:30:34Z</time>
      </trkpt>
      <trkpt lat="17.015355480" lon="-96.463299620">
        <ele>1963.400</ele>
        <time>2020-01-20T18:30:35Z</time>
      </trkpt>
      <trkpt lat="17.015445020" lon="-96.463434700">
        <ele>1965.500</ele>
        <time>2020-01-20T18:30:36Z</time>
      </trkpt>
      <trkpt lat="17.015525300" lon="-96.463576110">
        <ele>1967.500</ele>
        <time>2020-01-20T18:30:37Z</time>
      </trkpt>
      <trkpt lat="17.015586300" lon="-96.463725730">
        <ele>1969.200</ele>
        <time>2020-01-20T18:30:38Z</time>
      </trkpt>
      <trkpt lat="17.015645980" lon="-96.463871210">
        <ele>1971.000</ele>
        <time>2020-01-20T18:30:39Z</time>
      </trkpt>
      <trkpt lat="17.015700000" lon="-96.464018560">
        <ele>1972.300</ele>
        <time>2020-01-20T18:30:40Z</time>
      </trkpt>
      <trkpt lat="17.015758210" lon="-96.464163610">
        <ele>1973.800</ele>
        <time>2020-01-20T18:30:41Z</time>
      </trkpt>
      <trkpt lat="17.015824980" lon="-96.464306480">
        <ele>1975.300</ele>
        <time>2020-01-20T18:30:42Z</time>
      </trkpt>
      <trkpt lat="17.015903280" lon="-96.464439720">
        <ele>1977.000</ele>
        <time>2020-01-20T18:30:43Z</time>
      </trkpt>
      <trkpt lat="17.015989770" lon="-96.464568590">
        <ele>1978.800</ele>
        <time>2020-01-20T18:30:44Z</time>
      </trkpt>
      <trkpt lat="17.016078230" lon="-96.464696240">
        <ele>1980.700</ele>
        <time>2020-01-20T18:30:45Z</time>
      </trkpt>
      <trkpt lat="17.016162500" lon="-96.464818010">
        <ele>1982.600</ele>
        <time>2020-01-20T18:30:46Z</time>
      </trkpt>
      <trkpt lat="17.016247270" lon="-96.464940340">
        <ele>1983.900</ele>
        <time>2020-01-20T18:30:47Z</time>
      </trkpt>
      <trkpt lat="17.016333110" lon="-96.465060210">
        <ele>1986.000</ele>
        <time>2020-01-20T18:30:48Z</time>
      </trkpt>
      <trkpt lat="17.016418030" lon="-96.465179720">
        <ele>1987.300</ele>
        <time>2020-01-20T18:30:49Z</time>
      </trkpt>
      <trkpt lat="17.016508870" lon="-96.465295270">
        <ele>1989.000</ele>
        <time>2020-01-20T18:30:50Z</time>
      </trkpt>
      <trkpt lat="17.016595140" lon="-96.465392990">
        <ele>1990.100</ele>
        <time>2020-01-20T18:30:51Z</time>
      </trkpt>
      <trkpt lat="17.016698460" lon="-96.465470420">
        <ele>1990.900</ele>
        <time>2020-01-20T18:30:52Z</time>
      </trkpt>
      <trkpt lat="17.016811880" lon="-96.465531490">
        <ele>1992.700</ele>
        <time>2020-01-20T18:30:53Z</time>
      </trkpt>
      <trkpt lat="17.016938990" lon="-96.465571590">
        <ele>1993.600</ele>
        <time>2020-01-20T18:30:54Z</time>
      </trkpt>
      <trkpt lat="17.017076260" lon="-96.465616100">
        <ele>1993.500</ele>
        <time>2020-01-20T18:30:55Z</time>
      </trkpt>
      <trkpt lat="17.017210540" lon="-96.465634300">
        <ele>1994.600</ele>
        <time>2020-01-20T18:30:56Z</time>
      </trkpt>
      <trkpt lat="17.017344830" lon="-96.465664060">
        <ele>1995.500</ele>
        <time>2020-01-20T18:30:57Z</time>
      </trkpt>
      <trkpt lat="17.017478070" lon="-96.465700930">
        <ele>1995.900</ele>
        <time>2020-01-20T18:30:58Z</time>
      </trkpt>
      <trkpt lat="17.017610070" lon="-96.465731140">
        <ele>1996.400</ele>
        <time>2020-01-20T18:30:59Z</time>
      </trkpt>
      <trkpt lat="17.017733770" lon="-96.465760330">
        <ele>1997.300</ele>
        <time>2020-01-20T18:31:00Z</time>
      </trkpt>
      <trkpt lat="17.017851300" lon="-96.465780710">
        <ele>1998.400</ele>
        <time>2020-01-20T18:31:01Z</time>
      </trkpt>
      <trkpt lat="17.017960570" lon="-96.465785200">
        <ele>1998.400</ele>
        <time>2020-01-20T18:31:02Z</time>
      </trkpt>
      <trkpt lat="17.018059320" lon="-96.465768330">
        <ele>1999.400</ele>
        <time>2020-01-20T18:31:03Z</time>
      </trkpt>
      <trkpt lat="17.018145730" lon="-96.465727480">
        <ele>2000.500</ele>
        <time>2020-01-20T18:31:04Z</time>
      </trkpt>
      <trkpt lat="17.018211040" lon="-96.465660670">
        <ele>2001.600</ele>
        <time>2020-01-20T18:31:05Z</time>
      </trkpt>
      <trkpt lat="17.018253620" lon="-96.465574070">
        <ele>2002.800</ele>
        <time>2020-01-20T18:31:06Z</time>
      </trkpt>
      <trkpt lat="17.018269120" lon="-96.465485290">
        <ele>2004.000</ele>
        <time>2020-01-20T18:31:07Z</time>
      </trkpt>
      <trkpt lat="17.018254430" lon="-96.465393990">
        <ele>2005.400</ele>
        <time>2020-01-20T18:31:08Z</time>
      </trkpt>
      <trkpt lat="17.018213930" lon="-96.465314810">
        <ele>2006.100</ele>
        <time>2020-01-20T18:31:09Z</time>
      </trkpt>
      <trkpt lat="17.018153020" lon="-96.465249890">
        <ele>2007.100</ele>
        <time>2020-01-20T18:31:10Z</time>
      </trkpt>
      <trkpt lat="17.018071020" lon="-96.465197940">
        <ele>2007.500</ele>
        <time>2020-01-20T18:31:11Z</time>
      </trkpt>
      <trkpt lat="17.017981210" lon="-96.465157330">
        <ele>2008.000</ele>
        <time>2020-01-20T18:31:12Z</time>
      </trkpt>
      <trkpt lat="17.017893210" lon="-96.465121520">
        <ele>2008.300</ele>
        <time>2020-01-20T18:31:13Z</time>
      </trkpt>
      <trkpt lat="17.017799730" lon="-96.465084260">
        <ele>2008.800</ele>
        <time>2020-01-20T18:31:14Z</time>
      </trkpt>
      <trkpt lat="17.017708510" lon="-96.465044640">
        <ele>2009.700</ele>
        <time>2020-01-20T18:31:15Z</time>
      </trkpt>
      <trkpt lat="17.017611850" lon="-96.465007330">
        <ele>2011.000</ele>
        <time>2020-01-20T18:31:16Z</time>
      </trkpt>
      <trkpt lat="17.017513970" lon="-96.464967560">
        <ele>2011.700</ele>
        <time>2020-01-20T18:31:17Z</time>
      </trkpt>
      <trkpt lat="17.017415290" lon="-96.464927540">
        <ele>2013.400</ele>
        <time>2020-01-20T18:31:18Z</time>
      </trkpt>
      <trkpt lat="17.017329830" lon="-96.464879830">
        <ele>2014.100</ele>
        <time>2020-01-20T18:31:19Z</time>
      </trkpt>
      <trkpt lat="17.017252550" lon="-96.464825330">
        <ele>2015.000</ele>
        <time>2020-01-20T18:31:20Z</time>
      </trkpt>
      <trkpt lat="17.017197980" lon="-96.464761250">
        <ele>2015.800</ele>
        <time>2020-01-20T18:31:21Z</time>
      </trkpt>
      <trkpt lat="17.017163880" lon="-96.464691480">
        <ele>2015.900</ele>
        <time>2020-01-20T18:31:22Z</time>
      </trkpt>
      <trkpt lat="17.017147180" lon="-96.464600300">
        <ele>2017.600</ele>
        <time>2020-01-20T18:31:23Z</time>
      </trkpt>
      <trkpt lat="17.017156460" lon="-96.464515120">
        <ele>2018.300</ele>
        <time>2020-01-20T18:31:24Z</time>
      </trkpt>
      <trkpt lat="17.017197090" lon="-96.464440780">
        <ele>2019.400</ele>
        <time>2020-01-20T18:31:25Z</time>
      </trkpt>
      <trkpt lat="17.017259180" lon="-96.464379830">
        <ele>2020.600</ele>
        <time>2020-01-20T18:31:26Z</time>
      </trkpt>
      <trkpt lat="17.017336690" lon="-96.464335870">
        <ele>2021.800</ele>
        <time>2020-01-20T18:31:27Z</time>
      </trkpt>
      <trkpt lat="17.017419730" lon="-96.464317200">
        <ele>2023.100</ele>
        <time>2020-01-20T18:31:28Z</time>
      </trkpt>
      <trkpt lat="17.017507170" lon="-96.464327780">
        <ele>2023.200</ele>
        <time>2020-01-20T18:31:29Z</time>
      </trkpt>
      <trkpt lat="17.017588830" lon="-96.464356590">
        <ele>2024.300</ele>
        <time>2020-01-20T18:31:30Z</time>
      </trkpt>
      <trkpt lat="17.017661020" lon="-96.464388280">
        <ele>2025.200</ele>
        <time>2020-01-20T18:31:31Z</time>
      </trkpt>
      <trkpt lat="17.017723270" lon="-96.464421610">
        <ele>2025.900</ele>
        <time>2020-01-20T18:31:32Z</time>
      </trkpt>
      <trkpt lat="17.017783600" lon="-96.464456270">
        <ele>2026.900</ele>
        <time>2020-01-20T18:31:33Z</time>
      </trkpt>
      <trkpt lat="17.017837230" lon="-96.464490750">
        <ele>2027.900</ele>
        <time>2020-01-20T18:31:34Z</time>
      </trkpt>
      <trkpt lat="17.017888880" lon="-96.464521400">
        <ele>2028.800</ele>
        <time>2020-01-20T18:31:35Z</time>
      </trkpt>
      <trkpt lat="17.017940830" lon="-96.464553980">
        <ele>2029.400</ele>
        <time>2020-01-20T18:31:36Z</time>
      </trkpt>
      <trkpt lat="17.018003800" lon="-96.464590060">
        <ele>2030.100</ele>
        <time>2020-01-20T18:31:37Z</time>
      </trkpt>
      <trkpt lat="17.018068730" lon="-96.464628200">
        <ele>2031.000</ele>
        <time>2020-01-20T18:31:38Z</time>
      </trkpt>
      <trkpt lat="17.018142790" lon="-96.464674590">
        <ele>2032.200</ele>
        <time>2020-01-20T18:31:39Z</time>
      </trkpt>
      <trkpt lat="17.018217810" lon="-96.464718380">
        <ele>2033.000</ele>
        <time>2020-01-20T18:31:40Z</time>
      </trkpt>
      <trkpt lat="17.018300580" lon="-96.464761380">
        <ele>2034.100</ele>
        <time>2020-01-20T18:31:41Z</time>
      </trkpt>
      <trkpt lat="17.018386050" lon="-96.464806260">
        <ele>2035.200</ele>
        <time>2020-01-20T18:31:42Z</time>
      </trkpt>
      <trkpt lat="17.018475670" lon="-96.464847150">
        <ele>2036.400</ele>
        <time>2020-01-20T18:31:43Z</time>
      </trkpt>
      <trkpt lat="17.018565990" lon="-96.464887540">
        <ele>2037.400</ele>
        <time>2020-01-20T18:31:44Z</time>
      </trkpt>
      <trkpt lat="17.018657360" lon="-96.464928320">
        <ele>2038.600</ele>
        <time>2020-01-20T18:31:45Z</time>
      </trkpt>
      <trkpt lat="17.018755690" lon="-96.464967050">
        <ele>2039.500</ele>
        <time>2020-01-20T18:31:46Z</time>
      </trkpt>
      <trkpt lat="17.018856870" lon="-96.465006380">
        <ele>2040.400</ele>
        <time>2020-01-20T18:31:47Z</time>
      </trkpt>
      <trkpt lat="17.018965080" lon="-96.465042800">
        <ele>2041.300</ele>
        <time>2020-01-20T18:31:48Z</time>
      </trkpt>
      <trkpt lat="17.019079150" lon="-96.465084070">
        <ele>2042.600</ele>
        <time>2020-01-20T18:31:49Z</time>
      </trkpt>
      <trkpt lat="17.019197300" lon="-96.465127760">
        <ele>2043.900</ele>
        <time>2020-01-20T18:31:50Z</time>
      </trkpt>
      <trkpt lat="17.019308250" lon="-96.465169550">
        <ele>2045.000</ele>
        <time>2020-01-20T18:31:51Z</time>
      </trkpt>
      <trkpt lat="17.019420150" lon="-96.465209260">
        <ele>2045.900</ele>
        <time>2020-01-20T18:31:52Z</time>
      </trkpt>
      <trkpt lat="17.019531790" lon="-96.465251410">
        <ele>2047.200</ele>
        <time>2020-01-20T18:31:53Z</time>
      </trkpt>
      <trkpt lat="17.019649540" lon="-96.465287070">
        <ele>2048.300</ele>
        <time>2020-01-20T18:31:54Z</time>
      </trkpt>
      <trkpt lat="17.019769040" lon="-96.465320460">
        <ele>2050.600</ele>
        <time>2020-01-20T18:31:55Z</time>
      </trkpt>
      <trkpt lat="17.019891080" lon="-96.465346030">
        <ele>2052.000</ele>
        <time>2020-01-20T18:31:56Z</time>
      </trkpt>
      <trkpt lat="17.020009320" lon="-96.465378110">
        <ele>2053.700</ele>
        <time>2020-01-20T18:31:57Z</time>
      </trkpt>
      <trkpt lat="17.020131600" lon="-96.465415380">
        <ele>2055.000</ele>
        <time>2020-01-20T18:31:58Z</time>
      </trkpt>
      <trkpt lat="17.020254940" lon="-96.465456070">
        <ele>2056.100</ele>
        <time>2020-01-20T18:31:59Z</time>
      </trkpt>
      <trkpt lat="17.020377380" lon="-96.465494430">
        <ele>2056.800</ele>
        <time>2020-01-20T18:32:00Z</time>
      </trkpt>
      <trkpt lat="17.020502470" lon="-96.465534580">
        <ele>2059.000</ele>
        <time>2020-01-20T18:32:01Z</time>
      </trkpt>
      <trkpt lat="17.020632280" lon="-96.465574020">
        <ele>2060.600</ele>
        <time>2020-01-20T18:32:02Z</time>
      </trkpt>
      <trkpt lat="17.020756840" lon="-96.465615380">
        <ele>2062.100</ele>
        <time>2020-01-20T18:32:03Z</time>
      </trkpt>
      <trkpt lat="17.020885030" lon="-96.465653730">
        <ele>2063.800</ele>
        <time>2020-01-20T18:32:04Z</time>
      </trkpt>
      <trkpt lat="17.021016260" lon="-96.465692620">
        <ele>2065.800</ele>
        <time>2020-01-20T18:32:05Z</time>
      </trkpt>
      <trkpt lat="17.021145340" lon="-96.465738080">
        <ele>2067.400</ele>
        <time>2020-01-20T18:32:06Z</time>
      </trkpt>
      <trkpt lat="17.021277790" lon="-96.465784870">
        <ele>2069.200</ele>
        <time>2020-01-20T18:32:07Z</time>
      </trkpt>
      <trkpt lat="17.021400610" lon="-96.465827470">
        <ele>2070.000</ele>
        <time>2020-01-20T18:32:08Z</time>
      </trkpt>
      <trkpt lat="17.021525660" lon="-96.465871430">
        <ele>2071.400</ele>
        <time>2020-01-20T18:32:09Z</time>
      </trkpt>
      <trkpt lat="17.021640310" lon="-96.465935740">
        <ele>2073.300</ele>
        <time>2020-01-20T18:32:10Z</time>
      </trkpt>
      <trkpt lat="17.021749670" lon="-96.466012100">
        <ele>2074.800</ele>
        <time>2020-01-20T18:32:11Z</time>
      </trkpt>
      <trkpt lat="17.021844260" lon="-96.466105100">
        <ele>2076.500</ele>
        <time>2020-01-20T18:32:12Z</time>
      </trkpt>
      <trkpt lat="17.021936490" lon="-96.466203170">
        <ele>2078.200</ele>
        <time>2020-01-20T18:32:13Z</time>
      </trkpt>
      <trkpt lat="17.022023110" lon="-96.466304610">
        <ele>2080.200</ele>
        <time>2020-01-20T18:32:14Z</time>
      </trkpt>
      <trkpt lat="17.022097300" lon="-96.466423330">
        <ele>2081.900</ele>
        <time>2020-01-20T18:32:15Z</time>
      </trkpt>
      <trkpt lat="17.022166420" lon="-96.466545840">
        <ele>2083.600</ele>
        <time>2020-01-20T18:32:16Z</time>
      </trkpt>
      <trkpt lat="17.022224740" lon="-96.466671730">
        <ele>2085.200</ele>
        <time>2020-01-20T18:32:17Z</time>
      </trkpt>
      <trkpt lat="17.022276680" lon="-96.466794010">
        <ele>2086.300</ele>
        <time>2020-01-20T18:32:18Z</time>
      </trkpt>
      <trkpt lat="17.022330010" lon="-96.466915650">
        <ele>2087.800</ele>
        <time>2020-01-20T18:32:19Z</time>
      </trkpt>
      <trkpt lat="17.022381250" lon="-96.467040060">
        <ele>2088.800</ele>
        <time>2020-01-20T18:32:20Z</time>
      </trkpt>
      <trkpt lat="17.022434940" lon="-96.467161390">
        <ele>2089.500</ele>
        <time>2020-01-20T18:32:21Z</time>
      </trkpt>
      <trkpt lat="17.022485120" lon="-96.467273890">
        <ele>2090.500</ele>
        <time>2020-01-20T18:32:22Z</time>
      </trkpt>
      <trkpt lat="17.022538210" lon="-96.467380540">
        <ele>2091.200</ele>
        <time>2020-01-20T18:32:23Z</time>
      </trkpt>
      <trkpt lat="17.022594500" lon="-96.467488810">
        <ele>2091.300</ele>
        <time>2020-01-20T18:32:24Z</time>
      </trkpt>
      <trkpt lat="17.022654090" lon="-96.467601990">
        <ele>2091.100</ele>
        <time>2020-01-20T18:32:25Z</time>
      </trkpt>
      <trkpt lat="17.022711620" lon="-96.467705920">
        <ele>2091.400</ele>
        <time>2020-01-20T18:32:26Z</time>
      </trkpt>
      <trkpt lat="17.022771780" lon="-96.467813190">
        <ele>2091.700</ele>
        <time>2020-01-20T18:32:27Z</time>
      </trkpt>
      <trkpt lat="17.022833370" lon="-96.467922540">
        <ele>2092.200</ele>
        <time>2020-01-20T18:32:28Z</time>
      </trkpt>
      <trkpt lat="17.022882200" lon="-96.468031650">
        <ele>2092.700</ele>
        <time>2020-01-20T18:32:29Z</time>
      </trkpt>
      <trkpt lat="17.022915560" lon="-96.468142890">
        <ele>2092.900</ele>
        <time>2020-01-20T18:32:30Z</time>
      </trkpt>
      <trkpt lat="17.022931940" lon="-96.468261160">
        <ele>2093.600</ele>
        <time>2020-01-20T18:32:31Z</time>
      </trkpt>
      <trkpt lat="17.022919820" lon="-96.468385430">
        <ele>2094.400</ele>
        <time>2020-01-20T18:32:32Z</time>
      </trkpt>
      <trkpt lat="17.022885490" lon="-96.468505150">
        <ele>2095.400</ele>
        <time>2020-01-20T18:32:33Z</time>
      </trkpt>
      <trkpt lat="17.022843010" lon="-96.468624930">
        <ele>2096.400</ele>
        <time>2020-01-20T18:32:34Z</time>
      </trkpt>
      <trkpt lat="17.022795820" lon="-96.468747690">
        <ele>2097.400</ele>
        <time>2020-01-20T18:32:35Z</time>
      </trkpt>
      <trkpt lat="17.022746250" lon="-96.468868280">
        <ele>2098.400</ele>
        <time>2020-01-20T18:32:36Z</time>
      </trkpt>
      <trkpt lat="17.022700500" lon="-96.468987660">
        <ele>2099.200</ele>
        <time>2020-01-20T18:32:37Z</time>
      </trkpt>
      <trkpt lat="17.022659280" lon="-96.469103720">
        <ele>2100.100</ele>
        <time>2020-01-20T18:32:38Z</time>
      </trkpt>
      <trkpt lat="17.022610560" lon="-96.469220490">
        <ele>2100.800</ele>
        <time>2020-01-20T18:32:39Z</time>
      </trkpt>
      <trkpt lat="17.022553600" lon="-96.469329470">
        <ele>2101.200</ele>
        <time>2020-01-20T18:32:40Z</time>
      </trkpt>
      <trkpt lat="17.022478780" lon="-96.469431110">
        <ele>2102.500</ele>
        <time>2020-01-20T18:32:41Z</time>
      </trkpt>
      <trkpt lat="17.022393070" lon="-96.469524860">
        <ele>2102.300</ele>
        <time>2020-01-20T18:32:42Z</time>
      </trkpt>
      <trkpt lat="17.022284120" lon="-96.469587040">
        <ele>2103.800</ele>
        <time>2020-01-20T18:32:43Z</time>
      </trkpt>
      <trkpt lat="17.022172280" lon="-96.469657690">
        <ele>2104.400</ele>
        <time>2020-01-20T18:32:44Z</time>
      </trkpt>
      <trkpt lat="17.022058960" lon="-96.469713600">
        <ele>2105.800</ele>
        <time>2020-01-20T18:32:45Z</time>
      </trkpt>
      <trkpt lat="17.021950770" lon="-96.469775090">
        <ele>2106.500</ele>
        <time>2020-01-20T18:32:46Z</time>
      </trkpt>
      <trkpt lat="17.021841930" lon="-96.469825850">
        <ele>2107.500</ele>
        <time>2020-01-20T18:32:47Z</time>
      </trkpt>
      <trkpt lat="17.021733320" lon="-96.469861490">
        <ele>2108.000</ele>
        <time>2020-01-20T18:32:48Z</time>
      </trkpt>
      <trkpt lat="17.021622480" lon="-96.469874340">
        <ele>2109.200</ele>
        <time>2020-01-20T18:32:49Z</time>
      </trkpt>
      <trkpt lat="17.021519950" lon="-96.469869130">
        <ele>2110.000</ele>
        <time>2020-01-20T18:32:50Z</time>
      </trkpt>
      <trkpt lat="17.021414790" lon="-96.469849930">
        <ele>2111.000</ele>
        <time>2020-01-20T18:32:51Z</time>
      </trkpt>
      <trkpt lat="17.021315770" lon="-96.469834190">
        <ele>2112.300</ele>
        <time>2020-01-20T18:32:52Z</time>
      </trkpt>
      <trkpt lat="17.021225270" lon="-96.469845030">
        <ele>2113.100</ele>
        <time>2020-01-20T18:32:53Z</time>
      </trkpt>
      <trkpt lat="17.021141300" lon="-96.469864640">
        <ele>2114.400</ele>
        <time>2020-01-20T18:32:54Z</time>
      </trkpt>
      <trkpt lat="17.021067600" lon="-96.469909560">
        <ele>2115.200</ele>
        <time>2020-01-20T18:32:55Z</time>
      </trkpt>
      <trkpt lat="17.021052450" lon="-96.470015430">
        <ele>2116.600</ele>
        <time>2020-01-20T18:32:56Z</time>
      </trkpt>
      <trkpt lat="17.021064300" lon="-96.470112630">
        <ele>2117.300</ele>
        <time>2020-01-20T18:32:57Z</time>
      </trkpt>
      <trkpt lat="17.021099690" lon="-96.470200350">
        <ele>2118.400</ele>
        <time>2020-01-20T18:32:58Z</time>
      </trkpt>
      <trkpt lat="17.021159620" lon="-96.470261850">
        <ele>2119.100</ele>
        <time>2020-01-20T18:32:59Z</time>
      </trkpt>
      <trkpt lat="17.021234240" lon="-96.470303580">
        <ele>2120.000</ele>
        <time>2020-01-20T18:33:00Z</time>
      </trkpt>
      <trkpt lat="17.021321500" lon="-96.470333870">
        <ele>2119.600</ele>
        <time>2020-01-20T18:33:01Z</time>
      </trkpt>
      <trkpt lat="17.021400640" lon="-96.470359180">
        <ele>2120.200</ele>
        <time>2020-01-20T18:33:02Z</time>
      </trkpt>
      <trkpt lat="17.021483090" lon="-96.470384220">
        <ele>2120.800</ele>
        <time>2020-01-20T18:33:03Z</time>
      </trkpt>
      <trkpt lat="17.021565600" lon="-96.470413410">
        <ele>2121.500</ele>
        <time>2020-01-20T18:33:04Z</time>
      </trkpt>
      <trkpt lat="17.021648060" lon="-96.470443230">
        <ele>2122.000</ele>
        <time>2020-01-20T18:33:05Z</time>
      </trkpt>
      <trkpt lat="17.021744660" lon="-96.470470820">
        <ele>2124.100</ele>
        <time>2020-01-20T18:33:06Z</time>
      </trkpt>
      <trkpt lat="17.021838710" lon="-96.470504380">
        <ele>2126.200</ele>
        <time>2020-01-20T18:33:07Z</time>
      </trkpt>
      <trkpt lat="17.021923190" lon="-96.470550090">
        <ele>2070.400</ele>
        <time>2020-01-20T18:33:08Z</time>
      </trkpt>
      <trkpt lat="17.021997270" lon="-96.470603050">
        <ele>2091.500</ele>
        <time>2020-01-20T18:33:09Z</time>
      </trkpt>
      <trkpt lat="17.022060060" lon="-96.470685540">
        <ele>2103.100</ele>
        <time>2020-01-20T18:33:10Z</time>
      </trkpt>
      <trkpt lat="17.022125100" lon="-96.470780490">
        <ele>2110.800</ele>
        <time>2020-01-20T18:33:11Z</time>
      </trkpt>
      <trkpt lat="17.022189360" lon="-96.470879980">
        <ele>2116.500</ele>
        <time>2020-01-20T18:33:12Z</time>
      </trkpt>
      <trkpt lat="17.022246770" lon="-96.470985570">
        <ele>2120.100</ele>
        <time>2020-01-20T18:33:13Z</time>
      </trkpt>
      <trkpt lat="17.022306890" lon="-96.471085440">
        <ele>2123.100</ele>
        <time>2020-01-20T18:33:14Z</time>
      </trkpt>
      <trkpt lat="17.022373530" lon="-96.471202680">
        <ele>2125.100</ele>
        <time>2020-01-20T18:33:15Z</time>
      </trkpt>
      <trkpt lat="17.022441100" lon="-96.471317130">
        <ele>2128.700</ele>
        <time>2020-01-20T18:33:16Z</time>
      </trkpt>
      <trkpt lat="17.022499810" lon="-96.471428470">
        <ele>2130.500</ele>
        <time>2020-01-20T18:33:17Z</time>
      </trkpt>
      <trkpt lat="17.022557820" lon="-96.471538030">
        <ele>2132.500</ele>
        <time>2020-01-20T18:33:18Z</time>
      </trkpt>
      <trkpt lat="17.022597000" lon="-96.471655200">
        <ele>2134.300</ele>
        <time>2020-01-20T18:33:19Z</time>
      </trkpt>
      <trkpt lat="17.022624620" lon="-96.471774770">
        <ele>2135.200</ele>
        <time>2020-01-20T18:33:20Z</time>
      </trkpt>
      <trkpt lat="17.022606720" lon="-96.471900050">
        <ele>2125.500</ele>
        <time>2020-01-20T18:33:21Z</time>
      </trkpt>
      <trkpt lat="17.022584300" lon="-96.472028460">
        <ele>2131.000</ele>
        <time>2020-01-20T18:33:22Z</time>
      </trkpt>
      <trkpt lat="17.022558730" lon="-96.472153330">
        <ele>2135.200</ele>
        <time>2020-01-20T18:33:23Z</time>
      </trkpt>
      <trkpt lat="17.022524590" lon="-96.472270980">
        <ele>2138.600</ele>
        <time>2020-01-20T18:33:24Z</time>
      </trkpt>
      <trkpt lat="17.022490060" lon="-96.472388140">
        <ele>2140.500</ele>
        <time>2020-01-20T18:33:25Z</time>
      </trkpt>
      <trkpt lat="17.022469120" lon="-96.472504310">
        <ele>2142.200</ele>
        <time>2020-01-20T18:33:26Z</time>
      </trkpt>
      <trkpt lat="17.022468510" lon="-96.472615560">
        <ele>2143.500</ele>
        <time>2020-01-20T18:33:27Z</time>
      </trkpt>
      <trkpt lat="17.022495860" lon="-96.472711580">
        <ele>2145.400</ele>
        <time>2020-01-20T18:33:28Z</time>
      </trkpt>
      <trkpt lat="17.022545900" lon="-96.472796780">
        <ele>2146.800</ele>
        <time>2020-01-20T18:33:29Z</time>
      </trkpt>
      <trkpt lat="17.022618440" lon="-96.472851300">
        <ele>2147.500</ele>
        <time>2020-01-20T18:33:30Z</time>
      </trkpt>
      <trkpt lat="17.022703390" lon="-96.472876270">
        <ele>2149.500</ele>
        <time>2020-01-20T18:33:31Z</time>
      </trkpt>
      <trkpt lat="17.022787120" lon="-96.472880630">
        <ele>2150.000</ele>
        <time>2020-01-20T18:33:32Z</time>
      </trkpt>
      <trkpt lat="17.022880880" lon="-96.472837650">
        <ele>2151.200</ele>
        <time>2020-01-20T18:33:33Z</time>
      </trkpt>
      <trkpt lat="17.022952140" lon="-96.472777050">
        <ele>2151.900</ele>
        <time>2020-01-20T18:33:34Z</time>
      </trkpt>
      <trkpt lat="17.023005430" lon="-96.472698760">
        <ele>2152.400</ele>
        <time>2020-01-20T18:33:35Z</time>
      </trkpt>
      <trkpt lat="17.023033330" lon="-96.472603420">
        <ele>2153.700</ele>
        <time>2020-01-20T18:33:36Z</time>
      </trkpt>
      <trkpt lat="17.023052490" lon="-96.472507260">
        <ele>2154.400</ele>
        <time>2020-01-20T18:33:37Z</time>
      </trkpt>
      <trkpt lat="17.023065370" lon="-96.472411830">
        <ele>2155.200</ele>
        <time>2020-01-20T18:33:38Z</time>
      </trkpt>
      <trkpt lat="17.023079310" lon="-96.472308870">
        <ele>2156.700</ele>
        <time>2020-01-20T18:33:39Z</time>
      </trkpt>
      <trkpt lat="17.023091320" lon="-96.472201570">
        <ele>2157.400</ele>
        <time>2020-01-20T18:33:40Z</time>
      </trkpt>
      <trkpt lat="17.023113180" lon="-96.472089330">
        <ele>2158.500</ele>
        <time>2020-01-20T18:33:41Z</time>
      </trkpt>
      <trkpt lat="17.023131710" lon="-96.471974830">
        <ele>2160.000</ele>
        <time>2020-01-20T18:33:42Z</time>
      </trkpt>
      <trkpt lat="17.023151590" lon="-96.471859940">
        <ele>2160.800</ele>
        <time>2020-01-20T18:33:43Z</time>
      </trkpt>
      <trkpt lat="17.023178330" lon="-96.471741930">
        <ele>2162.200</ele>
        <time>2020-01-20T18:33:44Z</time>
      </trkpt>
      <trkpt lat="17.023215370" lon="-96.471628260">
        <ele>2163.200</ele>
        <time>2020-01-20T18:33:45Z</time>
      </trkpt>
      <trkpt lat="17.023264180" lon="-96.471517680">
        <ele>2164.000</ele>
        <time>2020-01-20T18:33:46Z</time>
      </trkpt>
      <trkpt lat="17.023322220" lon="-96.471405650">
        <ele>2164.100</ele>
        <time>2020-01-20T18:33:47Z</time>
      </trkpt>
      <trkpt lat="17.023377870" lon="-96.471294820">
        <ele>2165.900</ele>
        <time>2020-01-20T18:33:48Z</time>
      </trkpt>
      <trkpt lat="17.023433760" lon="-96.471180970">
        <ele>2165.900</ele>
        <time>2020-01-20T18:33:49Z</time>
      </trkpt>
      <trkpt lat="17.023494130" lon="-96.471063660">
        <ele>2166.500</ele>
        <time>2020-01-20T18:33:50Z</time>
      </trkpt>
      <trkpt lat="17.023556260" lon="-96.470947310">
        <ele>2167.800</ele>
        <time>2020-01-20T18:33:51Z</time>
      </trkpt>
      <trkpt lat="17.023623650" lon="-96.470845530">
        <ele>2168.000</ele>
        <time>2020-01-20T18:33:52Z</time>
      </trkpt>
      <trkpt lat="17.023713310" lon="-96.470744920">
        <ele>2171.200</ele>
        <time>2020-01-20T18:33:53Z</time>
      </trkpt>
      <trkpt lat="17.023802250" lon="-96.470662570">
        <ele>2171.800</ele>
        <time>2020-01-20T18:33:54Z</time>
      </trkpt>
      <trkpt lat="17.023883770" lon="-96.470582530">
        <ele>2172.500</ele>
        <time>2020-01-20T18:33:55Z</time>
      </trkpt>
      <trkpt lat="17.023976000" lon="-96.470513900">
        <ele>2172.900</ele>
        <time>2020-01-20T18:33:56Z</time>
      </trkpt>
      <trkpt lat="17.024070420" lon="-96.470444550">
        <ele>2174.200</ele>
        <time>2020-01-20T18:33:57Z</time>
      </trkpt>
      <trkpt lat="17.024167910" lon="-96.470374720">
        <ele>2177.800</ele>
        <time>2020-01-20T18:33:58Z</time>
      </trkpt>
      <trkpt lat="17.024271390" lon="-96.470319100">
        <ele>2179.600</ele>
        <time>2020-01-20T18:33:59Z</time>
      </trkpt>
      <trkpt lat="17.024386910" lon="-96.470287720">
        <ele>2180.800</ele>
        <time>2020-01-20T18:34:00Z</time>
      </trkpt>
      <trkpt lat="17.024497510" lon="-96.470261430">
        <ele>2182.000</ele>
        <time>2020-01-20T18:34:01Z</time>
      </trkpt>
      <trkpt lat="17.024603130" lon="-96.470251950">
        <ele>2183.700</ele>
        <time>2020-01-20T18:34:02Z</time>
      </trkpt>
      <trkpt lat="17.024710100" lon="-96.470260120">
        <ele>2183.900</ele>
        <time>2020-01-20T18:34:03Z</time>
      </trkpt>
      <trkpt lat="17.024814510" lon="-96.470284720">
        <ele>2185.400</ele>
        <time>2020-01-20T18:34:04Z</time>
      </trkpt>
      <trkpt lat="17.024917250" lon="-96.470317810">
        <ele>2186.800</ele>
        <time>2020-01-20T18:34:05Z</time>
      </trkpt>
      <trkpt lat="17.025018850" lon="-96.470369560">
        <ele>2187.600</ele>
        <time>2020-01-20T18:34:06Z</time>
      </trkpt>
      <trkpt lat="17.025113920" lon="-96.470433180">
        <ele>2189.000</ele>
        <time>2020-01-20T18:34:07Z</time>
      </trkpt>
      <trkpt lat="17.025203930" lon="-96.470507740">
        <ele>2190.100</ele>
        <time>2020-01-20T18:34:08Z</time>
      </trkpt>
      <trkpt lat="17.025289600" lon="-96.470586370">
        <ele>2190.900</ele>
        <time>2020-01-20T18:34:09Z</time>
      </trkpt>
      <trkpt lat="17.025369750" lon="-96.470667900">
        <ele>2192.000</ele>
        <time>2020-01-20T18:34:10Z</time>
      </trkpt>
      <trkpt lat="17.025452990" lon="-96.470751040">
        <ele>2192.700</ele>
        <time>2020-01-20T18:34:11Z</time>
      </trkpt>
      <trkpt lat="17.025537620" lon="-96.470831020">
        <ele>2193.600</ele>
        <time>2020-01-20T18:34:12Z</time>
      </trkpt>
      <trkpt lat="17.025627780" lon="-96.470918000">
        <ele>2193.300</ele>
        <time>2020-01-20T18:34:13Z</time>
      </trkpt>
      <trkpt lat="17.025714030" lon="-96.470997600">
        <ele>2193.300</ele>
        <time>2020-01-20T18:34:14Z</time>
      </trkpt>
      <trkpt lat="17.025796460" lon="-96.471084950">
        <ele>2194.000</ele>
        <time>2020-01-20T18:34:15Z</time>
      </trkpt>
      <trkpt lat="17.025885030" lon="-96.471166720">
        <ele>2193.700</ele>
        <time>2020-01-20T18:34:16Z</time>
      </trkpt>
      <trkpt lat="17.025973070" lon="-96.471244580">
        <ele>2193.800</ele>
        <time>2020-01-20T18:34:17Z</time>
      </trkpt>
      <trkpt lat="17.026069610" lon="-96.471310360">
        <ele>2194.000</ele>
        <time>2020-01-20T18:34:18Z</time>
      </trkpt>
      <trkpt lat="17.026176540" lon="-96.471357520">
        <ele>2194.700</ele>
        <time>2020-01-20T18:34:19Z</time>
      </trkpt>
      <trkpt lat="17.026293130" lon="-96.471379300">
        <ele>2194.800</ele>
        <time>2020-01-20T18:34:20Z</time>
      </trkpt>
      <trkpt lat="17.026420410" lon="-96.471385270">
        <ele>2194.900</ele>
        <time>2020-01-20T18:34:21Z</time>
      </trkpt>
      <trkpt lat="17.026542810" lon="-96.471371990">
        <ele>2196.400</ele>
        <time>2020-01-20T18:34:22Z</time>
      </trkpt>
      <trkpt lat="17.026665880" lon="-96.471356820">
        <ele>2199.100</ele>
        <time>2020-01-20T18:34:23Z</time>
      </trkpt>
      <trkpt lat="17.026785730" lon="-96.471349730">
        <ele>2199.700</ele>
        <time>2020-01-20T18:34:24Z</time>
      </trkpt>
      <trkpt lat="17.026913830" lon="-96.471339770">
        <ele>2200.500</ele>
        <time>2020-01-20T18:34:25Z</time>
      </trkpt>
      <trkpt lat="17.027039050" lon="-96.471329720">
        <ele>2202.000</ele>
        <time>2020-01-20T18:34:26Z</time>
      </trkpt>
      <trkpt lat="17.027163220" lon="-96.471317410">
        <ele>2202.900</ele>
        <time>2020-01-20T18:34:27Z</time>
      </trkpt>
      <trkpt lat="17.027286890" lon="-96.471297350">
        <ele>2204.200</ele>
        <time>2020-01-20T18:34:28Z</time>
      </trkpt>
      <trkpt lat="17.027412040" lon="-96.471270950">
        <ele>2205.400</ele>
        <time>2020-01-20T18:34:29Z</time>
      </trkpt>
      <trkpt lat="17.027536620" lon="-96.471244630">
        <ele>2207.300</ele>
        <time>2020-01-20T18:34:30Z</time>
      </trkpt>
      <trkpt lat="17.027662270" lon="-96.471216680">
        <ele>2208.600</ele>
        <time>2020-01-20T18:34:31Z</time>
      </trkpt>
      <trkpt lat="17.027786610" lon="-96.471188860">
        <ele>2209.800</ele>
        <time>2020-01-20T18:34:32Z</time>
      </trkpt>
      <trkpt lat="17.027912490" lon="-96.471160540">
        <ele>2211.400</ele>
        <time>2020-01-20T18:34:33Z</time>
      </trkpt>
      <trkpt lat="17.028034570" lon="-96.471129820">
        <ele>2182.200</ele>
        <time>2020-01-20T18:34:34Z</time>
      </trkpt>
      <trkpt lat="17.028151400" lon="-96.471100590">
        <ele>2194.400</ele>
        <time>2020-01-20T18:34:35Z</time>
      </trkpt>
      <trkpt lat="17.028267570" lon="-96.471070340">
        <ele>2201.900</ele>
        <time>2020-01-20T18:34:36Z</time>
      </trkpt>
      <trkpt lat="17.028378950" lon="-96.471041570">
        <ele>2206.800</ele>
        <time>2020-01-20T18:34:37Z</time>
      </trkpt>
      <trkpt lat="17.028488870" lon="-96.471023490">
        <ele>2211.300</ele>
        <time>2020-01-20T18:34:38Z</time>
      </trkpt>
      <trkpt lat="17.028602070" lon="-96.471023960">
        <ele>2214.500</ele>
        <time>2020-01-20T18:34:39Z</time>
      </trkpt>
      <trkpt lat="17.028714360" lon="-96.471042920">
        <ele>2216.800</ele>
        <time>2020-01-20T18:34:40Z</time>
      </trkpt>
      <trkpt lat="17.028827530" lon="-96.471076440">
        <ele>2218.000</ele>
        <time>2020-01-20T18:34:41Z</time>
      </trkpt>
      <trkpt lat="17.028942630" lon="-96.471116980">
        <ele>2219.900</ele>
        <time>2020-01-20T18:34:42Z</time>
      </trkpt>
      <trkpt lat="17.029055510" lon="-96.471160320">
        <ele>2221.200</ele>
        <time>2020-01-20T18:34:43Z</time>
      </trkpt>
      <trkpt lat="17.029169590" lon="-96.471209430">
        <ele>2222.200</ele>
        <time>2020-01-20T18:34:44Z</time>
      </trkpt>
      <trkpt lat="17.029287260" lon="-96.471254020">
        <ele>2223.700</ele>
        <time>2020-01-20T18:34:45Z</time>
      </trkpt>
      <trkpt lat="17.029409620" lon="-96.471297020">
        <ele>2225.300</ele>
        <time>2020-01-20T18:34:46Z</time>
      </trkpt>
      <trkpt lat="17.029533690" lon="-96.471337720">
        <ele>2226.200</ele>
        <time>2020-01-20T18:34:47Z</time>
      </trkpt>
      <trkpt lat="17.029656420" lon="-96.471371790">
        <ele>2227.700</ele>
        <time>2020-01-20T18:34:48Z</time>
      </trkpt>
      <trkpt lat="17.029782720" lon="-96.471404810">
        <ele>2228.700</ele>
        <time>2020-01-20T18:34:49Z</time>
      </trkpt>
      <trkpt lat="17.029908450" lon="-96.471429140">
        <ele>2230.200</ele>
        <time>2020-01-20T18:34:50Z</time>
      </trkpt>
      <trkpt lat="17.030040380" lon="-96.471448530">
        <ele>2232.000</ele>
        <time>2020-01-20T18:34:51Z</time>
      </trkpt>
      <trkpt lat="17.030170820" lon="-96.471462300">
        <ele>2233.800</ele>
        <time>2020-01-20T18:34:52Z</time>
      </trkpt>
      <trkpt lat="17.030301140" lon="-96.471476900">
        <ele>2235.400</ele>
        <time>2020-01-20T18:34:53Z</time>
      </trkpt>
      <trkpt lat="17.030438430" lon="-96.471491930">
        <ele>2236.600</ele>
        <time>2020-01-20T18:34:54Z</time>
      </trkpt>
      <trkpt lat="17.030566910" lon="-96.471504310">
        <ele>2238.000</ele>
        <time>2020-01-20T18:34:55Z</time>
      </trkpt>
      <trkpt lat="17.030697320" lon="-96.471519560">
        <ele>2238.200</ele>
        <time>2020-01-20T18:34:56Z</time>
      </trkpt>
      <trkpt lat="17.030824750" lon="-96.471532480">
        <ele>2239.700</ele>
        <time>2020-01-20T18:34:57Z</time>
      </trkpt>
      <trkpt lat="17.030954490" lon="-96.471558700">
        <ele>2240.500</ele>
        <time>2020-01-20T18:34:58Z</time>
      </trkpt>
      <trkpt lat="17.031077230" lon="-96.471593730">
        <ele>2243.000</ele>
        <time>2020-01-20T18:34:59Z</time>
      </trkpt>
      <trkpt lat="17.031191370" lon="-96.471653110">
        <ele>2243.800</ele>
        <time>2020-01-20T18:35:00Z</time>
      </trkpt>
      <trkpt lat="17.031306300" lon="-96.471721100">
        <ele>2245.800</ele>
        <time>2020-01-20T18:35:01Z</time>
      </trkpt>
      <trkpt lat="17.031420400" lon="-96.471789320">
        <ele>2247.900</ele>
        <time>2020-01-20T18:35:02Z</time>
      </trkpt>
      <trkpt lat="17.031534250" lon="-96.471856010">
        <ele>2249.100</ele>
        <time>2020-01-20T18:35:03Z</time>
      </trkpt>
      <trkpt lat="17.031646000" lon="-96.471917990">
        <ele>2250.600</ele>
        <time>2020-01-20T18:35:04Z</time>
      </trkpt>
      <trkpt lat="17.031756740" lon="-96.471980600">
        <ele>2251.800</ele>
        <time>2020-01-20T18:35:05Z</time>
      </trkpt>
      <trkpt lat="17.031864740" lon="-96.472040380">
        <ele>2252.900</ele>
        <time>2020-01-20T18:35:06Z</time>
      </trkpt>
      <trkpt lat="17.031973050" lon="-96.472094020">
        <ele>2253.800</ele>
        <time>2020-01-20T18:35:07Z</time>
      </trkpt>
      <trkpt lat="17.032085840" lon="-96.472139450">
        <ele>2254.700</ele>
        <time>2020-01-20T18:35:08Z</time>
      </trkpt>
      <trkpt lat="17.032204650" lon="-96.472171640">
        <ele>2256.700</ele>
        <time>2020-01-20T18:35:09Z</time>
      </trkpt>
      <trkpt lat="17.032320180" lon="-96.472187760">
        <ele>2257.600</ele>
        <time>2020-01-20T18:35:10Z</time>
      </trkpt>
      <trkpt lat="17.032434490" lon="-96.472195240">
        <ele>2259.000</ele>
        <time>2020-01-20T18:35:11Z</time>
      </trkpt>
      <trkpt lat="17.032550800" lon="-96.472196060">
        <ele>2260.200</ele>
        <time>2020-01-20T18:35:12Z</time>
      </trkpt>
      <trkpt lat="17.032669300" lon="-96.472204490">
        <ele>2260.500</ele>
        <time>2020-01-20T18:35:13Z</time>
      </trkpt>
      <trkpt lat="17.032784200" lon="-96.472214060">
        <ele>2261.500</ele>
        <time>2020-01-20T18:35:14Z</time>
      </trkpt>
      <trkpt lat="17.032897270" lon="-96.472227610">
        <ele>2262.500</ele>
        <time>2020-01-20T18:35:15Z</time>
      </trkpt>
      <trkpt lat="17.033014220" lon="-96.472239200">
        <ele>2263.900</ele>
        <time>2020-01-20T18:35:16Z</time>
      </trkpt>
      <trkpt lat="17.033123280" lon="-96.472243460">
        <ele>2265.200</ele>
        <time>2020-01-20T18:35:17Z</time>
      </trkpt>
      <trkpt lat="17.033245040" lon="-96.472254710">
        <ele>2266.700</ele>
        <time>2020-01-20T18:35:18Z</time>
      </trkpt>
      <trkpt lat="17.033364460" lon="-96.472264630">
        <ele>2267.700</ele>
        <time>2020-01-20T18:35:19Z</time>
      </trkpt>
      <trkpt lat="17.033478380" lon="-96.472275640">
        <ele>2269.100</ele>
        <time>2020-01-20T18:35:20Z</time>
      </trkpt>
      <trkpt lat="17.033586910" lon="-96.472285450">
        <ele>2269.700</ele>
        <time>2020-01-20T18:35:21Z</time>
      </trkpt>
      <trkpt lat="17.033696170" lon="-96.472283970">
        <ele>2270.000</ele>
        <time>2020-01-20T18:35:22Z</time>
      </trkpt>
      <trkpt lat="17.033807920" lon="-96.472269650">
        <ele>2270.000</ele>
        <time>2020-01-20T18:35:23Z</time>
      </trkpt>
      <trkpt lat="17.033914480" lon="-96.472234170">
        <ele>2271.600</ele>
        <time>2020-01-20T18:35:24Z</time>
      </trkpt>
      <trkpt lat="17.034015890" lon="-96.472189540">
        <ele>2273.000</ele>
        <time>2020-01-20T18:35:25Z</time>
      </trkpt>
      <trkpt lat="17.034114730" lon="-96.472134320">
        <ele>2274.000</ele>
        <time>2020-01-20T18:35:26Z</time>
      </trkpt>
      <trkpt lat="17.034213670" lon="-96.472079660">
        <ele>2275.100</ele>
        <time>2020-01-20T18:35:27Z</time>
      </trkpt>
      <trkpt lat="17.034304360" lon="-96.472024480">
        <ele>2275.900</ele>
        <time>2020-01-20T18:35:28Z</time>
      </trkpt>
      <trkpt lat="17.034389630" lon="-96.471966290">
        <ele>2276.600</ele>
        <time>2020-01-20T18:35:29Z</time>
      </trkpt>
      <trkpt lat="17.034462620" lon="-96.471901180">
        <ele>2277.100</ele>
        <time>2020-01-20T18:35:30Z</time>
      </trkpt>
      <trkpt lat="17.034522280" lon="-96.471830230">
        <ele>2278.400</ele>
        <time>2020-01-20T18:35:31Z</time>
      </trkpt>
      <trkpt lat="17.034565120" lon="-96.471749680">
        <ele>2278.800</ele>
        <time>2020-01-20T18:35:32Z</time>
      </trkpt>
      <trkpt lat="17.034593470" lon="-96.471661620">
        <ele>2279.800</ele>
        <time>2020-01-20T18:35:33Z</time>
      </trkpt>
      <trkpt lat="17.034604060" lon="-96.471567280">
        <ele>2280.800</ele>
        <time>2020-01-20T18:35:34Z</time>
      </trkpt>
      <trkpt lat="17.034612100" lon="-96.471479030">
        <ele>2281.900</ele>
        <time>2020-01-20T18:35:35Z</time>
      </trkpt>
      <trkpt lat="17.034614080" lon="-96.471388340">
        <ele>2283.000</ele>
        <time>2020-01-20T18:35:36Z</time>
      </trkpt>
      <trkpt lat="17.034617530" lon="-96.471297850">
        <ele>2284.000</ele>
        <time>2020-01-20T18:35:37Z</time>
      </trkpt>
      <trkpt lat="17.034619880" lon="-96.471207120">
        <ele>2285.200</ele>
        <time>2020-01-20T18:35:38Z</time>
      </trkpt>
      <trkpt lat="17.034616510" lon="-96.471117230">
        <ele>2286.500</ele>
        <time>2020-01-20T18:35:39Z</time>
      </trkpt>
      <trkpt lat="17.034621150" lon="-96.471030300">
        <ele>2288.000</ele>
        <time>2020-01-20T18:35:40Z</time>
      </trkpt>
      <trkpt lat="17.034644570" lon="-96.470953000">
        <ele>2289.000</ele>
        <time>2020-01-20T18:35:41Z</time>
      </trkpt>
      <trkpt lat="17.034671720" lon="-96.470882380">
        <ele>2289.400</ele>
        <time>2020-01-20T18:35:42Z</time>
      </trkpt>
      <trkpt lat="17.034735040" lon="-96.470825890">
        <ele>2290.500</ele>
        <time>2020-01-20T18:35:43Z</time>
      </trkpt>
      <trkpt lat="17.034804080" lon="-96.470787850">
        <ele>2291.900</ele>
        <time>2020-01-20T18:35:44Z</time>
      </trkpt>
      <trkpt lat="17.034868790" lon="-96.470766410">
        <ele>2292.200</ele>
        <time>2020-01-20T18:35:45Z</time>
      </trkpt>
      <trkpt lat="17.034935340" lon="-96.470788150">
        <ele>2293.600</ele>
        <time>2020-01-20T18:35:46Z</time>
      </trkpt>
      <trkpt lat="17.034994320" lon="-96.470821560">
        <ele>2293.500</ele>
        <time>2020-01-20T18:35:47Z</time>
      </trkpt>
      <trkpt lat="17.035048780" lon="-96.470867300">
        <ele>2294.300</ele>
        <time>2020-01-20T18:35:48Z</time>
      </trkpt>
      <trkpt lat="17.035077350" lon="-96.470928110">
        <ele>2295.700</ele>
        <time>2020-01-20T18:35:49Z</time>
      </trkpt>
      <trkpt lat="17.035103260" lon="-96.470993450">
        <ele>2296.400</ele>
        <time>2020-01-20T18:35:50Z</time>
      </trkpt>
      <trkpt lat="17.035119550" lon="-96.471065960">
        <ele>2297.300</ele>
        <time>2020-01-20T18:35:51Z</time>
      </trkpt>
      <trkpt lat="17.035132400" lon="-96.471136640">
        <ele>2297.900</ele>
        <time>2020-01-20T18:35:52Z</time>
      </trkpt>
      <trkpt lat="17.035143160" lon="-96.471197550">
        <ele>2299.200</ele>
        <time>2020-01-20T18:35:53Z</time>
      </trkpt>
      <trkpt lat="17.035168790" lon="-96.471270540">
        <ele>2300.600</ele>
        <time>2020-01-20T18:35:54Z</time>
      </trkpt>
      <trkpt lat="17.035179690" lon="-96.471343330">
        <ele>2301.300</ele>
        <time>2020-01-20T18:35:55Z</time>
      </trkpt>
      <trkpt lat="17.035199230" lon="-96.471420540">
        <ele>2302.100</ele>
        <time>2020-01-20T18:35:56Z</time>
      </trkpt>
      <trkpt lat="17.035235330" lon="-96.471501260">
        <ele>2302.100</ele>
        <time>2020-01-20T18:35:57Z</time>
      </trkpt>
      <trkpt lat="17.035287760" lon="-96.471578550">
        <ele>2303.400</ele>
        <time>2020-01-20T18:35:58Z</time>
      </trkpt>
      <trkpt lat="17.035344830" lon="-96.471645360">
        <ele>2304.800</ele>
        <time>2020-01-20T18:35:59Z</time>
      </trkpt>
      <trkpt lat="17.035414210" lon="-96.471707140">
        <ele>2305.100</ele>
        <time>2020-01-20T18:36:00Z</time>
      </trkpt>
      <trkpt lat="17.035483430" lon="-96.471769340">
        <ele>2306.200</ele>
        <time>2020-01-20T18:36:01Z</time>
      </trkpt>
      <trkpt lat="17.035554130" lon="-96.471830640">
        <ele>2307.000</ele>
        <time>2020-01-20T18:36:02Z</time>
      </trkpt>
      <trkpt lat="17.035629790" lon="-96.471885980">
        <ele>2308.000</ele>
        <time>2020-01-20T18:36:03Z</time>
      </trkpt>
      <trkpt lat="17.035704590" lon="-96.471928780">
        <ele>2309.100</ele>
        <time>2020-01-20T18:36:04Z</time>
      </trkpt>
      <trkpt lat="17.035791130" lon="-96.471961580">
        <ele>2309.400</ele>
        <time>2020-01-20T18:36:05Z</time>
      </trkpt>
      <trkpt lat="17.035875390" lon="-96.471975740">
        <ele>2310.500</ele>
        <time>2020-01-20T18:36:06Z</time>
      </trkpt>
      <trkpt lat="17.035957860" lon="-96.471972090">
        <ele>2311.300</ele>
        <time>2020-01-20T18:36:07Z</time>
      </trkpt>
      <trkpt lat="17.036037000" lon="-96.471980010">
        <ele>2311.800</ele>
        <time>2020-01-20T18:36:08Z</time>
      </trkpt>
      <trkpt lat="17.036115990" lon="-96.471970810">
        <ele>2312.900</ele>
        <time>2020-01-20T18:36:09Z</time>
      </trkpt>
      <trkpt lat="17.036193430" lon="-96.471946660">
        <ele>2313.900</ele>
        <time>2020-01-20T18:36:10Z</time>
      </trkpt>
      <trkpt lat="17.036268060" lon="-96.471914950">
        <ele>2315.000</ele>
        <time>2020-01-20T18:36:11Z</time>
      </trkpt>
      <trkpt lat="17.036340600" lon="-96.471873910">
        <ele>2315.900</ele>
        <time>2020-01-20T18:36:12Z</time>
      </trkpt>
      <trkpt lat="17.036415900" lon="-96.471824880">
        <ele>2315.900</ele>
        <time>2020-01-20T18:36:13Z</time>
      </trkpt>
      <trkpt lat="17.036494680" lon="-96.471774380">
        <ele>2315.800</ele>
        <time>2020-01-20T18:36:14Z</time>
      </trkpt>
      <trkpt lat="17.036574870" lon="-96.471725870">
        <ele>2315.600</ele>
        <time>2020-01-20T18:36:15Z</time>
      </trkpt>
      <trkpt lat="17.036650280" lon="-96.471673400">
        <ele>2315.800</ele>
        <time>2020-01-20T18:36:16Z</time>
      </trkpt>
      <trkpt lat="17.036737530" lon="-96.471623140">
        <ele>2315.600</ele>
        <time>2020-01-20T18:36:17Z</time>
      </trkpt>
      <trkpt lat="17.036814480" lon="-96.471573560">
        <ele>2316.300</ele>
        <time>2020-01-20T18:36:18Z</time>
      </trkpt>
      <trkpt lat="17.036910840" lon="-96.471532010">
        <ele>2316.600</ele>
        <time>2020-01-20T18:36:19Z</time>
      </trkpt>
      <trkpt lat="17.037008840" lon="-96.471491970">
        <ele>2318.400</ele>
        <time>2020-01-20T18:36:20Z</time>
      </trkpt>
      <trkpt lat="17.037102820" lon="-96.471456130">
        <ele>2319.700</ele>
        <time>2020-01-20T18:36:21Z</time>
      </trkpt>
      <trkpt lat="17.037200760" lon="-96.471422960">
        <ele>2320.900</ele>
        <time>2020-01-20T18:36:22Z</time>
      </trkpt>
      <trkpt lat="17.037298470" lon="-96.471394480">
        <ele>2321.900</ele>
        <time>2020-01-20T18:36:23Z</time>
      </trkpt>
      <trkpt lat="17.037397800" lon="-96.471360800">
        <ele>2322.700</ele>
        <time>2020-01-20T18:36:24Z</time>
      </trkpt>
      <trkpt lat="17.037495500" lon="-96.471327780">
        <ele>2323.200</ele>
        <time>2020-01-20T18:36:25Z</time>
      </trkpt>
      <trkpt lat="17.037596230" lon="-96.471298650">
        <ele>2325.000</ele>
        <time>2020-01-20T18:36:26Z</time>
      </trkpt>
      <trkpt lat="17.037698310" lon="-96.471274200">
        <ele>2325.300</ele>
        <time>2020-01-20T18:36:27Z</time>
      </trkpt>
      <trkpt lat="17.037811290" lon="-96.471254730">
        <ele>2328.000</ele>
        <time>2020-01-20T18:36:28Z</time>
      </trkpt>
      <trkpt lat="17.037916400" lon="-96.471240600">
        <ele>2329.300</ele>
        <time>2020-01-20T18:36:29Z</time>
      </trkpt>
      <trkpt lat="17.038025200" lon="-96.471234230">
        <ele>2330.000</ele>
        <time>2020-01-20T18:36:30Z</time>
      </trkpt>
      <trkpt lat="17.038128040" lon="-96.471263440">
        <ele>2331.100</ele>
        <time>2020-01-20T18:36:31Z</time>
      </trkpt>
      <trkpt lat="17.038235610" lon="-96.471281330">
        <ele>2331.900</ele>
        <time>2020-01-20T18:36:32Z</time>
      </trkpt>
      <trkpt lat="17.038343170" lon="-96.471308640">
        <ele>2332.600</ele>
        <time>2020-01-20T18:36:33Z</time>
      </trkpt>
      <trkpt lat="17.038448120" lon="-96.471334100">
        <ele>2333.300</ele>
        <time>2020-01-20T18:36:34Z</time>
      </trkpt>
      <trkpt lat="17.038551220" lon="-96.471361030">
        <ele>2334.400</ele>
        <time>2020-01-20T18:36:35Z</time>
      </trkpt>
      <trkpt lat="17.038655700" lon="-96.471386740">
        <ele>2334.600</ele>
        <time>2020-01-20T18:36:36Z</time>
      </trkpt>
      <trkpt lat="17.038760080" lon="-96.471405210">
        <ele>2334.800</ele>
        <time>2020-01-20T18:36:37Z</time>
      </trkpt>
      <trkpt lat="17.038869320" lon="-96.471419590">
        <ele>2334.700</ele>
        <time>2020-01-20T18:36:38Z</time>
      </trkpt>
      <trkpt lat="17.038993350" lon="-96.471438170">
        <ele>2335.500</ele>
        <time>2020-01-20T18:36:39Z</time>
      </trkpt>
      <trkpt lat="17.039111890" lon="-96.471448740">
        <ele>2337.800</ele>
        <time>2020-01-20T18:36:40Z</time>
      </trkpt>
      <trkpt lat="17.039227540" lon="-96.471456930">
        <ele>2338.600</ele>
        <time>2020-01-20T18:36:41Z</time>
      </trkpt>
      <trkpt lat="17.039338870" lon="-96.471466090">
        <ele>2339.000</ele>
        <time>2020-01-20T18:36:42Z</time>
      </trkpt>
      <trkpt lat="17.039452130" lon="-96.471472820">
        <ele>2340.300</ele>
        <time>2020-01-20T18:36:43Z</time>
      </trkpt>
      <trkpt lat="17.039566810" lon="-96.471479220">
        <ele>2341.100</ele>
        <time>2020-01-20T18:36:44Z</time>
      </trkpt>
      <trkpt lat="17.039684540" lon="-96.471487390">
        <ele>2342.400</ele>
        <time>2020-01-20T18:36:45Z</time>
      </trkpt>
      <trkpt lat="17.039797460" lon="-96.471494240">
        <ele>2343.600</ele>
        <time>2020-01-20T18:36:46Z</time>
      </trkpt>
      <trkpt lat="17.039911500" lon="-96.471501490">
        <ele>2344.900</ele>
        <time>2020-01-20T18:36:47Z</time>
      </trkpt>
      <trkpt lat="17.040024620" lon="-96.471509660">
        <ele>2345.700</ele>
        <time>2020-01-20T18:36:48Z</time>
      </trkpt>
      <trkpt lat="17.040146080" lon="-96.471513460">
        <ele>2346.900</ele>
        <time>2020-01-20T18:36:49Z</time>
      </trkpt>
      <trkpt lat="17.040263660" lon="-96.471509940">
        <ele>2348.100</ele>
        <time>2020-01-20T18:36:50Z</time>
      </trkpt>
      <trkpt lat="17.040383400" lon="-96.471500010">
        <ele>2349.200</ele>
        <time>2020-01-20T18:36:51Z</time>
      </trkpt>
      <trkpt lat="17.040499480" lon="-96.471476540">
        <ele>2349.800</ele>
        <time>2020-01-20T18:36:52Z</time>
      </trkpt>
      <trkpt lat="17.040615280" lon="-96.471441870">
        <ele>2350.400</ele>
        <time>2020-01-20T18:36:53Z</time>
      </trkpt>
      <trkpt lat="17.040721140" lon="-96.471396420">
        <ele>2351.400</ele>
        <time>2020-01-20T18:36:54Z</time>
      </trkpt>
      <trkpt lat="17.040819610" lon="-96.471358490">
        <ele>2351.500</ele>
        <time>2020-01-20T18:36:55Z</time>
      </trkpt>
      <trkpt lat="17.040926440" lon="-96.471313340">
        <ele>2351.800</ele>
        <time>2020-01-20T18:36:56Z</time>
      </trkpt>
      <trkpt lat="17.041033980" lon="-96.471263310">
        <ele>2352.100</ele>
        <time>2020-01-20T18:36:57Z</time>
      </trkpt>
      <trkpt lat="17.041146950" lon="-96.471195550">
        <ele>2352.200</ele>
        <time>2020-01-20T18:36:58Z</time>
      </trkpt>
      <trkpt lat="17.041259280" lon="-96.471139780">
        <ele>2353.700</ele>
        <time>2020-01-20T18:36:59Z</time>
      </trkpt>
      <trkpt lat="17.041363760" lon="-96.471079020">
        <ele>2354.900</ele>
        <time>2020-01-20T18:37:00Z</time>
      </trkpt>
      <trkpt lat="17.041473320" lon="-96.471020460">
        <ele>2355.500</ele>
        <time>2020-01-20T18:37:01Z</time>
      </trkpt>
      <trkpt lat="17.041571920" lon="-96.470964560">
        <ele>2356.000</ele>
        <time>2020-01-20T18:37:02Z</time>
      </trkpt>
      <trkpt lat="17.041684910" lon="-96.470895040">
        <ele>2357.400</ele>
        <time>2020-01-20T18:37:03Z</time>
      </trkpt>
      <trkpt lat="17.041785360" lon="-96.470840250">
        <ele>2357.800</ele>
        <time>2020-01-20T18:37:04Z</time>
      </trkpt>
      <trkpt lat="17.041899650" lon="-96.470792600">
        <ele>2358.600</ele>
        <time>2020-01-20T18:37:05Z</time>
      </trkpt>
      <trkpt lat="17.041999980" lon="-96.470747180">
        <ele>2358.700</ele>
        <time>2020-01-20T18:37:06Z</time>
      </trkpt>
      <trkpt lat="17.042118760" lon="-96.470686730">
        <ele>2358.900</ele>
        <time>2020-01-20T18:37:07Z</time>
      </trkpt>
      <trkpt lat="17.042217790" lon="-96.470636570">
        <ele>2359.200</ele>
        <time>2020-01-20T18:37:08Z</time>
      </trkpt>
      <trkpt lat="17.042330640" lon="-96.470580660">
        <ele>2359.600</ele>
        <time>2020-01-20T18:37:09Z</time>
      </trkpt>
      <trkpt lat="17.042430900" lon="-96.470537370">
        <ele>2362.400</ele>
        <time>2020-01-20T18:37:10Z</time>
      </trkpt>
      <trkpt lat="17.042531060" lon="-96.470489020">
        <ele>2364.000</ele>
        <time>2020-01-20T18:37:11Z</time>
      </trkpt>
      <trkpt lat="17.042631150" lon="-96.470461190">
        <ele>2366.000</ele>
        <time>2020-01-20T18:37:12Z</time>
      </trkpt>
      <trkpt lat="17.042730740" lon="-96.470433050">
        <ele>2370.400</ele>
        <time>2020-01-20T18:37:13Z</time>
      </trkpt>
      <trkpt lat="17.042825550" lon="-96.470424890">
        <ele>2373.400</ele>
        <time>2020-01-20T18:37:14Z</time>
      </trkpt>
      <trkpt lat="17.042925300" lon="-96.470433880">
        <ele>2375.500</ele>
        <time>2020-01-20T18:37:15Z</time>
      </trkpt>
      <trkpt lat="17.043036470" lon="-96.470447420">
        <ele>2377.500</ele>
        <time>2020-01-20T18:37:16Z</time>
      </trkpt>
      <trkpt lat="17.043149090" lon="-96.470457560">
        <ele>2379.700</ele>
        <time>2020-01-20T18:37:17Z</time>
      </trkpt>
      <trkpt lat="17.043255720" lon="-96.470469380">
        <ele>2382.300</ele>
        <time>2020-01-20T18:37:18Z</time>
      </trkpt>
      <trkpt lat="17.043369120" lon="-96.470481340">
        <ele>2383.600</ele>
        <time>2020-01-20T18:37:19Z</time>
      </trkpt>
      <trkpt lat="17.043484200" lon="-96.470498950">
        <ele>2384.400</ele>
        <time>2020-01-20T18:37:20Z</time>
      </trkpt>
      <trkpt lat="17.043595640" lon="-96.470513240">
        <ele>2385.000</ele>
        <time>2020-01-20T18:37:21Z</time>
      </trkpt>
      <trkpt lat="17.043696340" lon="-96.470515460">
        <ele>2385.500</ele>
        <time>2020-01-20T18:37:22Z</time>
      </trkpt>
      <trkpt lat="17.043805320" lon="-96.470515650">
        <ele>2386.800</ele>
        <time>2020-01-20T18:37:23Z</time>
      </trkpt>
      <trkpt lat="17.043898850" lon="-96.470493090">
        <ele>2388.100</ele>
        <time>2020-01-20T18:37:24Z</time>
      </trkpt>
      <trkpt lat="17.043976660" lon="-96.470467060">
        <ele>2388.900</ele>
        <time>2020-01-20T18:37:25Z</time>
      </trkpt>
      <trkpt lat="17.044036740" lon="-96.470445730">
        <ele>2389.700</ele>
        <time>2020-01-20T18:37:26Z</time>
      </trkpt>
      <trkpt lat="17.044104770" lon="-96.470407130">
        <ele>2390.700</ele>
        <time>2020-01-20T18:37:27Z</time>
      </trkpt>
      <trkpt lat="17.044162340" lon="-96.470367790">
        <ele>2391.300</ele>
        <time>2020-01-20T18:37:28Z</time>
      </trkpt>
      <trkpt lat="17.044223550" lon="-96.470326070">
        <ele>2392.000</ele>
        <time>2020-01-20T18:37:29Z</time>
      </trkpt>
      <trkpt lat="17.044285580" lon="-96.470293310">
        <ele>2392.600</ele>
        <time>2020-01-20T18:37:30Z</time>
      </trkpt>
      <trkpt lat="17.044349010" lon="-96.470256930">
        <ele>2393.400</ele>
        <time>2020-01-20T18:37:31Z</time>
      </trkpt>
      <trkpt lat="17.044409040" lon="-96.470225010">
        <ele>2393.900</ele>
        <time>2020-01-20T18:37:32Z</time>
      </trkpt>
      <trkpt lat="17.044459910" lon="-96.470196460">
        <ele>2394.800</ele>
        <time>2020-01-20T18:37:33Z</time>
      </trkpt>
      <trkpt lat="17.044516460" lon="-96.470169710">
        <ele>2395.100</ele>
        <time>2020-01-20T18:37:34Z</time>
      </trkpt>
      <trkpt lat="17.044577310" lon="-96.470144800">
        <ele>2394.800</ele>
        <time>2020-01-20T18:37:35Z</time>
      </trkpt>
      <trkpt lat="17.044638200" lon="-96.470101750">
        <ele>2395.600</ele>
        <time>2020-01-20T18:37:36Z</time>
      </trkpt>
      <trkpt lat="17.044698860" lon="-96.470051760">
        <ele>2396.700</ele>
        <time>2020-01-20T18:37:37Z</time>
      </trkpt>
      <trkpt lat="17.044764850" lon="-96.469995590">
        <ele>2397.700</ele>
        <time>2020-01-20T18:37:38Z</time>
      </trkpt>
      <trkpt lat="17.044828660" lon="-96.469933450">
        <ele>2398.400</ele>
        <time>2020-01-20T18:37:39Z</time>
      </trkpt>
      <trkpt lat="17.044891540" lon="-96.469868860">
        <ele>2399.300</ele>
        <time>2020-01-20T18:37:40Z</time>
      </trkpt>
      <trkpt lat="17.044951500" lon="-96.469804000">
        <ele>2400.500</ele>
        <time>2020-01-20T18:37:41Z</time>
      </trkpt>
      <trkpt lat="17.045010790" lon="-96.469739290">
        <ele>2401.700</ele>
        <time>2020-01-20T18:37:42Z</time>
      </trkpt>
      <trkpt lat="17.045066670" lon="-96.469671620">
        <ele>2402.800</ele>
        <time>2020-01-20T18:37:43Z</time>
      </trkpt>
      <trkpt lat="17.045120770" lon="-96.469603990">
        <ele>2403.900</ele>
        <time>2020-01-20T18:37:44Z</time>
      </trkpt>
      <trkpt lat="17.045161770" lon="-96.469529390">
        <ele>2404.700</ele>
        <time>2020-01-20T18:37:45Z</time>
      </trkpt>
      <trkpt lat="17.045183470" lon="-96.469447770">
        <ele>2405.400</ele>
        <time>2020-01-20T18:37:46Z</time>
      </trkpt>
      <trkpt lat="17.045191620" lon="-96.469359710">
        <ele>2407.000</ele>
        <time>2020-01-20T18:37:47Z</time>
      </trkpt>
      <trkpt lat="17.045200440" lon="-96.469273770">
        <ele>2407.900</ele>
        <time>2020-01-20T18:37:48Z</time>
      </trkpt>
      <trkpt lat="17.045198570" lon="-96.469195560">
        <ele>2408.300</ele>
        <time>2020-01-20T18:37:49Z</time>
      </trkpt>
      <trkpt lat="17.045197030" lon="-96.469116270">
        <ele>2409.200</ele>
        <time>2020-01-20T18:37:50Z</time>
      </trkpt>
      <trkpt lat="17.045205750" lon="-96.469043200">
        <ele>2409.800</ele>
        <time>2020-01-20T18:37:51Z</time>
      </trkpt>
      <trkpt lat="17.045233960" lon="-96.468971380">
        <ele>2410.300</ele>
        <time>2020-01-20T18:37:52Z</time>
      </trkpt>
      <trkpt lat="17.045276370" lon="-96.468909440">
        <ele>2410.500</ele>
        <time>2020-01-20T18:37:53Z</time>
      </trkpt>
      <trkpt lat="17.045329640" lon="-96.468857690">
        <ele>2411.100</ele>
        <time>2020-01-20T18:37:54Z</time>
      </trkpt>
      <trkpt lat="17.045388890" lon="-96.468817300">
        <ele>2412.300</ele>
        <time>2020-01-20T18:37:55Z</time>
      </trkpt>
      <trkpt lat="17.045451300" lon="-96.468792630">
        <ele>2412.700</ele>
        <time>2020-01-20T18:37:56Z</time>
      </trkpt>
      <trkpt lat="17.045520840" lon="-96.468771980">
        <ele>2412.800</ele>
        <time>2020-01-20T18:37:57Z</time>
      </trkpt>
      <trkpt lat="17.045598550" lon="-96.468761410">
        <ele>2412.800</ele>
        <time>2020-01-20T18:37:58Z</time>
      </trkpt>
      <trkpt lat="17.045681010" lon="-96.468736910">
        <ele>2413.400</ele>
        <time>2020-01-20T18:37:59Z</time>
      </trkpt>
      <trkpt lat="17.045761630" lon="-96.468724550">
        <ele>2414.300</ele>
        <time>2020-01-20T18:38:00Z</time>
      </trkpt>
      <trkpt lat="17.045847890" lon="-96.468697920">
        <ele>2414.900</ele>
        <time>2020-01-20T18:38:01Z</time>
      </trkpt>
      <trkpt lat="17.045927540" lon="-96.468668390">
        <ele>2415.400</ele>
        <time>2020-01-20T18:38:02Z</time>
      </trkpt>
      <trkpt lat="17.046003130" lon="-96.468633610">
        <ele>2416.200</ele>
        <time>2020-01-20T18:38:03Z</time>
      </trkpt>
      <trkpt lat="17.046075490" lon="-96.468596070">
        <ele>2416.700</ele>
        <time>2020-01-20T18:38:04Z</time>
      </trkpt>
      <trkpt lat="17.046149650" lon="-96.468547980">
        <ele>2418.100</ele>
        <time>2020-01-20T18:38:05Z</time>
      </trkpt>
      <trkpt lat="17.046221050" lon="-96.468500270">
        <ele>2418.900</ele>
        <time>2020-01-20T18:38:06Z</time>
      </trkpt>
      <trkpt lat="17.046293460" lon="-96.468451260">
        <ele>2419.600</ele>
        <time>2020-01-20T18:38:07Z</time>
      </trkpt>
      <trkpt lat="17.046360740" lon="-96.468395200">
        <ele>2420.000</ele>
        <time>2020-01-20T18:38:08Z</time>
      </trkpt>
      <trkpt lat="17.046421170" lon="-96.468329090">
        <ele>2420.800</ele>
        <time>2020-01-20T18:38:09Z</time>
      </trkpt>
      <trkpt lat="17.046476950" lon="-96.468253800">
        <ele>2421.200</ele>
        <time>2020-01-20T18:38:10Z</time>
      </trkpt>
      <trkpt lat="17.046534060" lon="-96.468175770">
        <ele>2421.300</ele>
        <time>2020-01-20T18:38:11Z</time>
      </trkpt>
      <trkpt lat="17.046575220" lon="-96.468087560">
        <ele>2421.300</ele>
        <time>2020-01-20T18:38:12Z</time>
      </trkpt>
      <trkpt lat="17.046619650" lon="-96.468004450">
        <ele>2421.900</ele>
        <time>2020-01-20T18:38:13Z</time>
      </trkpt>
      <trkpt lat="17.046671030" lon="-96.467925920">
        <ele>2421.800</ele>
        <time>2020-01-20T18:38:14Z</time>
      </trkpt>
      <trkpt lat="17.046727390" lon="-96.467852030">
        <ele>2422.700</ele>
        <time>2020-01-20T18:38:15Z</time>
      </trkpt>
      <trkpt lat="17.046806710" lon="-96.467801200">
        <ele>2424.600</ele>
        <time>2020-01-20T18:38:16Z</time>
      </trkpt>
      <trkpt lat="17.046890490" lon="-96.467751690">
        <ele>2425.400</ele>
        <time>2020-01-20T18:38:17Z</time>
      </trkpt>
      <trkpt lat="17.046981880" lon="-96.467712490">
        <ele>2426.400</ele>
        <time>2020-01-20T18:38:18Z</time>
      </trkpt>
      <trkpt lat="17.047067820" lon="-96.467680300">
        <ele>2427.600</ele>
        <time>2020-01-20T18:38:19Z</time>
      </trkpt>
      <trkpt lat="17.047152550" lon="-96.467649350">
        <ele>2428.600</ele>
        <time>2020-01-20T18:38:20Z</time>
      </trkpt>
      <trkpt lat="17.047233870" lon="-96.467624440">
        <ele>2429.400</ele>
        <time>2020-01-20T18:38:21Z</time>
      </trkpt>
      <trkpt lat="17.047301140" lon="-96.467609340">
        <ele>2430.200</ele>
        <time>2020-01-20T18:38:22Z</time>
      </trkpt>
      <trkpt lat="17.047364900" lon="-96.467607370">
        <ele>2430.700</ele>
        <time>2020-01-20T18:38:23Z</time>
      </trkpt>
      <trkpt lat="17.047422140" lon="-96.467622460">
        <ele>2432.400</ele>
        <time>2020-01-20T18:38:24Z</time>
      </trkpt>
      <trkpt lat="17.047473630" lon="-96.467646410">
        <ele>2433.900</ele>
        <time>2020-01-20T18:38:25Z</time>
      </trkpt>
      <trkpt lat="17.047518880" lon="-96.467679880">
        <ele>2435.100</ele>
        <time>2020-01-20T18:38:26Z</time>
      </trkpt>
      <trkpt lat="17.047568090" lon="-96.467733890">
        <ele>2436.300</ele>
        <time>2020-01-20T18:38:27Z</time>
      </trkpt>
      <trkpt lat="17.047618850" lon="-96.467792090">
        <ele>2437.400</ele>
        <time>2020-01-20T18:38:28Z</time>
      </trkpt>
      <trkpt lat="17.047668940" lon="-96.467857210">
        <ele>2438.900</ele>
        <time>2020-01-20T18:38:29Z</time>
      </trkpt>
      <trkpt lat="17.047723580" lon="-96.467927690">
        <ele>2440.300</ele>
        <time>2020-01-20T18:38:30Z</time>
      </trkpt>
      <trkpt lat="17.047788720" lon="-96.468003500">
        <ele>2441.800</ele>
        <time>2020-01-20T18:38:31Z</time>
      </trkpt>
      <trkpt lat="17.047851290" lon="-96.468079360">
        <ele>2442.900</ele>
        <time>2020-01-20T18:38:32Z</time>
      </trkpt>
      <trkpt lat="17.047909720" lon="-96.468155580">
        <ele>2444.400</ele>
        <time>2020-01-20T18:38:33Z</time>
      </trkpt>
      <trkpt lat="17.047965310" lon="-96.468231390">
        <ele>2444.800</ele>
        <time>2020-01-20T18:38:34Z</time>
      </trkpt>
      <trkpt lat="17.048026560" lon="-96.468295740">
        <ele>2445.700</ele>
        <time>2020-01-20T18:38:35Z</time>
      </trkpt>
      <trkpt lat="17.048099550" lon="-96.468349610">
        <ele>2446.600</ele>
        <time>2020-01-20T18:38:36Z</time>
      </trkpt>
      <trkpt lat="17.048175760" lon="-96.468395510">
        <ele>2447.300</ele>
        <time>2020-01-20T18:38:37Z</time>
      </trkpt>
      <trkpt lat="17.048266110" lon="-96.468421910">
        <ele>2447.300</ele>
        <time>2020-01-20T18:38:38Z</time>
      </trkpt>
      <trkpt lat="17.048355330" lon="-96.468392310">
        <ele>2448.800</ele>
        <time>2020-01-20T18:38:39Z</time>
      </trkpt>
      <trkpt lat="17.048445600" lon="-96.468363000">
        <ele>2449.100</ele>
        <time>2020-01-20T18:38:40Z</time>
      </trkpt>
      <trkpt lat="17.048542190" lon="-96.468327140">
        <ele>2450.400</ele>
        <time>2020-01-20T18:38:41Z</time>
      </trkpt>
      <trkpt lat="17.048637710" lon="-96.468288610">
        <ele>2451.700</ele>
        <time>2020-01-20T18:38:42Z</time>
      </trkpt>
      <trkpt lat="17.048734260" lon="-96.468248230">
        <ele>2452.500</ele>
        <time>2020-01-20T18:38:43Z</time>
      </trkpt>
      <trkpt lat="17.048825610" lon="-96.468206750">
        <ele>2453.100</ele>
        <time>2020-01-20T18:38:44Z</time>
      </trkpt>
      <trkpt lat="17.048910930" lon="-96.468160310">
        <ele>2454.600</ele>
        <time>2020-01-20T18:38:45Z</time>
      </trkpt>
      <trkpt lat="17.049001580" lon="-96.468115390">
        <ele>2455.100</ele>
        <time>2020-01-20T18:38:46Z</time>
      </trkpt>
      <trkpt lat="17.049091010" lon="-96.468058260">
        <ele>2456.900</ele>
        <time>2020-01-20T18:38:47Z</time>
      </trkpt>
      <trkpt lat="17.049178250" lon="-96.467998340">
        <ele>2458.200</ele>
        <time>2020-01-20T18:38:48Z</time>
      </trkpt>
      <trkpt lat="17.049265370" lon="-96.467940840">
        <ele>2459.100</ele>
        <time>2020-01-20T18:38:49Z</time>
      </trkpt>
      <trkpt lat="17.049351900" lon="-96.467877280">
        <ele>2459.500</ele>
        <time>2020-01-20T18:38:50Z</time>
      </trkpt>
      <trkpt lat="17.049418480" lon="-96.467811510">
        <ele>2460.700</ele>
        <time>2020-01-20T18:38:51Z</time>
      </trkpt>
      <trkpt lat="17.049488590" lon="-96.467745010">
        <ele>2461.700</ele>
        <time>2020-01-20T18:38:52Z</time>
      </trkpt>
      <trkpt lat="17.049557460" lon="-96.467674380">
        <ele>2462.900</ele>
        <time>2020-01-20T18:38:53Z</time>
      </trkpt>
      <trkpt lat="17.049615960" lon="-96.467603740">
        <ele>2463.700</ele>
        <time>2020-01-20T18:38:54Z</time>
      </trkpt>
      <trkpt lat="17.049671280" lon="-96.467533390">
        <ele>2464.900</ele>
        <time>2020-01-20T18:38:55Z</time>
      </trkpt>
      <trkpt lat="17.049732810" lon="-96.467467150">
        <ele>2466.900</ele>
        <time>2020-01-20T18:38:56Z</time>
      </trkpt>
      <trkpt lat="17.049794130" lon="-96.467416630">
        <ele>2467.800</ele>
        <time>2020-01-20T18:38:57Z</time>
      </trkpt>
      <trkpt lat="17.049861160" lon="-96.467389150">
        <ele>2469.500</ele>
        <time>2020-01-20T18:38:58Z</time>
      </trkpt>
      <trkpt lat="17.049924980" lon="-96.467360650">
        <ele>2469.400</ele>
        <time>2020-01-20T18:38:59Z</time>
      </trkpt>
      <trkpt lat="17.050003140" lon="-96.467361240">
        <ele>2469.700</ele>
        <time>2020-01-20T18:39:00Z</time>
      </trkpt>
      <trkpt lat="17.050073040" lon="-96.467402540">
        <ele>2470.900</ele>
        <time>2020-01-20T18:39:01Z</time>
      </trkpt>
      <trkpt lat="17.050144170" lon="-96.467436670">
        <ele>2470.900</ele>
        <time>2020-01-20T18:39:02Z</time>
      </trkpt>
      <trkpt lat="17.050213630" lon="-96.467492220">
        <ele>2470.700</ele>
        <time>2020-01-20T18:39:03Z</time>
      </trkpt>
      <trkpt lat="17.050286990" lon="-96.467550500">
        <ele>2471.300</ele>
        <time>2020-01-20T18:39:04Z</time>
      </trkpt>
      <trkpt lat="17.050357120" lon="-96.467617370">
        <ele>2472.400</ele>
        <time>2020-01-20T18:39:05Z</time>
      </trkpt>
      <trkpt lat="17.050431170" lon="-96.467685070">
        <ele>2474.200</ele>
        <time>2020-01-20T18:39:06Z</time>
      </trkpt>
      <trkpt lat="17.050506000" lon="-96.467739530">
        <ele>2475.300</ele>
        <time>2020-01-20T18:39:07Z</time>
      </trkpt>
      <trkpt lat="17.050585180" lon="-96.467771680">
        <ele>2475.200</ele>
        <time>2020-01-20T18:39:08Z</time>
      </trkpt>
      <trkpt lat="17.050673590" lon="-96.467804830">
        <ele>2475.700</ele>
        <time>2020-01-20T18:39:09Z</time>
      </trkpt>
      <trkpt lat="17.050767180" lon="-96.467824510">
        <ele>2477.100</ele>
        <time>2020-01-20T18:39:10Z</time>
      </trkpt>
      <trkpt lat="17.050857350" lon="-96.467823460">
        <ele>2478.500</ele>
        <time>2020-01-20T18:39:11Z</time>
      </trkpt>
      <trkpt lat="17.050953150" lon="-96.467831160">
        <ele>2480.200</ele>
        <time>2020-01-20T18:39:12Z</time>
      </trkpt>
      <trkpt lat="17.051043910" lon="-96.467838250">
        <ele>2480.700</ele>
        <time>2020-01-20T18:39:13Z</time>
      </trkpt>
      <trkpt lat="17.051140170" lon="-96.467842510">
        <ele>2481.300</ele>
        <time>2020-01-20T18:39:14Z</time>
      </trkpt>
      <trkpt lat="17.051216840" lon="-96.467876620">
        <ele>2482.100</ele>
        <time>2020-01-20T18:39:15Z</time>
      </trkpt>
      <trkpt lat="17.051286860" lon="-96.467923590">
        <ele>2484.000</ele>
        <time>2020-01-20T18:39:16Z</time>
      </trkpt>
      <trkpt lat="17.051346860" lon="-96.467985900">
        <ele>2484.600</ele>
        <time>2020-01-20T18:39:17Z</time>
      </trkpt>
      <trkpt lat="17.051388460" lon="-96.468068590">
        <ele>2485.800</ele>
        <time>2020-01-20T18:39:18Z</time>
      </trkpt>
      <trkpt lat="17.051412730" lon="-96.468168210">
        <ele>2487.800</ele>
        <time>2020-01-20T18:39:19Z</time>
      </trkpt>
      <trkpt lat="17.051441760" lon="-96.468260270">
        <ele>2487.800</ele>
        <time>2020-01-20T18:39:20Z</time>
      </trkpt>
      <trkpt lat="17.051470520" lon="-96.468349880">
        <ele>2488.300</ele>
        <time>2020-01-20T18:39:21Z</time>
      </trkpt>
      <trkpt lat="17.051494400" lon="-96.468443580">
        <ele>2488.100</ele>
        <time>2020-01-20T18:39:22Z</time>
      </trkpt>
      <trkpt lat="17.051503870" lon="-96.468546580">
        <ele>2490.100</ele>
        <time>2020-01-20T18:39:23Z</time>
      </trkpt>
      <trkpt lat="17.051536800" lon="-96.468628870">
        <ele>2490.500</ele>
        <time>2020-01-20T18:39:24Z</time>
      </trkpt>
      <trkpt lat="17.051573740" lon="-96.468703950">
        <ele>2492.200</ele>
        <time>2020-01-20T18:39:25Z</time>
      </trkpt>
      <trkpt lat="17.051626750" lon="-96.468750340">
        <ele>2493.600</ele>
        <time>2020-01-20T18:39:26Z</time>
      </trkpt>
      <trkpt lat="17.051689020" lon="-96.468789080">
        <ele>2494.100</ele>
        <time>2020-01-20T18:39:27Z</time>
      </trkpt>
      <trkpt lat="17.051767140" lon="-96.468755510">
        <ele>2495.400</ele>
        <time>2020-01-20T18:39:28Z</time>
      </trkpt>
      <trkpt lat="17.051836770" lon="-96.468727750">
        <ele>2496.700</ele>
        <time>2020-01-20T18:39:29Z</time>
      </trkpt>
      <trkpt lat="17.051909770" lon="-96.468700590">
        <ele>2498.500</ele>
        <time>2020-01-20T18:39:30Z</time>
      </trkpt>
      <trkpt lat="17.051997870" lon="-96.468676550">
        <ele>2498.700</ele>
        <time>2020-01-20T18:39:31Z</time>
      </trkpt>
      <trkpt lat="17.052081650" lon="-96.468676390">
        <ele>2499.800</ele>
        <time>2020-01-20T18:39:32Z</time>
      </trkpt>
      <trkpt lat="17.052165070" lon="-96.468695900">
        <ele>2501.100</ele>
        <time>2020-01-20T18:39:33Z</time>
      </trkpt>
      <trkpt lat="17.052235850" lon="-96.468734380">
        <ele>2502.200</ele>
        <time>2020-01-20T18:39:34Z</time>
      </trkpt>
      <trkpt lat="17.052298970" lon="-96.468795080">
        <ele>2503.400</ele>
        <time>2020-01-20T18:39:35Z</time>
      </trkpt>
      <trkpt lat="17.052365440" lon="-96.468864580">
        <ele>2505.000</ele>
        <time>2020-01-20T18:39:36Z</time>
      </trkpt>
      <trkpt lat="17.052438800" lon="-96.468924120">
        <ele>2505.500</ele>
        <time>2020-01-20T18:39:37Z</time>
      </trkpt>
      <trkpt lat="17.052520790" lon="-96.468979960">
        <ele>2506.200</ele>
        <time>2020-01-20T18:39:38Z</time>
      </trkpt>
      <trkpt lat="17.052608710" lon="-96.469030440">
        <ele>2507.000</ele>
        <time>2020-01-20T18:39:39Z</time>
      </trkpt>
      <trkpt lat="17.052695260" lon="-96.469064360">
        <ele>2507.700</ele>
        <time>2020-01-20T18:39:40Z</time>
      </trkpt>
      <trkpt lat="17.052795930" lon="-96.469095150">
        <ele>2509.300</ele>
        <time>2020-01-20T18:39:41Z</time>
      </trkpt>
      <trkpt lat="17.052882700" lon="-96.469130640">
        <ele>2510.200</ele>
        <time>2020-01-20T18:39:42Z</time>
      </trkpt>
      <trkpt lat="17.052964120" lon="-96.469175290">
        <ele>2510.800</ele>
        <time>2020-01-20T18:39:43Z</time>
      </trkpt>
      <trkpt lat="17.053038450" lon="-96.469223170">
        <ele>2512.200</ele>
        <time>2020-01-20T18:39:44Z</time>
      </trkpt>
      <trkpt lat="17.053103710" lon="-96.469273680">
        <ele>2513.000</ele>
        <time>2020-01-20T18:39:45Z</time>
      </trkpt>
      <trkpt lat="17.053180980" lon="-96.469299080">
        <ele>2513.900</ele>
        <time>2020-01-20T18:39:46Z</time>
      </trkpt>
      <trkpt lat="17.053270610" lon="-96.469308590">
        <ele>2515.100</ele>
        <time>2020-01-20T18:39:47Z</time>
      </trkpt>
      <trkpt lat="17.053355430" lon="-96.469297500">
        <ele>2515.700</ele>
        <time>2020-01-20T18:39:48Z</time>
      </trkpt>
      <trkpt lat="17.053430180" lon="-96.469279730">
        <ele>2516.300</ele>
        <time>2020-01-20T18:39:49Z</time>
      </trkpt>
      <trkpt lat="17.053510100" lon="-96.469264300">
        <ele>2517.400</ele>
        <time>2020-01-20T18:39:50Z</time>
      </trkpt>
      <trkpt lat="17.053591850" lon="-96.469261190">
        <ele>2518.500</ele>
        <time>2020-01-20T18:39:51Z</time>
      </trkpt>
      <trkpt lat="17.053673200" lon="-96.469279690">
        <ele>2520.000</ele>
        <time>2020-01-20T18:39:52Z</time>
      </trkpt>
      <trkpt lat="17.053753340" lon="-96.469315200">
        <ele>2520.300</ele>
        <time>2020-01-20T18:39:53Z</time>
      </trkpt>
      <trkpt lat="17.053825870" lon="-96.469360560">
        <ele>2520.600</ele>
        <time>2020-01-20T18:39:54Z</time>
      </trkpt>
      <trkpt lat="17.053889710" lon="-96.469430020">
        <ele>2521.000</ele>
        <time>2020-01-20T18:39:55Z</time>
      </trkpt>
      <trkpt lat="17.053943160" lon="-96.469512930">
        <ele>2522.100</ele>
        <time>2020-01-20T18:39:56Z</time>
      </trkpt>
      <trkpt lat="17.053994130" lon="-96.469600040">
        <ele>2523.400</ele>
        <time>2020-01-20T18:39:57Z</time>
      </trkpt>
      <trkpt lat="17.054050200" lon="-96.469682050">
        <ele>2523.700</ele>
        <time>2020-01-20T18:39:58Z</time>
      </trkpt>
      <trkpt lat="17.054106820" lon="-96.469771780">
        <ele>2524.500</ele>
        <time>2020-01-20T18:39:59Z</time>
      </trkpt>
      <trkpt lat="17.054154230" lon="-96.469848690">
        <ele>2525.300</ele>
        <time>2020-01-20T18:40:00Z</time>
      </trkpt>
      <trkpt lat="17.054202280" lon="-96.469921560">
        <ele>2525.900</ele>
        <time>2020-01-20T18:40:01Z</time>
      </trkpt>
      <trkpt lat="17.054254920" lon="-96.469984790">
        <ele>2527.400</ele>
        <time>2020-01-20T18:40:02Z</time>
      </trkpt>
      <trkpt lat="17.054325910" lon="-96.470023790">
        <ele>2528.400</ele>
        <time>2020-01-20T18:40:03Z</time>
      </trkpt>
      <trkpt lat="17.054392880" lon="-96.470054600">
        <ele>2528.200</ele>
        <time>2020-01-20T18:40:04Z</time>
      </trkpt>
      <trkpt lat="17.054481000" lon="-96.470039150">
        <ele>2528.900</ele>
        <time>2020-01-20T18:40:05Z</time>
      </trkpt>
      <trkpt lat="17.054566010" lon="-96.470016470">
        <ele>2529.600</ele>
        <time>2020-01-20T18:40:06Z</time>
      </trkpt>
      <trkpt lat="17.054645120" lon="-96.469984020">
        <ele>2530.600</ele>
        <time>2020-01-20T18:40:07Z</time>
      </trkpt>
      <trkpt lat="17.054733400" lon="-96.469957310">
        <ele>2531.800</ele>
        <time>2020-01-20T18:40:08Z</time>
      </trkpt>
      <trkpt lat="17.054816210" lon="-96.469913070">
        <ele>2533.100</ele>
        <time>2020-01-20T18:40:09Z</time>
      </trkpt>
      <trkpt lat="17.054901030" lon="-96.469872840">
        <ele>2534.400</ele>
        <time>2020-01-20T18:40:10Z</time>
      </trkpt>
      <trkpt lat="17.054983880" lon="-96.469839000">
        <ele>2536.000</ele>
        <time>2020-01-20T18:40:11Z</time>
      </trkpt>
      <trkpt lat="17.055071240" lon="-96.469803760">
        <ele>2537.700</ele>
        <time>2020-01-20T18:40:12Z</time>
      </trkpt>
      <trkpt lat="17.055158510" lon="-96.469786990">
        <ele>2539.500</ele>
        <time>2020-01-20T18:40:13Z</time>
      </trkpt>
      <trkpt lat="17.055248870" lon="-96.469783610">
        <ele>2540.100</ele>
        <time>2020-01-20T18:40:14Z</time>
      </trkpt>
      <trkpt lat="17.055348560" lon="-96.469791670">
        <ele>2540.900</ele>
        <time>2020-01-20T18:40:15Z</time>
      </trkpt>
      <trkpt lat="17.055447430" lon="-96.469814550">
        <ele>2541.100</ele>
        <time>2020-01-20T18:40:16Z</time>
      </trkpt>
      <trkpt lat="17.055541690" lon="-96.469830660">
        <ele>2542.000</ele>
        <time>2020-01-20T18:40:17Z</time>
      </trkpt>
      <trkpt lat="17.055635780" lon="-96.469856420">
        <ele>2542.400</ele>
        <time>2020-01-20T18:40:18Z</time>
      </trkpt>
      <trkpt lat="17.055735220" lon="-96.469873480">
        <ele>2542.600</ele>
        <time>2020-01-20T18:40:19Z</time>
      </trkpt>
      <trkpt lat="17.055835770" lon="-96.469888770">
        <ele>2543.100</ele>
        <time>2020-01-20T18:40:20Z</time>
      </trkpt>
      <trkpt lat="17.055930380" lon="-96.469902940">
        <ele>2544.200</ele>
        <time>2020-01-20T18:40:21Z</time>
      </trkpt>
      <trkpt lat="17.056029540" lon="-96.469905640">
        <ele>2544.400</ele>
        <time>2020-01-20T18:40:22Z</time>
      </trkpt>
      <trkpt lat="17.056124090" lon="-96.469889940">
        <ele>2544.600</ele>
        <time>2020-01-20T18:40:23Z</time>
      </trkpt>
      <trkpt lat="17.056215760" lon="-96.469864320">
        <ele>2545.100</ele>
        <time>2020-01-20T18:40:24Z</time>
      </trkpt>
      <trkpt lat="17.056309300" lon="-96.469842550">
        <ele>2545.400</ele>
        <time>2020-01-20T18:40:25Z</time>
      </trkpt>
      <trkpt lat="17.056403120" lon="-96.469815470">
        <ele>2546.000</ele>
        <time>2020-01-20T18:40:26Z</time>
      </trkpt>
      <trkpt lat="17.056490120" lon="-96.469789810">
        <ele>2546.500</ele>
        <time>2020-01-20T18:40:27Z</time>
      </trkpt>
      <trkpt lat="17.056576420" lon="-96.469769400">
        <ele>2546.600</ele>
        <time>2020-01-20T18:40:28Z</time>
      </trkpt>
      <trkpt lat="17.056654160" lon="-96.469765430">
        <ele>2547.700</ele>
        <time>2020-01-20T18:40:29Z</time>
      </trkpt>
      <trkpt lat="17.056730630" lon="-96.469772650">
        <ele>2547.400</ele>
        <time>2020-01-20T18:40:30Z</time>
      </trkpt>
      <trkpt lat="17.056810840" lon="-96.469805820">
        <ele>2548.200</ele>
        <time>2020-01-20T18:40:31Z</time>
      </trkpt>
      <trkpt lat="17.056874120" lon="-96.469862160">
        <ele>2548.600</ele>
        <time>2020-01-20T18:40:32Z</time>
      </trkpt>
      <trkpt lat="17.056919040" lon="-96.469932720">
        <ele>2548.400</ele>
        <time>2020-01-20T18:40:33Z</time>
      </trkpt>
      <trkpt lat="17.056970720" lon="-96.470011250">
        <ele>2549.600</ele>
        <time>2020-01-20T18:40:34Z</time>
      </trkpt>
      <trkpt lat="17.057029590" lon="-96.470072500">
        <ele>2549.900</ele>
        <time>2020-01-20T18:40:35Z</time>
      </trkpt>
      <trkpt lat="17.057099950" lon="-96.470134750">
        <ele>2550.000</ele>
        <time>2020-01-20T18:40:36Z</time>
      </trkpt>
      <trkpt lat="17.057184560" lon="-96.470169510">
        <ele>2549.900</ele>
        <time>2020-01-20T18:40:37Z</time>
      </trkpt>
      <trkpt lat="17.057275680" lon="-96.470183580">
        <ele>2549.700</ele>
        <time>2020-01-20T18:40:38Z</time>
      </trkpt>
      <trkpt lat="17.057367650" lon="-96.470186960">
        <ele>2550.000</ele>
        <time>2020-01-20T18:40:39Z</time>
      </trkpt>
      <trkpt lat="17.057460750" lon="-96.470195520">
        <ele>2550.300</ele>
        <time>2020-01-20T18:40:40Z</time>
      </trkpt>
      <trkpt lat="17.057552800" lon="-96.470202880">
        <ele>2549.700</ele>
        <time>2020-01-20T18:40:41Z</time>
      </trkpt>
      <trkpt lat="17.057648240" lon="-96.470245910">
        <ele>2551.100</ele>
        <time>2020-01-20T18:40:42Z</time>
      </trkpt>
      <trkpt lat="17.057735650" lon="-96.470307640">
        <ele>2553.400</ele>
        <time>2020-01-20T18:40:43Z</time>
      </trkpt>
      <trkpt lat="17.057817160" lon="-96.470373220">
        <ele>2553.700</ele>
        <time>2020-01-20T18:40:44Z</time>
      </trkpt>
      <trkpt lat="17.057901580" lon="-96.470459150">
        <ele>2554.500</ele>
        <time>2020-01-20T18:40:45Z</time>
      </trkpt>
      <trkpt lat="17.057975600" lon="-96.470547580">
        <ele>2555.500</ele>
        <time>2020-01-20T18:40:46Z</time>
      </trkpt>
      <trkpt lat="17.058054580" lon="-96.470635990">
        <ele>2556.200</ele>
        <time>2020-01-20T18:40:47Z</time>
      </trkpt>
      <trkpt lat="17.058124730" lon="-96.470718110">
        <ele>2556.200</ele>
        <time>2020-01-20T18:40:48Z</time>
      </trkpt>
      <trkpt lat="17.058202930" lon="-96.470797560">
        <ele>2556.900</ele>
        <time>2020-01-20T18:40:49Z</time>
      </trkpt>
      <trkpt lat="17.058283230" lon="-96.470863760">
        <ele>2557.500</ele>
        <time>2020-01-20T18:40:50Z</time>
      </trkpt>
      <trkpt lat="17.058364340" lon="-96.470931710">
        <ele>2558.900</ele>
        <time>2020-01-20T18:40:51Z</time>
      </trkpt>
      <trkpt lat="17.058449460" lon="-96.471001540">
        <ele>2559.800</ele>
        <time>2020-01-20T18:40:52Z</time>
      </trkpt>
      <trkpt lat="17.058528590" lon="-96.471076570">
        <ele>2561.100</ele>
        <time>2020-01-20T18:40:53Z</time>
      </trkpt>
      <trkpt lat="17.058597480" lon="-96.471157590">
        <ele>2562.100</ele>
        <time>2020-01-20T18:40:54Z</time>
      </trkpt>
      <trkpt lat="17.058669060" lon="-96.471234560">
        <ele>2563.300</ele>
        <time>2020-01-20T18:40:55Z</time>
      </trkpt>
      <trkpt lat="17.058738580" lon="-96.471303670">
        <ele>2564.200</ele>
        <time>2020-01-20T18:40:56Z</time>
      </trkpt>
      <trkpt lat="17.058805460" lon="-96.471362440">
        <ele>2564.000</ele>
        <time>2020-01-20T18:40:57Z</time>
      </trkpt>
      <trkpt lat="17.058883000" lon="-96.471407550">
        <ele>2564.700</ele>
        <time>2020-01-20T18:40:58Z</time>
      </trkpt>
      <trkpt lat="17.058954490" lon="-96.471452240">
        <ele>2564.800</ele>
        <time>2020-01-20T18:40:59Z</time>
      </trkpt>
      <trkpt lat="17.059035020" lon="-96.471428850">
        <ele>2565.900</ele>
        <time>2020-01-20T18:41:00Z</time>
      </trkpt>
      <trkpt lat="17.059113020" lon="-96.471394630">
        <ele>2566.600</ele>
        <time>2020-01-20T18:41:01Z</time>
      </trkpt>
      <trkpt lat="17.059179510" lon="-96.471335550">
        <ele>2566.300</ele>
        <time>2020-01-20T18:41:02Z</time>
      </trkpt>
      <trkpt lat="17.059226680" lon="-96.471257170">
        <ele>2567.300</ele>
        <time>2020-01-20T18:41:03Z</time>
      </trkpt>
      <trkpt lat="17.059277760" lon="-96.471178340">
        <ele>2567.300</ele>
        <time>2020-01-20T18:41:04Z</time>
      </trkpt>
      <trkpt lat="17.059325280" lon="-96.471084550">
        <ele>2568.600</ele>
        <time>2020-01-20T18:41:05Z</time>
      </trkpt>
      <trkpt lat="17.059369410" lon="-96.470993130">
        <ele>2569.500</ele>
        <time>2020-01-20T18:41:06Z</time>
      </trkpt>
      <trkpt lat="17.059422170" lon="-96.470900650">
        <ele>2570.000</ele>
        <time>2020-01-20T18:41:07Z</time>
      </trkpt>
      <trkpt lat="17.059495840" lon="-96.470819050">
        <ele>2570.400</ele>
        <time>2020-01-20T18:41:08Z</time>
      </trkpt>
      <trkpt lat="17.059571550" lon="-96.470735800">
        <ele>2570.400</ele>
        <time>2020-01-20T18:41:09Z</time>
      </trkpt>
      <trkpt lat="17.059652840" lon="-96.470668670">
        <ele>2570.600</ele>
        <time>2020-01-20T18:41:10Z</time>
      </trkpt>
      <trkpt lat="17.059736070" lon="-96.470599950">
        <ele>2571.200</ele>
        <time>2020-01-20T18:41:11Z</time>
      </trkpt>
      <trkpt lat="17.059822960" lon="-96.470505640">
        <ele>2571.200</ele>
        <time>2020-01-20T18:41:12Z</time>
      </trkpt>
      <trkpt lat="17.059902890" lon="-96.470425320">
        <ele>2572.400</ele>
        <time>2020-01-20T18:41:13Z</time>
      </trkpt>
      <trkpt lat="17.059980230" lon="-96.470323700">
        <ele>2572.400</ele>
        <time>2020-01-20T18:41:14Z</time>
      </trkpt>
      <trkpt lat="17.060049350" lon="-96.470238360">
        <ele>2572.900</ele>
        <time>2020-01-20T18:41:15Z</time>
      </trkpt>
      <trkpt lat="17.060116970" lon="-96.470149800">
        <ele>2573.000</ele>
        <time>2020-01-20T18:41:16Z</time>
      </trkpt>
      <trkpt lat="17.060180260" lon="-96.470061570">
        <ele>2572.600</ele>
        <time>2020-01-20T18:41:17Z</time>
      </trkpt>
      <trkpt lat="17.060257970" lon="-96.469981260">
        <ele>2574.300</ele>
        <time>2020-01-20T18:41:18Z</time>
      </trkpt>
      <trkpt lat="17.060348010" lon="-96.469904840">
        <ele>2575.600</ele>
        <time>2020-01-20T18:41:19Z</time>
      </trkpt>
      <trkpt lat="17.060441190" lon="-96.469844190">
        <ele>2575.700</ele>
        <time>2020-01-20T18:41:20Z</time>
      </trkpt>
      <trkpt lat="17.060539790" lon="-96.469793360">
        <ele>2575.700</ele>
        <time>2020-01-20T18:41:21Z</time>
      </trkpt>
      <trkpt lat="17.060642490" lon="-96.469750070">
        <ele>2576.300</ele>
        <time>2020-01-20T18:41:22Z</time>
      </trkpt>
      <trkpt lat="17.060745560" lon="-96.469707600">
        <ele>2577.300</ele>
        <time>2020-01-20T18:41:23Z</time>
      </trkpt>
      <trkpt lat="17.060846180" lon="-96.469663560">
        <ele>2577.600</ele>
        <time>2020-01-20T18:41:24Z</time>
      </trkpt>
      <trkpt lat="17.060948110" lon="-96.469618750">
        <ele>2578.400</ele>
        <time>2020-01-20T18:41:25Z</time>
      </trkpt>
      <trkpt lat="17.061056060" lon="-96.469575240">
        <ele>2577.700</ele>
        <time>2020-01-20T18:41:26Z</time>
      </trkpt>
      <trkpt lat="17.061158610" lon="-96.469518550">
        <ele>2578.500</ele>
        <time>2020-01-20T18:41:27Z</time>
      </trkpt>
      <trkpt lat="17.061242620" lon="-96.469451110">
        <ele>2579.700</ele>
        <time>2020-01-20T18:41:28Z</time>
      </trkpt>
      <trkpt lat="17.061330780" lon="-96.469379690">
        <ele>2582.100</ele>
        <time>2020-01-20T18:41:29Z</time>
      </trkpt>
      <trkpt lat="17.061413370" lon="-96.469308970">
        <ele>2584.200</ele>
        <time>2020-01-20T18:41:30Z</time>
      </trkpt>
      <trkpt lat="17.061507450" lon="-96.469250210">
        <ele>2585.600</ele>
        <time>2020-01-20T18:41:31Z</time>
      </trkpt>
      <trkpt lat="17.061607050" lon="-96.469193820">
        <ele>2588.200</ele>
        <time>2020-01-20T18:41:32Z</time>
      </trkpt>
      <trkpt lat="17.061715790" lon="-96.469158520">
        <ele>2590.500</ele>
        <time>2020-01-20T18:41:33Z</time>
      </trkpt>
      <trkpt lat="17.061827470" lon="-96.469127180">
        <ele>2592.100</ele>
        <time>2020-01-20T18:41:34Z</time>
      </trkpt>
      <trkpt lat="17.061940350" lon="-96.469106670">
        <ele>2592.700</ele>
        <time>2020-01-20T18:41:35Z</time>
      </trkpt>
      <trkpt lat="17.062056080" lon="-96.469091820">
        <ele>2593.600</ele>
        <time>2020-01-20T18:41:36Z</time>
      </trkpt>
      <trkpt lat="17.062169700" lon="-96.469085190">
        <ele>2594.400</ele>
        <time>2020-01-20T18:41:37Z</time>
      </trkpt>
      <trkpt lat="17.062280630" lon="-96.469085140">
        <ele>2596.200</ele>
        <time>2020-01-20T18:41:38Z</time>
      </trkpt>
      <trkpt lat="17.062399290" lon="-96.469097550">
        <ele>2596.100</ele>
        <time>2020-01-20T18:41:39Z</time>
      </trkpt>
      <trkpt lat="17.062512160" lon="-96.469115650">
        <ele>2596.700</ele>
        <time>2020-01-20T18:41:40Z</time>
      </trkpt>
      <trkpt lat="17.062618830" lon="-96.469132650">
        <ele>2597.400</ele>
        <time>2020-01-20T18:41:41Z</time>
      </trkpt>
      <trkpt lat="17.062730960" lon="-96.469145600">
        <ele>2597.600</ele>
        <time>2020-01-20T18:41:42Z</time>
      </trkpt>
      <trkpt lat="17.062851150" lon="-96.469153970">
        <ele>2599.700</ele>
        <time>2020-01-20T18:41:43Z</time>
      </trkpt>
      <trkpt lat="17.062969520" lon="-96.469154120">
        <ele>2599.800</ele>
        <time>2020-01-20T18:41:44Z</time>
      </trkpt>
      <trkpt lat="17.063090780" lon="-96.469160510">
        <ele>2600.000</ele>
        <time>2020-01-20T18:41:45Z</time>
      </trkpt>
      <trkpt lat="17.063213190" lon="-96.469158640">
        <ele>2600.000</ele>
        <time>2020-01-20T18:41:46Z</time>
      </trkpt>
      <trkpt lat="17.063333370" lon="-96.469158110">
        <ele>2600.500</ele>
        <time>2020-01-20T18:41:47Z</time>
      </trkpt>
      <trkpt lat="17.063461710" lon="-96.469157800">
        <ele>2600.300</ele>
        <time>2020-01-20T18:41:48Z</time>
      </trkpt>
      <trkpt lat="17.063574410" lon="-96.469144110">
        <ele>2599.700</ele>
        <time>2020-01-20T18:41:49Z</time>
      </trkpt>
      <trkpt lat="17.063699800" lon="-96.469142970">
        <ele>2599.700</ele>
        <time>2020-01-20T18:41:50Z</time>
      </trkpt>
      <trkpt lat="17.063824050" lon="-96.469124990">
        <ele>2600.700</ele>
        <time>2020-01-20T18:41:51Z</time>
      </trkpt>
      <trkpt lat="17.063946420" lon="-96.469106690">
        <ele>2600.800</ele>
        <time>2020-01-20T18:41:52Z</time>
      </trkpt>
      <trkpt lat="17.064078460" lon="-96.469076130">
        <ele>2601.000</ele>
        <time>2020-01-20T18:41:53Z</time>
      </trkpt>
      <trkpt lat="17.064208390" lon="-96.469026280">
        <ele>2602.000</ele>
        <time>2020-01-20T18:41:54Z</time>
      </trkpt>
      <trkpt lat="17.064321200" lon="-96.468973030">
        <ele>2602.200</ele>
        <time>2020-01-20T18:41:55Z</time>
      </trkpt>
      <trkpt lat="17.064428410" lon="-96.468910340">
        <ele>2602.400</ele>
        <time>2020-01-20T18:41:56Z</time>
      </trkpt>
      <trkpt lat="17.064532640" lon="-96.468834920">
        <ele>2602.700</ele>
        <time>2020-01-20T18:41:57Z</time>
      </trkpt>
      <trkpt lat="17.064634960" lon="-96.468761940">
        <ele>2603.300</ele>
        <time>2020-01-20T18:41:58Z</time>
      </trkpt>
      <trkpt lat="17.064733550" lon="-96.468684010">
        <ele>2492.100</ele>
        <time>2020-01-20T18:41:59Z</time>
      </trkpt>
      <trkpt lat="17.064828310" lon="-96.468598910">
        <ele>2538.000</ele>
        <time>2020-01-20T18:42:00Z</time>
      </trkpt>
      <trkpt lat="17.064925100" lon="-96.468526690">
        <ele>2555.300</ele>
        <time>2020-01-20T18:42:01Z</time>
      </trkpt>
      <trkpt lat="17.065034750" lon="-96.468482920">
        <ele>2569.600</ele>
        <time>2020-01-20T18:42:02Z</time>
      </trkpt>
      <trkpt lat="17.065142700" lon="-96.468443360">
        <ele>2581.900</ele>
        <time>2020-01-20T18:42:03Z</time>
      </trkpt>
      <trkpt lat="17.065252690" lon="-96.468412810">
        <ele>2588.700</ele>
        <time>2020-01-20T18:42:04Z</time>
      </trkpt>
      <trkpt lat="17.065370290" lon="-96.468388260">
        <ele>2593.200</ele>
        <time>2020-01-20T18:42:05Z</time>
      </trkpt>
      <trkpt lat="17.065491130" lon="-96.468366130">
        <ele>2596.100</ele>
        <time>2020-01-20T18:42:06Z</time>
      </trkpt>
      <trkpt lat="17.065615140" lon="-96.468345480">
        <ele>2599.200</ele>
        <time>2020-01-20T18:42:07Z</time>
      </trkpt>
      <trkpt lat="17.065733140" lon="-96.468317110">
        <ele>2602.500</ele>
        <time>2020-01-20T18:42:08Z</time>
      </trkpt>
      <trkpt lat="17.065853050" lon="-96.468306790">
        <ele>2604.100</ele>
        <time>2020-01-20T18:42:09Z</time>
      </trkpt>
      <trkpt lat="17.065975710" lon="-96.468300760">
        <ele>2605.100</ele>
        <time>2020-01-20T18:42:10Z</time>
      </trkpt>
      <trkpt lat="17.066100900" lon="-96.468309870">
        <ele>2607.300</ele>
        <time>2020-01-20T18:42:11Z</time>
      </trkpt>
      <trkpt lat="17.066223900" lon="-96.468326930">
        <ele>2609.100</ele>
        <time>2020-01-20T18:42:12Z</time>
      </trkpt>
      <trkpt lat="17.066345060" lon="-96.468330730">
        <ele>2611.500</ele>
        <time>2020-01-20T18:42:13Z</time>
      </trkpt>
      <trkpt lat="17.066466490" lon="-96.468338530">
        <ele>2612.900</ele>
        <time>2020-01-20T18:42:14Z</time>
      </trkpt>
      <trkpt lat="17.066586200" lon="-96.468352430">
        <ele>2614.000</ele>
        <time>2020-01-20T18:42:15Z</time>
      </trkpt>
      <trkpt lat="17.066694530" lon="-96.468366840">
        <ele>2615.100</ele>
        <time>2020-01-20T18:42:16Z</time>
      </trkpt>
      <trkpt lat="17.066805100" lon="-96.468383120">
        <ele>2615.600</ele>
        <time>2020-01-20T18:42:17Z</time>
      </trkpt>
      <trkpt lat="17.066920760" lon="-96.468396580">
        <ele>2615.900</ele>
        <time>2020-01-20T18:42:18Z</time>
      </trkpt>
      <trkpt lat="17.067033390" lon="-96.468410050">
        <ele>2616.300</ele>
        <time>2020-01-20T18:42:19Z</time>
      </trkpt>
      <trkpt lat="17.067150640" lon="-96.468418910">
        <ele>2618.100</ele>
        <time>2020-01-20T18:42:20Z</time>
      </trkpt>
      <trkpt lat="17.067258510" lon="-96.468427980">
        <ele>2618.800</ele>
        <time>2020-01-20T18:42:21Z</time>
      </trkpt>
      <trkpt lat="17.067375220" lon="-96.468439790">
        <ele>2619.900</ele>
        <time>2020-01-20T18:42:22Z</time>
      </trkpt>
      <trkpt lat="17.067483240" lon="-96.468451790">
        <ele>2621.100</ele>
        <time>2020-01-20T18:42:23Z</time>
      </trkpt>
      <trkpt lat="17.067591420" lon="-96.468463010">
        <ele>2622.000</ele>
        <time>2020-01-20T18:42:24Z</time>
      </trkpt>
      <trkpt lat="17.067689920" lon="-96.468472060">
        <ele>2622.800</ele>
        <time>2020-01-20T18:42:25Z</time>
      </trkpt>
      <trkpt lat="17.067800520" lon="-96.468481590">
        <ele>2623.800</ele>
        <time>2020-01-20T18:42:26Z</time>
      </trkpt>
      <trkpt lat="17.067910800" lon="-96.468487830">
        <ele>2624.100</ele>
        <time>2020-01-20T18:42:27Z</time>
      </trkpt>
      <trkpt lat="17.068020480" lon="-96.468499740">
        <ele>2624.500</ele>
        <time>2020-01-20T18:42:28Z</time>
      </trkpt>
      <trkpt lat="17.068127730" lon="-96.468512030">
        <ele>2625.100</ele>
        <time>2020-01-20T18:42:29Z</time>
      </trkpt>
      <trkpt lat="17.068233130" lon="-96.468522140">
        <ele>2625.200</ele>
        <time>2020-01-20T18:42:30Z</time>
      </trkpt>
      <trkpt lat="17.068344290" lon="-96.468524330">
        <ele>2626.800</ele>
        <time>2020-01-20T18:42:31Z</time>
      </trkpt>
      <trkpt lat="17.068447950" lon="-96.468511730">
        <ele>2627.200</ele>
        <time>2020-01-20T18:42:32Z</time>
      </trkpt>
      <trkpt lat="17.068545970" lon="-96.468487240">
        <ele>2628.900</ele>
        <time>2020-01-20T18:42:33Z</time>
      </trkpt>
      <trkpt lat="17.068639640" lon="-96.468451640">
        <ele>2629.800</ele>
        <time>2020-01-20T18:42:34Z</time>
      </trkpt>
      <trkpt lat="17.068728150" lon="-96.468411950">
        <ele>2630.500</ele>
        <time>2020-01-20T18:42:35Z</time>
      </trkpt>
      <trkpt lat="17.068819650" lon="-96.468371360">
        <ele>2631.700</ele>
        <time>2020-01-20T18:42:36Z</time>
      </trkpt>
      <trkpt lat="17.068910790" lon="-96.468336840">
        <ele>2632.700</ele>
        <time>2020-01-20T18:42:37Z</time>
      </trkpt>
      <trkpt lat="17.069007260" lon="-96.468322390">
        <ele>2635.000</ele>
        <time>2020-01-20T18:42:38Z</time>
      </trkpt>
      <trkpt lat="17.069095850" lon="-96.468329830">
        <ele>2635.900</ele>
        <time>2020-01-20T18:42:39Z</time>
      </trkpt>
      <trkpt lat="17.069182170" lon="-96.468350440">
        <ele>2636.700</ele>
        <time>2020-01-20T18:42:40Z</time>
      </trkpt>
      <trkpt lat="17.069265960" lon="-96.468385960">
        <ele>2638.300</ele>
        <time>2020-01-20T18:42:41Z</time>
      </trkpt>
      <trkpt lat="17.069344590" lon="-96.468438440">
        <ele>2639.100</ele>
        <time>2020-01-20T18:42:42Z</time>
      </trkpt>
      <trkpt lat="17.069422800" lon="-96.468492640">
        <ele>2639.800</ele>
        <time>2020-01-20T18:42:43Z</time>
      </trkpt>
      <trkpt lat="17.069500080" lon="-96.468549640">
        <ele>2639.900</ele>
        <time>2020-01-20T18:42:44Z</time>
      </trkpt>
      <trkpt lat="17.069577480" lon="-96.468600840">
        <ele>2640.100</ele>
        <time>2020-01-20T18:42:45Z</time>
      </trkpt>
      <trkpt lat="17.069659380" lon="-96.468651220">
        <ele>2640.100</ele>
        <time>2020-01-20T18:42:46Z</time>
      </trkpt>
      <trkpt lat="17.069741600" lon="-96.468700260">
        <ele>2640.500</ele>
        <time>2020-01-20T18:42:47Z</time>
      </trkpt>
      <trkpt lat="17.069822400" lon="-96.468740640">
        <ele>2640.100</ele>
        <time>2020-01-20T18:42:48Z</time>
      </trkpt>
      <trkpt lat="17.069904770" lon="-96.468776050">
        <ele>2640.600</ele>
        <time>2020-01-20T18:42:49Z</time>
      </trkpt>
      <trkpt lat="17.069987030" lon="-96.468806080">
        <ele>2640.700</ele>
        <time>2020-01-20T18:42:50Z</time>
      </trkpt>
      <trkpt lat="17.070074140" lon="-96.468815420">
        <ele>2640.700</ele>
        <time>2020-01-20T18:42:51Z</time>
      </trkpt>
      <trkpt lat="17.070172180" lon="-96.468817850">
        <ele>2639.800</ele>
        <time>2020-01-20T18:42:52Z</time>
      </trkpt>
      <trkpt lat="17.070267610" lon="-96.468798560">
        <ele>2640.200</ele>
        <time>2020-01-20T18:42:53Z</time>
      </trkpt>
      <trkpt lat="17.070362160" lon="-96.468780340">
        <ele>2639.600</ele>
        <time>2020-01-20T18:42:54Z</time>
      </trkpt>
      <trkpt lat="17.070450420" lon="-96.468754830">
        <ele>2639.100</ele>
        <time>2020-01-20T18:42:55Z</time>
      </trkpt>
      <trkpt lat="17.070538240" lon="-96.468728900">
        <ele>2638.600</ele>
        <time>2020-01-20T18:42:56Z</time>
      </trkpt>
      <trkpt lat="17.070631800" lon="-96.468704330">
        <ele>2638.200</ele>
        <time>2020-01-20T18:42:57Z</time>
      </trkpt>
      <trkpt lat="17.070725260" lon="-96.468677230">
        <ele>2637.500</ele>
        <time>2020-01-20T18:42:58Z</time>
      </trkpt>
      <trkpt lat="17.070817370" lon="-96.468653290">
        <ele>2636.900</ele>
        <time>2020-01-20T18:42:59Z</time>
      </trkpt>
      <trkpt lat="17.070904960" lon="-96.468633770">
        <ele>2636.100</ele>
        <time>2020-01-20T18:43:00Z</time>
      </trkpt>
      <trkpt lat="17.070996440" lon="-96.468614570">
        <ele>2635.600</ele>
        <time>2020-01-20T18:43:01Z</time>
      </trkpt>
      <trkpt lat="17.071088480" lon="-96.468597040">
        <ele>2635.200</ele>
        <time>2020-01-20T18:43:02Z</time>
      </trkpt>
      <trkpt lat="17.071176550" lon="-96.468583820">
        <ele>2634.400</ele>
        <time>2020-01-20T18:43:03Z</time>
      </trkpt>
      <trkpt lat="17.071259920" lon="-96.468579540">
        <ele>2634.000</ele>
        <time>2020-01-20T18:43:04Z</time>
      </trkpt>
      <trkpt lat="17.071338850" lon="-96.468593470">
        <ele>2633.400</ele>
        <time>2020-01-20T18:43:05Z</time>
      </trkpt>
      <trkpt lat="17.071412940" lon="-96.468628690">
        <ele>2633.300</ele>
        <time>2020-01-20T18:43:06Z</time>
      </trkpt>
      <trkpt lat="17.071467510" lon="-96.468682530">
        <ele>2632.100</ele>
        <time>2020-01-20T18:43:07Z</time>
      </trkpt>
      <trkpt lat="17.071536340" lon="-96.468739610">
        <ele>2631.700</ele>
        <time>2020-01-20T18:43:08Z</time>
      </trkpt>
      <trkpt lat="17.071588040" lon="-96.468807820">
        <ele>2631.800</ele>
        <time>2020-01-20T18:43:09Z</time>
      </trkpt>
      <trkpt lat="17.071641820" lon="-96.468866250">
        <ele>2632.000</ele>
        <time>2020-01-20T18:43:10Z</time>
      </trkpt>
      <trkpt lat="17.071698740" lon="-96.468908390">
        <ele>2632.300</ele>
        <time>2020-01-20T18:43:11Z</time>
      </trkpt>
      <trkpt lat="17.071785760" lon="-96.468956440">
        <ele>2631.400</ele>
        <time>2020-01-20T18:43:12Z</time>
      </trkpt>
      <trkpt lat="17.071875760" lon="-96.468979600">
        <ele>2631.200</ele>
        <time>2020-01-20T18:43:13Z</time>
      </trkpt>
      <trkpt lat="17.071966060" lon="-96.468986390">
        <ele>2631.000</ele>
        <time>2020-01-20T18:43:14Z</time>
      </trkpt>
      <trkpt lat="17.072062440" lon="-96.468979950">
        <ele>2630.800</ele>
        <time>2020-01-20T18:43:15Z</time>
      </trkpt>
      <trkpt lat="17.072160300" lon="-96.468969010">
        <ele>2630.500</ele>
        <time>2020-01-20T18:43:16Z</time>
      </trkpt>
      <trkpt lat="17.072256260" lon="-96.468958110">
        <ele>2630.600</ele>
        <time>2020-01-20T18:43:17Z</time>
      </trkpt>
      <trkpt lat="17.072355620" lon="-96.468944970">
        <ele>2630.300</ele>
        <time>2020-01-20T18:43:18Z</time>
      </trkpt>
      <trkpt lat="17.072457160" lon="-96.468926860">
        <ele>2630.000</ele>
        <time>2020-01-20T18:43:19Z</time>
      </trkpt>
      <trkpt lat="17.072557770" lon="-96.468912320">
        <ele>2629.700</ele>
        <time>2020-01-20T18:43:20Z</time>
      </trkpt>
      <trkpt lat="17.072659430" lon="-96.468898180">
        <ele>2628.900</ele>
        <time>2020-01-20T18:43:21Z</time>
      </trkpt>
      <trkpt lat="17.072764260" lon="-96.468888270">
        <ele>2628.400</ele>
        <time>2020-01-20T18:43:22Z</time>
      </trkpt>
      <trkpt lat="17.072864770" lon="-96.468876600">
        <ele>2628.500</ele>
        <time>2020-01-20T18:43:23Z</time>
      </trkpt>
      <trkpt lat="17.072964090" lon="-96.468858180">
        <ele>2627.100</ele>
        <time>2020-01-20T18:43:24Z</time>
      </trkpt>
      <trkpt lat="17.073059940" lon="-96.468834860">
        <ele>2627.100</ele>
        <time>2020-01-20T18:43:25Z</time>
      </trkpt>
      <trkpt lat="17.073152770" lon="-96.468793430">
        <ele>2629.300</ele>
        <time>2020-01-20T18:43:26Z</time>
      </trkpt>
      <trkpt lat="17.073228720" lon="-96.468740640">
        <ele>2628.800</ele>
        <time>2020-01-20T18:43:27Z</time>
      </trkpt>
      <trkpt lat="17.073295680" lon="-96.468673740">
        <ele>2628.100</ele>
        <time>2020-01-20T18:43:28Z</time>
      </trkpt>
      <trkpt lat="17.073358260" lon="-96.468607150">
        <ele>2628.100</ele>
        <time>2020-01-20T18:43:29Z</time>
      </trkpt>
      <trkpt lat="17.073409420" lon="-96.468528790">
        <ele>2627.200</ele>
        <time>2020-01-20T18:43:30Z</time>
      </trkpt>
      <trkpt lat="17.073446060" lon="-96.468438500">
        <ele>2628.800</ele>
        <time>2020-01-20T18:43:31Z</time>
      </trkpt>
      <trkpt lat="17.073492830" lon="-96.468360090">
        <ele>2627.700</ele>
        <time>2020-01-20T18:43:32Z</time>
      </trkpt>
      <trkpt lat="17.073551070" lon="-96.468286330">
        <ele>2629.400</ele>
        <time>2020-01-20T18:43:33Z</time>
      </trkpt>
      <trkpt lat="17.073613650" lon="-96.468228920">
        <ele>2629.800</ele>
        <time>2020-01-20T18:43:34Z</time>
      </trkpt>
      <trkpt lat="17.073681330" lon="-96.468183250">
        <ele>2630.600</ele>
        <time>2020-01-20T18:43:35Z</time>
      </trkpt>
      <trkpt lat="17.073751960" lon="-96.468142590">
        <ele>2631.200</ele>
        <time>2020-01-20T18:43:36Z</time>
      </trkpt>
      <trkpt lat="17.073822300" lon="-96.468104990">
        <ele>2631.900</ele>
        <time>2020-01-20T18:43:37Z</time>
      </trkpt>
      <trkpt lat="17.073893720" lon="-96.468063400">
        <ele>2632.200</ele>
        <time>2020-01-20T18:43:38Z</time>
      </trkpt>
      <trkpt lat="17.073963410" lon="-96.468012540">
        <ele>2632.300</ele>
        <time>2020-01-20T18:43:39Z</time>
      </trkpt>
      <trkpt lat="17.074026720" lon="-96.467958520">
        <ele>2632.800</ele>
        <time>2020-01-20T18:43:40Z</time>
      </trkpt>
      <trkpt lat="17.074075840" lon="-96.467886360">
        <ele>2584.400</ele>
        <time>2020-01-20T18:43:41Z</time>
      </trkpt>
      <trkpt lat="17.074119830" lon="-96.467815960">
        <ele>2604.100</ele>
        <time>2020-01-20T18:43:42Z</time>
      </trkpt>
      <trkpt lat="17.074162540" lon="-96.467746020">
        <ele>2614.500</ele>
        <time>2020-01-20T18:43:43Z</time>
      </trkpt>
      <trkpt lat="17.074206490" lon="-96.467674920">
        <ele>2620.400</ele>
        <time>2020-01-20T18:43:44Z</time>
      </trkpt>
      <trkpt lat="17.074255010" lon="-96.467606500">
        <ele>2626.400</ele>
        <time>2020-01-20T18:43:45Z</time>
      </trkpt>
      <trkpt lat="17.074319030" lon="-96.467547860">
        <ele>2631.900</ele>
        <time>2020-01-20T18:43:46Z</time>
      </trkpt>
      <trkpt lat="17.074383850" lon="-96.467495620">
        <ele>2635.200</ele>
        <time>2020-01-20T18:43:47Z</time>
      </trkpt>
      <trkpt lat="17.074456890" lon="-96.467448900">
        <ele>2636.600</ele>
        <time>2020-01-20T18:43:48Z</time>
      </trkpt>
      <trkpt lat="17.074529350" lon="-96.467398840">
        <ele>2637.300</ele>
        <time>2020-01-20T18:43:49Z</time>
      </trkpt>
      <trkpt lat="17.074601800" lon="-96.467344110">
        <ele>2639.100</ele>
        <time>2020-01-20T18:43:50Z</time>
      </trkpt>
      <trkpt lat="17.074669200" lon="-96.467277040">
        <ele>2641.700</ele>
        <time>2020-01-20T18:43:51Z</time>
      </trkpt>
      <trkpt lat="17.074748600" lon="-96.467214170">
        <ele>2643.800</ele>
        <time>2020-01-20T18:43:52Z</time>
      </trkpt>
      <trkpt lat="17.074819910" lon="-96.467145790">
        <ele>2645.000</ele>
        <time>2020-01-20T18:43:53Z</time>
      </trkpt>
      <trkpt lat="17.074887870" lon="-96.467076170">
        <ele>2645.900</ele>
        <time>2020-01-20T18:43:54Z</time>
      </trkpt>
      <trkpt lat="17.074954690" lon="-96.467008120">
        <ele>2647.100</ele>
        <time>2020-01-20T18:43:55Z</time>
      </trkpt>
      <trkpt lat="17.075014650" lon="-96.466938080">
        <ele>2647.900</ele>
        <time>2020-01-20T18:43:56Z</time>
      </trkpt>
      <trkpt lat="17.075069610" lon="-96.466866540">
        <ele>2648.400</ele>
        <time>2020-01-20T18:43:57Z</time>
      </trkpt>
      <trkpt lat="17.075115220" lon="-96.466800540">
        <ele>2649.300</ele>
        <time>2020-01-20T18:43:58Z</time>
      </trkpt>
      <trkpt lat="17.075164230" lon="-96.466744320">
        <ele>2650.500</ele>
        <time>2020-01-20T18:43:59Z</time>
      </trkpt>
      <trkpt lat="17.075223410" lon="-96.466703130">
        <ele>2651.700</ele>
        <time>2020-01-20T18:44:00Z</time>
      </trkpt>
      <trkpt lat="17.075281020" lon="-96.466676380">
        <ele>2652.100</ele>
        <time>2020-01-20T18:44:01Z</time>
      </trkpt>
      <trkpt lat="17.075334860" lon="-96.466659370">
        <ele>2652.800</ele>
        <time>2020-01-20T18:44:02Z</time>
      </trkpt>
      <trkpt lat="17.075384490" lon="-96.466644250">
        <ele>2652.200</ele>
        <time>2020-01-20T18:44:03Z</time>
      </trkpt>
      <trkpt lat="17.075449990" lon="-96.466649950">
        <ele>2651.900</ele>
        <time>2020-01-20T18:44:04Z</time>
      </trkpt>
      <trkpt lat="17.075503240" lon="-96.466666750">
        <ele>2652.200</ele>
        <time>2020-01-20T18:44:05Z</time>
      </trkpt>
      <trkpt lat="17.075565870" lon="-96.466693510">
        <ele>2652.400</ele>
        <time>2020-01-20T18:44:06Z</time>
      </trkpt>
      <trkpt lat="17.075623680" lon="-96.466730420">
        <ele>2652.300</ele>
        <time>2020-01-20T18:44:07Z</time>
      </trkpt>
      <trkpt lat="17.075677150" lon="-96.466775680">
        <ele>2652.100</ele>
        <time>2020-01-20T18:44:08Z</time>
      </trkpt>
      <trkpt lat="17.075738510" lon="-96.466806500">
        <ele>2651.800</ele>
        <time>2020-01-20T18:44:09Z</time>
      </trkpt>
      <trkpt lat="17.075795990" lon="-96.466860150">
        <ele>2652.000</ele>
        <time>2020-01-20T18:44:10Z</time>
      </trkpt>
      <trkpt lat="17.075859430" lon="-96.466949300">
        <ele>2653.400</ele>
        <time>2020-01-20T18:44:11Z</time>
      </trkpt>
      <trkpt lat="17.075921550" lon="-96.467004820">
        <ele>2653.800</ele>
        <time>2020-01-20T18:44:12Z</time>
      </trkpt>
      <trkpt lat="17.075984910" lon="-96.467067070">
        <ele>2653.800</ele>
        <time>2020-01-20T18:44:13Z</time>
      </trkpt>
      <trkpt lat="17.076043550" lon="-96.467125150">
        <ele>2654.100</ele>
        <time>2020-01-20T18:44:14Z</time>
      </trkpt>
      <trkpt lat="17.076104700" lon="-96.467178260">
        <ele>2653.700</ele>
        <time>2020-01-20T18:44:15Z</time>
      </trkpt>
      <trkpt lat="17.076168960" lon="-96.467222660">
        <ele>2654.100</ele>
        <time>2020-01-20T18:44:16Z</time>
      </trkpt>
      <trkpt lat="17.076239900" lon="-96.467270430">
        <ele>2654.400</ele>
        <time>2020-01-20T18:44:17Z</time>
      </trkpt>
      <trkpt lat="17.076315910" lon="-96.467320950">
        <ele>2655.300</ele>
        <time>2020-01-20T18:44:18Z</time>
      </trkpt>
      <trkpt lat="17.076392180" lon="-96.467355620">
        <ele>2655.100</ele>
        <time>2020-01-20T18:44:19Z</time>
      </trkpt>
      <trkpt lat="17.076458130" lon="-96.467361950">
        <ele>2655.600</ele>
        <time>2020-01-20T18:44:20Z</time>
      </trkpt>
      <trkpt lat="17.076522640" lon="-96.467345750">
        <ele>2656.500</ele>
        <time>2020-01-20T18:44:21Z</time>
      </trkpt>
      <trkpt lat="17.076583320" lon="-96.467311460">
        <ele>2656.800</ele>
        <time>2020-01-20T18:44:22Z</time>
      </trkpt>
      <trkpt lat="17.076614700" lon="-96.467243400">
        <ele>2657.700</ele>
        <time>2020-01-20T18:44:23Z</time>
      </trkpt>
      <trkpt lat="17.076641070" lon="-96.467170130">
        <ele>2658.600</ele>
        <time>2020-01-20T18:44:24Z</time>
      </trkpt>
      <trkpt lat="17.076640120" lon="-96.467088700">
        <ele>2659.400</ele>
        <time>2020-01-20T18:44:25Z</time>
      </trkpt>
      <trkpt lat="17.076639520" lon="-96.466994560">
        <ele>2660.500</ele>
        <time>2020-01-20T18:44:26Z</time>
      </trkpt>
      <trkpt lat="17.076639170" lon="-96.466898610">
        <ele>2660.900</ele>
        <time>2020-01-20T18:44:27Z</time>
      </trkpt>
      <trkpt lat="17.076631370" lon="-96.466803430">
        <ele>2662.100</ele>
        <time>2020-01-20T18:44:28Z</time>
      </trkpt>
      <trkpt lat="17.076618420" lon="-96.466702710">
        <ele>2663.000</ele>
        <time>2020-01-20T18:44:29Z</time>
      </trkpt>
      <trkpt lat="17.076606620" lon="-96.466607340">
        <ele>2663.900</ele>
        <time>2020-01-20T18:44:30Z</time>
      </trkpt>
      <trkpt lat="17.076588130" lon="-96.466507140">
        <ele>2664.700</ele>
        <time>2020-01-20T18:44:31Z</time>
      </trkpt>
      <trkpt lat="17.076562160" lon="-96.466407150">
        <ele>2666.000</ele>
        <time>2020-01-20T18:44:32Z</time>
      </trkpt>
      <trkpt lat="17.076532660" lon="-96.466311110">
        <ele>2667.300</ele>
        <time>2020-01-20T18:44:33Z</time>
      </trkpt>
      <trkpt lat="17.076498350" lon="-96.466222110">
        <ele>2668.300</ele>
        <time>2020-01-20T18:44:34Z</time>
      </trkpt>
      <trkpt lat="17.076465630" lon="-96.466141730">
        <ele>2668.700</ele>
        <time>2020-01-20T18:44:35Z</time>
      </trkpt>
      <trkpt lat="17.076436390" lon="-96.466064960">
        <ele>2666.700</ele>
        <time>2020-01-20T18:44:36Z</time>
      </trkpt>
      <trkpt lat="17.076427590" lon="-96.465993980">
        <ele>2669.200</ele>
        <time>2020-01-20T18:44:37Z</time>
      </trkpt>
      <trkpt lat="17.076414810" lon="-96.465932890">
        <ele>2669.800</ele>
        <time>2020-01-20T18:44:38Z</time>
      </trkpt>
      <trkpt lat="17.076429770" lon="-96.465866650">
        <ele>2671.000</ele>
        <time>2020-01-20T18:44:39Z</time>
      </trkpt>
      <trkpt lat="17.076456290" lon="-96.465812190">
        <ele>2671.500</ele>
        <time>2020-01-20T18:44:40Z</time>
      </trkpt>
      <trkpt lat="17.076499320" lon="-96.465761790">
        <ele>2671.600</ele>
        <time>2020-01-20T18:44:41Z</time>
      </trkpt>
      <trkpt lat="17.076555130" lon="-96.465723550">
        <ele>2672.500</ele>
        <time>2020-01-20T18:44:42Z</time>
      </trkpt>
      <trkpt lat="17.076633820" lon="-96.465702370">
        <ele>2673.400</ele>
        <time>2020-01-20T18:44:43Z</time>
      </trkpt>
      <trkpt lat="17.076710150" lon="-96.465696360">
        <ele>2674.900</ele>
        <time>2020-01-20T18:44:44Z</time>
      </trkpt>
      <trkpt lat="17.076797140" lon="-96.465704200">
        <ele>2675.600</ele>
        <time>2020-01-20T18:44:45Z</time>
      </trkpt>
      <trkpt lat="17.076878660" lon="-96.465709330">
        <ele>2676.000</ele>
        <time>2020-01-20T18:44:46Z</time>
      </trkpt>
      <trkpt lat="17.076957770" lon="-96.465727250">
        <ele>2678.400</ele>
        <time>2020-01-20T18:44:47Z</time>
      </trkpt>
      <trkpt lat="17.077034030" lon="-96.465734950">
        <ele>2679.400</ele>
        <time>2020-01-20T18:44:48Z</time>
      </trkpt>
      <trkpt lat="17.077108360" lon="-96.465726770">
        <ele>2680.400</ele>
        <time>2020-01-20T18:44:49Z</time>
      </trkpt>
      <trkpt lat="17.077170480" lon="-96.465693170">
        <ele>2681.100</ele>
        <time>2020-01-20T18:44:50Z</time>
      </trkpt>
      <trkpt lat="17.077228540" lon="-96.465633000">
        <ele>2681.700</ele>
        <time>2020-01-20T18:44:51Z</time>
      </trkpt>
      <trkpt lat="17.077274000" lon="-96.465570420">
        <ele>2683.100</ele>
        <time>2020-01-20T18:44:52Z</time>
      </trkpt>
      <trkpt lat="17.077299390" lon="-96.465492000">
        <ele>2684.800</ele>
        <time>2020-01-20T18:44:53Z</time>
      </trkpt>
      <trkpt lat="17.077326010" lon="-96.465408230">
        <ele>2686.800</ele>
        <time>2020-01-20T18:44:54Z</time>
      </trkpt>
      <trkpt lat="17.077365360" lon="-96.465335200">
        <ele>2687.300</ele>
        <time>2020-01-20T18:44:55Z</time>
      </trkpt>
      <trkpt lat="17.077419690" lon="-96.465274560">
        <ele>2687.600</ele>
        <time>2020-01-20T18:44:56Z</time>
      </trkpt>
      <trkpt lat="17.077486280" lon="-96.465223450">
        <ele>2687.800</ele>
        <time>2020-01-20T18:44:57Z</time>
      </trkpt>
      <trkpt lat="17.077561350" lon="-96.465206610">
        <ele>2689.100</ele>
        <time>2020-01-20T18:44:58Z</time>
      </trkpt>
      <trkpt lat="17.077633160" lon="-96.465188380">
        <ele>2689.400</ele>
        <time>2020-01-20T18:44:59Z</time>
      </trkpt>
      <trkpt lat="17.077703340" lon="-96.465156170">
        <ele>2691.200</ele>
        <time>2020-01-20T18:45:00Z</time>
      </trkpt>
      <trkpt lat="17.077770890" lon="-96.465121880">
        <ele>2692.400</ele>
        <time>2020-01-20T18:45:01Z</time>
      </trkpt>
      <trkpt lat="17.077825660" lon="-96.465064290">
        <ele>2693.300</ele>
        <time>2020-01-20T18:45:02Z</time>
      </trkpt>
      <trkpt lat="17.077875360" lon="-96.464992270">
        <ele>2695.800</ele>
        <time>2020-01-20T18:45:03Z</time>
      </trkpt>
      <trkpt lat="17.077917140" lon="-96.464918160">
        <ele>2696.400</ele>
        <time>2020-01-20T18:45:04Z</time>
      </trkpt>
      <trkpt lat="17.077950620" lon="-96.464845080">
        <ele>2697.000</ele>
        <time>2020-01-20T18:45:05Z</time>
      </trkpt>
      <trkpt lat="17.077982330" lon="-96.464776570">
        <ele>2697.300</ele>
        <time>2020-01-20T18:45:06Z</time>
      </trkpt>
      <trkpt lat="17.078026990" lon="-96.464708610">
        <ele>2698.400</ele>
        <time>2020-01-20T18:45:07Z</time>
      </trkpt>
      <trkpt lat="17.078073240" lon="-96.464658890">
        <ele>2698.800</ele>
        <time>2020-01-20T18:45:08Z</time>
      </trkpt>
      <trkpt lat="17.078117090" lon="-96.464612120">
        <ele>2698.600</ele>
        <time>2020-01-20T18:45:09Z</time>
      </trkpt>
      <trkpt lat="17.078192520" lon="-96.464603780">
        <ele>2700.900</ele>
        <time>2020-01-20T18:45:10Z</time>
      </trkpt>
      <trkpt lat="17.078268840" lon="-96.464608430">
        <ele>2701.000</ele>
        <time>2020-01-20T18:45:11Z</time>
      </trkpt>
      <trkpt lat="17.078337600" lon="-96.464587150">
        <ele>2701.800</ele>
        <time>2020-01-20T18:45:12Z</time>
      </trkpt>
      <trkpt lat="17.078420210" lon="-96.464560310">
        <ele>2703.600</ele>
        <time>2020-01-20T18:45:13Z</time>
      </trkpt>
      <trkpt lat="17.078496330" lon="-96.464543670">
        <ele>2704.800</ele>
        <time>2020-01-20T18:45:14Z</time>
      </trkpt>
      <trkpt lat="17.078568700" lon="-96.464528200">
        <ele>2706.100</ele>
        <time>2020-01-20T18:45:15Z</time>
      </trkpt>
      <trkpt lat="17.078628970" lon="-96.464491460">
        <ele>2706.700</ele>
        <time>2020-01-20T18:45:16Z</time>
      </trkpt>
      <trkpt lat="17.078693750" lon="-96.464453080">
        <ele>2707.600</ele>
        <time>2020-01-20T18:45:17Z</time>
      </trkpt>
      <trkpt lat="17.078748190" lon="-96.464394950">
        <ele>2707.700</ele>
        <time>2020-01-20T18:45:18Z</time>
      </trkpt>
      <trkpt lat="17.078771560" lon="-96.464318930">
        <ele>2708.200</ele>
        <time>2020-01-20T18:45:19Z</time>
      </trkpt>
      <trkpt lat="17.078796890" lon="-96.464243240">
        <ele>2708.000</ele>
        <time>2020-01-20T18:45:20Z</time>
      </trkpt>
      <trkpt lat="17.078822580" lon="-96.464164270">
        <ele>2709.500</ele>
        <time>2020-01-20T18:45:21Z</time>
      </trkpt>
      <trkpt lat="17.078868240" lon="-96.464097980">
        <ele>2709.000</ele>
        <time>2020-01-20T18:45:22Z</time>
      </trkpt>
      <trkpt lat="17.078903490" lon="-96.464020290">
        <ele>2710.100</ele>
        <time>2020-01-20T18:45:23Z</time>
      </trkpt>
      <trkpt lat="17.078945120" lon="-96.463950530">
        <ele>2710.500</ele>
        <time>2020-01-20T18:45:24Z</time>
      </trkpt>
      <trkpt lat="17.078990180" lon="-96.463889010">
        <ele>2710.400</ele>
        <time>2020-01-20T18:45:25Z</time>
      </trkpt>
      <trkpt lat="17.079046150" lon="-96.463835730">
        <ele>2711.200</ele>
        <time>2020-01-20T18:45:26Z</time>
      </trkpt>
      <trkpt lat="17.079097760" lon="-96.463788230">
        <ele>2710.700</ele>
        <time>2020-01-20T18:45:27Z</time>
      </trkpt>
      <trkpt lat="17.079173200" lon="-96.463743750">
        <ele>2711.000</ele>
        <time>2020-01-20T18:45:28Z</time>
      </trkpt>
      <trkpt lat="17.079248380" lon="-96.463702160">
        <ele>2711.200</ele>
        <time>2020-01-20T18:45:29Z</time>
      </trkpt>
      <trkpt lat="17.079325940" lon="-96.463651910">
        <ele>2711.600</ele>
        <time>2020-01-20T18:45:30Z</time>
      </trkpt>
      <trkpt lat="17.079404590" lon="-96.463606690">
        <ele>2711.300</ele>
        <time>2020-01-20T18:45:31Z</time>
      </trkpt>
      <trkpt lat="17.079490560" lon="-96.463547730">
        <ele>2711.700</ele>
        <time>2020-01-20T18:45:32Z</time>
      </trkpt>
      <trkpt lat="17.079572160" lon="-96.463514530">
        <ele>2711.800</ele>
        <time>2020-01-20T18:45:33Z</time>
      </trkpt>
      <trkpt lat="17.079659460" lon="-96.463476020">
        <ele>2712.400</ele>
        <time>2020-01-20T18:45:34Z</time>
      </trkpt>
      <trkpt lat="17.079751550" lon="-96.463449010">
        <ele>2712.400</ele>
        <time>2020-01-20T18:45:35Z</time>
      </trkpt>
      <trkpt lat="17.079843520" lon="-96.463416450">
        <ele>2713.800</ele>
        <time>2020-01-20T18:45:36Z</time>
      </trkpt>
      <trkpt lat="17.079933160" lon="-96.463382850">
        <ele>2714.400</ele>
        <time>2020-01-20T18:45:37Z</time>
      </trkpt>
      <trkpt lat="17.080022440" lon="-96.463348300">
        <ele>2715.000</ele>
        <time>2020-01-20T18:45:38Z</time>
      </trkpt>
      <trkpt lat="17.080112540" lon="-96.463321990">
        <ele>2715.100</ele>
        <time>2020-01-20T18:45:39Z</time>
      </trkpt>
      <trkpt lat="17.080202410" lon="-96.463308660">
        <ele>2714.600</ele>
        <time>2020-01-20T18:45:40Z</time>
      </trkpt>
      <trkpt lat="17.080294270" lon="-96.463288450">
        <ele>2714.900</ele>
        <time>2020-01-20T18:45:41Z</time>
      </trkpt>
      <trkpt lat="17.080389480" lon="-96.463277290">
        <ele>2715.000</ele>
        <time>2020-01-20T18:45:42Z</time>
      </trkpt>
      <trkpt lat="17.080495490" lon="-96.463279260">
        <ele>2716.000</ele>
        <time>2020-01-20T18:45:43Z</time>
      </trkpt>
      <trkpt lat="17.080605490" lon="-96.463299280">
        <ele>2719.300</ele>
        <time>2020-01-20T18:45:44Z</time>
      </trkpt>
      <trkpt lat="17.080707560" lon="-96.463310340">
        <ele>2720.200</ele>
        <time>2020-01-20T18:45:45Z</time>
      </trkpt>
      <trkpt lat="17.080811860" lon="-96.463336920">
        <ele>2721.700</ele>
        <time>2020-01-20T18:45:46Z</time>
      </trkpt>
      <trkpt lat="17.080925320" lon="-96.463398840">
        <ele>2723.300</ele>
        <time>2020-01-20T18:45:47Z</time>
      </trkpt>
      <trkpt lat="17.081034680" lon="-96.463448010">
        <ele>2723.600</ele>
        <time>2020-01-20T18:45:48Z</time>
      </trkpt>
      <trkpt lat="17.081138830" lon="-96.463488290">
        <ele>2722.900</ele>
        <time>2020-01-20T18:45:49Z</time>
      </trkpt>
      <trkpt lat="17.081227790" lon="-96.463537380">
        <ele>2722.400</ele>
        <time>2020-01-20T18:45:50Z</time>
      </trkpt>
      <trkpt lat="17.081327970" lon="-96.463591270">
        <ele>2721.900</ele>
        <time>2020-01-20T18:45:51Z</time>
      </trkpt>
      <trkpt lat="17.081426220" lon="-96.463639500">
        <ele>2722.200</ele>
        <time>2020-01-20T18:45:52Z</time>
      </trkpt>
      <trkpt lat="17.081531920" lon="-96.463688530">
        <ele>2721.700</ele>
        <time>2020-01-20T18:45:53Z</time>
      </trkpt>
      <trkpt lat="17.081635870" lon="-96.463746080">
        <ele>2721.800</ele>
        <time>2020-01-20T18:45:54Z</time>
      </trkpt>
      <trkpt lat="17.081727550" lon="-96.463806830">
        <ele>2722.600</ele>
        <time>2020-01-20T18:45:55Z</time>
      </trkpt>
      <trkpt lat="17.081829370" lon="-96.463861920">
        <ele>2723.300</ele>
        <time>2020-01-20T18:45:56Z</time>
      </trkpt>
      <trkpt lat="17.081925150" lon="-96.463918790">
        <ele>2723.500</ele>
        <time>2020-01-20T18:45:57Z</time>
      </trkpt>
      <trkpt lat="17.082025030" lon="-96.463974600">
        <ele>2723.800</ele>
        <time>2020-01-20T18:45:58Z</time>
      </trkpt>
      <trkpt lat="17.082123680" lon="-96.464030900">
        <ele>2724.300</ele>
        <time>2020-01-20T18:45:59Z</time>
      </trkpt>
      <trkpt lat="17.082232790" lon="-96.464078940">
        <ele>2724.700</ele>
        <time>2020-01-20T18:46:00Z</time>
      </trkpt>
      <trkpt lat="17.082332730" lon="-96.464127960">
        <ele>2725.300</ele>
        <time>2020-01-20T18:46:01Z</time>
      </trkpt>
      <trkpt lat="17.082446410" lon="-96.464183020">
        <ele>2723.300</ele>
        <time>2020-01-20T18:46:02Z</time>
      </trkpt>
      <trkpt lat="17.082549400" lon="-96.464235600">
        <ele>2723.500</ele>
        <time>2020-01-20T18:46:03Z</time>
      </trkpt>
      <trkpt lat="17.082647330" lon="-96.464287870">
        <ele>2723.500</ele>
        <time>2020-01-20T18:46:04Z</time>
      </trkpt>
      <trkpt lat="17.082748840" lon="-96.464339220">
        <ele>2723.500</ele>
        <time>2020-01-20T18:46:05Z</time>
      </trkpt>
      <trkpt lat="17.082850470" lon="-96.464389360">
        <ele>2725.300</ele>
        <time>2020-01-20T18:46:06Z</time>
      </trkpt>
      <trkpt lat="17.082954450" lon="-96.464447630">
        <ele>2725.900</ele>
        <time>2020-01-20T18:46:07Z</time>
      </trkpt>
      <trkpt lat="17.083056790" lon="-96.464502800">
        <ele>2726.400</ele>
        <time>2020-01-20T18:46:08Z</time>
      </trkpt>
      <trkpt lat="17.083154260" lon="-96.464570530">
        <ele>2727.300</ele>
        <time>2020-01-20T18:46:09Z</time>
      </trkpt>
      <trkpt lat="17.083250590" lon="-96.464641980">
        <ele>2729.000</ele>
        <time>2020-01-20T18:46:10Z</time>
      </trkpt>
      <trkpt lat="17.083346250" lon="-96.464711180">
        <ele>2728.800</ele>
        <time>2020-01-20T18:46:11Z</time>
      </trkpt>
      <trkpt lat="17.083435370" lon="-96.464790870">
        <ele>2729.600</ele>
        <time>2020-01-20T18:46:12Z</time>
      </trkpt>
      <trkpt lat="17.083512870" lon="-96.464873750">
        <ele>2729.300</ele>
        <time>2020-01-20T18:46:13Z</time>
      </trkpt>
      <trkpt lat="17.083595250" lon="-96.464973370">
        <ele>2730.200</ele>
        <time>2020-01-20T18:46:14Z</time>
      </trkpt>
      <trkpt lat="17.083677190" lon="-96.465077440">
        <ele>2730.600</ele>
        <time>2020-01-20T18:46:15Z</time>
      </trkpt>
      <trkpt lat="17.083754870" lon="-96.465184000">
        <ele>2731.300</ele>
        <time>2020-01-20T18:46:16Z</time>
      </trkpt>
      <trkpt lat="17.083838460" lon="-96.465293350">
        <ele>2732.500</ele>
        <time>2020-01-20T18:46:17Z</time>
      </trkpt>
      <trkpt lat="17.083904810" lon="-96.465404990">
        <ele>2733.500</ele>
        <time>2020-01-20T18:46:18Z</time>
      </trkpt>
      <trkpt lat="17.083969460" lon="-96.465523270">
        <ele>2733.700</ele>
        <time>2020-01-20T18:46:19Z</time>
      </trkpt>
      <trkpt lat="17.084034340" lon="-96.465642080">
        <ele>2734.200</ele>
        <time>2020-01-20T18:46:20Z</time>
      </trkpt>
      <trkpt lat="17.084107770" lon="-96.465756350">
        <ele>2735.200</ele>
        <time>2020-01-20T18:46:21Z</time>
      </trkpt>
      <trkpt lat="17.084183780" lon="-96.465870280">
        <ele>2736.100</ele>
        <time>2020-01-20T18:46:22Z</time>
      </trkpt>
      <trkpt lat="17.084264630" lon="-96.465985540">
        <ele>2737.500</ele>
        <time>2020-01-20T18:46:23Z</time>
      </trkpt>
      <trkpt lat="17.084343890" lon="-96.466091940">
        <ele>2739.400</ele>
        <time>2020-01-20T18:46:24Z</time>
      </trkpt>
      <trkpt lat="17.084415420" lon="-96.466197680">
        <ele>2740.700</ele>
        <time>2020-01-20T18:46:25Z</time>
      </trkpt>
      <trkpt lat="17.084522370" lon="-96.466276790">
        <ele>2742.500</ele>
        <time>2020-01-20T18:46:26Z</time>
      </trkpt>
      <trkpt lat="17.084635470" lon="-96.466347020">
        <ele>2744.000</ele>
        <time>2020-01-20T18:46:27Z</time>
      </trkpt>
      <trkpt lat="17.084744580" lon="-96.466412730">
        <ele>2744.600</ele>
        <time>2020-01-20T18:46:28Z</time>
      </trkpt>
      <trkpt lat="17.084852100" lon="-96.466471650">
        <ele>2745.800</ele>
        <time>2020-01-20T18:46:29Z</time>
      </trkpt>
      <trkpt lat="17.084963190" lon="-96.466532470">
        <ele>2746.700</ele>
        <time>2020-01-20T18:46:30Z</time>
      </trkpt>
      <trkpt lat="17.085068290" lon="-96.466598910">
        <ele>2748.000</ele>
        <time>2020-01-20T18:46:31Z</time>
      </trkpt>
      <trkpt lat="17.085164260" lon="-96.466670620">
        <ele>2748.300</ele>
        <time>2020-01-20T18:46:32Z</time>
      </trkpt>
      <trkpt lat="17.085255580" lon="-96.466746040">
        <ele>2749.600</ele>
        <time>2020-01-20T18:46:33Z</time>
      </trkpt>
      <trkpt lat="17.085335310" lon="-96.466830430">
        <ele>2750.000</ele>
        <time>2020-01-20T18:46:34Z</time>
      </trkpt>
      <trkpt lat="17.085411310" lon="-96.466916970">
        <ele>2750.900</ele>
        <time>2020-01-20T18:46:35Z</time>
      </trkpt>
      <trkpt lat="17.085487200" lon="-96.467001570">
        <ele>2751.700</ele>
        <time>2020-01-20T18:46:36Z</time>
      </trkpt>
      <trkpt lat="17.085569230" lon="-96.467079470">
        <ele>2752.600</ele>
        <time>2020-01-20T18:46:37Z</time>
      </trkpt>
      <trkpt lat="17.085656940" lon="-96.467149940">
        <ele>2752.700</ele>
        <time>2020-01-20T18:46:38Z</time>
      </trkpt>
      <trkpt lat="17.085740130" lon="-96.467224680">
        <ele>2753.000</ele>
        <time>2020-01-20T18:46:39Z</time>
      </trkpt>
      <trkpt lat="17.085821550" lon="-96.467301710">
        <ele>2752.700</ele>
        <time>2020-01-20T18:46:40Z</time>
      </trkpt>
      <trkpt lat="17.085902060" lon="-96.467383160">
        <ele>2753.600</ele>
        <time>2020-01-20T18:46:41Z</time>
      </trkpt>
      <trkpt lat="17.085980390" lon="-96.467470350">
        <ele>2754.400</ele>
        <time>2020-01-20T18:46:42Z</time>
      </trkpt>
      <trkpt lat="17.086043460" lon="-96.467584260">
        <ele>2754.900</ele>
        <time>2020-01-20T18:46:43Z</time>
      </trkpt>
      <trkpt lat="17.086094740" lon="-96.467704050">
        <ele>2756.300</ele>
        <time>2020-01-20T18:46:44Z</time>
      </trkpt>
      <trkpt lat="17.086155630" lon="-96.467817740">
        <ele>2756.900</ele>
        <time>2020-01-20T18:46:45Z</time>
      </trkpt>
      <trkpt lat="17.086218510" lon="-96.467938860">
        <ele>2758.000</ele>
        <time>2020-01-20T18:46:46Z</time>
      </trkpt>
      <trkpt lat="17.086291540" lon="-96.468051360">
        <ele>2759.800</ele>
        <time>2020-01-20T18:46:47Z</time>
      </trkpt>
      <trkpt lat="17.086364220" lon="-96.468157900">
        <ele>2762.200</ele>
        <time>2020-01-20T18:46:48Z</time>
      </trkpt>
      <trkpt lat="17.086422910" lon="-96.468249540">
        <ele>2763.500</ele>
        <time>2020-01-20T18:46:49Z</time>
      </trkpt>
      <trkpt lat="17.086494640" lon="-96.468336060">
        <ele>2763.700</ele>
        <time>2020-01-20T18:46:50Z</time>
      </trkpt>
      <trkpt lat="17.086594380" lon="-96.468424700">
        <ele>2763.000</ele>
        <time>2020-01-20T18:46:51Z</time>
      </trkpt>
      <trkpt lat="17.086692580" lon="-96.468492340">
        <ele>2764.700</ele>
        <time>2020-01-20T18:46:52Z</time>
      </trkpt>
      <trkpt lat="17.086801840" lon="-96.468554140">
        <ele>2765.200</ele>
        <time>2020-01-20T18:46:53Z</time>
      </trkpt>
      <trkpt lat="17.086902490" lon="-96.468611990">
        <ele>2765.800</ele>
        <time>2020-01-20T18:46:54Z</time>
      </trkpt>
      <trkpt lat="17.087011810" lon="-96.468658550">
        <ele>2767.300</ele>
        <time>2020-01-20T18:46:55Z</time>
      </trkpt>
      <trkpt lat="17.087127270" lon="-96.468699300">
        <ele>2768.700</ele>
        <time>2020-01-20T18:46:56Z</time>
      </trkpt>
      <trkpt lat="17.087246450" lon="-96.468737640">
        <ele>2769.500</ele>
        <time>2020-01-20T18:46:57Z</time>
      </trkpt>
      <trkpt lat="17.087355130" lon="-96.468783700">
        <ele>2769.700</ele>
        <time>2020-01-20T18:46:58Z</time>
      </trkpt>
      <trkpt lat="17.087455430" lon="-96.468829080">
        <ele>2769.300</ele>
        <time>2020-01-20T18:46:59Z</time>
      </trkpt>
      <trkpt lat="17.087588930" lon="-96.468857470">
        <ele>2771.000</ele>
        <time>2020-01-20T18:47:00Z</time>
      </trkpt>
      <trkpt lat="17.087713180" lon="-96.468901590">
        <ele>2771.500</ele>
        <time>2020-01-20T18:47:01Z</time>
      </trkpt>
      <trkpt lat="17.087834190" lon="-96.468914770">
        <ele>2772.600</ele>
        <time>2020-01-20T18:47:02Z</time>
      </trkpt>
      <trkpt lat="17.087960660" lon="-96.468936160">
        <ele>2773.400</ele>
        <time>2020-01-20T18:47:03Z</time>
      </trkpt>
      <trkpt lat="17.088087600" lon="-96.468964670">
        <ele>2774.300</ele>
        <time>2020-01-20T18:47:04Z</time>
      </trkpt>
      <trkpt lat="17.088220100" lon="-96.468981530">
        <ele>2775.200</ele>
        <time>2020-01-20T18:47:05Z</time>
      </trkpt>
      <trkpt lat="17.088344860" lon="-96.469005480">
        <ele>2776.500</ele>
        <time>2020-01-20T18:47:06Z</time>
      </trkpt>
      <trkpt lat="17.088461740" lon="-96.469036440">
        <ele>2776.500</ele>
        <time>2020-01-20T18:47:07Z</time>
      </trkpt>
      <trkpt lat="17.088572020" lon="-96.469056490">
        <ele>2777.200</ele>
        <time>2020-01-20T18:47:08Z</time>
      </trkpt>
      <trkpt lat="17.088684310" lon="-96.469080780">
        <ele>2776.600</ele>
        <time>2020-01-20T18:47:09Z</time>
      </trkpt>
      <trkpt lat="17.088826370" lon="-96.469112150">
        <ele>2777.700</ele>
        <time>2020-01-20T18:47:10Z</time>
      </trkpt>
      <trkpt lat="17.088946030" lon="-96.469151120">
        <ele>2780.300</ele>
        <time>2020-01-20T18:47:11Z</time>
      </trkpt>
      <trkpt lat="17.089045660" lon="-96.469169850">
        <ele>2779.700</ele>
        <time>2020-01-20T18:47:12Z</time>
      </trkpt>
      <trkpt lat="17.089169490" lon="-96.469218260">
        <ele>2781.800</ele>
        <time>2020-01-20T18:47:13Z</time>
      </trkpt>
      <trkpt lat="17.089294930" lon="-96.469277810">
        <ele>2783.000</ele>
        <time>2020-01-20T18:47:14Z</time>
      </trkpt>
      <trkpt lat="17.089417670" lon="-96.469335700">
        <ele>2784.900</ele>
        <time>2020-01-20T18:47:15Z</time>
      </trkpt>
      <trkpt lat="17.089541110" lon="-96.469393550">
        <ele>2786.800</ele>
        <time>2020-01-20T18:47:16Z</time>
      </trkpt>
      <trkpt lat="17.089670080" lon="-96.469446440">
        <ele>2787.100</ele>
        <time>2020-01-20T18:47:17Z</time>
      </trkpt>
      <trkpt lat="17.089811230" lon="-96.469506030">
        <ele>2786.400</ele>
        <time>2020-01-20T18:47:18Z</time>
      </trkpt>
      <trkpt lat="17.089934080" lon="-96.469569940">
        <ele>2787.800</ele>
        <time>2020-01-20T18:47:19Z</time>
      </trkpt>
      <trkpt lat="17.090054070" lon="-96.469631540">
        <ele>2789.300</ele>
        <time>2020-01-20T18:47:20Z</time>
      </trkpt>
      <trkpt lat="17.090169670" lon="-96.469710750">
        <ele>2791.500</ele>
        <time>2020-01-20T18:47:21Z</time>
      </trkpt>
      <trkpt lat="17.090289800" lon="-96.469775040">
        <ele>2793.500</ele>
        <time>2020-01-20T18:47:22Z</time>
      </trkpt>
      <trkpt lat="17.090402120" lon="-96.469837540">
        <ele>2793.900</ele>
        <time>2020-01-20T18:47:23Z</time>
      </trkpt>
      <trkpt lat="17.090516430" lon="-96.469897730">
        <ele>2796.000</ele>
        <time>2020-01-20T18:47:24Z</time>
      </trkpt>
      <trkpt lat="17.090621970" lon="-96.469953410">
        <ele>2797.100</ele>
        <time>2020-01-20T18:47:25Z</time>
      </trkpt>
      <trkpt lat="17.090739770" lon="-96.470005070">
        <ele>2796.200</ele>
        <time>2020-01-20T18:47:26Z</time>
      </trkpt>
      <trkpt lat="17.090840170" lon="-96.470054740">
        <ele>2797.900</ele>
        <time>2020-01-20T18:47:27Z</time>
      </trkpt>
      <trkpt lat="17.090941520" lon="-96.470097450">
        <ele>2799.500</ele>
        <time>2020-01-20T18:47:28Z</time>
      </trkpt>
      <trkpt lat="17.091044340" lon="-96.470140530">
        <ele>2801.100</ele>
        <time>2020-01-20T18:47:29Z</time>
      </trkpt>
      <trkpt lat="17.091148160" lon="-96.470190620">
        <ele>2802.500</ele>
        <time>2020-01-20T18:47:30Z</time>
      </trkpt>
      <trkpt lat="17.091235770" lon="-96.470259940">
        <ele>2802.900</ele>
        <time>2020-01-20T18:47:31Z</time>
      </trkpt>
      <trkpt lat="17.091321520" lon="-96.470342310">
        <ele>2803.700</ele>
        <time>2020-01-20T18:47:32Z</time>
      </trkpt>
      <trkpt lat="17.091382930" lon="-96.470431150">
        <ele>2805.500</ele>
        <time>2020-01-20T18:47:33Z</time>
      </trkpt>
      <trkpt lat="17.091440330" lon="-96.470514500">
        <ele>2806.200</ele>
        <time>2020-01-20T18:47:34Z</time>
      </trkpt>
      <trkpt lat="17.091510270" lon="-96.470591650">
        <ele>2806.900</ele>
        <time>2020-01-20T18:47:35Z</time>
      </trkpt>
      <trkpt lat="17.091571930" lon="-96.470675690">
        <ele>2808.200</ele>
        <time>2020-01-20T18:47:36Z</time>
      </trkpt>
      <trkpt lat="17.091647170" lon="-96.470748900">
        <ele>2810.700</ele>
        <time>2020-01-20T18:47:37Z</time>
      </trkpt>
      <trkpt lat="17.091722050" lon="-96.470812630">
        <ele>2811.500</ele>
        <time>2020-01-20T18:47:38Z</time>
      </trkpt>
      <trkpt lat="17.091805890" lon="-96.470875090">
        <ele>2811.700</ele>
        <time>2020-01-20T18:47:39Z</time>
      </trkpt>
      <trkpt lat="17.091881730" lon="-96.470926780">
        <ele>2811.700</ele>
        <time>2020-01-20T18:47:40Z</time>
      </trkpt>
      <trkpt lat="17.091974050" lon="-96.470963890">
        <ele>2812.800</ele>
        <time>2020-01-20T18:47:41Z</time>
      </trkpt>
      <trkpt lat="17.092076320" lon="-96.470983450">
        <ele>2814.600</ele>
        <time>2020-01-20T18:47:42Z</time>
      </trkpt>
      <trkpt lat="17.092178610" lon="-96.470998290">
        <ele>2815.200</ele>
        <time>2020-01-20T18:47:43Z</time>
      </trkpt>
      <trkpt lat="17.092280700" lon="-96.470982290">
        <ele>2815.600</ele>
        <time>2020-01-20T18:47:44Z</time>
      </trkpt>
      <trkpt lat="17.092378880" lon="-96.470966360">
        <ele>2817.200</ele>
        <time>2020-01-20T18:47:45Z</time>
      </trkpt>
      <trkpt lat="17.092484070" lon="-96.470941630">
        <ele>2816.700</ele>
        <time>2020-01-20T18:47:46Z</time>
      </trkpt>
      <trkpt lat="17.092584540" lon="-96.470920250">
        <ele>2819.800</ele>
        <time>2020-01-20T18:47:47Z</time>
      </trkpt>
      <trkpt lat="17.092681780" lon="-96.470915660">
        <ele>2821.100</ele>
        <time>2020-01-20T18:47:48Z</time>
      </trkpt>
      <trkpt lat="17.092796750" lon="-96.470909640">
        <ele>2823.300</ele>
        <time>2020-01-20T18:47:49Z</time>
      </trkpt>
      <trkpt lat="17.092915610" lon="-96.470916870">
        <ele>2824.300</ele>
        <time>2020-01-20T18:47:50Z</time>
      </trkpt>
      <trkpt lat="17.093027560" lon="-96.470898960">
        <ele>2825.600</ele>
        <time>2020-01-20T18:47:51Z</time>
      </trkpt>
      <trkpt lat="17.093132950" lon="-96.470887870">
        <ele>2826.100</ele>
        <time>2020-01-20T18:47:52Z</time>
      </trkpt>
      <trkpt lat="17.093234830" lon="-96.470844170">
        <ele>2826.500</ele>
        <time>2020-01-20T18:47:53Z</time>
      </trkpt>
      <trkpt lat="17.093324310" lon="-96.470791480">
        <ele>2827.700</ele>
        <time>2020-01-20T18:47:54Z</time>
      </trkpt>
      <trkpt lat="17.093422520" lon="-96.470737960">
        <ele>2829.600</ele>
        <time>2020-01-20T18:47:55Z</time>
      </trkpt>
      <trkpt lat="17.093522000" lon="-96.470679910">
        <ele>2831.000</ele>
        <time>2020-01-20T18:47:56Z</time>
      </trkpt>
      <trkpt lat="17.093619510" lon="-96.470620850">
        <ele>2832.000</ele>
        <time>2020-01-20T18:47:57Z</time>
      </trkpt>
      <trkpt lat="17.093711150" lon="-96.470561950">
        <ele>2832.500</ele>
        <time>2020-01-20T18:47:58Z</time>
      </trkpt>
      <trkpt lat="17.093803250" lon="-96.470505480">
        <ele>2833.600</ele>
        <time>2020-01-20T18:47:59Z</time>
      </trkpt>
      <trkpt lat="17.093900070" lon="-96.470454960">
        <ele>2835.500</ele>
        <time>2020-01-20T18:48:00Z</time>
      </trkpt>
      <trkpt lat="17.093991980" lon="-96.470402690">
        <ele>2837.200</ele>
        <time>2020-01-20T18:48:01Z</time>
      </trkpt>
      <trkpt lat="17.094090420" lon="-96.470375480">
        <ele>2838.700</ele>
        <time>2020-01-20T18:48:02Z</time>
      </trkpt>
      <trkpt lat="17.094190750" lon="-96.470354420">
        <ele>2839.800</ele>
        <time>2020-01-20T18:48:03Z</time>
      </trkpt>
      <trkpt lat="17.094283830" lon="-96.470343570">
        <ele>2840.000</ele>
        <time>2020-01-20T18:48:04Z</time>
      </trkpt>
      <trkpt lat="17.094375220" lon="-96.470332560">
        <ele>2841.200</ele>
        <time>2020-01-20T18:48:05Z</time>
      </trkpt>
      <trkpt lat="17.094468360" lon="-96.470317680">
        <ele>2841.300</ele>
        <time>2020-01-20T18:48:06Z</time>
      </trkpt>
      <trkpt lat="17.094565170" lon="-96.470287370">
        <ele>2841.600</ele>
        <time>2020-01-20T18:48:07Z</time>
      </trkpt>
      <trkpt lat="17.094653570" lon="-96.470250430">
        <ele>2842.100</ele>
        <time>2020-01-20T18:48:08Z</time>
      </trkpt>
      <trkpt lat="17.094702930" lon="-96.470176590">
        <ele>2841.100</ele>
        <time>2020-01-20T18:48:09Z</time>
      </trkpt>
      <trkpt lat="17.094766960" lon="-96.470119290">
        <ele>2842.500</ele>
        <time>2020-01-20T18:48:10Z</time>
      </trkpt>
      <trkpt lat="17.094812270" lon="-96.470049650">
        <ele>2843.600</ele>
        <time>2020-01-20T18:48:11Z</time>
      </trkpt>
      <trkpt lat="17.094861420" lon="-96.469978210">
        <ele>2845.700</ele>
        <time>2020-01-20T18:48:12Z</time>
      </trkpt>
      <trkpt lat="17.094912150" lon="-96.469910270">
        <ele>2847.100</ele>
        <time>2020-01-20T18:48:13Z</time>
      </trkpt>
      <trkpt lat="17.094960990" lon="-96.469843450">
        <ele>2848.800</ele>
        <time>2020-01-20T18:48:14Z</time>
      </trkpt>
      <trkpt lat="17.095016350" lon="-96.469782680">
        <ele>2848.900</ele>
        <time>2020-01-20T18:48:15Z</time>
      </trkpt>
      <trkpt lat="17.095075880" lon="-96.469728960">
        <ele>2850.700</ele>
        <time>2020-01-20T18:48:16Z</time>
      </trkpt>
      <trkpt lat="17.095129890" lon="-96.469695300">
        <ele>2851.100</ele>
        <time>2020-01-20T18:48:17Z</time>
      </trkpt>
      <trkpt lat="17.095178550" lon="-96.469654960">
        <ele>2852.100</ele>
        <time>2020-01-20T18:48:18Z</time>
      </trkpt>
      <trkpt lat="17.095227470" lon="-96.469624330">
        <ele>2852.800</ele>
        <time>2020-01-20T18:48:19Z</time>
      </trkpt>
      <trkpt lat="17.095283340" lon="-96.469604740">
        <ele>2852.500</ele>
        <time>2020-01-20T18:48:20Z</time>
      </trkpt>
      <trkpt lat="17.095349080" lon="-96.469609600">
        <ele>2853.600</ele>
        <time>2020-01-20T18:48:21Z</time>
      </trkpt>
      <trkpt lat="17.095407290" lon="-96.469621190">
        <ele>2855.300</ele>
        <time>2020-01-20T18:48:22Z</time>
      </trkpt>
      <trkpt lat="17.095456480" lon="-96.469651500">
        <ele>2856.900</ele>
        <time>2020-01-20T18:48:23Z</time>
      </trkpt>
      <trkpt lat="17.095490250" lon="-96.469693500">
        <ele>2858.300</ele>
        <time>2020-01-20T18:48:24Z</time>
      </trkpt>
      <trkpt lat="17.095524280" lon="-96.469754900">
        <ele>2859.200</ele>
        <time>2020-01-20T18:48:25Z</time>
      </trkpt>
      <trkpt lat="17.095553180" lon="-96.469814910">
        <ele>2859.800</ele>
        <time>2020-01-20T18:48:26Z</time>
      </trkpt>
      <trkpt lat="17.095579550" lon="-96.469879210">
        <ele>2860.800</ele>
        <time>2020-01-20T18:48:27Z</time>
      </trkpt>
      <trkpt lat="17.095604300" lon="-96.469943900">
        <ele>2861.600</ele>
        <time>2020-01-20T18:48:28Z</time>
      </trkpt>
      <trkpt lat="17.095640220" lon="-96.470004490">
        <ele>2862.200</ele>
        <time>2020-01-20T18:48:29Z</time>
      </trkpt>
      <trkpt lat="17.095682410" lon="-96.470059010">
        <ele>2863.000</ele>
        <time>2020-01-20T18:48:30Z</time>
      </trkpt>
      <trkpt lat="17.095728260" lon="-96.470105190">
        <ele>2863.600</ele>
        <time>2020-01-20T18:48:31Z</time>
      </trkpt>
      <trkpt lat="17.095786750" lon="-96.470127500">
        <ele>2865.500</ele>
        <time>2020-01-20T18:48:32Z</time>
      </trkpt>
      <trkpt lat="17.095841060" lon="-96.470134840">
        <ele>2866.000</ele>
        <time>2020-01-20T18:48:33Z</time>
      </trkpt>
      <trkpt lat="17.095915740" lon="-96.470129210">
        <ele>2867.200</ele>
        <time>2020-01-20T18:48:34Z</time>
      </trkpt>
      <trkpt lat="17.095978880" lon="-96.470122920">
        <ele>2868.400</ele>
        <time>2020-01-20T18:48:35Z</time>
      </trkpt>
      <trkpt lat="17.096064260" lon="-96.470117030">
        <ele>2867.900</ele>
        <time>2020-01-20T18:48:36Z</time>
      </trkpt>
      <trkpt lat="17.096150850" lon="-96.470102230">
        <ele>2868.800</ele>
        <time>2020-01-20T18:48:37Z</time>
      </trkpt>
      <trkpt lat="17.096223170" lon="-96.470099180">
        <ele>2870.200</ele>
        <time>2020-01-20T18:48:38Z</time>
      </trkpt>
      <trkpt lat="17.096286080" lon="-96.470073960">
        <ele>2871.000</ele>
        <time>2020-01-20T18:48:39Z</time>
      </trkpt>
      <trkpt lat="17.096362600" lon="-96.470034530">
        <ele>2871.300</ele>
        <time>2020-01-20T18:48:40Z</time>
      </trkpt>
      <trkpt lat="17.096427470" lon="-96.469981680">
        <ele>2871.400</ele>
        <time>2020-01-20T18:48:41Z</time>
      </trkpt>
      <trkpt lat="17.096492170" lon="-96.469932400">
        <ele>2872.700</ele>
        <time>2020-01-20T18:48:42Z</time>
      </trkpt>
      <trkpt lat="17.096556120" lon="-96.469880120">
        <ele>2873.600</ele>
        <time>2020-01-20T18:48:43Z</time>
      </trkpt>
      <trkpt lat="17.096627110" lon="-96.469833300">
        <ele>2874.400</ele>
        <time>2020-01-20T18:48:44Z</time>
      </trkpt>
      <trkpt lat="17.096689700" lon="-96.469788210">
        <ele>2875.200</ele>
        <time>2020-01-20T18:48:45Z</time>
      </trkpt>
      <trkpt lat="17.096753040" lon="-96.469732380">
        <ele>2876.300</ele>
        <time>2020-01-20T18:48:46Z</time>
      </trkpt>
      <trkpt lat="17.096815360" lon="-96.469688070">
        <ele>2878.100</ele>
        <time>2020-01-20T18:48:47Z</time>
      </trkpt>
      <trkpt lat="17.096875670" lon="-96.469645110">
        <ele>2878.300</ele>
        <time>2020-01-20T18:48:48Z</time>
      </trkpt>
      <trkpt lat="17.096940620" lon="-96.469599720">
        <ele>2879.300</ele>
        <time>2020-01-20T18:48:49Z</time>
      </trkpt>
      <trkpt lat="17.097015700" lon="-96.469562540">
        <ele>2879.600</ele>
        <time>2020-01-20T18:48:50Z</time>
      </trkpt>
      <trkpt lat="17.097100960" lon="-96.469581640">
        <ele>2881.300</ele>
        <time>2020-01-20T18:48:51Z</time>
      </trkpt>
      <trkpt lat="17.097182080" lon="-96.469585890">
        <ele>2881.300</ele>
        <time>2020-01-20T18:48:52Z</time>
      </trkpt>
      <trkpt lat="17.097250370" lon="-96.469585520">
        <ele>2881.300</ele>
        <time>2020-01-20T18:48:53Z</time>
      </trkpt>
      <trkpt lat="17.097321590" lon="-96.469612050">
        <ele>2882.000</ele>
        <time>2020-01-20T18:48:54Z</time>
      </trkpt>
      <trkpt lat="17.097329790" lon="-96.469741030">
        <ele>2884.200</ele>
        <time>2020-01-20T18:48:55Z</time>
      </trkpt>
      <trkpt lat="17.097362270" lon="-96.469810800">
        <ele>2884.800</ele>
        <time>2020-01-20T18:48:56Z</time>
      </trkpt>
      <trkpt lat="17.097421010" lon="-96.469875550">
        <ele>2885.700</ele>
        <time>2020-01-20T18:48:57Z</time>
      </trkpt>
      <trkpt lat="17.097489380" lon="-96.469918050">
        <ele>2886.700</ele>
        <time>2020-01-20T18:48:58Z</time>
      </trkpt>
      <trkpt lat="17.097563010" lon="-96.469949440">
        <ele>2888.000</ele>
        <time>2020-01-20T18:48:59Z</time>
      </trkpt>
      <trkpt lat="17.097653150" lon="-96.469962450">
        <ele>2888.800</ele>
        <time>2020-01-20T18:49:00Z</time>
      </trkpt>
      <trkpt lat="17.097745590" lon="-96.469962610">
        <ele>2889.300</ele>
        <time>2020-01-20T18:49:01Z</time>
      </trkpt>
      <trkpt lat="17.097835050" lon="-96.469956890">
        <ele>2890.200</ele>
        <time>2020-01-20T18:49:02Z</time>
      </trkpt>
      <trkpt lat="17.097918060" lon="-96.469948360">
        <ele>2891.100</ele>
        <time>2020-01-20T18:49:03Z</time>
      </trkpt>
      <trkpt lat="17.098008290" lon="-96.469950810">
        <ele>2891.400</ele>
        <time>2020-01-20T18:49:04Z</time>
      </trkpt>
      <trkpt lat="17.098118650" lon="-96.469954240">
        <ele>2891.800</ele>
        <time>2020-01-20T18:49:05Z</time>
      </trkpt>
      <trkpt lat="17.098235550" lon="-96.469946170">
        <ele>2893.000</ele>
        <time>2020-01-20T18:49:06Z</time>
      </trkpt>
      <trkpt lat="17.098345110" lon="-96.469943230">
        <ele>2894.000</ele>
        <time>2020-01-20T18:49:07Z</time>
      </trkpt>
      <trkpt lat="17.098454090" lon="-96.469943670">
        <ele>2894.000</ele>
        <time>2020-01-20T18:49:08Z</time>
      </trkpt>
      <trkpt lat="17.098569770" lon="-96.469935190">
        <ele>2895.500</ele>
        <time>2020-01-20T18:49:09Z</time>
      </trkpt>
      <trkpt lat="17.098680780" lon="-96.469934350">
        <ele>2896.100</ele>
        <time>2020-01-20T18:49:10Z</time>
      </trkpt>
      <trkpt lat="17.098785030" lon="-96.469947500">
        <ele>2897.100</ele>
        <time>2020-01-20T18:49:11Z</time>
      </trkpt>
      <trkpt lat="17.098880530" lon="-96.469954450">
        <ele>2898.400</ele>
        <time>2020-01-20T18:49:12Z</time>
      </trkpt>
      <trkpt lat="17.098972320" lon="-96.469969860">
        <ele>2899.100</ele>
        <time>2020-01-20T18:49:13Z</time>
      </trkpt>
      <trkpt lat="17.099060180" lon="-96.469984950">
        <ele>2899.500</ele>
        <time>2020-01-20T18:49:14Z</time>
      </trkpt>
      <trkpt lat="17.099126900" lon="-96.470060420">
        <ele>2900.300</ele>
        <time>2020-01-20T18:49:15Z</time>
      </trkpt>
      <trkpt lat="17.099205100" lon="-96.470117870">
        <ele>2900.900</ele>
        <time>2020-01-20T18:49:16Z</time>
      </trkpt>
      <trkpt lat="17.099281770" lon="-96.470167480">
        <ele>2901.300</ele>
        <time>2020-01-20T18:49:17Z</time>
      </trkpt>
      <trkpt lat="17.099332700" lon="-96.470229900">
        <ele>2899.700</ele>
        <time>2020-01-20T18:49:18Z</time>
      </trkpt>
      <trkpt lat="17.099402350" lon="-96.470292540">
        <ele>2900.200</ele>
        <time>2020-01-20T18:49:19Z</time>
      </trkpt>
      <trkpt lat="17.099442100" lon="-96.470394770">
        <ele>2901.200</ele>
        <time>2020-01-20T18:49:20Z</time>
      </trkpt>
      <trkpt lat="17.099482040" lon="-96.470480130">
        <ele>2904.300</ele>
        <time>2020-01-20T18:49:21Z</time>
      </trkpt>
      <trkpt lat="17.099525170" lon="-96.470543510">
        <ele>2905.200</ele>
        <time>2020-01-20T18:49:22Z</time>
      </trkpt>
      <trkpt lat="17.099564880" lon="-96.470598560">
        <ele>2906.200</ele>
        <time>2020-01-20T18:49:23Z</time>
      </trkpt>
      <trkpt lat="17.099620750" lon="-96.470637830">
        <ele>2907.700</ele>
        <time>2020-01-20T18:49:24Z</time>
      </trkpt>
      <trkpt lat="17.099675670" lon="-96.470673110">
        <ele>2908.300</ele>
        <time>2020-01-20T18:49:25Z</time>
      </trkpt>
      <trkpt lat="17.099737120" lon="-96.470674860">
        <ele>2909.300</ele>
        <time>2020-01-20T18:49:26Z</time>
      </trkpt>
      <trkpt lat="17.099789860" lon="-96.470666240">
        <ele>2910.000</ele>
        <time>2020-01-20T18:49:27Z</time>
      </trkpt>
      <trkpt lat="17.099820120" lon="-96.470605480">
        <ele>2911.300</ele>
        <time>2020-01-20T18:49:28Z</time>
      </trkpt>
      <trkpt lat="17.099830880" lon="-96.470546820">
        <ele>2913.300</ele>
        <time>2020-01-20T18:49:29Z</time>
      </trkpt>
      <trkpt lat="17.099826410" lon="-96.470493830">
        <ele>2914.500</ele>
        <time>2020-01-20T18:49:30Z</time>
      </trkpt>
      <trkpt lat="17.099800970" lon="-96.470438600">
        <ele>2916.400</ele>
        <time>2020-01-20T18:49:31Z</time>
      </trkpt>
      <trkpt lat="17.099774830" lon="-96.470383230">
        <ele>2916.100</ele>
        <time>2020-01-20T18:49:32Z</time>
      </trkpt>
      <trkpt lat="17.099725960" lon="-96.470315850">
        <ele>2916.000</ele>
        <time>2020-01-20T18:49:33Z</time>
      </trkpt>
      <trkpt lat="17.099672980" lon="-96.470240780">
        <ele>2915.800</ele>
        <time>2020-01-20T18:49:34Z</time>
      </trkpt>
      <trkpt lat="17.099619060" lon="-96.470174280">
        <ele>2915.800</ele>
        <time>2020-01-20T18:49:35Z</time>
      </trkpt>
      <trkpt lat="17.099557090" lon="-96.470111610">
        <ele>2917.200</ele>
        <time>2020-01-20T18:49:36Z</time>
      </trkpt>
      <trkpt lat="17.099486490" lon="-96.470045670">
        <ele>2917.900</ele>
        <time>2020-01-20T18:49:37Z</time>
      </trkpt>
      <trkpt lat="17.099420070" lon="-96.469984660">
        <ele>2919.900</ele>
        <time>2020-01-20T18:49:38Z</time>
      </trkpt>
      <trkpt lat="17.099353180" lon="-96.469921720">
        <ele>2920.100</ele>
        <time>2020-01-20T18:49:39Z</time>
      </trkpt>
      <trkpt lat="17.099274050" lon="-96.469869900">
        <ele>2920.600</ele>
        <time>2020-01-20T18:49:40Z</time>
      </trkpt>
      <trkpt lat="17.099194020" lon="-96.469816240">
        <ele>2921.000</ele>
        <time>2020-01-20T18:49:41Z</time>
      </trkpt>
      <trkpt lat="17.099111730" lon="-96.469763600">
        <ele>2921.000</ele>
        <time>2020-01-20T18:49:42Z</time>
      </trkpt>
      <trkpt lat="17.099037950" lon="-96.469720350">
        <ele>2920.700</ele>
        <time>2020-01-20T18:49:43Z</time>
      </trkpt>
      <trkpt lat="17.098944180" lon="-96.469682500">
        <ele>2920.700</ele>
        <time>2020-01-20T18:49:44Z</time>
      </trkpt>
      <trkpt lat="17.098850680" lon="-96.469655380">
        <ele>2920.800</ele>
        <time>2020-01-20T18:49:45Z</time>
      </trkpt>
      <trkpt lat="17.098757520" lon="-96.469625780">
        <ele>2921.500</ele>
        <time>2020-01-20T18:49:46Z</time>
      </trkpt>
      <trkpt lat="17.098668350" lon="-96.469603110">
        <ele>2921.800</ele>
        <time>2020-01-20T18:49:47Z</time>
      </trkpt>
      <trkpt lat="17.098566550" lon="-96.469579080">
        <ele>2922.000</ele>
        <time>2020-01-20T18:49:48Z</time>
      </trkpt>
      <trkpt lat="17.098474980" lon="-96.469568750">
        <ele>2922.200</ele>
        <time>2020-01-20T18:49:49Z</time>
      </trkpt>
      <trkpt lat="17.098380440" lon="-96.469555130">
        <ele>2922.200</ele>
        <time>2020-01-20T18:49:50Z</time>
      </trkpt>
      <trkpt lat="17.098284490" lon="-96.469537000">
        <ele>2925.400</ele>
        <time>2020-01-20T18:49:51Z</time>
      </trkpt>
      <trkpt lat="17.098214190" lon="-96.469493460">
        <ele>2925.500</ele>
        <time>2020-01-20T18:49:52Z</time>
      </trkpt>
      <trkpt lat="17.098156810" lon="-96.469434700">
        <ele>2927.000</ele>
        <time>2020-01-20T18:49:53Z</time>
      </trkpt>
      <trkpt lat="17.098101170" lon="-96.469379230">
        <ele>2926.700</ele>
        <time>2020-01-20T18:49:54Z</time>
      </trkpt>
      <trkpt lat="17.098053280" lon="-96.469331620">
        <ele>2926.400</ele>
        <time>2020-01-20T18:49:55Z</time>
      </trkpt>
      <trkpt lat="17.098023840" lon="-96.469243900">
        <ele>2927.300</ele>
        <time>2020-01-20T18:49:56Z</time>
      </trkpt>
      <trkpt lat="17.098000810" lon="-96.469151760">
        <ele>2927.100</ele>
        <time>2020-01-20T18:49:57Z</time>
      </trkpt>
      <trkpt lat="17.098134880" lon="-96.469098270">
        <ele>2928.600</ele>
        <time>2020-01-20T18:49:58Z</time>
      </trkpt>
      <trkpt lat="17.098160120" lon="-96.469014810">
        <ele>2928.600</ele>
        <time>2020-01-20T18:49:59Z</time>
      </trkpt>
      <trkpt lat="17.098214010" lon="-96.468950550">
        <ele>2929.300</ele>
        <time>2020-01-20T18:50:00Z</time>
      </trkpt>
      <trkpt lat="17.098268680" lon="-96.468884590">
        <ele>2931.200</ele>
        <time>2020-01-20T18:50:01Z</time>
      </trkpt>
      <trkpt lat="17.098340700" lon="-96.468840260">
        <ele>2935.200</ele>
        <time>2020-01-20T18:50:02Z</time>
      </trkpt>
      <trkpt lat="17.098423440" lon="-96.468796700">
        <ele>2935.900</ele>
        <time>2020-01-20T18:50:03Z</time>
      </trkpt>
      <trkpt lat="17.098512620" lon="-96.468783060">
        <ele>2936.100</ele>
        <time>2020-01-20T18:50:04Z</time>
      </trkpt>
      <trkpt lat="17.098596880" lon="-96.468775670">
        <ele>2936.600</ele>
        <time>2020-01-20T18:50:05Z</time>
      </trkpt>
      <trkpt lat="17.098686480" lon="-96.468771130">
        <ele>2937.400</ele>
        <time>2020-01-20T18:50:06Z</time>
      </trkpt>
      <trkpt lat="17.098793790" lon="-96.468767210">
        <ele>2940.800</ele>
        <time>2020-01-20T18:50:07Z</time>
      </trkpt>
      <trkpt lat="17.098887150" lon="-96.468760230">
        <ele>2942.700</ele>
        <time>2020-01-20T18:50:08Z</time>
      </trkpt>
      <trkpt lat="17.098984720" lon="-96.468760660">
        <ele>2944.500</ele>
        <time>2020-01-20T18:50:09Z</time>
      </trkpt>
      <trkpt lat="17.099060500" lon="-96.468749280">
        <ele>2947.500</ele>
        <time>2020-01-20T18:50:10Z</time>
      </trkpt>
      <trkpt lat="17.099184060" lon="-96.468751930">
        <ele>2947.900</ele>
        <time>2020-01-20T18:50:11Z</time>
      </trkpt>
      <trkpt lat="17.099274230" lon="-96.468739000">
        <ele>2948.400</ele>
        <time>2020-01-20T18:50:12Z</time>
      </trkpt>
      <trkpt lat="17.099380190" lon="-96.468735170">
        <ele>2949.700</ele>
        <time>2020-01-20T18:50:13Z</time>
      </trkpt>
      <trkpt lat="17.099479690" lon="-96.468713630">
        <ele>2951.700</ele>
        <time>2020-01-20T18:50:14Z</time>
      </trkpt>
      <trkpt lat="17.099584190" lon="-96.468695880">
        <ele>2952.800</ele>
        <time>2020-01-20T18:50:15Z</time>
      </trkpt>
      <trkpt lat="17.099696000" lon="-96.468679740">
        <ele>2954.000</ele>
        <time>2020-01-20T18:50:16Z</time>
      </trkpt>
      <trkpt lat="17.099803680" lon="-96.468669380">
        <ele>2954.800</ele>
        <time>2020-01-20T18:50:17Z</time>
      </trkpt>
      <trkpt lat="17.099904920" lon="-96.468659000">
        <ele>2954.400</ele>
        <time>2020-01-20T18:50:18Z</time>
      </trkpt>
      <trkpt lat="17.100004230" lon="-96.468664360">
        <ele>2955.800</ele>
        <time>2020-01-20T18:50:19Z</time>
      </trkpt>
      <trkpt lat="17.100101220" lon="-96.468691710">
        <ele>2956.600</ele>
        <time>2020-01-20T18:50:20Z</time>
      </trkpt>
      <trkpt lat="17.100196130" lon="-96.468727140">
        <ele>2958.300</ele>
        <time>2020-01-20T18:50:21Z</time>
      </trkpt>
      <trkpt lat="17.100284120" lon="-96.468770540">
        <ele>2959.800</ele>
        <time>2020-01-20T18:50:22Z</time>
      </trkpt>
      <trkpt lat="17.100370110" lon="-96.468822560">
        <ele>2960.600</ele>
        <time>2020-01-20T18:50:23Z</time>
      </trkpt>
      <trkpt lat="17.100454370" lon="-96.468856000">
        <ele>2960.600</ele>
        <time>2020-01-20T18:50:24Z</time>
      </trkpt>
      <trkpt lat="17.100545490" lon="-96.468898820">
        <ele>2962.300</ele>
        <time>2020-01-20T18:50:25Z</time>
      </trkpt>
      <trkpt lat="17.100632030" lon="-96.468918580">
        <ele>2963.000</ele>
        <time>2020-01-20T18:50:26Z</time>
      </trkpt>
      <trkpt lat="17.100725400" lon="-96.468935070">
        <ele>2963.600</ele>
        <time>2020-01-20T18:50:27Z</time>
      </trkpt>
      <trkpt lat="17.100809050" lon="-96.468944690">
        <ele>2966.000</ele>
        <time>2020-01-20T18:50:28Z</time>
      </trkpt>
      <trkpt lat="17.100907780" lon="-96.468941140">
        <ele>2967.500</ele>
        <time>2020-01-20T18:50:29Z</time>
      </trkpt>
      <trkpt lat="17.101011990" lon="-96.468924910">
        <ele>2968.200</ele>
        <time>2020-01-20T18:50:30Z</time>
      </trkpt>
      <trkpt lat="17.101104990" lon="-96.468892950">
        <ele>2970.200</ele>
        <time>2020-01-20T18:50:31Z</time>
      </trkpt>
      <trkpt lat="17.101203910" lon="-96.468865520">
        <ele>2971.000</ele>
        <time>2020-01-20T18:50:32Z</time>
      </trkpt>
      <trkpt lat="17.101303910" lon="-96.468835630">
        <ele>2972.400</ele>
        <time>2020-01-20T18:50:33Z</time>
      </trkpt>
      <trkpt lat="17.101403870" lon="-96.468811870">
        <ele>2974.100</ele>
        <time>2020-01-20T18:50:34Z</time>
      </trkpt>
      <trkpt lat="17.101504010" lon="-96.468794450">
        <ele>2975.300</ele>
        <time>2020-01-20T18:50:35Z</time>
      </trkpt>
      <trkpt lat="17.101592850" lon="-96.468762950">
        <ele>2978.200</ele>
        <time>2020-01-20T18:50:36Z</time>
      </trkpt>
      <trkpt lat="17.101691810" lon="-96.468745350">
        <ele>2979.000</ele>
        <time>2020-01-20T18:50:37Z</time>
      </trkpt>
      <trkpt lat="17.101788580" lon="-96.468723470">
        <ele>2979.600</ele>
        <time>2020-01-20T18:50:38Z</time>
      </trkpt>
      <trkpt lat="17.101880090" lon="-96.468701510">
        <ele>2979.900</ele>
        <time>2020-01-20T18:50:39Z</time>
      </trkpt>
      <trkpt lat="17.101971850" lon="-96.468677130">
        <ele>2980.200</ele>
        <time>2020-01-20T18:50:40Z</time>
      </trkpt>
      <trkpt lat="17.102057630" lon="-96.468660050">
        <ele>2981.200</ele>
        <time>2020-01-20T18:50:41Z</time>
      </trkpt>
      <trkpt lat="17.102144320" lon="-96.468632410">
        <ele>2981.400</ele>
        <time>2020-01-20T18:50:42Z</time>
      </trkpt>
      <trkpt lat="17.102217380" lon="-96.468588660">
        <ele>2981.700</ele>
        <time>2020-01-20T18:50:43Z</time>
      </trkpt>
      <trkpt lat="17.102284170" lon="-96.468523330">
        <ele>2981.800</ele>
        <time>2020-01-20T18:50:44Z</time>
      </trkpt>
      <trkpt lat="17.102335610" lon="-96.468449370">
        <ele>2981.900</ele>
        <time>2020-01-20T18:50:45Z</time>
      </trkpt>
      <trkpt lat="17.102346880" lon="-96.468367060">
        <ele>2983.100</ele>
        <time>2020-01-20T18:50:46Z</time>
      </trkpt>
      <trkpt lat="17.102332340" lon="-96.468273870">
        <ele>2983.200</ele>
        <time>2020-01-20T18:50:47Z</time>
      </trkpt>
      <trkpt lat="17.102290320" lon="-96.468186720">
        <ele>2984.700</ele>
        <time>2020-01-20T18:50:48Z</time>
      </trkpt>
      <trkpt lat="17.102261080" lon="-96.468102840">
        <ele>2986.100</ele>
        <time>2020-01-20T18:50:49Z</time>
      </trkpt>
      <trkpt lat="17.102245390" lon="-96.468016690">
        <ele>2987.700</ele>
        <time>2020-01-20T18:50:50Z</time>
      </trkpt>
      <trkpt lat="17.102248210" lon="-96.467924390">
        <ele>2989.500</ele>
        <time>2020-01-20T18:50:51Z</time>
      </trkpt>
      <trkpt lat="17.102289640" lon="-96.467840210">
        <ele>2988.400</ele>
        <time>2020-01-20T18:50:52Z</time>
      </trkpt>
      <trkpt lat="17.102324280" lon="-96.467764190">
        <ele>2989.200</ele>
        <time>2020-01-20T18:50:53Z</time>
      </trkpt>
      <trkpt lat="17.102378320" lon="-96.467691650">
        <ele>2989.400</ele>
        <time>2020-01-20T18:50:54Z</time>
      </trkpt>
      <trkpt lat="17.102434310" lon="-96.467618500">
        <ele>2948.500</ele>
        <time>2020-01-20T18:50:55Z</time>
      </trkpt>
      <trkpt lat="17.102517480" lon="-96.467564170">
        <ele>2967.100</ele>
        <time>2020-01-20T18:50:56Z</time>
      </trkpt>
      <trkpt lat="17.102598120" lon="-96.467521040">
        <ele>2977.300</ele>
        <time>2020-01-20T18:50:57Z</time>
      </trkpt>
      <trkpt lat="17.102685850" lon="-96.467490580">
        <ele>2984.100</ele>
        <time>2020-01-20T18:50:58Z</time>
      </trkpt>
      <trkpt lat="17.102769810" lon="-96.467459890">
        <ele>2989.000</ele>
        <time>2020-01-20T18:50:59Z</time>
      </trkpt>
      <trkpt lat="17.102859170" lon="-96.467431810">
        <ele>2992.100</ele>
        <time>2020-01-20T18:51:00Z</time>
      </trkpt>
      <trkpt lat="17.102943390" lon="-96.467399470">
        <ele>2995.100</ele>
        <time>2020-01-20T18:51:01Z</time>
      </trkpt>
      <trkpt lat="17.103021620" lon="-96.467348460">
        <ele>2997.900</ele>
        <time>2020-01-20T18:51:02Z</time>
      </trkpt>
      <trkpt lat="17.103107380" lon="-96.467311570">
        <ele>3000.100</ele>
        <time>2020-01-20T18:51:03Z</time>
      </trkpt>
      <trkpt lat="17.103197630" lon="-96.467284260">
        <ele>3001.200</ele>
        <time>2020-01-20T18:51:04Z</time>
      </trkpt>
      <trkpt lat="17.103289740" lon="-96.467266070">
        <ele>3002.600</ele>
        <time>2020-01-20T18:51:05Z</time>
      </trkpt>
      <trkpt lat="17.103380130" lon="-96.467249200">
        <ele>3004.100</ele>
        <time>2020-01-20T18:51:06Z</time>
      </trkpt>
      <trkpt lat="17.103472200" lon="-96.467227650">
        <ele>3004.000</ele>
        <time>2020-01-20T18:51:07Z</time>
      </trkpt>
      <trkpt lat="17.103556850" lon="-96.467197170">
        <ele>3005.500</ele>
        <time>2020-01-20T18:51:08Z</time>
      </trkpt>
      <trkpt lat="17.103637410" lon="-96.467157950">
        <ele>3006.400</ele>
        <time>2020-01-20T18:51:09Z</time>
      </trkpt>
      <trkpt lat="17.103711190" lon="-96.467096830">
        <ele>3007.800</ele>
        <time>2020-01-20T18:51:10Z</time>
      </trkpt>
      <trkpt lat="17.103788460" lon="-96.467040980">
        <ele>3008.900</ele>
        <time>2020-01-20T18:51:11Z</time>
      </trkpt>
      <trkpt lat="17.103862320" lon="-96.466981490">
        <ele>3009.400</ele>
        <time>2020-01-20T18:51:12Z</time>
      </trkpt>
      <trkpt lat="17.103948200" lon="-96.466938150">
        <ele>3010.500</ele>
        <time>2020-01-20T18:51:13Z</time>
      </trkpt>
      <trkpt lat="17.104041150" lon="-96.466909230">
        <ele>3011.800</ele>
        <time>2020-01-20T18:51:14Z</time>
      </trkpt>
      <trkpt lat="17.104140620" lon="-96.466894490">
        <ele>3012.500</ele>
        <time>2020-01-20T18:51:15Z</time>
      </trkpt>
      <trkpt lat="17.104238500" lon="-96.466886560">
        <ele>3013.200</ele>
        <time>2020-01-20T18:51:16Z</time>
      </trkpt>
      <trkpt lat="17.104330370" lon="-96.466877340">
        <ele>3014.200</ele>
        <time>2020-01-20T18:51:17Z</time>
      </trkpt>
      <trkpt lat="17.104413580" lon="-96.466871370">
        <ele>3014.600</ele>
        <time>2020-01-20T18:51:18Z</time>
      </trkpt>
      <trkpt lat="17.104487070" lon="-96.466876230">
        <ele>3015.900</ele>
        <time>2020-01-20T18:51:19Z</time>
      </trkpt>
      <trkpt lat="17.104561930" lon="-96.466870700">
        <ele>3016.500</ele>
        <time>2020-01-20T18:51:20Z</time>
      </trkpt>
      <trkpt lat="17.104630150" lon="-96.466866150">
        <ele>3017.100</ele>
        <time>2020-01-20T18:51:21Z</time>
      </trkpt>
      <trkpt lat="17.104696370" lon="-96.466854210">
        <ele>3017.500</ele>
        <time>2020-01-20T18:51:22Z</time>
      </trkpt>
      <trkpt lat="17.104769260" lon="-96.466818690">
        <ele>3018.600</ele>
        <time>2020-01-20T18:51:23Z</time>
      </trkpt>
      <trkpt lat="17.104818920" lon="-96.466756370">
        <ele>3019.800</ele>
        <time>2020-01-20T18:51:24Z</time>
      </trkpt>
      <trkpt lat="17.104854050" lon="-96.466682220">
        <ele>3022.100</ele>
        <time>2020-01-20T18:51:25Z</time>
      </trkpt>
      <trkpt lat="17.104871680" lon="-96.466603190">
        <ele>3023.300</ele>
        <time>2020-01-20T18:51:26Z</time>
      </trkpt>
      <trkpt lat="17.104881090" lon="-96.466530650">
        <ele>3023.900</ele>
        <time>2020-01-20T18:51:27Z</time>
      </trkpt>
      <trkpt lat="17.104903960" lon="-96.466454130">
        <ele>3024.300</ele>
        <time>2020-01-20T18:51:28Z</time>
      </trkpt>
      <trkpt lat="17.104950540" lon="-96.466383980">
        <ele>3026.500</ele>
        <time>2020-01-20T18:51:29Z</time>
      </trkpt>
      <trkpt lat="17.105007250" lon="-96.466324080">
        <ele>3026.800</ele>
        <time>2020-01-20T18:51:30Z</time>
      </trkpt>
      <trkpt lat="17.105081490" lon="-96.466271720">
        <ele>3027.400</ele>
        <time>2020-01-20T18:51:31Z</time>
      </trkpt>
      <trkpt lat="17.105156840" lon="-96.466227740">
        <ele>3028.100</ele>
        <time>2020-01-20T18:51:32Z</time>
      </trkpt>
      <trkpt lat="17.105236110" lon="-96.466185190">
        <ele>3029.500</ele>
        <time>2020-01-20T18:51:33Z</time>
      </trkpt>
      <trkpt lat="17.105318110" lon="-96.466140380">
        <ele>3030.600</ele>
        <time>2020-01-20T18:51:34Z</time>
      </trkpt>
      <trkpt lat="17.105404170" lon="-96.466104410">
        <ele>3032.200</ele>
        <time>2020-01-20T18:51:35Z</time>
      </trkpt>
      <trkpt lat="17.105500440" lon="-96.466081310">
        <ele>3033.100</ele>
        <time>2020-01-20T18:51:36Z</time>
      </trkpt>
      <trkpt lat="17.105578790" lon="-96.466048870">
        <ele>3034.000</ele>
        <time>2020-01-20T18:51:37Z</time>
      </trkpt>
      <trkpt lat="17.105667090" lon="-96.466036220">
        <ele>3036.400</ele>
        <time>2020-01-20T18:51:38Z</time>
      </trkpt>
      <trkpt lat="17.105755910" lon="-96.466025650">
        <ele>3037.600</ele>
        <time>2020-01-20T18:51:39Z</time>
      </trkpt>
      <trkpt lat="17.105841150" lon="-96.466020430">
        <ele>3038.200</ele>
        <time>2020-01-20T18:51:40Z</time>
      </trkpt>
      <trkpt lat="17.105915510" lon="-96.466006400">
        <ele>3039.100</ele>
        <time>2020-01-20T18:51:41Z</time>
      </trkpt>
      <trkpt lat="17.105987760" lon="-96.465975230">
        <ele>3040.300</ele>
        <time>2020-01-20T18:51:42Z</time>
      </trkpt>
      <trkpt lat="17.106052950" lon="-96.465935430">
        <ele>3040.500</ele>
        <time>2020-01-20T18:51:43Z</time>
      </trkpt>
      <trkpt lat="17.106095900" lon="-96.465870590">
        <ele>3040.700</ele>
        <time>2020-01-20T18:51:44Z</time>
      </trkpt>
      <trkpt lat="17.106131560" lon="-96.465799630">
        <ele>3041.200</ele>
        <time>2020-01-20T18:51:45Z</time>
      </trkpt>
      <trkpt lat="17.106148670" lon="-96.465719030">
        <ele>3041.600</ele>
        <time>2020-01-20T18:51:46Z</time>
      </trkpt>
      <trkpt lat="17.106138740" lon="-96.465643830">
        <ele>3041.100</ele>
        <time>2020-01-20T18:51:47Z</time>
      </trkpt>
      <trkpt lat="17.106106010" lon="-96.465559700">
        <ele>3042.200</ele>
        <time>2020-01-20T18:51:48Z</time>
      </trkpt>
      <trkpt lat="17.106063460" lon="-96.465474010">
        <ele>3043.900</ele>
        <time>2020-01-20T18:51:49Z</time>
      </trkpt>
      <trkpt lat="17.106022330" lon="-96.465398430">
        <ele>3044.300</ele>
        <time>2020-01-20T18:51:50Z</time>
      </trkpt>
      <trkpt lat="17.105976640" lon="-96.465316290">
        <ele>3045.900</ele>
        <time>2020-01-20T18:51:51Z</time>
      </trkpt>
      <trkpt lat="17.105929040" lon="-96.465236540">
        <ele>3047.000</ele>
        <time>2020-01-20T18:51:52Z</time>
      </trkpt>
      <trkpt lat="17.105883920" lon="-96.465152300">
        <ele>3048.000</ele>
        <time>2020-01-20T18:51:53Z</time>
      </trkpt>
      <trkpt lat="17.105849190" lon="-96.465061610">
        <ele>3049.900</ele>
        <time>2020-01-20T18:51:54Z</time>
      </trkpt>
      <trkpt lat="17.105816690" lon="-96.464975680">
        <ele>3051.100</ele>
        <time>2020-01-20T18:51:55Z</time>
      </trkpt>
      <trkpt lat="17.105794680" lon="-96.464885650">
        <ele>3051.000</ele>
        <time>2020-01-20T18:51:56Z</time>
      </trkpt>
      <trkpt lat="17.105802780" lon="-96.464802930">
        <ele>3051.300</ele>
        <time>2020-01-20T18:51:57Z</time>
      </trkpt>
      <trkpt lat="17.105831920" lon="-96.464713940">
        <ele>3052.800</ele>
        <time>2020-01-20T18:51:58Z</time>
      </trkpt>
      <trkpt lat="17.105866950" lon="-96.464637020">
        <ele>3053.900</ele>
        <time>2020-01-20T18:51:59Z</time>
      </trkpt>
      <trkpt lat="17.105918600" lon="-96.464559900">
        <ele>3055.000</ele>
        <time>2020-01-20T18:52:00Z</time>
      </trkpt>
      <trkpt lat="17.105964620" lon="-96.464489780">
        <ele>3056.100</ele>
        <time>2020-01-20T18:52:01Z</time>
      </trkpt>
      <trkpt lat="17.106022960" lon="-96.464417300">
        <ele>3057.100</ele>
        <time>2020-01-20T18:52:02Z</time>
      </trkpt>
      <trkpt lat="17.106082200" lon="-96.464347950">
        <ele>3058.000</ele>
        <time>2020-01-20T18:52:03Z</time>
      </trkpt>
      <trkpt lat="17.106138520" lon="-96.464271510">
        <ele>3059.100</ele>
        <time>2020-01-20T18:52:04Z</time>
      </trkpt>
      <trkpt lat="17.106198260" lon="-96.464193430">
        <ele>3060.300</ele>
        <time>2020-01-20T18:52:05Z</time>
      </trkpt>
      <trkpt lat="17.106260570" lon="-96.464118940">
        <ele>3061.100</ele>
        <time>2020-01-20T18:52:06Z</time>
      </trkpt>
      <trkpt lat="17.106319220" lon="-96.464047350">
        <ele>3061.900</ele>
        <time>2020-01-20T18:52:07Z</time>
      </trkpt>
      <trkpt lat="17.106377270" lon="-96.463969980">
        <ele>3062.600</ele>
        <time>2020-01-20T18:52:08Z</time>
      </trkpt>
      <trkpt lat="17.106435180" lon="-96.463891980">
        <ele>3063.700</ele>
        <time>2020-01-20T18:52:09Z</time>
      </trkpt>
      <trkpt lat="17.106499010" lon="-96.463816540">
        <ele>3064.600</ele>
        <time>2020-01-20T18:52:10Z</time>
      </trkpt>
      <trkpt lat="17.106562550" lon="-96.463743350">
        <ele>3065.700</ele>
        <time>2020-01-20T18:52:11Z</time>
      </trkpt>
      <trkpt lat="17.106632450" lon="-96.463668460">
        <ele>3067.800</ele>
        <time>2020-01-20T18:52:12Z</time>
      </trkpt>
      <trkpt lat="17.106690130" lon="-96.463590040">
        <ele>3068.400</ele>
        <time>2020-01-20T18:52:13Z</time>
      </trkpt>
      <trkpt lat="17.106750990" lon="-96.463509080">
        <ele>3069.600</ele>
        <time>2020-01-20T18:52:14Z</time>
      </trkpt>
      <trkpt lat="17.106808100" lon="-96.463430170">
        <ele>3070.600</ele>
        <time>2020-01-20T18:52:15Z</time>
      </trkpt>
      <trkpt lat="17.106871210" lon="-96.463355830">
        <ele>3072.100</ele>
        <time>2020-01-20T18:52:16Z</time>
      </trkpt>
      <trkpt lat="17.106929230" lon="-96.463282320">
        <ele>3073.000</ele>
        <time>2020-01-20T18:52:17Z</time>
      </trkpt>
      <trkpt lat="17.106992460" lon="-96.463210170">
        <ele>3074.300</ele>
        <time>2020-01-20T18:52:18Z</time>
      </trkpt>
      <trkpt lat="17.107063220" lon="-96.463148750">
        <ele>3074.900</ele>
        <time>2020-01-20T18:52:19Z</time>
      </trkpt>
      <trkpt lat="17.107139180" lon="-96.463093740">
        <ele>3077.000</ele>
        <time>2020-01-20T18:52:20Z</time>
      </trkpt>
      <trkpt lat="17.107229240" lon="-96.463061660">
        <ele>3078.100</ele>
        <time>2020-01-20T18:52:21Z</time>
      </trkpt>
      <trkpt lat="17.107324180" lon="-96.463030860">
        <ele>3079.500</ele>
        <time>2020-01-20T18:52:22Z</time>
      </trkpt>
      <trkpt lat="17.107406560" lon="-96.463005950">
        <ele>3080.100</ele>
        <time>2020-01-20T18:52:23Z</time>
      </trkpt>
      <trkpt lat="17.107490760" lon="-96.462986410">
        <ele>3080.200</ele>
        <time>2020-01-20T18:52:24Z</time>
      </trkpt>
      <trkpt lat="17.107568830" lon="-96.462957480">
        <ele>3080.400</ele>
        <time>2020-01-20T18:52:25Z</time>
      </trkpt>
      <trkpt lat="17.107643530" lon="-96.462933820">
        <ele>3082.000</ele>
        <time>2020-01-20T18:52:26Z</time>
      </trkpt>
      <trkpt lat="17.107718920" lon="-96.462902290">
        <ele>3082.300</ele>
        <time>2020-01-20T18:52:27Z</time>
      </trkpt>
      <trkpt lat="17.107794290" lon="-96.462870520">
        <ele>3079.400</ele>
        <time>2020-01-20T18:52:28Z</time>
      </trkpt>
      <trkpt lat="17.107864000" lon="-96.462809840">
        <ele>3081.500</ele>
        <time>2020-01-20T18:52:29Z</time>
      </trkpt>
      <trkpt lat="17.107922930" lon="-96.462743580">
        <ele>3082.800</ele>
        <time>2020-01-20T18:52:30Z</time>
      </trkpt>
      <trkpt lat="17.107977600" lon="-96.462673420">
        <ele>3084.100</ele>
        <time>2020-01-20T18:52:31Z</time>
      </trkpt>
      <trkpt lat="17.108022700" lon="-96.462598020">
        <ele>3084.600</ele>
        <time>2020-01-20T18:52:32Z</time>
      </trkpt>
      <trkpt lat="17.108072680" lon="-96.462529190">
        <ele>3084.600</ele>
        <time>2020-01-20T18:52:33Z</time>
      </trkpt>
      <trkpt lat="17.108136070" lon="-96.462473170">
        <ele>3086.500</ele>
        <time>2020-01-20T18:52:34Z</time>
      </trkpt>
      <trkpt lat="17.108210080" lon="-96.462427410">
        <ele>3088.200</ele>
        <time>2020-01-20T18:52:35Z</time>
      </trkpt>
      <trkpt lat="17.108288360" lon="-96.462389990">
        <ele>3088.400</ele>
        <time>2020-01-20T18:52:36Z</time>
      </trkpt>
      <trkpt lat="17.108368660" lon="-96.462416810">
        <ele>3089.500</ele>
        <time>2020-01-20T18:52:37Z</time>
      </trkpt>
      <trkpt lat="17.108460150" lon="-96.462450540">
        <ele>3091.800</ele>
        <time>2020-01-20T18:52:38Z</time>
      </trkpt>
      <trkpt lat="17.108549080" lon="-96.462460850">
        <ele>3091.900</ele>
        <time>2020-01-20T18:52:39Z</time>
      </trkpt>
      <trkpt lat="17.108646170" lon="-96.462495740">
        <ele>3092.800</ele>
        <time>2020-01-20T18:52:40Z</time>
      </trkpt>
      <trkpt lat="17.108745720" lon="-96.462526280">
        <ele>3094.100</ele>
        <time>2020-01-20T18:52:41Z</time>
      </trkpt>
      <trkpt lat="17.108835990" lon="-96.462544660">
        <ele>3091.300</ele>
        <time>2020-01-20T18:52:42Z</time>
      </trkpt>
      <trkpt lat="17.108918250" lon="-96.462581110">
        <ele>3092.900</ele>
        <time>2020-01-20T18:52:43Z</time>
      </trkpt>
      <trkpt lat="17.109013460" lon="-96.462606430">
        <ele>3094.700</ele>
        <time>2020-01-20T18:52:44Z</time>
      </trkpt>
      <trkpt lat="17.109100580" lon="-96.462624180">
        <ele>3096.200</ele>
        <time>2020-01-20T18:52:45Z</time>
      </trkpt>
      <trkpt lat="17.109198490" lon="-96.462622490">
        <ele>3096.400</ele>
        <time>2020-01-20T18:52:46Z</time>
      </trkpt>
      <trkpt lat="17.109290400" lon="-96.462603150">
        <ele>3097.100</ele>
        <time>2020-01-20T18:52:47Z</time>
      </trkpt>
      <trkpt lat="17.109388390" lon="-96.462532460">
        <ele>3098.000</ele>
        <time>2020-01-20T18:52:48Z</time>
      </trkpt>
      <trkpt lat="17.109478320" lon="-96.462491320">
        <ele>3099.600</ele>
        <time>2020-01-20T18:52:49Z</time>
      </trkpt>
      <trkpt lat="17.109565640" lon="-96.462441100">
        <ele>3101.200</ele>
        <time>2020-01-20T18:52:50Z</time>
      </trkpt>
      <trkpt lat="17.109653920" lon="-96.462406100">
        <ele>3102.500</ele>
        <time>2020-01-20T18:52:51Z</time>
      </trkpt>
      <trkpt lat="17.109746970" lon="-96.462370860">
        <ele>3103.200</ele>
        <time>2020-01-20T18:52:52Z</time>
      </trkpt>
      <trkpt lat="17.109842990" lon="-96.462346070">
        <ele>3104.700</ele>
        <time>2020-01-20T18:52:53Z</time>
      </trkpt>
      <trkpt lat="17.109945700" lon="-96.462323710">
        <ele>3105.200</ele>
        <time>2020-01-20T18:52:54Z</time>
      </trkpt>
      <trkpt lat="17.110045370" lon="-96.462304630">
        <ele>3106.300</ele>
        <time>2020-01-20T18:52:55Z</time>
      </trkpt>
      <trkpt lat="17.110141470" lon="-96.462285230">
        <ele>3107.400</ele>
        <time>2020-01-20T18:52:56Z</time>
      </trkpt>
      <trkpt lat="17.110237810" lon="-96.462265500">
        <ele>3108.600</ele>
        <time>2020-01-20T18:52:57Z</time>
      </trkpt>
      <trkpt lat="17.110330050" lon="-96.462243780">
        <ele>3109.900</ele>
        <time>2020-01-20T18:52:58Z</time>
      </trkpt>
      <trkpt lat="17.110426840" lon="-96.462212070">
        <ele>3110.700</ele>
        <time>2020-01-20T18:52:59Z</time>
      </trkpt>
      <trkpt lat="17.110522400" lon="-96.462185460">
        <ele>3111.100</ele>
        <time>2020-01-20T18:53:00Z</time>
      </trkpt>
      <trkpt lat="17.110614070" lon="-96.462151620">
        <ele>3111.300</ele>
        <time>2020-01-20T18:53:01Z</time>
      </trkpt>
      <trkpt lat="17.110663820" lon="-96.462054320">
        <ele>3112.700</ele>
        <time>2020-01-20T18:53:02Z</time>
      </trkpt>
      <trkpt lat="17.110728380" lon="-96.461978530">
        <ele>3114.300</ele>
        <time>2020-01-20T18:53:03Z</time>
      </trkpt>
      <trkpt lat="17.110792550" lon="-96.461906460">
        <ele>3115.000</ele>
        <time>2020-01-20T18:53:04Z</time>
      </trkpt>
      <trkpt lat="17.110859970" lon="-96.461830250">
        <ele>3115.800</ele>
        <time>2020-01-20T18:53:05Z</time>
      </trkpt>
      <trkpt lat="17.110923220" lon="-96.461746990">
        <ele>3116.600</ele>
        <time>2020-01-20T18:53:06Z</time>
      </trkpt>
      <trkpt lat="17.110996820" lon="-96.461671930">
        <ele>3117.400</ele>
        <time>2020-01-20T18:53:07Z</time>
      </trkpt>
      <trkpt lat="17.111069990" lon="-96.461606590">
        <ele>3118.300</ele>
        <time>2020-01-20T18:53:08Z</time>
      </trkpt>
      <trkpt lat="17.111149450" lon="-96.461538750">
        <ele>3118.300</ele>
        <time>2020-01-20T18:53:09Z</time>
      </trkpt>
      <trkpt lat="17.111240470" lon="-96.461496880">
        <ele>3120.000</ele>
        <time>2020-01-20T18:53:10Z</time>
      </trkpt>
      <trkpt lat="17.111331660" lon="-96.461446810">
        <ele>3121.100</ele>
        <time>2020-01-20T18:53:11Z</time>
      </trkpt>
      <trkpt lat="17.111426920" lon="-96.461402340">
        <ele>3121.800</ele>
        <time>2020-01-20T18:53:12Z</time>
      </trkpt>
      <trkpt lat="17.111515980" lon="-96.461362170">
        <ele>3122.500</ele>
        <time>2020-01-20T18:53:13Z</time>
      </trkpt>
      <trkpt lat="17.111603440" lon="-96.461329000">
        <ele>3122.700</ele>
        <time>2020-01-20T18:53:14Z</time>
      </trkpt>
      <trkpt lat="17.111698580" lon="-96.461288820">
        <ele>3124.800</ele>
        <time>2020-01-20T18:53:15Z</time>
      </trkpt>
      <trkpt lat="17.111791790" lon="-96.461248970">
        <ele>3126.100</ele>
        <time>2020-01-20T18:53:16Z</time>
      </trkpt>
      <trkpt lat="17.111888560" lon="-96.461213830">
        <ele>3126.900</ele>
        <time>2020-01-20T18:53:17Z</time>
      </trkpt>
      <trkpt lat="17.111982760" lon="-96.461181190">
        <ele>3127.200</ele>
        <time>2020-01-20T18:53:18Z</time>
      </trkpt>
      <trkpt lat="17.112070590" lon="-96.461146210">
        <ele>3127.200</ele>
        <time>2020-01-20T18:53:19Z</time>
      </trkpt>
      <trkpt lat="17.112166130" lon="-96.461104280">
        <ele>3128.500</ele>
        <time>2020-01-20T18:53:20Z</time>
      </trkpt>
      <trkpt lat="17.112256060" lon="-96.461062190">
        <ele>3129.000</ele>
        <time>2020-01-20T18:53:21Z</time>
      </trkpt>
      <trkpt lat="17.112338300" lon="-96.461021570">
        <ele>3128.700</ele>
        <time>2020-01-20T18:53:22Z</time>
      </trkpt>
      <trkpt lat="17.112419430" lon="-96.460977670">
        <ele>3129.900</ele>
        <time>2020-01-20T18:53:23Z</time>
      </trkpt>
      <trkpt lat="17.112495030" lon="-96.460921740">
        <ele>3130.600</ele>
        <time>2020-01-20T18:53:24Z</time>
      </trkpt>
      <trkpt lat="17.112562090" lon="-96.460855840">
        <ele>3131.300</ele>
        <time>2020-01-20T18:53:25Z</time>
      </trkpt>
      <trkpt lat="17.112606180" lon="-96.460782240">
        <ele>3130.800</ele>
        <time>2020-01-20T18:53:26Z</time>
      </trkpt>
      <trkpt lat="17.112624340" lon="-96.460697240">
        <ele>3131.600</ele>
        <time>2020-01-20T18:53:27Z</time>
      </trkpt>
      <trkpt lat="17.112628330" lon="-96.460607700">
        <ele>3132.500</ele>
        <time>2020-01-20T18:53:28Z</time>
      </trkpt>
      <trkpt lat="17.112623630" lon="-96.460512270">
        <ele>3133.400</ele>
        <time>2020-01-20T18:53:29Z</time>
      </trkpt>
      <trkpt lat="17.112613670" lon="-96.460420880">
        <ele>3134.100</ele>
        <time>2020-01-20T18:53:30Z</time>
      </trkpt>
      <trkpt lat="17.112604640" lon="-96.460321200">
        <ele>3134.900</ele>
        <time>2020-01-20T18:53:31Z</time>
      </trkpt>
      <trkpt lat="17.112576270" lon="-96.460230310">
        <ele>3137.200</ele>
        <time>2020-01-20T18:53:32Z</time>
      </trkpt>
      <trkpt lat="17.112552190" lon="-96.460138380">
        <ele>3138.800</ele>
        <time>2020-01-20T18:53:33Z</time>
      </trkpt>
      <trkpt lat="17.112523450" lon="-96.460045610">
        <ele>3139.300</ele>
        <time>2020-01-20T18:53:34Z</time>
      </trkpt>
      <trkpt lat="17.112500930" lon="-96.459951590">
        <ele>3140.900</ele>
        <time>2020-01-20T18:53:35Z</time>
      </trkpt>
      <trkpt lat="17.112473770" lon="-96.459857690">
        <ele>3142.200</ele>
        <time>2020-01-20T18:53:36Z</time>
      </trkpt>
      <trkpt lat="17.112446870" lon="-96.459767770">
        <ele>3143.200</ele>
        <time>2020-01-20T18:53:37Z</time>
      </trkpt>
      <trkpt lat="17.112424190" lon="-96.459673810">
        <ele>3144.600</ele>
        <time>2020-01-20T18:53:38Z</time>
      </trkpt>
      <trkpt lat="17.112407020" lon="-96.459583650">
        <ele>3146.300</ele>
        <time>2020-01-20T18:53:39Z</time>
      </trkpt>
      <trkpt lat="17.112385450" lon="-96.459506030">
        <ele>3147.000</ele>
        <time>2020-01-20T18:53:40Z</time>
      </trkpt>
      <trkpt lat="17.112367310" lon="-96.459432100">
        <ele>3148.500</ele>
        <time>2020-01-20T18:53:41Z</time>
      </trkpt>
      <trkpt lat="17.112347790" lon="-96.459364840">
        <ele>3149.500</ele>
        <time>2020-01-20T18:53:42Z</time>
      </trkpt>
      <trkpt lat="17.112328110" lon="-96.459302990">
        <ele>3149.900</ele>
        <time>2020-01-20T18:53:43Z</time>
      </trkpt>
      <trkpt lat="17.112314970" lon="-96.459246720">
        <ele>3150.500</ele>
        <time>2020-01-20T18:53:44Z</time>
      </trkpt>
      <trkpt lat="17.112297390" lon="-96.459201930">
        <ele>3151.100</ele>
        <time>2020-01-20T18:53:45Z</time>
      </trkpt>
      <trkpt lat="17.112267620" lon="-96.459157150">
        <ele>3151.600</ele>
        <time>2020-01-20T18:53:46Z</time>
      </trkpt>
      <trkpt lat="17.112236890" lon="-96.459113960">
        <ele>3151.800</ele>
        <time>2020-01-20T18:53:47Z</time>
      </trkpt>
      <trkpt lat="17.112197950" lon="-96.459076050">
        <ele>3152.400</ele>
        <time>2020-01-20T18:53:48Z</time>
      </trkpt>
      <trkpt lat="17.112145980" lon="-96.459036350">
        <ele>3151.900</ele>
        <time>2020-01-20T18:53:49Z</time>
      </trkpt>
      <trkpt lat="17.112087670" lon="-96.458987280">
        <ele>3151.900</ele>
        <time>2020-01-20T18:53:50Z</time>
      </trkpt>
      <trkpt lat="17.112024810" lon="-96.458938610">
        <ele>3152.900</ele>
        <time>2020-01-20T18:53:51Z</time>
      </trkpt>
      <trkpt lat="17.111970120" lon="-96.458878700">
        <ele>3152.700</ele>
        <time>2020-01-20T18:53:52Z</time>
      </trkpt>
      <trkpt lat="17.111902760" lon="-96.458824450">
        <ele>3154.100</ele>
        <time>2020-01-20T18:53:53Z</time>
      </trkpt>
      <trkpt lat="17.111836870" lon="-96.458770550">
        <ele>3155.100</ele>
        <time>2020-01-20T18:53:54Z</time>
      </trkpt>
      <trkpt lat="17.111778980" lon="-96.458714750">
        <ele>3155.600</ele>
        <time>2020-01-20T18:53:55Z</time>
      </trkpt>
      <trkpt lat="17.111722510" lon="-96.458665480">
        <ele>3156.300</ele>
        <time>2020-01-20T18:53:56Z</time>
      </trkpt>
      <trkpt lat="17.111671650" lon="-96.458621490">
        <ele>3157.600</ele>
        <time>2020-01-20T18:53:57Z</time>
      </trkpt>
      <trkpt lat="17.111628460" lon="-96.458572410">
        <ele>3159.000</ele>
        <time>2020-01-20T18:53:58Z</time>
      </trkpt>
      <trkpt lat="17.111597070" lon="-96.458514920">
        <ele>3159.200</ele>
        <time>2020-01-20T18:53:59Z</time>
      </trkpt>
      <trkpt lat="17.111572240" lon="-96.458451050">
        <ele>3160.300</ele>
        <time>2020-01-20T18:54:00Z</time>
      </trkpt>
      <trkpt lat="17.111539270" lon="-96.458370310">
        <ele>3161.400</ele>
        <time>2020-01-20T18:54:01Z</time>
      </trkpt>
      <trkpt lat="17.111514930" lon="-96.458281350">
        <ele>3161.700</ele>
        <time>2020-01-20T18:54:02Z</time>
      </trkpt>
      <trkpt lat="17.111491730" lon="-96.458195540">
        <ele>3162.600</ele>
        <time>2020-01-20T18:54:03Z</time>
      </trkpt>
      <trkpt lat="17.111467560" lon="-96.458100230">
        <ele>3163.000</ele>
        <time>2020-01-20T18:54:04Z</time>
      </trkpt>
      <trkpt lat="17.111443210" lon="-96.458007730">
        <ele>3163.500</ele>
        <time>2020-01-20T18:54:05Z</time>
      </trkpt>
      <trkpt lat="17.111417600" lon="-96.457920410">
        <ele>3163.800</ele>
        <time>2020-01-20T18:54:06Z</time>
      </trkpt>
      <trkpt lat="17.111402630" lon="-96.457837300">
        <ele>3164.300</ele>
        <time>2020-01-20T18:54:07Z</time>
      </trkpt>
      <trkpt lat="17.111380080" lon="-96.457757700">
        <ele>3165.400</ele>
        <time>2020-01-20T18:54:08Z</time>
      </trkpt>
      <trkpt lat="17.111356090" lon="-96.457683900">
        <ele>3166.800</ele>
        <time>2020-01-20T18:54:09Z</time>
      </trkpt>
      <trkpt lat="17.111348470" lon="-96.457619900">
        <ele>3168.200</ele>
        <time>2020-01-20T18:54:10Z</time>
      </trkpt>
      <trkpt lat="17.111361100" lon="-96.457565050">
        <ele>3169.000</ele>
        <time>2020-01-20T18:54:11Z</time>
      </trkpt>
      <trkpt lat="17.111381380" lon="-96.457519400">
        <ele>3169.300</ele>
        <time>2020-01-20T18:54:12Z</time>
      </trkpt>
      <trkpt lat="17.111425410" lon="-96.457490830">
        <ele>3169.300</ele>
        <time>2020-01-20T18:54:13Z</time>
      </trkpt>
      <trkpt lat="17.111471490" lon="-96.457512430">
        <ele>3170.800</ele>
        <time>2020-01-20T18:54:14Z</time>
      </trkpt>
      <trkpt lat="17.111520770" lon="-96.457546780">
        <ele>3171.700</ele>
        <time>2020-01-20T18:54:15Z</time>
      </trkpt>
      <trkpt lat="17.111559200" lon="-96.457593390">
        <ele>3172.900</ele>
        <time>2020-01-20T18:54:16Z</time>
      </trkpt>
      <trkpt lat="17.111595170" lon="-96.457654840">
        <ele>3173.900</ele>
        <time>2020-01-20T18:54:17Z</time>
      </trkpt>
      <trkpt lat="17.111626290" lon="-96.457715360">
        <ele>3174.600</ele>
        <time>2020-01-20T18:54:18Z</time>
      </trkpt>
      <trkpt lat="17.111654790" lon="-96.457781470">
        <ele>3175.000</ele>
        <time>2020-01-20T18:54:19Z</time>
      </trkpt>
      <trkpt lat="17.111683280" lon="-96.457854890">
        <ele>3175.900</ele>
        <time>2020-01-20T18:54:20Z</time>
      </trkpt>
      <trkpt lat="17.111717180" lon="-96.457928550">
        <ele>3176.400</ele>
        <time>2020-01-20T18:54:21Z</time>
      </trkpt>
      <trkpt lat="17.111753250" lon="-96.458000610">
        <ele>3176.600</ele>
        <time>2020-01-20T18:54:22Z</time>
      </trkpt>
      <trkpt lat="17.111795180" lon="-96.458068440">
        <ele>3177.200</ele>
        <time>2020-01-20T18:54:23Z</time>
      </trkpt>
      <trkpt lat="17.111852870" lon="-96.458138210">
        <ele>3177.300</ele>
        <time>2020-01-20T18:54:24Z</time>
      </trkpt>
      <trkpt lat="17.111914600" lon="-96.458196120">
        <ele>3177.600</ele>
        <time>2020-01-20T18:54:25Z</time>
      </trkpt>
      <trkpt lat="17.111978830" lon="-96.458247680">
        <ele>3177.500</ele>
        <time>2020-01-20T18:54:26Z</time>
      </trkpt>
      <trkpt lat="17.112047590" lon="-96.458297490">
        <ele>3178.000</ele>
        <time>2020-01-20T18:54:27Z</time>
      </trkpt>
      <trkpt lat="17.112117950" lon="-96.458342090">
        <ele>3178.200</ele>
        <time>2020-01-20T18:54:28Z</time>
      </trkpt>
      <trkpt lat="17.112188130" lon="-96.458386950">
        <ele>3178.300</ele>
        <time>2020-01-20T18:54:29Z</time>
      </trkpt>
      <trkpt lat="17.112263320" lon="-96.458426900">
        <ele>3179.100</ele>
        <time>2020-01-20T18:54:30Z</time>
      </trkpt>
      <trkpt lat="17.112336380" lon="-96.458459260">
        <ele>3178.500</ele>
        <time>2020-01-20T18:54:31Z</time>
      </trkpt>
      <trkpt lat="17.112404500" lon="-96.458497380">
        <ele>3178.400</ele>
        <time>2020-01-20T18:54:32Z</time>
      </trkpt>
      <trkpt lat="17.112473490" lon="-96.458529240">
        <ele>3178.200</ele>
        <time>2020-01-20T18:54:33Z</time>
      </trkpt>
      <trkpt lat="17.112543190" lon="-96.458571810">
        <ele>3178.900</ele>
        <time>2020-01-20T18:54:34Z</time>
      </trkpt>
      <trkpt lat="17.112614460" lon="-96.458606580">
        <ele>3179.300</ele>
        <time>2020-01-20T18:54:35Z</time>
      </trkpt>
      <trkpt lat="17.112688010" lon="-96.458635450">
        <ele>3180.000</ele>
        <time>2020-01-20T18:54:36Z</time>
      </trkpt>
      <trkpt lat="17.112760780" lon="-96.458662740">
        <ele>3180.100</ele>
        <time>2020-01-20T18:54:37Z</time>
      </trkpt>
      <trkpt lat="17.112832690" lon="-96.458674760">
        <ele>3180.100</ele>
        <time>2020-01-20T18:54:38Z</time>
      </trkpt>
      <trkpt lat="17.112910320" lon="-96.458684750">
        <ele>3180.400</ele>
        <time>2020-01-20T18:54:39Z</time>
      </trkpt>
      <trkpt lat="17.112988950" lon="-96.458691500">
        <ele>3180.300</ele>
        <time>2020-01-20T18:54:40Z</time>
      </trkpt>
      <trkpt lat="17.113068280" lon="-96.458701770">
        <ele>3180.300</ele>
        <time>2020-01-20T18:54:41Z</time>
      </trkpt>
      <trkpt lat="17.113143670" lon="-96.458706330">
        <ele>3179.600</ele>
        <time>2020-01-20T18:54:42Z</time>
      </trkpt>
      <trkpt lat="17.113214670" lon="-96.458707620">
        <ele>3179.400</ele>
        <time>2020-01-20T18:54:43Z</time>
      </trkpt>
      <trkpt lat="17.113278140" lon="-96.458710050">
        <ele>3179.200</ele>
        <time>2020-01-20T18:54:44Z</time>
      </trkpt>
      <trkpt lat="17.113337190" lon="-96.458710620">
        <ele>3179.100</ele>
        <time>2020-01-20T18:54:45Z</time>
      </trkpt>
      <trkpt lat="17.113394370" lon="-96.458724830">
        <ele>3178.500</ele>
        <time>2020-01-20T18:54:47Z</time>
      </trkpt>
      <trkpt lat="17.113442160" lon="-96.458729490">
        <ele>3178.600</ele>
        <time>2020-01-20T18:54:49Z</time>
      </trkpt>
      <trkpt lat="17.113478340" lon="-96.458734880">
        <ele>3179.200</ele>
        <time>2020-01-20T18:54:50Z</time>
      </trkpt>
      <trkpt lat="17.113519110" lon="-96.458730790">
        <ele>3178.800</ele>
        <time>2020-01-20T18:54:51Z</time>
      </trkpt>
      <trkpt lat="17.113586570" lon="-96.458729400">
        <ele>3180.400</ele>
        <time>2020-01-20T18:54:52Z</time>
      </trkpt>
      <trkpt lat="17.113638990" lon="-96.458718710">
        <ele>3179.900</ele>
        <time>2020-01-20T18:54:53Z</time>
      </trkpt>
      <trkpt lat="17.113696110" lon="-96.458697180">
        <ele>3179.800</ele>
        <time>2020-01-20T18:54:54Z</time>
      </trkpt>
      <trkpt lat="17.113742150" lon="-96.458661980">
        <ele>3179.100</ele>
        <time>2020-01-20T18:54:55Z</time>
      </trkpt>
      <trkpt lat="17.113781770" lon="-96.458618920">
        <ele>3178.200</ele>
        <time>2020-01-20T18:54:56Z</time>
      </trkpt>
      <trkpt lat="17.113810820" lon="-96.458577240">
        <ele>3177.100</ele>
        <time>2020-01-20T18:54:57Z</time>
      </trkpt>
      <trkpt lat="17.113826860" lon="-96.458524720">
        <ele>3173.900</ele>
        <time>2020-01-20T18:54:59Z</time>
      </trkpt>
      <trkpt lat="17.113854960" lon="-96.458482730">
        <ele>3173.400</ele>
        <time>2020-01-20T18:55:01Z</time>
      </trkpt>
      <trkpt lat="17.113901690" lon="-96.458443400">
        <ele>3172.300</ele>
        <time>2020-01-20T18:55:03Z</time>
      </trkpt>
      <trkpt lat="17.113949350" lon="-96.458423100">
        <ele>3173.100</ele>
        <time>2020-01-20T18:55:04Z</time>
      </trkpt>
      <trkpt lat="17.113998230" lon="-96.458396040">
        <ele>3173.800</ele>
        <time>2020-01-20T18:55:05Z</time>
      </trkpt>
      <trkpt lat="17.114045050" lon="-96.458364160">
        <ele>3173.400</ele>
        <time>2020-01-20T18:55:06Z</time>
      </trkpt>
      <trkpt lat="17.114093250" lon="-96.458326200">
        <ele>3173.400</ele>
        <time>2020-01-20T18:55:07Z</time>
      </trkpt>
      <trkpt lat="17.114142870" lon="-96.458291160">
        <ele>3172.800</ele>
        <time>2020-01-20T18:55:08Z</time>
      </trkpt>
      <trkpt lat="17.114196740" lon="-96.458250620">
        <ele>3172.000</ele>
        <time>2020-01-20T18:55:09Z</time>
      </trkpt>
      <trkpt lat="17.114255080" lon="-96.458208820">
        <ele>3171.500</ele>
        <time>2020-01-20T18:55:10Z</time>
      </trkpt>
      <trkpt lat="17.114315300" lon="-96.458159800">
        <ele>3170.900</ele>
        <time>2020-01-20T18:55:11Z</time>
      </trkpt>
      <trkpt lat="17.114365950" lon="-96.458109390">
        <ele>3170.400</ele>
        <time>2020-01-20T18:55:12Z</time>
      </trkpt>
      <trkpt lat="17.114418370" lon="-96.458061390">
        <ele>3170.600</ele>
        <time>2020-01-20T18:55:13Z</time>
      </trkpt>
      <trkpt lat="17.114466730" lon="-96.458013080">
        <ele>3169.900</ele>
        <time>2020-01-20T18:55:14Z</time>
      </trkpt>
      <trkpt lat="17.114514580" lon="-96.457966780">
        <ele>3169.200</ele>
        <time>2020-01-20T18:55:15Z</time>
      </trkpt>
      <trkpt lat="17.114560780" lon="-96.457925740">
        <ele>3168.400</ele>
        <time>2020-01-20T18:55:16Z</time>
      </trkpt>
      <trkpt lat="17.114609740" lon="-96.457890180">
        <ele>3168.100</ele>
        <time>2020-01-20T18:55:17Z</time>
      </trkpt>
      <trkpt lat="17.114650000" lon="-96.457842930">
        <ele>3167.400</ele>
        <time>2020-01-20T18:55:18Z</time>
      </trkpt>
      <trkpt lat="17.114694450" lon="-96.457801400">
        <ele>3166.900</ele>
        <time>2020-01-20T18:55:19Z</time>
      </trkpt>
      <trkpt lat="17.114737460" lon="-96.457758240">
        <ele>3166.700</ele>
        <time>2020-01-20T18:55:20Z</time>
      </trkpt>
      <trkpt lat="17.114779980" lon="-96.457714770">
        <ele>3166.300</ele>
        <time>2020-01-20T18:55:21Z</time>
      </trkpt>
      <trkpt lat="17.114822120" lon="-96.457665510">
        <ele>3165.600</ele>
        <time>2020-01-20T18:55:22Z</time>
      </trkpt>
      <trkpt lat="17.114865770" lon="-96.457614030">
        <ele>3166.000</ele>
        <time>2020-01-20T18:55:23Z</time>
      </trkpt>
      <trkpt lat="17.114907590" lon="-96.457561920">
        <ele>3165.500</ele>
        <time>2020-01-20T18:55:24Z</time>
      </trkpt>
      <trkpt lat="17.114948220" lon="-96.457509050">
        <ele>3166.100</ele>
        <time>2020-01-20T18:55:25Z</time>
      </trkpt>
      <trkpt lat="17.114982520" lon="-96.457451980">
        <ele>3165.500</ele>
        <time>2020-01-20T18:55:26Z</time>
      </trkpt>
      <trkpt lat="17.115019550" lon="-96.457397520">
        <ele>3164.700</ele>
        <time>2020-01-20T18:55:27Z</time>
      </trkpt>
      <trkpt lat="17.115048110" lon="-96.457347670">
        <ele>3164.700</ele>
        <time>2020-01-20T18:55:28Z</time>
      </trkpt>
      <trkpt lat="17.115078780" lon="-96.457304900">
        <ele>3164.300</ele>
        <time>2020-01-20T18:55:29Z</time>
      </trkpt>
      <trkpt lat="17.115102260" lon="-96.457262680">
        <ele>3163.500</ele>
        <time>2020-01-20T18:55:30Z</time>
      </trkpt>
      <trkpt lat="17.115136780" lon="-96.457210060">
        <ele>3162.200</ele>
        <time>2020-01-20T18:55:32Z</time>
      </trkpt>
      <trkpt lat="17.115158640" lon="-96.457177860">
        <ele>3162.100</ele>
        <time>2020-01-20T18:55:34Z</time>
      </trkpt>
      <trkpt lat="17.115181490" lon="-96.457134770">
        <ele>3161.100</ele>
        <time>2020-01-20T18:55:36Z</time>
      </trkpt>
      <trkpt lat="17.115197050" lon="-96.457099890">
        <ele>3160.900</ele>
        <time>2020-01-20T18:55:37Z</time>
      </trkpt>
      <trkpt lat="17.115236960" lon="-96.457060600">
        <ele>3145.300</ele>
        <time>2020-01-20T18:55:38Z</time>
      </trkpt>
      <trkpt lat="17.115269100" lon="-96.457015410">
        <ele>3150.800</ele>
        <time>2020-01-20T18:55:39Z</time>
      </trkpt>
      <trkpt lat="17.115299120" lon="-96.456969640">
        <ele>3153.500</ele>
        <time>2020-01-20T18:55:40Z</time>
      </trkpt>
      <trkpt lat="17.115328450" lon="-96.456924650">
        <ele>3155.100</ele>
        <time>2020-01-20T18:55:41Z</time>
      </trkpt>
      <trkpt lat="17.115359210" lon="-96.456878190">
        <ele>3156.300</ele>
        <time>2020-01-20T18:55:42Z</time>
      </trkpt>
      <trkpt lat="17.115389620" lon="-96.456826020">
        <ele>3157.100</ele>
        <time>2020-01-20T18:55:43Z</time>
      </trkpt>
      <trkpt lat="17.115437420" lon="-96.456775380">
        <ele>3157.600</ele>
        <time>2020-01-20T18:55:44Z</time>
      </trkpt>
      <trkpt lat="17.115476770" lon="-96.456725100">
        <ele>3157.600</ele>
        <time>2020-01-20T18:55:45Z</time>
      </trkpt>
      <trkpt lat="17.115512450" lon="-96.456675950">
        <ele>3157.700</ele>
        <time>2020-01-20T18:55:46Z</time>
      </trkpt>
      <trkpt lat="17.115555780" lon="-96.456630920">
        <ele>3158.100</ele>
        <time>2020-01-20T18:55:47Z</time>
      </trkpt>
      <trkpt lat="17.115591190" lon="-96.456574150">
        <ele>3157.900</ele>
        <time>2020-01-20T18:55:48Z</time>
      </trkpt>
      <trkpt lat="17.115633010" lon="-96.456525290">
        <ele>3157.900</ele>
        <time>2020-01-20T18:55:49Z</time>
      </trkpt>
      <trkpt lat="17.115670810" lon="-96.456472640">
        <ele>3157.700</ele>
        <time>2020-01-20T18:55:50Z</time>
      </trkpt>
      <trkpt lat="17.115713030" lon="-96.456420390">
        <ele>3157.500</ele>
        <time>2020-01-20T18:55:51Z</time>
      </trkpt>
      <trkpt lat="17.115754170" lon="-96.456367500">
        <ele>3157.100</ele>
        <time>2020-01-20T18:55:52Z</time>
      </trkpt>
      <trkpt lat="17.115793370" lon="-96.456314830">
        <ele>3156.900</ele>
        <time>2020-01-20T18:55:53Z</time>
      </trkpt>
      <trkpt lat="17.115831720" lon="-96.456263740">
        <ele>3156.900</ele>
        <time>2020-01-20T18:55:54Z</time>
      </trkpt>
      <trkpt lat="17.115867260" lon="-96.456211960">
        <ele>3156.600</ele>
        <time>2020-01-20T18:55:55Z</time>
      </trkpt>
      <trkpt lat="17.115896510" lon="-96.456164370">
        <ele>3156.400</ele>
        <time>2020-01-20T18:55:56Z</time>
      </trkpt>
      <trkpt lat="17.115922330" lon="-96.456125060">
        <ele>3156.200</ele>
        <time>2020-01-20T18:55:57Z</time>
      </trkpt>
      <trkpt lat="17.115944290" lon="-96.456090600">
        <ele>3156.100</ele>
        <time>2020-01-20T18:55:58Z</time>
      </trkpt>
      <trkpt lat="17.115974270" lon="-96.456044370">
        <ele>3156.400</ele>
        <time>2020-01-20T18:56:00Z</time>
      </trkpt>
      <trkpt lat="17.115998930" lon="-96.456007540">
        <ele>3156.300</ele>
        <time>2020-01-20T18:56:02Z</time>
      </trkpt>
      <trkpt lat="17.116026110" lon="-96.455940870">
        <ele>3155.900</ele>
        <time>2020-01-20T18:56:04Z</time>
      </trkpt>
      <trkpt lat="17.116044030" lon="-96.455899960">
        <ele>3155.200</ele>
        <time>2020-01-20T18:56:05Z</time>
      </trkpt>
      <trkpt lat="17.116083260" lon="-96.455863900">
        <ele>3154.900</ele>
        <time>2020-01-20T18:56:06Z</time>
      </trkpt>
      <trkpt lat="17.116113860" lon="-96.455825360">
        <ele>3154.700</ele>
        <time>2020-01-20T18:56:07Z</time>
      </trkpt>
      <trkpt lat="17.116145500" lon="-96.455787230">
        <ele>3155.100</ele>
        <time>2020-01-20T18:56:08Z</time>
      </trkpt>
      <trkpt lat="17.116174590" lon="-96.455746300">
        <ele>3155.000</ele>
        <time>2020-01-20T18:56:09Z</time>
      </trkpt>
      <trkpt lat="17.116202630" lon="-96.455708030">
        <ele>3155.300</ele>
        <time>2020-01-20T18:56:10Z</time>
      </trkpt>
      <trkpt lat="17.116235870" lon="-96.455665220">
        <ele>3155.100</ele>
        <time>2020-01-20T18:56:11Z</time>
      </trkpt>
      <trkpt lat="17.116266060" lon="-96.455622290">
        <ele>3155.000</ele>
        <time>2020-01-20T18:56:12Z</time>
      </trkpt>
      <trkpt lat="17.116301020" lon="-96.455574460">
        <ele>3154.900</ele>
        <time>2020-01-20T18:56:13Z</time>
      </trkpt>
      <trkpt lat="17.116333690" lon="-96.455525360">
        <ele>3155.500</ele>
        <time>2020-01-20T18:56:14Z</time>
      </trkpt>
      <trkpt lat="17.116376830" lon="-96.455479170">
        <ele>3155.200</ele>
        <time>2020-01-20T18:56:15Z</time>
      </trkpt>
      <trkpt lat="17.116417290" lon="-96.455429660">
        <ele>3154.800</ele>
        <time>2020-01-20T18:56:16Z</time>
      </trkpt>
      <trkpt lat="17.116459580" lon="-96.455376340">
        <ele>3154.900</ele>
        <time>2020-01-20T18:56:17Z</time>
      </trkpt>
      <trkpt lat="17.116506460" lon="-96.455323970">
        <ele>3155.300</ele>
        <time>2020-01-20T18:56:18Z</time>
      </trkpt>
      <trkpt lat="17.116556330" lon="-96.455283150">
        <ele>3154.600</ele>
        <time>2020-01-20T18:56:19Z</time>
      </trkpt>
      <trkpt lat="17.116600460" lon="-96.455234070">
        <ele>3155.100</ele>
        <time>2020-01-20T18:56:20Z</time>
      </trkpt>
      <trkpt lat="17.116647690" lon="-96.455191610">
        <ele>3154.800</ele>
        <time>2020-01-20T18:56:21Z</time>
      </trkpt>
      <trkpt lat="17.116692040" lon="-96.455149710">
        <ele>3154.900</ele>
        <time>2020-01-20T18:56:22Z</time>
      </trkpt>
      <trkpt lat="17.116731550" lon="-96.455111820">
        <ele>3155.100</ele>
        <time>2020-01-20T18:56:23Z</time>
      </trkpt>
      <trkpt lat="17.116769820" lon="-96.455073880">
        <ele>3155.200</ele>
        <time>2020-01-20T18:56:24Z</time>
      </trkpt>
      <trkpt lat="17.116802280" lon="-96.455041950">
        <ele>3155.400</ele>
        <time>2020-01-20T18:56:25Z</time>
      </trkpt>
      <trkpt lat="17.116845980" lon="-96.455001560">
        <ele>3156.100</ele>
        <time>2020-01-20T18:56:27Z</time>
      </trkpt>
      <trkpt lat="17.116878260" lon="-96.454974780">
        <ele>3156.900</ele>
        <time>2020-01-20T18:56:29Z</time>
      </trkpt>
      <trkpt lat="17.116929180" lon="-96.454939130">
        <ele>3156.600</ele>
        <time>2020-01-20T18:56:31Z</time>
      </trkpt>
      <trkpt lat="17.116962780" lon="-96.454913760">
        <ele>3157.100</ele>
        <time>2020-01-20T18:56:32Z</time>
      </trkpt>
      <trkpt lat="17.116997430" lon="-96.454887530">
        <ele>3157.400</ele>
        <time>2020-01-20T18:56:33Z</time>
      </trkpt>
      <trkpt lat="17.117034950" lon="-96.454861140">
        <ele>3157.000</ele>
        <time>2020-01-20T18:56:34Z</time>
      </trkpt>
      <trkpt lat="17.117092190" lon="-96.454848120">
        <ele>3156.500</ele>
        <time>2020-01-20T18:56:35Z</time>
      </trkpt>
      <trkpt lat="17.117136830" lon="-96.454827380">
        <ele>3156.500</ele>
        <time>2020-01-20T18:56:36Z</time>
      </trkpt>
      <trkpt lat="17.117189120" lon="-96.454815140">
        <ele>3156.000</ele>
        <time>2020-01-20T18:56:37Z</time>
      </trkpt>
      <trkpt lat="17.117231120" lon="-96.454799410">
        <ele>3155.900</ele>
        <time>2020-01-20T18:56:38Z</time>
      </trkpt>
      <trkpt lat="17.117268030" lon="-96.454779180">
        <ele>3156.000</ele>
        <time>2020-01-20T18:56:39Z</time>
      </trkpt>
      <trkpt lat="17.117315270" lon="-96.454757330">
        <ele>3155.400</ele>
        <time>2020-01-20T18:56:41Z</time>
      </trkpt>
      <trkpt lat="17.117329430" lon="-96.454713210">
        <ele>3154.500</ele>
        <time>2020-01-20T18:56:43Z</time>
      </trkpt>
      <trkpt lat="17.117331910" lon="-96.454641730">
        <ele>3153.300</ele>
        <time>2020-01-20T18:56:45Z</time>
      </trkpt>
      <trkpt lat="17.117326710" lon="-96.454599060">
        <ele>3153.400</ele>
        <time>2020-01-20T18:56:46Z</time>
      </trkpt>
      <trkpt lat="17.117277790" lon="-96.454547140">
        <ele>3153.200</ele>
        <time>2020-01-20T18:56:47Z</time>
      </trkpt>
      <trkpt lat="17.117265410" lon="-96.454501800">
        <ele>3153.400</ele>
        <time>2020-01-20T18:56:48Z</time>
      </trkpt>
      <trkpt lat="17.117269570" lon="-96.454459600">
        <ele>3152.000</ele>
        <time>2020-01-20T18:56:49Z</time>
      </trkpt>
      <trkpt lat="17.117283200" lon="-96.454416980">
        <ele>3152.700</ele>
        <time>2020-01-20T18:56:50Z</time>
      </trkpt>
      <trkpt lat="17.117320590" lon="-96.454378510">
        <ele>3153.000</ele>
        <time>2020-01-20T18:56:51Z</time>
      </trkpt>
      <trkpt lat="17.117352400" lon="-96.454352740">
        <ele>3153.000</ele>
        <time>2020-01-20T18:56:52Z</time>
      </trkpt>
      <trkpt lat="17.117388190" lon="-96.454321950">
        <ele>3153.400</ele>
        <time>2020-01-20T18:56:53Z</time>
      </trkpt>
      <trkpt lat="17.117422830" lon="-96.454293390">
        <ele>3153.200</ele>
        <time>2020-01-20T18:56:54Z</time>
      </trkpt>
      <trkpt lat="17.117456650" lon="-96.454266640">
        <ele>3153.000</ele>
        <time>2020-01-20T18:56:55Z</time>
      </trkpt>
      <trkpt lat="17.117500730" lon="-96.454227490">
        <ele>3152.300</ele>
        <time>2020-01-20T18:56:57Z</time>
      </trkpt>
      <trkpt lat="17.117529710" lon="-96.454202830">
        <ele>3152.100</ele>
        <time>2020-01-20T18:56:59Z</time>
      </trkpt>
      <trkpt lat="17.117566050" lon="-96.454174400">
        <ele>3151.800</ele>
        <time>2020-01-20T18:57:01Z</time>
      </trkpt>
      <trkpt lat="17.117632880" lon="-96.454142130">
        <ele>3151.900</ele>
        <time>2020-01-20T18:57:03Z</time>
      </trkpt>
      <trkpt lat="17.117668630" lon="-96.454133580">
        <ele>3151.200</ele>
        <time>2020-01-20T18:57:04Z</time>
      </trkpt>
      <trkpt lat="17.117728060" lon="-96.454158220">
        <ele>3149.600</ele>
        <time>2020-01-20T18:57:05Z</time>
      </trkpt>
      <trkpt lat="17.117778070" lon="-96.454156790">
        <ele>3149.300</ele>
        <time>2020-01-20T18:57:06Z</time>
      </trkpt>
      <trkpt lat="17.117821820" lon="-96.454158810">
        <ele>3148.600</ele>
        <time>2020-01-20T18:57:07Z</time>
      </trkpt>
      <trkpt lat="17.117884360" lon="-96.454156450">
        <ele>3147.900</ele>
        <time>2020-01-20T18:57:09Z</time>
      </trkpt>
      <trkpt lat="17.117929040" lon="-96.454156200">
        <ele>3145.800</ele>
        <time>2020-01-20T18:57:11Z</time>
      </trkpt>
      <trkpt lat="17.117983000" lon="-96.454145710">
        <ele>3146.000</ele>
        <time>2020-01-20T18:57:13Z</time>
      </trkpt>
      <trkpt lat="17.118020560" lon="-96.454142650">
        <ele>3145.500</ele>
        <time>2020-01-20T18:57:14Z</time>
      </trkpt>
      <trkpt lat="17.118061680" lon="-96.454140710">
        <ele>3145.400</ele>
        <time>2020-01-20T18:57:15Z</time>
      </trkpt>
      <trkpt lat="17.118115380" lon="-96.454164210">
        <ele>3145.300</ele>
        <time>2020-01-20T18:57:16Z</time>
      </trkpt>
      <trkpt lat="17.118161440" lon="-96.454160870">
        <ele>3145.100</ele>
        <time>2020-01-20T18:57:17Z</time>
      </trkpt>
      <trkpt lat="17.118203750" lon="-96.454147700">
        <ele>3145.600</ele>
        <time>2020-01-20T18:57:18Z</time>
      </trkpt>
      <trkpt lat="17.118248480" lon="-96.454102630">
        <ele>3144.600</ele>
        <time>2020-01-20T18:57:20Z</time>
      </trkpt>
      <trkpt lat="17.118275390" lon="-96.454059500">
        <ele>3145.900</ele>
        <time>2020-01-20T18:57:22Z</time>
      </trkpt>
      <trkpt lat="17.118299660" lon="-96.454003910">
        <ele>3145.500</ele>
        <time>2020-01-20T18:57:25Z</time>
      </trkpt>
      <trkpt lat="17.118263070" lon="-96.453894330">
        <ele>3146.600</ele>
        <time>2020-01-20T18:57:27Z</time>
      </trkpt>
      <trkpt lat="17.118250480" lon="-96.453846050">
        <ele>3147.100</ele>
        <time>2020-01-20T18:57:28Z</time>
      </trkpt>
      <trkpt lat="17.118241420" lon="-96.453797990">
        <ele>3147.700</ele>
        <time>2020-01-20T18:57:29Z</time>
      </trkpt>
      <trkpt lat="17.118236000" lon="-96.453752900">
        <ele>3148.500</ele>
        <time>2020-01-20T18:57:30Z</time>
      </trkpt>
      <trkpt lat="17.118234360" lon="-96.453712170">
        <ele>3149.100</ele>
        <time>2020-01-20T18:57:31Z</time>
      </trkpt>
      <trkpt lat="17.118248630" lon="-96.453649590">
        <ele>3149.700</ele>
        <time>2020-01-20T18:57:33Z</time>
      </trkpt>
      <trkpt lat="17.118269580" lon="-96.453594020">
        <ele>3149.900</ele>
        <time>2020-01-20T18:57:36Z</time>
      </trkpt>
      <trkpt lat="17.118296900" lon="-96.453534840">
        <ele>3149.800</ele>
        <time>2020-01-20T18:57:38Z</time>
      </trkpt>
      <trkpt lat="17.118321430" lon="-96.453466890">
        <ele>3150.700</ele>
        <time>2020-01-20T18:57:40Z</time>
      </trkpt>
      <trkpt lat="17.118336110" lon="-96.453418060">
        <ele>3151.400</ele>
        <time>2020-01-20T18:57:42Z</time>
      </trkpt>
      <trkpt lat="17.118351040" lon="-96.453374910">
        <ele>3152.300</ele>
        <time>2020-01-20T18:57:44Z</time>
      </trkpt>
      <trkpt lat="17.118383310" lon="-96.453299780">
        <ele>3152.600</ele>
        <time>2020-01-20T18:57:46Z</time>
      </trkpt>
      <trkpt lat="17.118401040" lon="-96.453256590">
        <ele>3152.800</ele>
        <time>2020-01-20T18:57:47Z</time>
      </trkpt>
      <trkpt lat="17.118417970" lon="-96.453212880">
        <ele>3153.100</ele>
        <time>2020-01-20T18:57:48Z</time>
      </trkpt>
      <trkpt lat="17.118431790" lon="-96.453171280">
        <ele>3153.200</ele>
        <time>2020-01-20T18:57:49Z</time>
      </trkpt>
      <trkpt lat="17.118444790" lon="-96.453133890">
        <ele>3153.200</ele>
        <time>2020-01-20T18:57:50Z</time>
      </trkpt>
      <trkpt lat="17.118465650" lon="-96.453081270">
        <ele>3153.500</ele>
        <time>2020-01-20T18:57:52Z</time>
      </trkpt>
      <trkpt lat="17.118487890" lon="-96.453032600">
        <ele>3153.500</ele>
        <time>2020-01-20T18:57:55Z</time>
      </trkpt>
      <trkpt lat="17.118506140" lon="-96.452995420">
        <ele>3153.800</ele>
        <time>2020-01-20T18:57:57Z</time>
      </trkpt>
      <trkpt lat="17.118526100" lon="-96.452954460">
        <ele>3153.300</ele>
        <time>2020-01-20T18:57:59Z</time>
      </trkpt>
      <trkpt lat="17.118562560" lon="-96.452883660">
        <ele>3152.800</ele>
        <time>2020-01-20T18:58:01Z</time>
      </trkpt>
      <trkpt lat="17.118593650" lon="-96.452833990">
        <ele>3152.600</ele>
        <time>2020-01-20T18:58:02Z</time>
      </trkpt>
      <trkpt lat="17.118625370" lon="-96.452787970">
        <ele>3152.000</ele>
        <time>2020-01-20T18:58:03Z</time>
      </trkpt>
      <trkpt lat="17.118656080" lon="-96.452741590">
        <ele>3151.800</ele>
        <time>2020-01-20T18:58:04Z</time>
      </trkpt>
      <trkpt lat="17.118685640" lon="-96.452699230">
        <ele>3151.600</ele>
        <time>2020-01-20T18:58:05Z</time>
      </trkpt>
      <trkpt lat="17.118709000" lon="-96.452666610">
        <ele>3151.600</ele>
        <time>2020-01-20T18:58:06Z</time>
      </trkpt>
      <trkpt lat="17.118735900" lon="-96.452626500">
        <ele>3151.800</ele>
        <time>2020-01-20T18:58:08Z</time>
      </trkpt>
      <trkpt lat="17.118766030" lon="-96.452571990">
        <ele>3151.500</ele>
        <time>2020-01-20T18:58:11Z</time>
      </trkpt>
      <trkpt lat="17.118786720" lon="-96.452538660">
        <ele>3151.600</ele>
        <time>2020-01-20T18:58:12Z</time>
      </trkpt>
      <trkpt lat="17.118810070" lon="-96.452503450">
        <ele>3151.900</ele>
        <time>2020-01-20T18:58:13Z</time>
      </trkpt>
      <trkpt lat="17.118833270" lon="-96.452464840">
        <ele>3151.400</ele>
        <time>2020-01-20T18:58:14Z</time>
      </trkpt>
      <trkpt lat="17.118859770" lon="-96.452420550">
        <ele>3151.600</ele>
        <time>2020-01-20T18:58:15Z</time>
      </trkpt>
      <trkpt lat="17.118880570" lon="-96.452378070">
        <ele>3151.700</ele>
        <time>2020-01-20T18:58:16Z</time>
      </trkpt>
      <trkpt lat="17.118902000" lon="-96.452335080">
        <ele>3151.900</ele>
        <time>2020-01-20T18:58:17Z</time>
      </trkpt>
      <trkpt lat="17.118923900" lon="-96.452287350">
        <ele>3151.900</ele>
        <time>2020-01-20T18:58:18Z</time>
      </trkpt>
      <trkpt lat="17.118942230" lon="-96.452241590">
        <ele>3152.400</ele>
        <time>2020-01-20T18:58:19Z</time>
      </trkpt>
      <trkpt lat="17.118959430" lon="-96.452199040">
        <ele>3152.500</ele>
        <time>2020-01-20T18:58:20Z</time>
      </trkpt>
      <trkpt lat="17.118980230" lon="-96.452147800">
        <ele>3153.200</ele>
        <time>2020-01-20T18:58:22Z</time>
      </trkpt>
      <trkpt lat="17.118999570" lon="-96.452114390">
        <ele>3152.700</ele>
        <time>2020-01-20T18:58:24Z</time>
      </trkpt>
      <trkpt lat="17.119009210" lon="-96.452068990">
        <ele>3152.600</ele>
        <time>2020-01-20T18:58:26Z</time>
      </trkpt>
      <trkpt lat="17.119003680" lon="-96.452010950">
        <ele>3152.700</ele>
        <time>2020-01-20T18:58:28Z</time>
      </trkpt>
      <trkpt lat="17.118974620" lon="-96.451961070">
        <ele>3152.600</ele>
        <time>2020-01-20T18:58:30Z</time>
      </trkpt>
      <trkpt lat="17.118928140" lon="-96.451920500">
        <ele>3151.600</ele>
        <time>2020-01-20T18:58:32Z</time>
      </trkpt>
      <trkpt lat="17.118873600" lon="-96.451882280">
        <ele>3150.600</ele>
        <time>2020-01-20T18:58:34Z</time>
      </trkpt>
      <trkpt lat="17.118828160" lon="-96.451866470">
        <ele>3149.600</ele>
        <time>2020-01-20T18:58:36Z</time>
      </trkpt>
      <trkpt lat="17.118797870" lon="-96.451890260">
        <ele>3148.200</ele>
        <time>2020-01-20T18:58:39Z</time>
      </trkpt>
      <trkpt lat="17.118769330" lon="-96.451866440">
        <ele>3145.400</ele>
        <time>2020-01-20T18:59:11Z</time>
      </trkpt>
      <trkpt lat="17.118792130" lon="-96.451822990">
        <ele>3145.800</ele>
        <time>2020-01-20T19:31:11Z</time>
      </trkpt>
      <trkpt lat="17.118815200" lon="-96.451788410">
        <ele>3145.700</ele>
        <time>2020-01-20T19:31:14Z</time>
      </trkpt>
      <trkpt lat="17.118841880" lon="-96.451745020">
        <ele>3146.600</ele>
        <time>2020-01-20T19:31:18Z</time>
      </trkpt>
      <trkpt lat="17.118853980" lon="-96.451709310">
        <ele>3147.400</ele>
        <time>2020-01-20T19:31:21Z</time>
      </trkpt>
      <trkpt lat="17.118878020" lon="-96.451671350">
        <ele>3145.700</ele>
        <time>2020-01-20T19:31:24Z</time>
      </trkpt>
      <trkpt lat="17.118900040" lon="-96.451640190">
        <ele>3145.900</ele>
        <time>2020-01-20T19:31:27Z</time>
      </trkpt>
      <trkpt lat="17.118887770" lon="-96.451604740">
        <ele>3147.700</ele>
        <time>2020-01-20T19:31:32Z</time>
      </trkpt>
      <trkpt lat="17.118854350" lon="-96.451655460">
        <ele>3159.500</ele>
        <time>2020-01-20T19:31:59Z</time>
      </trkpt>
      <trkpt lat="17.118808410" lon="-96.451654950">
        <ele>3162.300</ele>
        <time>2020-01-20T19:32:32Z</time>
      </trkpt>
      <trkpt lat="17.118804580" lon="-96.451700050">
        <ele>3156.300</ele>
        <time>2020-01-20T19:32:42Z</time>
      </trkpt>
      <trkpt lat="17.118840930" lon="-96.451702860">
        <ele>3150.500</ele>
        <time>2020-01-20T19:32:53Z</time>
      </trkpt>
      <trkpt lat="17.118868800" lon="-96.451669390">
        <ele>3150.400</ele>
        <time>2020-01-20T19:32:58Z</time>
      </trkpt>
      <trkpt lat="17.118881860" lon="-96.451625890">
        <ele>3150.300</ele>
        <time>2020-01-20T19:33:03Z</time>
      </trkpt>
      <trkpt lat="17.118833500" lon="-96.451599710">
        <ele>3153.200</ele>
        <time>2020-01-20T19:33:17Z</time>
      </trkpt>
      <trkpt lat="17.118822410" lon="-96.451636000">
        <ele>3152.200</ele>
        <time>2020-01-20T19:33:26Z</time>
      </trkpt>
      <trkpt lat="17.118827760" lon="-96.451674550">
        <ele>3153.600</ele>
        <time>2020-01-20T19:33:30Z</time>
      </trkpt>
      <trkpt lat="17.118818940" lon="-96.451716300">
        <ele>3154.500</ele>
        <time>2020-01-20T19:33:34Z</time>
      </trkpt>
      <trkpt lat="17.118784040" lon="-96.451732480">
        <ele>3157.800</ele>
        <time>2020-01-20T19:33:39Z</time>
      </trkpt>
      <trkpt lat="17.118742490" lon="-96.451735450">
        <ele>3167.100</ele>
        <time>2020-01-20T19:33:46Z</time>
      </trkpt>
      <trkpt lat="17.118730110" lon="-96.451772970">
        <ele>3164.900</ele>
        <time>2020-01-20T19:33:58Z</time>
      </trkpt>
      <trkpt lat="17.118737150" lon="-96.451812650">
        <ele>3159.900</ele>
        <time>2020-01-20T19:35:55Z</time>
      </trkpt>
      <trkpt lat="17.118715570" lon="-96.451847570">
        <ele>3153.500</ele>
        <time>2020-01-20T19:37:36Z</time>
      </trkpt>
      <trkpt lat="17.118726950" lon="-96.451811640">
        <ele>3148.600</ele>
        <time>2020-01-20T19:37:45Z</time>
      </trkpt>
      <trkpt lat="17.118726090" lon="-96.451851920">
        <ele>3150.400</ele>
        <time>2020-01-20T19:39:39Z</time>
      </trkpt>
      <trkpt lat="17.118754670" lon="-96.451885570">
        <ele>3150.900</ele>
        <time>2020-01-20T19:39:43Z</time>
      </trkpt>
      <trkpt lat="17.118707280" lon="-96.451863110">
        <ele>3149.600</ele>
        <time>2020-01-20T19:40:11Z</time>
      </trkpt>
      <trkpt lat="17.118672100" lon="-96.451843880">
        <ele>3149.600</ele>
        <time>2020-01-20T19:40:13Z</time>
      </trkpt>
      <trkpt lat="17.118630990" lon="-96.451822890">
        <ele>3148.200</ele>
        <time>2020-01-20T19:40:15Z</time>
      </trkpt>
      <trkpt lat="17.118588830" lon="-96.451801370">
        <ele>3147.200</ele>
        <time>2020-01-20T19:40:17Z</time>
      </trkpt>
      <trkpt lat="17.118547530" lon="-96.451782430">
        <ele>3146.400</ele>
        <time>2020-01-20T19:40:19Z</time>
      </trkpt>
      <trkpt lat="17.118502690" lon="-96.451767110">
        <ele>3146.000</ele>
        <time>2020-01-20T19:40:21Z</time>
      </trkpt>
      <trkpt lat="17.118456240" lon="-96.451748040">
        <ele>3146.100</ele>
        <time>2020-01-20T19:40:23Z</time>
      </trkpt>
      <trkpt lat="17.118420870" lon="-96.451731260">
        <ele>3145.700</ele>
        <time>2020-01-20T19:40:25Z</time>
      </trkpt>
      <trkpt lat="17.118385220" lon="-96.451709310">
        <ele>3144.900</ele>
        <time>2020-01-20T19:40:28Z</time>
      </trkpt>
      <trkpt lat="17.118342000" lon="-96.451678680">
        <ele>3145.000</ele>
        <time>2020-01-20T19:40:31Z</time>
      </trkpt>
      <trkpt lat="17.118315870" lon="-96.451644340">
        <ele>3144.500</ele>
        <time>2020-01-20T19:40:33Z</time>
      </trkpt>
      <trkpt lat="17.118312650" lon="-96.451599750">
        <ele>3144.300</ele>
        <time>2020-01-20T19:40:35Z</time>
      </trkpt>
      <trkpt lat="17.118330200" lon="-96.451547270">
        <ele>3143.900</ele>
        <time>2020-01-20T19:40:37Z</time>
      </trkpt>
      <trkpt lat="17.118365350" lon="-96.451491070">
        <ele>3143.000</ele>
        <time>2020-01-20T19:40:39Z</time>
      </trkpt>
      <trkpt lat="17.118412610" lon="-96.451435360">
        <ele>3142.400</ele>
        <time>2020-01-20T19:40:41Z</time>
      </trkpt>
      <trkpt lat="17.118459500" lon="-96.451385990">
        <ele>3141.600</ele>
        <time>2020-01-20T19:40:43Z</time>
      </trkpt>
      <trkpt lat="17.118502300" lon="-96.451338230">
        <ele>3141.300</ele>
        <time>2020-01-20T19:40:45Z</time>
      </trkpt>
      <trkpt lat="17.118543970" lon="-96.451288570">
        <ele>3141.000</ele>
        <time>2020-01-20T19:40:47Z</time>
      </trkpt>
      <trkpt lat="17.118583840" lon="-96.451239050">
        <ele>3141.100</ele>
        <time>2020-01-20T19:40:49Z</time>
      </trkpt>
      <trkpt lat="17.118622770" lon="-96.451189630">
        <ele>3140.400</ele>
        <time>2020-01-20T19:40:51Z</time>
      </trkpt>
      <trkpt lat="17.118656950" lon="-96.451142210">
        <ele>3139.900</ele>
        <time>2020-01-20T19:40:53Z</time>
      </trkpt>
      <trkpt lat="17.118687890" lon="-96.451096050">
        <ele>3139.700</ele>
        <time>2020-01-20T19:40:55Z</time>
      </trkpt>
      <trkpt lat="17.118721210" lon="-96.451046600">
        <ele>3139.400</ele>
        <time>2020-01-20T19:40:57Z</time>
      </trkpt>
      <trkpt lat="17.118759270" lon="-96.450994490">
        <ele>3140.300</ele>
        <time>2020-01-20T19:40:59Z</time>
      </trkpt>
      <trkpt lat="17.118795140" lon="-96.450943820">
        <ele>3140.100</ele>
        <time>2020-01-20T19:41:01Z</time>
      </trkpt>
      <trkpt lat="17.118825190" lon="-96.450897550">
        <ele>3140.800</ele>
        <time>2020-01-20T19:41:03Z</time>
      </trkpt>
      <trkpt lat="17.118849780" lon="-96.450863670">
        <ele>3141.700</ele>
        <time>2020-01-20T19:41:05Z</time>
      </trkpt>
      <trkpt lat="17.118894150" lon="-96.450837100">
        <ele>3142.800</ele>
        <time>2020-01-20T19:41:08Z</time>
      </trkpt>
      <trkpt lat="17.118947800" lon="-96.450841930">
        <ele>3141.500</ele>
        <time>2020-01-20T19:41:11Z</time>
      </trkpt>
      <trkpt lat="17.118993470" lon="-96.450858240">
        <ele>3141.700</ele>
        <time>2020-01-20T19:41:13Z</time>
      </trkpt>
      <trkpt lat="17.119026730" lon="-96.450874880">
        <ele>3141.100</ele>
        <time>2020-01-20T19:41:15Z</time>
      </trkpt>
      <trkpt lat="17.119070900" lon="-96.450898380">
        <ele>3140.800</ele>
        <time>2020-01-20T19:41:18Z</time>
      </trkpt>
      <trkpt lat="17.119122080" lon="-96.450923970">
        <ele>3140.400</ele>
        <time>2020-01-20T19:41:20Z</time>
      </trkpt>
      <trkpt lat="17.119184780" lon="-96.450949750">
        <ele>3140.800</ele>
        <time>2020-01-20T19:41:22Z</time>
      </trkpt>
      <trkpt lat="17.119248170" lon="-96.450977670">
        <ele>3143.000</ele>
        <time>2020-01-20T19:41:24Z</time>
      </trkpt>
      <trkpt lat="17.119305900" lon="-96.451007490">
        <ele>3143.100</ele>
        <time>2020-01-20T19:41:26Z</time>
      </trkpt>
      <trkpt lat="17.119357980" lon="-96.451043080">
        <ele>3143.800</ele>
        <time>2020-01-20T19:41:28Z</time>
      </trkpt>
      <trkpt lat="17.119401710" lon="-96.451070520">
        <ele>3144.600</ele>
        <time>2020-01-20T19:41:30Z</time>
      </trkpt>
      <trkpt lat="17.119443680" lon="-96.451080100">
        <ele>3145.200</ele>
        <time>2020-01-20T19:41:32Z</time>
      </trkpt>
      <trkpt lat="17.119482530" lon="-96.451075490">
        <ele>3145.700</ele>
        <time>2020-01-20T19:41:34Z</time>
      </trkpt>
      <trkpt lat="17.119518970" lon="-96.451041380">
        <ele>3146.300</ele>
        <time>2020-01-20T19:41:37Z</time>
      </trkpt>
      <trkpt lat="17.119551750" lon="-96.450980450">
        <ele>3147.100</ele>
        <time>2020-01-20T19:41:40Z</time>
      </trkpt>
      <trkpt lat="17.119562280" lon="-96.450938250">
        <ele>3147.200</ele>
        <time>2020-01-20T19:41:41Z</time>
      </trkpt>
      <trkpt lat="17.119574630" lon="-96.450896540">
        <ele>3147.500</ele>
        <time>2020-01-20T19:41:42Z</time>
      </trkpt>
      <trkpt lat="17.119588300" lon="-96.450853870">
        <ele>3147.900</ele>
        <time>2020-01-20T19:41:43Z</time>
      </trkpt>
      <trkpt lat="17.119604660" lon="-96.450810350">
        <ele>3148.300</ele>
        <time>2020-01-20T19:41:44Z</time>
      </trkpt>
      <trkpt lat="17.119621590" lon="-96.450769060">
        <ele>3148.000</ele>
        <time>2020-01-20T19:41:45Z</time>
      </trkpt>
      <trkpt lat="17.119638670" lon="-96.450731570">
        <ele>3148.000</ele>
        <time>2020-01-20T19:41:46Z</time>
      </trkpt>
      <trkpt lat="17.119656590" lon="-96.450695560">
        <ele>3147.600</ele>
        <time>2020-01-20T19:41:47Z</time>
      </trkpt>
      <trkpt lat="17.119675080" lon="-96.450661060">
        <ele>3147.100</ele>
        <time>2020-01-20T19:41:48Z</time>
      </trkpt>
      <trkpt lat="17.119693360" lon="-96.450627390">
        <ele>3147.000</ele>
        <time>2020-01-20T19:41:49Z</time>
      </trkpt>
      <trkpt lat="17.119710430" lon="-96.450593810">
        <ele>3147.200</ele>
        <time>2020-01-20T19:41:50Z</time>
      </trkpt>
      <trkpt lat="17.119736330" lon="-96.450546220">
        <ele>3147.100</ele>
        <time>2020-01-20T19:41:52Z</time>
      </trkpt>
      <trkpt lat="17.119764210" lon="-96.450501480">
        <ele>3147.300</ele>
        <time>2020-01-20T19:41:54Z</time>
      </trkpt>
      <trkpt lat="17.119803270" lon="-96.450434480">
        <ele>3147.200</ele>
        <time>2020-01-20T19:41:56Z</time>
      </trkpt>
      <trkpt lat="17.119823290" lon="-96.450394400">
        <ele>3147.100</ele>
        <time>2020-01-20T19:41:57Z</time>
      </trkpt>
      <trkpt lat="17.119843390" lon="-96.450352500">
        <ele>3146.900</ele>
        <time>2020-01-20T19:41:58Z</time>
      </trkpt>
      <trkpt lat="17.119863700" lon="-96.450309710">
        <ele>3146.900</ele>
        <time>2020-01-20T19:41:59Z</time>
      </trkpt>
      <trkpt lat="17.119883370" lon="-96.450262320">
        <ele>3147.300</ele>
        <time>2020-01-20T19:42:00Z</time>
      </trkpt>
      <trkpt lat="17.119900220" lon="-96.450219240">
        <ele>3147.600</ele>
        <time>2020-01-20T19:42:01Z</time>
      </trkpt>
      <trkpt lat="17.119917090" lon="-96.450176920">
        <ele>3147.800</ele>
        <time>2020-01-20T19:42:02Z</time>
      </trkpt>
      <trkpt lat="17.119932600" lon="-96.450133410">
        <ele>3148.100</ele>
        <time>2020-01-20T19:42:03Z</time>
      </trkpt>
      <trkpt lat="17.119947090" lon="-96.450090330">
        <ele>3148.500</ele>
        <time>2020-01-20T19:42:04Z</time>
      </trkpt>
      <trkpt lat="17.119959410" lon="-96.450045040">
        <ele>3148.800</ele>
        <time>2020-01-20T19:42:05Z</time>
      </trkpt>
      <trkpt lat="17.119970290" lon="-96.450003210">
        <ele>3149.000</ele>
        <time>2020-01-20T19:42:06Z</time>
      </trkpt>
      <trkpt lat="17.119978180" lon="-96.449965770">
        <ele>3149.200</ele>
        <time>2020-01-20T19:42:07Z</time>
      </trkpt>
      <trkpt lat="17.119985820" lon="-96.449905510">
        <ele>3149.300</ele>
        <time>2020-01-20T19:42:09Z</time>
      </trkpt>
      <trkpt lat="17.119989490" lon="-96.449860830">
        <ele>3149.600</ele>
        <time>2020-01-20T19:42:11Z</time>
      </trkpt>
      <trkpt lat="17.119997360" lon="-96.449786410">
        <ele>3150.300</ele>
        <time>2020-01-20T19:42:13Z</time>
      </trkpt>
      <trkpt lat="17.119993030" lon="-96.449735870">
        <ele>3150.500</ele>
        <time>2020-01-20T19:42:14Z</time>
      </trkpt>
      <trkpt lat="17.119994980" lon="-96.449685580">
        <ele>3150.800</ele>
        <time>2020-01-20T19:42:15Z</time>
      </trkpt>
      <trkpt lat="17.119997600" lon="-96.449635480">
        <ele>3151.200</ele>
        <time>2020-01-20T19:42:16Z</time>
      </trkpt>
      <trkpt lat="17.119998760" lon="-96.449585210">
        <ele>3151.400</ele>
        <time>2020-01-20T19:42:17Z</time>
      </trkpt>
      <trkpt lat="17.120000570" lon="-96.449537040">
        <ele>3151.500</ele>
        <time>2020-01-20T19:42:18Z</time>
      </trkpt>
      <trkpt lat="17.120005800" lon="-96.449489040">
        <ele>3151.900</ele>
        <time>2020-01-20T19:42:19Z</time>
      </trkpt>
      <trkpt lat="17.120008000" lon="-96.449442700">
        <ele>3152.400</ele>
        <time>2020-01-20T19:42:20Z</time>
      </trkpt>
      <trkpt lat="17.120007980" lon="-96.449399300">
        <ele>3152.700</ele>
        <time>2020-01-20T19:42:21Z</time>
      </trkpt>
      <trkpt lat="17.120011220" lon="-96.449360920">
        <ele>3153.100</ele>
        <time>2020-01-20T19:42:22Z</time>
      </trkpt>
      <trkpt lat="17.120014650" lon="-96.449322980">
        <ele>3153.200</ele>
        <time>2020-01-20T19:42:23Z</time>
      </trkpt>
      <trkpt lat="17.120014530" lon="-96.449253710">
        <ele>3153.000</ele>
        <time>2020-01-20T19:42:25Z</time>
      </trkpt>
      <trkpt lat="17.120012160" lon="-96.449190650">
        <ele>3152.700</ele>
        <time>2020-01-20T19:42:27Z</time>
      </trkpt>
      <trkpt lat="17.120012960" lon="-96.449146330">
        <ele>3152.600</ele>
        <time>2020-01-20T19:42:29Z</time>
      </trkpt>
      <trkpt lat="17.120012330" lon="-96.449104990">
        <ele>3152.500</ele>
        <time>2020-01-20T19:42:31Z</time>
      </trkpt>
      <trkpt lat="17.120012120" lon="-96.449036010">
        <ele>3152.300</ele>
        <time>2020-01-20T19:42:33Z</time>
      </trkpt>
      <trkpt lat="17.120016180" lon="-96.448985450">
        <ele>3152.600</ele>
        <time>2020-01-20T19:42:34Z</time>
      </trkpt>
      <trkpt lat="17.120017310" lon="-96.448931750">
        <ele>3153.000</ele>
        <time>2020-01-20T19:42:35Z</time>
      </trkpt>
      <trkpt lat="17.120020470" lon="-96.448878440">
        <ele>3153.000</ele>
        <time>2020-01-20T19:42:36Z</time>
      </trkpt>
      <trkpt lat="17.120024800" lon="-96.448823330">
        <ele>3153.100</ele>
        <time>2020-01-20T19:42:37Z</time>
      </trkpt>
      <trkpt lat="17.120027450" lon="-96.448764690">
        <ele>3153.000</ele>
        <time>2020-01-20T19:42:38Z</time>
      </trkpt>
      <trkpt lat="17.120031480" lon="-96.448707390">
        <ele>3153.100</ele>
        <time>2020-01-20T19:42:39Z</time>
      </trkpt>
      <trkpt lat="17.120037250" lon="-96.448653160">
        <ele>3153.400</ele>
        <time>2020-01-20T19:42:40Z</time>
      </trkpt>
      <trkpt lat="17.120045480" lon="-96.448596940">
        <ele>3153.200</ele>
        <time>2020-01-20T19:42:41Z</time>
      </trkpt>
      <trkpt lat="17.120059380" lon="-96.448545220">
        <ele>3153.300</ele>
        <time>2020-01-20T19:42:42Z</time>
      </trkpt>
      <trkpt lat="17.120071280" lon="-96.448490640">
        <ele>3153.700</ele>
        <time>2020-01-20T19:42:43Z</time>
      </trkpt>
      <trkpt lat="17.120089570" lon="-96.448439350">
        <ele>3153.900</ele>
        <time>2020-01-20T19:42:44Z</time>
      </trkpt>
      <trkpt lat="17.120112590" lon="-96.448386600">
        <ele>3153.900</ele>
        <time>2020-01-20T19:42:45Z</time>
      </trkpt>
      <trkpt lat="17.120132170" lon="-96.448335720">
        <ele>3153.400</ele>
        <time>2020-01-20T19:42:46Z</time>
      </trkpt>
      <trkpt lat="17.120159550" lon="-96.448289280">
        <ele>3153.400</ele>
        <time>2020-01-20T19:42:47Z</time>
      </trkpt>
      <trkpt lat="17.120188180" lon="-96.448241820">
        <ele>3152.900</ele>
        <time>2020-01-20T19:42:48Z</time>
      </trkpt>
      <trkpt lat="17.120220270" lon="-96.448199310">
        <ele>3152.800</ele>
        <time>2020-01-20T19:42:49Z</time>
      </trkpt>
      <trkpt lat="17.120254040" lon="-96.448155960">
        <ele>3153.300</ele>
        <time>2020-01-20T19:42:50Z</time>
      </trkpt>
      <trkpt lat="17.120292010" lon="-96.448118830">
        <ele>3152.800</ele>
        <time>2020-01-20T19:42:51Z</time>
      </trkpt>
      <trkpt lat="17.120334180" lon="-96.448083300">
        <ele>3152.000</ele>
        <time>2020-01-20T19:42:52Z</time>
      </trkpt>
      <trkpt lat="17.120375690" lon="-96.448049950">
        <ele>3150.900</ele>
        <time>2020-01-20T19:42:53Z</time>
      </trkpt>
      <trkpt lat="17.120417820" lon="-96.448012160">
        <ele>3150.400</ele>
        <time>2020-01-20T19:42:54Z</time>
      </trkpt>
      <trkpt lat="17.120461530" lon="-96.447983270">
        <ele>3150.000</ele>
        <time>2020-01-20T19:42:55Z</time>
      </trkpt>
      <trkpt lat="17.120508880" lon="-96.447942060">
        <ele>3149.900</ele>
        <time>2020-01-20T19:42:56Z</time>
      </trkpt>
      <trkpt lat="17.120555470" lon="-96.447898380">
        <ele>3148.900</ele>
        <time>2020-01-20T19:42:57Z</time>
      </trkpt>
      <trkpt lat="17.120588980" lon="-96.447847320">
        <ele>3148.700</ele>
        <time>2020-01-20T19:42:58Z</time>
      </trkpt>
      <trkpt lat="17.120616340" lon="-96.447792580">
        <ele>3148.400</ele>
        <time>2020-01-20T19:42:59Z</time>
      </trkpt>
      <trkpt lat="17.120630800" lon="-96.447727380">
        <ele>3148.400</ele>
        <time>2020-01-20T19:43:00Z</time>
      </trkpt>
      <trkpt lat="17.120635500" lon="-96.447662230">
        <ele>3147.700</ele>
        <time>2020-01-20T19:43:01Z</time>
      </trkpt>
      <trkpt lat="17.120629190" lon="-96.447594760">
        <ele>3147.800</ele>
        <time>2020-01-20T19:43:02Z</time>
      </trkpt>
      <trkpt lat="17.120610750" lon="-96.447527850">
        <ele>3148.200</ele>
        <time>2020-01-20T19:43:03Z</time>
      </trkpt>
      <trkpt lat="17.120594720" lon="-96.447453810">
        <ele>3149.400</ele>
        <time>2020-01-20T19:43:04Z</time>
      </trkpt>
      <trkpt lat="17.120578820" lon="-96.447384920">
        <ele>3151.100</ele>
        <time>2020-01-20T19:43:05Z</time>
      </trkpt>
      <trkpt lat="17.120575480" lon="-96.447315940">
        <ele>3151.100</ele>
        <time>2020-01-20T19:43:06Z</time>
      </trkpt>
      <trkpt lat="17.120569670" lon="-96.447253050">
        <ele>3151.000</ele>
        <time>2020-01-20T19:43:07Z</time>
      </trkpt>
      <trkpt lat="17.120565890" lon="-96.447183850">
        <ele>3152.500</ele>
        <time>2020-01-20T19:43:08Z</time>
      </trkpt>
      <trkpt lat="17.120568670" lon="-96.447113180">
        <ele>3152.300</ele>
        <time>2020-01-20T19:43:09Z</time>
      </trkpt>
      <trkpt lat="17.120578000" lon="-96.447047240">
        <ele>3152.300</ele>
        <time>2020-01-20T19:43:10Z</time>
      </trkpt>
      <trkpt lat="17.120589970" lon="-96.446982060">
        <ele>3152.400</ele>
        <time>2020-01-20T19:43:11Z</time>
      </trkpt>
      <trkpt lat="17.120609950" lon="-96.446915360">
        <ele>3152.300</ele>
        <time>2020-01-20T19:43:12Z</time>
      </trkpt>
      <trkpt lat="17.120636480" lon="-96.446851480">
        <ele>3152.500</ele>
        <time>2020-01-20T19:43:13Z</time>
      </trkpt>
      <trkpt lat="17.120670890" lon="-96.446791350">
        <ele>3152.700</ele>
        <time>2020-01-20T19:43:14Z</time>
      </trkpt>
      <trkpt lat="17.120710370" lon="-96.446736990">
        <ele>3152.800</ele>
        <time>2020-01-20T19:43:15Z</time>
      </trkpt>
      <trkpt lat="17.120753360" lon="-96.446677210">
        <ele>3152.700</ele>
        <time>2020-01-20T19:43:16Z</time>
      </trkpt>
      <trkpt lat="17.120800380" lon="-96.446615750">
        <ele>3153.300</ele>
        <time>2020-01-20T19:43:17Z</time>
      </trkpt>
      <trkpt lat="17.120855730" lon="-96.446561850">
        <ele>3153.600</ele>
        <time>2020-01-20T19:43:18Z</time>
      </trkpt>
      <trkpt lat="17.120910000" lon="-96.446507020">
        <ele>3152.300</ele>
        <time>2020-01-20T19:43:19Z</time>
      </trkpt>
      <trkpt lat="17.120972660" lon="-96.446457960">
        <ele>3152.700</ele>
        <time>2020-01-20T19:43:20Z</time>
      </trkpt>
      <trkpt lat="17.121032580" lon="-96.446412530">
        <ele>3152.400</ele>
        <time>2020-01-20T19:43:21Z</time>
      </trkpt>
      <trkpt lat="17.121087260" lon="-96.446374030">
        <ele>3151.900</ele>
        <time>2020-01-20T19:43:22Z</time>
      </trkpt>
      <trkpt lat="17.121145100" lon="-96.446332060">
        <ele>3151.500</ele>
        <time>2020-01-20T19:43:23Z</time>
      </trkpt>
      <trkpt lat="17.121200290" lon="-96.446283240">
        <ele>3151.300</ele>
        <time>2020-01-20T19:43:24Z</time>
      </trkpt>
      <trkpt lat="17.121260300" lon="-96.446239150">
        <ele>3150.500</ele>
        <time>2020-01-20T19:43:25Z</time>
      </trkpt>
      <trkpt lat="17.121320780" lon="-96.446193670">
        <ele>3150.100</ele>
        <time>2020-01-20T19:43:26Z</time>
      </trkpt>
      <trkpt lat="17.121383650" lon="-96.446151980">
        <ele>3149.400</ele>
        <time>2020-01-20T19:43:27Z</time>
      </trkpt>
      <trkpt lat="17.121445480" lon="-96.446115020">
        <ele>3149.100</ele>
        <time>2020-01-20T19:43:28Z</time>
      </trkpt>
      <trkpt lat="17.121502520" lon="-96.446075000">
        <ele>3148.700</ele>
        <time>2020-01-20T19:43:29Z</time>
      </trkpt>
      <trkpt lat="17.121564690" lon="-96.446033750">
        <ele>3148.100</ele>
        <time>2020-01-20T19:43:30Z</time>
      </trkpt>
      <trkpt lat="17.121623110" lon="-96.445992820">
        <ele>3148.000</ele>
        <time>2020-01-20T19:43:31Z</time>
      </trkpt>
      <trkpt lat="17.121686650" lon="-96.445955280">
        <ele>3147.700</ele>
        <time>2020-01-20T19:43:32Z</time>
      </trkpt>
      <trkpt lat="17.121751240" lon="-96.445924650">
        <ele>3147.600</ele>
        <time>2020-01-20T19:43:33Z</time>
      </trkpt>
      <trkpt lat="17.121818850" lon="-96.445899230">
        <ele>3146.800</ele>
        <time>2020-01-20T19:43:34Z</time>
      </trkpt>
      <trkpt lat="17.121885100" lon="-96.445878440">
        <ele>3146.200</ele>
        <time>2020-01-20T19:43:35Z</time>
      </trkpt>
      <trkpt lat="17.121944190" lon="-96.445861410">
        <ele>3145.700</ele>
        <time>2020-01-20T19:43:36Z</time>
      </trkpt>
      <trkpt lat="17.122001310" lon="-96.445843080">
        <ele>3145.700</ele>
        <time>2020-01-20T19:43:37Z</time>
      </trkpt>
      <trkpt lat="17.122067170" lon="-96.445834360">
        <ele>3145.400</ele>
        <time>2020-01-20T19:43:38Z</time>
      </trkpt>
      <trkpt lat="17.122138320" lon="-96.445830210">
        <ele>3146.100</ele>
        <time>2020-01-20T19:43:39Z</time>
      </trkpt>
      <trkpt lat="17.122199400" lon="-96.445819580">
        <ele>3145.900</ele>
        <time>2020-01-20T19:43:40Z</time>
      </trkpt>
      <trkpt lat="17.122259110" lon="-96.445806740">
        <ele>3145.900</ele>
        <time>2020-01-20T19:43:41Z</time>
      </trkpt>
      <trkpt lat="17.122319840" lon="-96.445795710">
        <ele>3146.100</ele>
        <time>2020-01-20T19:43:42Z</time>
      </trkpt>
      <trkpt lat="17.122375930" lon="-96.445777000">
        <ele>3146.100</ele>
        <time>2020-01-20T19:43:43Z</time>
      </trkpt>
      <trkpt lat="17.122442190" lon="-96.445762320">
        <ele>3145.100</ele>
        <time>2020-01-20T19:43:44Z</time>
      </trkpt>
      <trkpt lat="17.122499830" lon="-96.445738470">
        <ele>3144.600</ele>
        <time>2020-01-20T19:43:45Z</time>
      </trkpt>
      <trkpt lat="17.122558860" lon="-96.445711030">
        <ele>3144.300</ele>
        <time>2020-01-20T19:43:46Z</time>
      </trkpt>
      <trkpt lat="17.122613410" lon="-96.445685760">
        <ele>3144.000</ele>
        <time>2020-01-20T19:43:47Z</time>
      </trkpt>
      <trkpt lat="17.122674320" lon="-96.445665220">
        <ele>3143.700</ele>
        <time>2020-01-20T19:43:48Z</time>
      </trkpt>
      <trkpt lat="17.122736100" lon="-96.445648220">
        <ele>3143.900</ele>
        <time>2020-01-20T19:43:49Z</time>
      </trkpt>
      <trkpt lat="17.122794370" lon="-96.445624470">
        <ele>3143.700</ele>
        <time>2020-01-20T19:43:50Z</time>
      </trkpt>
      <trkpt lat="17.122854710" lon="-96.445603590">
        <ele>3144.000</ele>
        <time>2020-01-20T19:43:51Z</time>
      </trkpt>
      <trkpt lat="17.122917120" lon="-96.445579630">
        <ele>3142.100</ele>
        <time>2020-01-20T19:43:52Z</time>
      </trkpt>
      <trkpt lat="17.122978560" lon="-96.445556320">
        <ele>3142.000</ele>
        <time>2020-01-20T19:43:53Z</time>
      </trkpt>
      <trkpt lat="17.123036350" lon="-96.445537940">
        <ele>3140.900</ele>
        <time>2020-01-20T19:43:54Z</time>
      </trkpt>
      <trkpt lat="17.123085600" lon="-96.445495920">
        <ele>3142.400</ele>
        <time>2020-01-20T19:43:55Z</time>
      </trkpt>
      <trkpt lat="17.123139250" lon="-96.445466170">
        <ele>3142.000</ele>
        <time>2020-01-20T19:43:56Z</time>
      </trkpt>
      <trkpt lat="17.123187920" lon="-96.445433110">
        <ele>3141.600</ele>
        <time>2020-01-20T19:43:57Z</time>
      </trkpt>
      <trkpt lat="17.123239390" lon="-96.445404030">
        <ele>3142.000</ele>
        <time>2020-01-20T19:43:58Z</time>
      </trkpt>
      <trkpt lat="17.123290000" lon="-96.445373500">
        <ele>3141.900</ele>
        <time>2020-01-20T19:43:59Z</time>
      </trkpt>
      <trkpt lat="17.123344370" lon="-96.445344900">
        <ele>3141.700</ele>
        <time>2020-01-20T19:44:00Z</time>
      </trkpt>
      <trkpt lat="17.123398940" lon="-96.445319260">
        <ele>3141.600</ele>
        <time>2020-01-20T19:44:01Z</time>
      </trkpt>
      <trkpt lat="17.123449540" lon="-96.445288030">
        <ele>3141.600</ele>
        <time>2020-01-20T19:44:02Z</time>
      </trkpt>
      <trkpt lat="17.123503400" lon="-96.445260630">
        <ele>3141.500</ele>
        <time>2020-01-20T19:44:03Z</time>
      </trkpt>
      <trkpt lat="17.123558870" lon="-96.445235800">
        <ele>3141.800</ele>
        <time>2020-01-20T19:44:04Z</time>
      </trkpt>
      <trkpt lat="17.123613510" lon="-96.445210010">
        <ele>3142.300</ele>
        <time>2020-01-20T19:44:05Z</time>
      </trkpt>
      <trkpt lat="17.123666050" lon="-96.445185510">
        <ele>3142.700</ele>
        <time>2020-01-20T19:44:06Z</time>
      </trkpt>
      <trkpt lat="17.123717310" lon="-96.445162850">
        <ele>3142.300</ele>
        <time>2020-01-20T19:44:07Z</time>
      </trkpt>
      <trkpt lat="17.123766920" lon="-96.445144980">
        <ele>3142.500</ele>
        <time>2020-01-20T19:44:08Z</time>
      </trkpt>
      <trkpt lat="17.123813730" lon="-96.445124830">
        <ele>3141.600</ele>
        <time>2020-01-20T19:44:09Z</time>
      </trkpt>
      <trkpt lat="17.123852780" lon="-96.445103950">
        <ele>3141.900</ele>
        <time>2020-01-20T19:44:10Z</time>
      </trkpt>
      <trkpt lat="17.123890650" lon="-96.445081810">
        <ele>3141.600</ele>
        <time>2020-01-20T19:44:11Z</time>
      </trkpt>
      <trkpt lat="17.123929070" lon="-96.445064160">
        <ele>3141.300</ele>
        <time>2020-01-20T19:44:12Z</time>
      </trkpt>
      <trkpt lat="17.123964390" lon="-96.445047520">
        <ele>3140.500</ele>
        <time>2020-01-20T19:44:13Z</time>
      </trkpt>
      <trkpt lat="17.123999110" lon="-96.445026600">
        <ele>3140.300</ele>
        <time>2020-01-20T19:44:14Z</time>
      </trkpt>
      <trkpt lat="17.124050570" lon="-96.444994440">
        <ele>3139.400</ele>
        <time>2020-01-20T19:44:16Z</time>
      </trkpt>
      <trkpt lat="17.124091500" lon="-96.444965780">
        <ele>3139.500</ele>
        <time>2020-01-20T19:44:18Z</time>
      </trkpt>
      <trkpt lat="17.124134940" lon="-96.444933520">
        <ele>3139.800</ele>
        <time>2020-01-20T19:44:20Z</time>
      </trkpt>
      <trkpt lat="17.124182970" lon="-96.444900760">
        <ele>3139.500</ele>
        <time>2020-01-20T19:44:22Z</time>
      </trkpt>
      <trkpt lat="17.124228680" lon="-96.444867080">
        <ele>3138.300</ele>
        <time>2020-01-20T19:44:24Z</time>
      </trkpt>
      <trkpt lat="17.124267410" lon="-96.444836630">
        <ele>3136.300</ele>
        <time>2020-01-20T19:44:26Z</time>
      </trkpt>
      <trkpt lat="17.124311200" lon="-96.444804520">
        <ele>3134.900</ele>
        <time>2020-01-20T19:44:28Z</time>
      </trkpt>
      <trkpt lat="17.124345940" lon="-96.444770360">
        <ele>3135.800</ele>
        <time>2020-01-20T19:44:30Z</time>
      </trkpt>
      <trkpt lat="17.124382030" lon="-96.444735510">
        <ele>3136.700</ele>
        <time>2020-01-20T19:44:33Z</time>
      </trkpt>
      <trkpt lat="17.124415360" lon="-96.444701780">
        <ele>3135.400</ele>
        <time>2020-01-20T19:44:36Z</time>
      </trkpt>
      <trkpt lat="17.124444950" lon="-96.444665310">
        <ele>3135.300</ele>
        <time>2020-01-20T19:44:39Z</time>
      </trkpt>
      <trkpt lat="17.124480480" lon="-96.444627420">
        <ele>3134.300</ele>
        <time>2020-01-20T19:44:42Z</time>
      </trkpt>
      <trkpt lat="17.124527520" lon="-96.444592240">
        <ele>3133.200</ele>
        <time>2020-01-20T19:44:44Z</time>
      </trkpt>
      <trkpt lat="17.124555780" lon="-96.444568380">
        <ele>3131.100</ele>
        <time>2020-01-20T19:44:45Z</time>
      </trkpt>
      <trkpt lat="17.124584090" lon="-96.444544680">
        <ele>3131.000</ele>
        <time>2020-01-20T19:44:46Z</time>
      </trkpt>
      <trkpt lat="17.124636150" lon="-96.444497050">
        <ele>3128.900</ele>
        <time>2020-01-20T19:44:48Z</time>
      </trkpt>
      <trkpt lat="17.124679080" lon="-96.444456520">
        <ele>3129.000</ele>
        <time>2020-01-20T19:44:50Z</time>
      </trkpt>
      <trkpt lat="17.124712560" lon="-96.444416170">
        <ele>3128.400</ele>
        <time>2020-01-20T19:44:52Z</time>
      </trkpt>
      <trkpt lat="17.124749400" lon="-96.444372630">
        <ele>3128.800</ele>
        <time>2020-01-20T19:44:54Z</time>
      </trkpt>
      <trkpt lat="17.124789180" lon="-96.444333540">
        <ele>3128.900</ele>
        <time>2020-01-20T19:44:56Z</time>
      </trkpt>
      <trkpt lat="17.124838180" lon="-96.444290250">
        <ele>3128.200</ele>
        <time>2020-01-20T19:44:58Z</time>
      </trkpt>
      <trkpt lat="17.124891710" lon="-96.444240200">
        <ele>3127.100</ele>
        <time>2020-01-20T19:45:00Z</time>
      </trkpt>
      <trkpt lat="17.124920140" lon="-96.444216160">
        <ele>3127.400</ele>
        <time>2020-01-20T19:45:01Z</time>
      </trkpt>
      <trkpt lat="17.124948500" lon="-96.444189180">
        <ele>3126.200</ele>
        <time>2020-01-20T19:45:02Z</time>
      </trkpt>
      <trkpt lat="17.124974590" lon="-96.444160360">
        <ele>3125.900</ele>
        <time>2020-01-20T19:45:03Z</time>
      </trkpt>
      <trkpt lat="17.125001550" lon="-96.444131240">
        <ele>3125.800</ele>
        <time>2020-01-20T19:45:04Z</time>
      </trkpt>
      <trkpt lat="17.125027990" lon="-96.444102180">
        <ele>3125.800</ele>
        <time>2020-01-20T19:45:05Z</time>
      </trkpt>
      <trkpt lat="17.125074170" lon="-96.444055620">
        <ele>3125.500</ele>
        <time>2020-01-20T19:45:07Z</time>
      </trkpt>
      <trkpt lat="17.125110650" lon="-96.444018600">
        <ele>3125.700</ele>
        <time>2020-01-20T19:45:09Z</time>
      </trkpt>
      <trkpt lat="17.125137020" lon="-96.443981110">
        <ele>3127.600</ele>
        <time>2020-01-20T19:45:11Z</time>
      </trkpt>
      <trkpt lat="17.125148450" lon="-96.443942800">
        <ele>3127.100</ele>
        <time>2020-01-20T19:45:13Z</time>
      </trkpt>
      <trkpt lat="17.125128770" lon="-96.443910310">
        <ele>3130.500</ele>
        <time>2020-01-20T19:46:15Z</time>
      </trkpt>
      <trkpt lat="17.125108580" lon="-96.443861800">
        <ele>3129.100</ele>
        <time>2020-01-20T19:46:18Z</time>
      </trkpt>
      <trkpt lat="17.125088280" lon="-96.443828660">
        <ele>3127.300</ele>
        <time>2020-01-20T19:46:20Z</time>
      </trkpt>
      <trkpt lat="17.125094330" lon="-96.443789170">
        <ele>3129.500</ele>
        <time>2020-01-20T19:48:18Z</time>
      </trkpt>
      <trkpt lat="17.125053930" lon="-96.443779670">
        <ele>3121.400</ele>
        <time>2020-01-20T19:51:45Z</time>
      </trkpt>
      <trkpt lat="17.125015640" lon="-96.443776630">
        <ele>3124.100</ele>
        <time>2020-01-20T19:52:14Z</time>
      </trkpt>
      <trkpt lat="17.124974890" lon="-96.443764090">
        <ele>3126.500</ele>
        <time>2020-01-20T19:52:17Z</time>
      </trkpt>
      <trkpt lat="17.124932480" lon="-96.443748960">
        <ele>3126.600</ele>
        <time>2020-01-20T19:52:20Z</time>
      </trkpt>
      <trkpt lat="17.124889750" lon="-96.443728720">
        <ele>3126.900</ele>
        <time>2020-01-20T19:52:23Z</time>
      </trkpt>
      <trkpt lat="17.124850540" lon="-96.443716580">
        <ele>3126.900</ele>
        <time>2020-01-20T19:52:26Z</time>
      </trkpt>
      <trkpt lat="17.124801180" lon="-96.443710450">
        <ele>3128.100</ele>
        <time>2020-01-20T19:52:29Z</time>
      </trkpt>
      <trkpt lat="17.124760690" lon="-96.443691640">
        <ele>3127.500</ele>
        <time>2020-01-20T19:52:35Z</time>
      </trkpt>
      <trkpt lat="17.124728030" lon="-96.443672020">
        <ele>3127.300</ele>
        <time>2020-01-20T19:52:37Z</time>
      </trkpt>
      <trkpt lat="17.124693470" lon="-96.443653470">
        <ele>3126.000</ele>
        <time>2020-01-20T19:52:39Z</time>
      </trkpt>
      <trkpt lat="17.124655720" lon="-96.443633020">
        <ele>3125.400</ele>
        <time>2020-01-20T19:52:41Z</time>
      </trkpt>
      <trkpt lat="17.124619780" lon="-96.443620780">
        <ele>3124.200</ele>
        <time>2020-01-20T19:52:43Z</time>
      </trkpt>
      <trkpt lat="17.124561300" lon="-96.443606870">
        <ele>3123.500</ele>
        <time>2020-01-20T19:52:46Z</time>
      </trkpt>
      <trkpt lat="17.124520600" lon="-96.443610880">
        <ele>3123.900</ele>
        <time>2020-01-20T19:52:48Z</time>
      </trkpt>
      <trkpt lat="17.124463400" lon="-96.443613140">
        <ele>3123.500</ele>
        <time>2020-01-20T19:52:51Z</time>
      </trkpt>
      <trkpt lat="17.124420260" lon="-96.443621010">
        <ele>3122.100</ele>
        <time>2020-01-20T19:52:53Z</time>
      </trkpt>
      <trkpt lat="17.124370940" lon="-96.443604270">
        <ele>3123.300</ele>
        <time>2020-01-20T19:52:56Z</time>
      </trkpt>
      <trkpt lat="17.124331540" lon="-96.443587670">
        <ele>3124.100</ele>
        <time>2020-01-20T19:52:58Z</time>
      </trkpt>
      <trkpt lat="17.124283870" lon="-96.443573120">
        <ele>3125.800</ele>
        <time>2020-01-20T19:53:01Z</time>
      </trkpt>
      <trkpt lat="17.124243270" lon="-96.443561520">
        <ele>3124.100</ele>
        <time>2020-01-20T19:53:03Z</time>
      </trkpt>
      <trkpt lat="17.124186970" lon="-96.443556380">
        <ele>3122.400</ele>
        <time>2020-01-20T19:53:06Z</time>
      </trkpt>
      <trkpt lat="17.124139740" lon="-96.443548260">
        <ele>3123.400</ele>
        <time>2020-01-20T19:53:09Z</time>
      </trkpt>
      <trkpt lat="17.124099110" lon="-96.443515690">
        <ele>3123.400</ele>
        <time>2020-01-20T19:53:13Z</time>
      </trkpt>
      <trkpt lat="17.124081820" lon="-96.443481890">
        <ele>3125.500</ele>
        <time>2020-01-20T19:53:15Z</time>
      </trkpt>
      <trkpt lat="17.124057200" lon="-96.443435830">
        <ele>3126.400</ele>
        <time>2020-01-20T19:53:18Z</time>
      </trkpt>
      <trkpt lat="17.124024390" lon="-96.443404340">
        <ele>3127.800</ele>
        <time>2020-01-20T19:53:22Z</time>
      </trkpt>
      <trkpt lat="17.123995890" lon="-96.443374260">
        <ele>3126.200</ele>
        <time>2020-01-20T19:53:24Z</time>
      </trkpt>
      <trkpt lat="17.123971920" lon="-96.443341110">
        <ele>3126.500</ele>
        <time>2020-01-20T19:53:26Z</time>
      </trkpt>
      <trkpt lat="17.123935290" lon="-96.443310270">
        <ele>3128.100</ele>
        <time>2020-01-20T19:53:29Z</time>
      </trkpt>
      <trkpt lat="17.123897290" lon="-96.443284830">
        <ele>3129.100</ele>
        <time>2020-01-20T19:53:31Z</time>
      </trkpt>
      <trkpt lat="17.123849830" lon="-96.443260470">
        <ele>3129.000</ele>
        <time>2020-01-20T19:53:33Z</time>
      </trkpt>
      <trkpt lat="17.123809780" lon="-96.443238990">
        <ele>3128.300</ele>
        <time>2020-01-20T19:53:35Z</time>
      </trkpt>
      <trkpt lat="17.123765780" lon="-96.443216310">
        <ele>3126.300</ele>
        <time>2020-01-20T19:53:37Z</time>
      </trkpt>
      <trkpt lat="17.123717020" lon="-96.443189910">
        <ele>3126.000</ele>
        <time>2020-01-20T19:53:39Z</time>
      </trkpt>
      <trkpt lat="17.123680660" lon="-96.443172700">
        <ele>3124.500</ele>
        <time>2020-01-20T19:53:41Z</time>
      </trkpt>
      <trkpt lat="17.123637830" lon="-96.443159080">
        <ele>3122.000</ele>
        <time>2020-01-20T19:53:43Z</time>
      </trkpt>
      <trkpt lat="17.123591430" lon="-96.443164720">
        <ele>3120.100</ele>
        <time>2020-01-20T19:53:45Z</time>
      </trkpt>
      <trkpt lat="17.123533870" lon="-96.443164420">
        <ele>3116.800</ele>
        <time>2020-01-20T19:53:47Z</time>
      </trkpt>
      <trkpt lat="17.123489310" lon="-96.443164850">
        <ele>3113.800</ele>
        <time>2020-01-20T19:53:48Z</time>
      </trkpt>
      <trkpt lat="17.123421170" lon="-96.443171980">
        <ele>3114.100</ele>
        <time>2020-01-20T19:53:54Z</time>
      </trkpt>
      <trkpt lat="17.123384040" lon="-96.443164700">
        <ele>3112.900</ele>
        <time>2020-01-20T19:53:55Z</time>
      </trkpt>
      <trkpt lat="17.123330450" lon="-96.443161890">
        <ele>3111.900</ele>
        <time>2020-01-20T19:53:57Z</time>
      </trkpt>
      <trkpt lat="17.123272630" lon="-96.443147450">
        <ele>3111.900</ele>
        <time>2020-01-20T19:53:59Z</time>
      </trkpt>
      <trkpt lat="17.123224710" lon="-96.443158740">
        <ele>3109.600</ele>
        <time>2020-01-20T19:54:01Z</time>
      </trkpt>
      <trkpt lat="17.123169260" lon="-96.443176790">
        <ele>3109.200</ele>
        <time>2020-01-20T19:54:03Z</time>
      </trkpt>
      <trkpt lat="17.123116870" lon="-96.443196120">
        <ele>3111.300</ele>
        <time>2020-01-20T19:54:05Z</time>
      </trkpt>
      <trkpt lat="17.123075020" lon="-96.443204360">
        <ele>3111.900</ele>
        <time>2020-01-20T19:54:07Z</time>
      </trkpt>
      <trkpt lat="17.123018650" lon="-96.443211790">
        <ele>3112.000</ele>
        <time>2020-01-20T19:54:09Z</time>
      </trkpt>
      <trkpt lat="17.122968790" lon="-96.443222300">
        <ele>3110.700</ele>
        <time>2020-01-20T19:54:11Z</time>
      </trkpt>
      <trkpt lat="17.122916110" lon="-96.443234300">
        <ele>3108.900</ele>
        <time>2020-01-20T19:54:13Z</time>
      </trkpt>
      <trkpt lat="17.122877880" lon="-96.443244350">
        <ele>3109.600</ele>
        <time>2020-01-20T19:54:14Z</time>
      </trkpt>
      <trkpt lat="17.122838480" lon="-96.443248720">
        <ele>3111.100</ele>
        <time>2020-01-20T19:54:15Z</time>
      </trkpt>
      <trkpt lat="17.122780690" lon="-96.443253640">
        <ele>3111.600</ele>
        <time>2020-01-20T19:54:17Z</time>
      </trkpt>
      <trkpt lat="17.122720500" lon="-96.443261250">
        <ele>3113.300</ele>
        <time>2020-01-20T19:54:19Z</time>
      </trkpt>
      <trkpt lat="17.122666760" lon="-96.443261560">
        <ele>3114.000</ele>
        <time>2020-01-20T19:54:21Z</time>
      </trkpt>
      <trkpt lat="17.122618650" lon="-96.443256360">
        <ele>3115.000</ele>
        <time>2020-01-20T19:54:23Z</time>
      </trkpt>
      <trkpt lat="17.122566760" lon="-96.443241810">
        <ele>3113.800</ele>
        <time>2020-01-20T19:54:25Z</time>
      </trkpt>
      <trkpt lat="17.122512720" lon="-96.443218310">
        <ele>3113.900</ele>
        <time>2020-01-20T19:54:27Z</time>
      </trkpt>
      <trkpt lat="17.122460830" lon="-96.443192570">
        <ele>3112.700</ele>
        <time>2020-01-20T19:54:29Z</time>
      </trkpt>
      <trkpt lat="17.122414870" lon="-96.443172940">
        <ele>3113.300</ele>
        <time>2020-01-20T19:54:32Z</time>
      </trkpt>
      <trkpt lat="17.122375370" lon="-96.443159690">
        <ele>3113.700</ele>
        <time>2020-01-20T19:54:36Z</time>
      </trkpt>
      <trkpt lat="17.122338270" lon="-96.443147660">
        <ele>3110.500</ele>
        <time>2020-01-20T19:54:39Z</time>
      </trkpt>
      <trkpt lat="17.122293910" lon="-96.443119920">
        <ele>3109.400</ele>
        <time>2020-01-20T19:54:42Z</time>
      </trkpt>
      <trkpt lat="17.122260580" lon="-96.443104200">
        <ele>3108.900</ele>
        <time>2020-01-20T19:54:44Z</time>
      </trkpt>
      <trkpt lat="17.122222960" lon="-96.443094460">
        <ele>3110.400</ele>
        <time>2020-01-20T19:54:47Z</time>
      </trkpt>
      <trkpt lat="17.122182130" lon="-96.443084670">
        <ele>3112.300</ele>
        <time>2020-01-20T19:54:51Z</time>
      </trkpt>
      <trkpt lat="17.122135750" lon="-96.443084240">
        <ele>3111.400</ele>
        <time>2020-01-20T19:54:55Z</time>
      </trkpt>
      <trkpt lat="17.122091850" lon="-96.443082240">
        <ele>3106.800</ele>
        <time>2020-01-20T19:54:59Z</time>
      </trkpt>
      <trkpt lat="17.122043550" lon="-96.443085930">
        <ele>3103.200</ele>
        <time>2020-01-20T19:55:02Z</time>
      </trkpt>
      <trkpt lat="17.121995150" lon="-96.443077670">
        <ele>3102.800</ele>
        <time>2020-01-20T19:55:05Z</time>
      </trkpt>
      <trkpt lat="17.121953990" lon="-96.443053240">
        <ele>3102.000</ele>
        <time>2020-01-20T19:55:08Z</time>
      </trkpt>
      <trkpt lat="17.121914640" lon="-96.443029330">
        <ele>3103.100</ele>
        <time>2020-01-20T19:55:11Z</time>
      </trkpt>
      <trkpt lat="17.121874180" lon="-96.443010870">
        <ele>3101.900</ele>
        <time>2020-01-20T19:55:14Z</time>
      </trkpt>
      <trkpt lat="17.121826710" lon="-96.443001580">
        <ele>3101.600</ele>
        <time>2020-01-20T19:55:17Z</time>
      </trkpt>
      <trkpt lat="17.121788610" lon="-96.442991870">
        <ele>3101.900</ele>
        <time>2020-01-20T19:55:20Z</time>
      </trkpt>
      <trkpt lat="17.121748550" lon="-96.442979430">
        <ele>3103.500</ele>
        <time>2020-01-20T19:55:23Z</time>
      </trkpt>
      <trkpt lat="17.121702760" lon="-96.442957140">
        <ele>3107.300</ele>
        <time>2020-01-20T19:55:27Z</time>
      </trkpt>
      <trkpt lat="17.121665020" lon="-96.442935620">
        <ele>3106.800</ele>
        <time>2020-01-20T19:55:30Z</time>
      </trkpt>
      <trkpt lat="17.121635650" lon="-96.442912100">
        <ele>3106.600</ele>
        <time>2020-01-20T19:55:32Z</time>
      </trkpt>
      <trkpt lat="17.121606390" lon="-96.442885090">
        <ele>3105.900</ele>
        <time>2020-01-20T19:55:34Z</time>
      </trkpt>
      <trkpt lat="17.121560580" lon="-96.442860260">
        <ele>3107.000</ele>
        <time>2020-01-20T19:55:37Z</time>
      </trkpt>
      <trkpt lat="17.121519960" lon="-96.442852300">
        <ele>3106.800</ele>
        <time>2020-01-20T19:55:39Z</time>
      </trkpt>
      <trkpt lat="17.121480900" lon="-96.442845840">
        <ele>3105.900</ele>
        <time>2020-01-20T19:55:41Z</time>
      </trkpt>
      <trkpt lat="17.121436170" lon="-96.442841670">
        <ele>3106.200</ele>
        <time>2020-01-20T19:55:44Z</time>
      </trkpt>
      <trkpt lat="17.121388880" lon="-96.442819240">
        <ele>3107.600</ele>
        <time>2020-01-20T19:55:47Z</time>
      </trkpt>
      <trkpt lat="17.121357340" lon="-96.442800000">
        <ele>3106.800</ele>
        <time>2020-01-20T19:55:49Z</time>
      </trkpt>
      <trkpt lat="17.121319080" lon="-96.442783950">
        <ele>3105.500</ele>
        <time>2020-01-20T19:55:51Z</time>
      </trkpt>
      <trkpt lat="17.121281330" lon="-96.442778880">
        <ele>3103.900</ele>
        <time>2020-01-20T19:55:53Z</time>
      </trkpt>
      <trkpt lat="17.121229940" lon="-96.442773720">
        <ele>3105.000</ele>
        <time>2020-01-20T19:55:56Z</time>
      </trkpt>
      <trkpt lat="17.121191800" lon="-96.442770700">
        <ele>3103.600</ele>
        <time>2020-01-20T19:55:58Z</time>
      </trkpt>
      <trkpt lat="17.121145030" lon="-96.442758020">
        <ele>3102.500</ele>
        <time>2020-01-20T19:56:01Z</time>
      </trkpt>
      <trkpt lat="17.121100490" lon="-96.442728130">
        <ele>3102.900</ele>
        <time>2020-01-20T19:56:03Z</time>
      </trkpt>
      <trkpt lat="17.121062040" lon="-96.442692840">
        <ele>3103.100</ele>
        <time>2020-01-20T19:56:05Z</time>
      </trkpt>
      <trkpt lat="17.121045380" lon="-96.442646250">
        <ele>3104.600</ele>
        <time>2020-01-20T19:56:06Z</time>
      </trkpt>
      <trkpt lat="17.121005040" lon="-96.442581040">
        <ele>3105.200</ele>
        <time>2020-01-20T19:56:08Z</time>
      </trkpt>
      <trkpt lat="17.120991230" lon="-96.442545970">
        <ele>3105.100</ele>
        <time>2020-01-20T19:56:09Z</time>
      </trkpt>
      <trkpt lat="17.120954590" lon="-96.442511030">
        <ele>3103.800</ele>
        <time>2020-01-20T19:56:11Z</time>
      </trkpt>
      <trkpt lat="17.120931920" lon="-96.442472280">
        <ele>3100.600</ele>
        <time>2020-01-20T19:56:13Z</time>
      </trkpt>
      <trkpt lat="17.120910970" lon="-96.442424710">
        <ele>3101.200</ele>
        <time>2020-01-20T19:56:15Z</time>
      </trkpt>
      <trkpt lat="17.120894410" lon="-96.442383800">
        <ele>3099.800</ele>
        <time>2020-01-20T19:56:17Z</time>
      </trkpt>
      <trkpt lat="17.120857940" lon="-96.442345090">
        <ele>3099.800</ele>
        <time>2020-01-20T19:56:19Z</time>
      </trkpt>
      <trkpt lat="17.120815460" lon="-96.442312040">
        <ele>3100.800</ele>
        <time>2020-01-20T19:56:21Z</time>
      </trkpt>
      <trkpt lat="17.120773000" lon="-96.442279970">
        <ele>3097.600</ele>
        <time>2020-01-20T19:56:23Z</time>
      </trkpt>
      <trkpt lat="17.120724950" lon="-96.442251330">
        <ele>3096.600</ele>
        <time>2020-01-20T19:56:25Z</time>
      </trkpt>
      <trkpt lat="17.120673060" lon="-96.442242390">
        <ele>3097.000</ele>
        <time>2020-01-20T19:56:27Z</time>
      </trkpt>
      <trkpt lat="17.120615740" lon="-96.442227690">
        <ele>3097.400</ele>
        <time>2020-01-20T19:56:29Z</time>
      </trkpt>
      <trkpt lat="17.120558290" lon="-96.442221340">
        <ele>3099.100</ele>
        <time>2020-01-20T19:56:31Z</time>
      </trkpt>
      <trkpt lat="17.120510490" lon="-96.442227190">
        <ele>3100.000</ele>
        <time>2020-01-20T19:56:33Z</time>
      </trkpt>
      <trkpt lat="17.120462390" lon="-96.442224500">
        <ele>3099.200</ele>
        <time>2020-01-20T19:56:35Z</time>
      </trkpt>
      <trkpt lat="17.120408300" lon="-96.442216490">
        <ele>3097.700</ele>
        <time>2020-01-20T19:56:37Z</time>
      </trkpt>
      <trkpt lat="17.120344000" lon="-96.442206690">
        <ele>3095.600</ele>
        <time>2020-01-20T19:56:39Z</time>
      </trkpt>
      <trkpt lat="17.120286550" lon="-96.442196550">
        <ele>3093.100</ele>
        <time>2020-01-20T19:56:41Z</time>
      </trkpt>
      <trkpt lat="17.120232490" lon="-96.442186090">
        <ele>3092.100</ele>
        <time>2020-01-20T19:56:43Z</time>
      </trkpt>
      <trkpt lat="17.120187930" lon="-96.442180460">
        <ele>3090.600</ele>
        <time>2020-01-20T19:56:45Z</time>
      </trkpt>
      <trkpt lat="17.120138980" lon="-96.442173370">
        <ele>3089.300</ele>
        <time>2020-01-20T19:56:47Z</time>
      </trkpt>
      <trkpt lat="17.120102080" lon="-96.442166290">
        <ele>3087.700</ele>
        <time>2020-01-20T19:56:49Z</time>
      </trkpt>
      <trkpt lat="17.120057060" lon="-96.442154050">
        <ele>3088.400</ele>
        <time>2020-01-20T19:56:51Z</time>
      </trkpt>
      <trkpt lat="17.120015980" lon="-96.442148430">
        <ele>3089.000</ele>
        <time>2020-01-20T19:56:53Z</time>
      </trkpt>
      <trkpt lat="17.119971860" lon="-96.442142530">
        <ele>3088.400</ele>
        <time>2020-01-20T19:56:55Z</time>
      </trkpt>
      <trkpt lat="17.119923740" lon="-96.442129740">
        <ele>3088.900</ele>
        <time>2020-01-20T19:56:57Z</time>
      </trkpt>
      <trkpt lat="17.119875700" lon="-96.442124090">
        <ele>3088.300</ele>
        <time>2020-01-20T19:56:59Z</time>
      </trkpt>
      <trkpt lat="17.119824790" lon="-96.442111410">
        <ele>3088.100</ele>
        <time>2020-01-20T19:57:01Z</time>
      </trkpt>
      <trkpt lat="17.119773390" lon="-96.442100810">
        <ele>3088.700</ele>
        <time>2020-01-20T19:57:03Z</time>
      </trkpt>
      <trkpt lat="17.119726780" lon="-96.442083550">
        <ele>3089.300</ele>
        <time>2020-01-20T19:57:05Z</time>
      </trkpt>
      <trkpt lat="17.119684360" lon="-96.442066860">
        <ele>3088.700</ele>
        <time>2020-01-20T19:57:07Z</time>
      </trkpt>
      <trkpt lat="17.119640150" lon="-96.442060800">
        <ele>3086.700</ele>
        <time>2020-01-20T19:57:09Z</time>
      </trkpt>
      <trkpt lat="17.119590690" lon="-96.442048020">
        <ele>3084.800</ele>
        <time>2020-01-20T19:57:11Z</time>
      </trkpt>
      <trkpt lat="17.119547400" lon="-96.442033860">
        <ele>3085.500</ele>
        <time>2020-01-20T19:57:13Z</time>
      </trkpt>
      <trkpt lat="17.119495690" lon="-96.442013890">
        <ele>3086.000</ele>
        <time>2020-01-20T19:57:15Z</time>
      </trkpt>
      <trkpt lat="17.119448790" lon="-96.441991560">
        <ele>3086.500</ele>
        <time>2020-01-20T19:57:17Z</time>
      </trkpt>
      <trkpt lat="17.119397840" lon="-96.441971510">
        <ele>3087.700</ele>
        <time>2020-01-20T19:57:19Z</time>
      </trkpt>
      <trkpt lat="17.119347290" lon="-96.441949230">
        <ele>3088.700</ele>
        <time>2020-01-20T19:57:21Z</time>
      </trkpt>
      <trkpt lat="17.119300740" lon="-96.441924380">
        <ele>3088.600</ele>
        <time>2020-01-20T19:57:23Z</time>
      </trkpt>
      <trkpt lat="17.119253300" lon="-96.441905220">
        <ele>3088.200</ele>
        <time>2020-01-20T19:57:25Z</time>
      </trkpt>
      <trkpt lat="17.119209160" lon="-96.441889020">
        <ele>3087.100</ele>
        <time>2020-01-20T19:57:27Z</time>
      </trkpt>
      <trkpt lat="17.119177110" lon="-96.441869430">
        <ele>3087.200</ele>
        <time>2020-01-20T19:57:29Z</time>
      </trkpt>
      <trkpt lat="17.119137130" lon="-96.441838300">
        <ele>3090.200</ele>
        <time>2020-01-20T19:57:32Z</time>
      </trkpt>
      <trkpt lat="17.119104550" lon="-96.441799440">
        <ele>3088.400</ele>
        <time>2020-01-20T19:57:35Z</time>
      </trkpt>
      <trkpt lat="17.119073650" lon="-96.441757940">
        <ele>3089.600</ele>
        <time>2020-01-20T19:57:38Z</time>
      </trkpt>
      <trkpt lat="17.119039380" lon="-96.441714830">
        <ele>3091.200</ele>
        <time>2020-01-20T19:57:41Z</time>
      </trkpt>
      <trkpt lat="17.119012140" lon="-96.441688530">
        <ele>3090.600</ele>
        <time>2020-01-20T19:57:43Z</time>
      </trkpt>
      <trkpt lat="17.118980870" lon="-96.441658660">
        <ele>3090.700</ele>
        <time>2020-01-20T19:57:46Z</time>
      </trkpt>
      <trkpt lat="17.118949750" lon="-96.441624000">
        <ele>3091.900</ele>
        <time>2020-01-20T19:57:50Z</time>
      </trkpt>
      <trkpt lat="17.118916950" lon="-96.441588460">
        <ele>3091.700</ele>
        <time>2020-01-20T19:57:53Z</time>
      </trkpt>
      <trkpt lat="17.118886570" lon="-96.441554790">
        <ele>3091.400</ele>
        <time>2020-01-20T19:57:55Z</time>
      </trkpt>
      <trkpt lat="17.118854770" lon="-96.441523990">
        <ele>3089.800</ele>
        <time>2020-01-20T19:57:57Z</time>
      </trkpt>
      <trkpt lat="17.118822220" lon="-96.441494160">
        <ele>3087.300</ele>
        <time>2020-01-20T19:57:59Z</time>
      </trkpt>
      <trkpt lat="17.118779250" lon="-96.441469530">
        <ele>3086.200</ele>
        <time>2020-01-20T19:58:01Z</time>
      </trkpt>
      <trkpt lat="17.118736570" lon="-96.441456030">
        <ele>3087.000</ele>
        <time>2020-01-20T19:58:03Z</time>
      </trkpt>
      <trkpt lat="17.118692050" lon="-96.441448310">
        <ele>3088.000</ele>
        <time>2020-01-20T19:58:05Z</time>
      </trkpt>
      <trkpt lat="17.118648850" lon="-96.441442830">
        <ele>3087.400</ele>
        <time>2020-01-20T19:58:07Z</time>
      </trkpt>
      <trkpt lat="17.118600300" lon="-96.441428730">
        <ele>3087.600</ele>
        <time>2020-01-20T19:58:09Z</time>
      </trkpt>
      <trkpt lat="17.118561020" lon="-96.441417960">
        <ele>3085.300</ele>
        <time>2020-01-20T19:58:11Z</time>
      </trkpt>
      <trkpt lat="17.118519760" lon="-96.441412510">
        <ele>3083.300</ele>
        <time>2020-01-20T19:58:13Z</time>
      </trkpt>
      <trkpt lat="17.118471990" lon="-96.441409060">
        <ele>3082.100</ele>
        <time>2020-01-20T19:58:15Z</time>
      </trkpt>
      <trkpt lat="17.118422310" lon="-96.441406720">
        <ele>3081.000</ele>
        <time>2020-01-20T19:58:17Z</time>
      </trkpt>
      <trkpt lat="17.118369170" lon="-96.441408830">
        <ele>3080.100</ele>
        <time>2020-01-20T19:58:19Z</time>
      </trkpt>
      <trkpt lat="17.118319230" lon="-96.441415930">
        <ele>3080.400</ele>
        <time>2020-01-20T19:58:21Z</time>
      </trkpt>
      <trkpt lat="17.118274960" lon="-96.441415250">
        <ele>3081.200</ele>
        <time>2020-01-20T19:58:23Z</time>
      </trkpt>
      <trkpt lat="17.118234130" lon="-96.441411690">
        <ele>3082.300</ele>
        <time>2020-01-20T19:58:25Z</time>
      </trkpt>
      <trkpt lat="17.118184180" lon="-96.441389350">
        <ele>3083.400</ele>
        <time>2020-01-20T19:58:28Z</time>
      </trkpt>
      <trkpt lat="17.118162390" lon="-96.441343430">
        <ele>3083.500</ele>
        <time>2020-01-20T19:58:32Z</time>
      </trkpt>
      <trkpt lat="17.118168980" lon="-96.441300840">
        <ele>3082.600</ele>
        <time>2020-01-20T19:58:35Z</time>
      </trkpt>
      <trkpt lat="17.118171280" lon="-96.441254740">
        <ele>3081.700</ele>
        <time>2020-01-20T19:58:37Z</time>
      </trkpt>
      <trkpt lat="17.118185200" lon="-96.441208940">
        <ele>3080.900</ele>
        <time>2020-01-20T19:58:40Z</time>
      </trkpt>
      <trkpt lat="17.118194970" lon="-96.441163560">
        <ele>3079.700</ele>
        <time>2020-01-20T19:58:43Z</time>
      </trkpt>
      <trkpt lat="17.118204960" lon="-96.441118210">
        <ele>3079.500</ele>
        <time>2020-01-20T19:58:46Z</time>
      </trkpt>
      <trkpt lat="17.118216070" lon="-96.441058750">
        <ele>3081.000</ele>
        <time>2020-01-20T19:58:49Z</time>
      </trkpt>
      <trkpt lat="17.118224240" lon="-96.441010700">
        <ele>3081.900</ele>
        <time>2020-01-20T19:58:51Z</time>
      </trkpt>
      <trkpt lat="17.118233200" lon="-96.440958110">
        <ele>3084.300</ele>
        <time>2020-01-20T19:58:53Z</time>
      </trkpt>
      <trkpt lat="17.118245680" lon="-96.440904370">
        <ele>3084.500</ele>
        <time>2020-01-20T19:58:55Z</time>
      </trkpt>
      <trkpt lat="17.118256990" lon="-96.440868170">
        <ele>3083.200</ele>
        <time>2020-01-20T19:58:57Z</time>
      </trkpt>
      <trkpt lat="17.118276200" lon="-96.440820960">
        <ele>3083.200</ele>
        <time>2020-01-20T19:59:00Z</time>
      </trkpt>
      <trkpt lat="17.118292230" lon="-96.440784310">
        <ele>3082.400</ele>
        <time>2020-01-20T19:59:02Z</time>
      </trkpt>
      <trkpt lat="17.118312040" lon="-96.440749050">
        <ele>3082.400</ele>
        <time>2020-01-20T19:59:04Z</time>
      </trkpt>
      <trkpt lat="17.118338250" lon="-96.440703100">
        <ele>3083.800</ele>
        <time>2020-01-20T19:59:07Z</time>
      </trkpt>
      <trkpt lat="17.118362690" lon="-96.440665180">
        <ele>3082.200</ele>
        <time>2020-01-20T19:59:09Z</time>
      </trkpt>
      <trkpt lat="17.118385800" lon="-96.440635310">
        <ele>3080.300</ele>
        <time>2020-01-20T19:59:11Z</time>
      </trkpt>
      <trkpt lat="17.118407320" lon="-96.440602830">
        <ele>3078.700</ele>
        <time>2020-01-20T19:59:13Z</time>
      </trkpt>
      <trkpt lat="17.118426870" lon="-96.440561960">
        <ele>3077.900</ele>
        <time>2020-01-20T19:59:15Z</time>
      </trkpt>
      <trkpt lat="17.118441590" lon="-96.440505060">
        <ele>3078.800</ele>
        <time>2020-01-20T19:59:17Z</time>
      </trkpt>
      <trkpt lat="17.118441690" lon="-96.440467350">
        <ele>3080.400</ele>
        <time>2020-01-20T19:59:18Z</time>
      </trkpt>
      <trkpt lat="17.118438800" lon="-96.440429190">
        <ele>3080.800</ele>
        <time>2020-01-20T19:59:19Z</time>
      </trkpt>
      <trkpt lat="17.118426630" lon="-96.440369000">
        <ele>3079.900</ele>
        <time>2020-01-20T19:59:21Z</time>
      </trkpt>
      <trkpt lat="17.118414870" lon="-96.440327430">
        <ele>3081.200</ele>
        <time>2020-01-20T19:59:23Z</time>
      </trkpt>
      <trkpt lat="17.118399100" lon="-96.440291280">
        <ele>3080.000</ele>
        <time>2020-01-20T19:59:25Z</time>
      </trkpt>
      <trkpt lat="17.118375090" lon="-96.440251930">
        <ele>3079.200</ele>
        <time>2020-01-20T19:59:27Z</time>
      </trkpt>
      <trkpt lat="17.118343020" lon="-96.440199030">
        <ele>3079.800</ele>
        <time>2020-01-20T19:59:29Z</time>
      </trkpt>
      <trkpt lat="17.118317260" lon="-96.440145060">
        <ele>3078.200</ele>
        <time>2020-01-20T19:59:31Z</time>
      </trkpt>
      <trkpt lat="17.118302460" lon="-96.440102750">
        <ele>3076.100</ele>
        <time>2020-01-20T19:59:33Z</time>
      </trkpt>
      <trkpt lat="17.118298050" lon="-96.440057640">
        <ele>3075.900</ele>
        <time>2020-01-20T19:59:35Z</time>
      </trkpt>
      <trkpt lat="17.118292810" lon="-96.440019930">
        <ele>3076.400</ele>
        <time>2020-01-20T19:59:37Z</time>
      </trkpt>
      <trkpt lat="17.118280130" lon="-96.439972800">
        <ele>3076.500</ele>
        <time>2020-01-20T19:59:39Z</time>
      </trkpt>
      <trkpt lat="17.118266330" lon="-96.439918510">
        <ele>3076.200</ele>
        <time>2020-01-20T19:59:41Z</time>
      </trkpt>
      <trkpt lat="17.118259380" lon="-96.439870210">
        <ele>3074.500</ele>
        <time>2020-01-20T19:59:43Z</time>
      </trkpt>
      <trkpt lat="17.118253090" lon="-96.439824230">
        <ele>3074.600</ele>
        <time>2020-01-20T19:59:45Z</time>
      </trkpt>
      <trkpt lat="17.118246950" lon="-96.439776260">
        <ele>3072.600</ele>
        <time>2020-01-20T19:59:48Z</time>
      </trkpt>
      <trkpt lat="17.118234940" lon="-96.439716930">
        <ele>3072.100</ele>
        <time>2020-01-20T19:59:51Z</time>
      </trkpt>
      <trkpt lat="17.118222840" lon="-96.439657630">
        <ele>3070.800</ele>
        <time>2020-01-20T19:59:53Z</time>
      </trkpt>
      <trkpt lat="17.118211870" lon="-96.439600700">
        <ele>3070.500</ele>
        <time>2020-01-20T19:59:55Z</time>
      </trkpt>
      <trkpt lat="17.118201020" lon="-96.439545110">
        <ele>3070.000</ele>
        <time>2020-01-20T19:59:57Z</time>
      </trkpt>
      <trkpt lat="17.118190110" lon="-96.439492330">
        <ele>3070.600</ele>
        <time>2020-01-20T19:59:59Z</time>
      </trkpt>
      <trkpt lat="17.118184650" lon="-96.439443150">
        <ele>3067.200</ele>
        <time>2020-01-20T20:00:01Z</time>
      </trkpt>
      <trkpt lat="17.118189880" lon="-96.439389560">
        <ele>3068.100</ele>
        <time>2020-01-20T20:00:03Z</time>
      </trkpt>
      <trkpt lat="17.118201460" lon="-96.439339130">
        <ele>3071.000</ele>
        <time>2020-01-20T20:00:05Z</time>
      </trkpt>
      <trkpt lat="17.118208530" lon="-96.439288180">
        <ele>3070.900</ele>
        <time>2020-01-20T20:00:07Z</time>
      </trkpt>
      <trkpt lat="17.118212800" lon="-96.439237710">
        <ele>3070.100</ele>
        <time>2020-01-20T20:00:09Z</time>
      </trkpt>
      <trkpt lat="17.118214570" lon="-96.439191770">
        <ele>3071.300</ele>
        <time>2020-01-20T20:00:11Z</time>
      </trkpt>
      <trkpt lat="17.118210850" lon="-96.439146200">
        <ele>3069.300</ele>
        <time>2020-01-20T20:00:13Z</time>
      </trkpt>
      <trkpt lat="17.118206770" lon="-96.439089810">
        <ele>3069.300</ele>
        <time>2020-01-20T20:00:15Z</time>
      </trkpt>
      <trkpt lat="17.118199190" lon="-96.439039460">
        <ele>3069.200</ele>
        <time>2020-01-20T20:00:17Z</time>
      </trkpt>
      <trkpt lat="17.118184180" lon="-96.438990410">
        <ele>3069.700</ele>
        <time>2020-01-20T20:00:19Z</time>
      </trkpt>
      <trkpt lat="17.118170320" lon="-96.438936120">
        <ele>3069.800</ele>
        <time>2020-01-20T20:00:21Z</time>
      </trkpt>
      <trkpt lat="17.118150100" lon="-96.438874760">
        <ele>3071.300</ele>
        <time>2020-01-20T20:00:23Z</time>
      </trkpt>
      <trkpt lat="17.118132960" lon="-96.438809380">
        <ele>3070.100</ele>
        <time>2020-01-20T20:00:25Z</time>
      </trkpt>
      <trkpt lat="17.118121320" lon="-96.438753300">
        <ele>3070.700</ele>
        <time>2020-01-20T20:00:27Z</time>
      </trkpt>
      <trkpt lat="17.118114050" lon="-96.438710040">
        <ele>3070.800</ele>
        <time>2020-01-20T20:00:29Z</time>
      </trkpt>
      <trkpt lat="17.118114160" lon="-96.438655010">
        <ele>3070.500</ele>
        <time>2020-01-20T20:00:31Z</time>
      </trkpt>
      <trkpt lat="17.118121390" lon="-96.438603810">
        <ele>3070.700</ele>
        <time>2020-01-20T20:00:34Z</time>
      </trkpt>
      <trkpt lat="17.118113840" lon="-96.438551100">
        <ele>3070.600</ele>
        <time>2020-01-20T20:00:36Z</time>
      </trkpt>
      <trkpt lat="17.118107350" lon="-96.438501480">
        <ele>3070.200</ele>
        <time>2020-01-20T20:00:38Z</time>
      </trkpt>
      <trkpt lat="17.118106500" lon="-96.438458290">
        <ele>3071.400</ele>
        <time>2020-01-20T20:00:40Z</time>
      </trkpt>
      <trkpt lat="17.118096330" lon="-96.438407700">
        <ele>3070.400</ele>
        <time>2020-01-20T20:00:42Z</time>
      </trkpt>
      <trkpt lat="17.118085770" lon="-96.438351610">
        <ele>3069.400</ele>
        <time>2020-01-20T20:00:44Z</time>
      </trkpt>
      <trkpt lat="17.118077760" lon="-96.438307800">
        <ele>3069.000</ele>
        <time>2020-01-20T20:00:46Z</time>
      </trkpt>
      <trkpt lat="17.118064520" lon="-96.438245720">
        <ele>3068.500</ele>
        <time>2020-01-20T20:00:48Z</time>
      </trkpt>
      <trkpt lat="17.118048370" lon="-96.438180380">
        <ele>3068.300</ele>
        <time>2020-01-20T20:00:50Z</time>
      </trkpt>
      <trkpt lat="17.118028340" lon="-96.438127420">
        <ele>3068.900</ele>
        <time>2020-01-20T20:00:52Z</time>
      </trkpt>
      <trkpt lat="17.118000560" lon="-96.438065490">
        <ele>3069.600</ele>
        <time>2020-01-20T20:00:54Z</time>
      </trkpt>
      <trkpt lat="17.117992280" lon="-96.438019200">
        <ele>3069.600</ele>
        <time>2020-01-20T20:00:56Z</time>
      </trkpt>
      <trkpt lat="17.117988920" lon="-96.437980710">
        <ele>3070.200</ele>
        <time>2020-01-20T20:00:58Z</time>
      </trkpt>
      <trkpt lat="17.117983530" lon="-96.437943320">
        <ele>3072.700</ele>
        <time>2020-01-20T20:01:00Z</time>
      </trkpt>
      <trkpt lat="17.117976530" lon="-96.437880690">
        <ele>3074.200</ele>
        <time>2020-01-20T20:01:02Z</time>
      </trkpt>
      <trkpt lat="17.117968670" lon="-96.437819940">
        <ele>3073.500</ele>
        <time>2020-01-20T20:01:04Z</time>
      </trkpt>
      <trkpt lat="17.117953310" lon="-96.437754590">
        <ele>3071.200</ele>
        <time>2020-01-20T20:01:06Z</time>
      </trkpt>
      <trkpt lat="17.117941300" lon="-96.437699090">
        <ele>3072.200</ele>
        <time>2020-01-20T20:01:08Z</time>
      </trkpt>
      <trkpt lat="17.117924420" lon="-96.437632690">
        <ele>3071.600</ele>
        <time>2020-01-20T20:01:10Z</time>
      </trkpt>
      <trkpt lat="17.117907580" lon="-96.437561580">
        <ele>3071.300</ele>
        <time>2020-01-20T20:01:12Z</time>
      </trkpt>
      <trkpt lat="17.117900920" lon="-96.437487680">
        <ele>3071.000</ele>
        <time>2020-01-20T20:01:14Z</time>
      </trkpt>
      <trkpt lat="17.117892830" lon="-96.437446560">
        <ele>3073.700</ele>
        <time>2020-01-20T20:01:15Z</time>
      </trkpt>
      <trkpt lat="17.117880380" lon="-96.437388990">
        <ele>3074.800</ele>
        <time>2020-01-20T20:01:17Z</time>
      </trkpt>
      <trkpt lat="17.117871020" lon="-96.437336160">
        <ele>3078.100</ele>
        <time>2020-01-20T20:01:19Z</time>
      </trkpt>
      <trkpt lat="17.117865890" lon="-96.437277760">
        <ele>3078.800</ele>
        <time>2020-01-20T20:01:21Z</time>
      </trkpt>
      <trkpt lat="17.117856630" lon="-96.437214130">
        <ele>3078.800</ele>
        <time>2020-01-20T20:01:23Z</time>
      </trkpt>
      <trkpt lat="17.117850850" lon="-96.437159620">
        <ele>3079.500</ele>
        <time>2020-01-20T20:01:25Z</time>
      </trkpt>
      <trkpt lat="17.117842300" lon="-96.437097150">
        <ele>3078.900</ele>
        <time>2020-01-20T20:01:27Z</time>
      </trkpt>
      <trkpt lat="17.117828900" lon="-96.437030460">
        <ele>3079.300</ele>
        <time>2020-01-20T20:01:29Z</time>
      </trkpt>
      <trkpt lat="17.117814820" lon="-96.436987750">
        <ele>3077.200</ele>
        <time>2020-01-20T20:01:31Z</time>
      </trkpt>
      <trkpt lat="17.117806900" lon="-96.436945400">
        <ele>3077.200</ele>
        <time>2020-01-20T20:01:33Z</time>
      </trkpt>
      <trkpt lat="17.117794220" lon="-96.436877240">
        <ele>3075.500</ele>
        <time>2020-01-20T20:01:35Z</time>
      </trkpt>
      <trkpt lat="17.117798580" lon="-96.436805550">
        <ele>3073.800</ele>
        <time>2020-01-20T20:01:37Z</time>
      </trkpt>
      <trkpt lat="17.117798480" lon="-96.436767900">
        <ele>3073.400</ele>
        <time>2020-01-20T20:01:38Z</time>
      </trkpt>
      <trkpt lat="17.117797060" lon="-96.436729950">
        <ele>3074.200</ele>
        <time>2020-01-20T20:01:39Z</time>
      </trkpt>
      <trkpt lat="17.117794160" lon="-96.436661020">
        <ele>3073.600</ele>
        <time>2020-01-20T20:01:41Z</time>
      </trkpt>
      <trkpt lat="17.117791440" lon="-96.436607000">
        <ele>3074.600</ele>
        <time>2020-01-20T20:01:43Z</time>
      </trkpt>
      <trkpt lat="17.117791980" lon="-96.436562340">
        <ele>3073.800</ele>
        <time>2020-01-20T20:01:45Z</time>
      </trkpt>
      <trkpt lat="17.117796680" lon="-96.436521540">
        <ele>3072.400</ele>
        <time>2020-01-20T20:01:47Z</time>
      </trkpt>
      <trkpt lat="17.117806210" lon="-96.436465690">
        <ele>3070.800</ele>
        <time>2020-01-20T20:01:49Z</time>
      </trkpt>
      <trkpt lat="17.117808120" lon="-96.436410590">
        <ele>3070.000</ele>
        <time>2020-01-20T20:01:51Z</time>
      </trkpt>
      <trkpt lat="17.117798390" lon="-96.436347710">
        <ele>3069.700</ele>
        <time>2020-01-20T20:01:53Z</time>
      </trkpt>
      <trkpt lat="17.117788060" lon="-96.436311670">
        <ele>3070.300</ele>
        <time>2020-01-20T20:01:54Z</time>
      </trkpt>
      <trkpt lat="17.117771450" lon="-96.436241260">
        <ele>3070.900</ele>
        <time>2020-01-20T20:01:56Z</time>
      </trkpt>
      <trkpt lat="17.117766090" lon="-96.436170550">
        <ele>3069.700</ele>
        <time>2020-01-20T20:01:58Z</time>
      </trkpt>
      <trkpt lat="17.117766520" lon="-96.436129230">
        <ele>3068.800</ele>
        <time>2020-01-20T20:01:59Z</time>
      </trkpt>
      <trkpt lat="17.117770470" lon="-96.436091850">
        <ele>3069.100</ele>
        <time>2020-01-20T20:02:00Z</time>
      </trkpt>
      <trkpt lat="17.117782080" lon="-96.436027540">
        <ele>3068.400</ele>
        <time>2020-01-20T20:02:02Z</time>
      </trkpt>
      <trkpt lat="17.117795360" lon="-96.435961240">
        <ele>3065.500</ele>
        <time>2020-01-20T20:02:04Z</time>
      </trkpt>
      <trkpt lat="17.117812020" lon="-96.435902380">
        <ele>3064.200</ele>
        <time>2020-01-20T20:02:06Z</time>
      </trkpt>
      <trkpt lat="17.117830960" lon="-96.435853800">
        <ele>3063.000</ele>
        <time>2020-01-20T20:02:08Z</time>
      </trkpt>
      <trkpt lat="17.117847480" lon="-96.435812840">
        <ele>3062.500</ele>
        <time>2020-01-20T20:02:10Z</time>
      </trkpt>
      <trkpt lat="17.117850930" lon="-96.435771060">
        <ele>3061.300</ele>
        <time>2020-01-20T20:02:12Z</time>
      </trkpt>
      <trkpt lat="17.117839070" lon="-96.435724410">
        <ele>3062.700</ele>
        <time>2020-01-20T20:02:14Z</time>
      </trkpt>
      <trkpt lat="17.117818810" lon="-96.435682800">
        <ele>3061.500</ele>
        <time>2020-01-20T20:02:16Z</time>
      </trkpt>
      <trkpt lat="17.117782440" lon="-96.435638760">
        <ele>3061.000</ele>
        <time>2020-01-20T20:02:19Z</time>
      </trkpt>
      <trkpt lat="17.117739030" lon="-96.435608470">
        <ele>3060.800</ele>
        <time>2020-01-20T20:02:21Z</time>
      </trkpt>
      <trkpt lat="17.117693120" lon="-96.435587340">
        <ele>3059.800</ele>
        <time>2020-01-20T20:02:23Z</time>
      </trkpt>
      <trkpt lat="17.117639610" lon="-96.435566080">
        <ele>3059.800</ele>
        <time>2020-01-20T20:02:25Z</time>
      </trkpt>
      <trkpt lat="17.117580770" lon="-96.435544060">
        <ele>3059.400</ele>
        <time>2020-01-20T20:02:27Z</time>
      </trkpt>
      <trkpt lat="17.117527520" lon="-96.435526330">
        <ele>3058.400</ele>
        <time>2020-01-20T20:02:29Z</time>
      </trkpt>
      <trkpt lat="17.117478950" lon="-96.435507850">
        <ele>3059.300</ele>
        <time>2020-01-20T20:02:31Z</time>
      </trkpt>
      <trkpt lat="17.117431640" lon="-96.435485990">
        <ele>3058.900</ele>
        <time>2020-01-20T20:02:33Z</time>
      </trkpt>
      <trkpt lat="17.117393630" lon="-96.435470450">
        <ele>3058.800</ele>
        <time>2020-01-20T20:02:35Z</time>
      </trkpt>
      <trkpt lat="17.117343470" lon="-96.435455120">
        <ele>3057.400</ele>
        <time>2020-01-20T20:02:38Z</time>
      </trkpt>
      <trkpt lat="17.117295260" lon="-96.435438700">
        <ele>3059.000</ele>
        <time>2020-01-20T20:02:41Z</time>
      </trkpt>
      <trkpt lat="17.117253050" lon="-96.435417040">
        <ele>3060.400</ele>
        <time>2020-01-20T20:02:44Z</time>
      </trkpt>
      <trkpt lat="17.117218700" lon="-96.435401450">
        <ele>3060.000</ele>
        <time>2020-01-20T20:02:46Z</time>
      </trkpt>
      <trkpt lat="17.117181110" lon="-96.435384980">
        <ele>3056.900</ele>
        <time>2020-01-20T20:02:48Z</time>
      </trkpt>
      <trkpt lat="17.117139470" lon="-96.435364190">
        <ele>3056.600</ele>
        <time>2020-01-20T20:02:50Z</time>
      </trkpt>
      <trkpt lat="17.117089440" lon="-96.435335580">
        <ele>3056.600</ele>
        <time>2020-01-20T20:02:52Z</time>
      </trkpt>
      <trkpt lat="17.117043950" lon="-96.435300600">
        <ele>3057.800</ele>
        <time>2020-01-20T20:02:54Z</time>
      </trkpt>
      <trkpt lat="17.117010420" lon="-96.435264160">
        <ele>3056.900</ele>
        <time>2020-01-20T20:02:56Z</time>
      </trkpt>
      <trkpt lat="17.116983230" lon="-96.435234250">
        <ele>3056.700</ele>
        <time>2020-01-20T20:02:58Z</time>
      </trkpt>
      <trkpt lat="17.116952960" lon="-96.435205180">
        <ele>3056.500</ele>
        <time>2020-01-20T20:03:00Z</time>
      </trkpt>
      <trkpt lat="17.116917840" lon="-96.435167770">
        <ele>3054.500</ele>
        <time>2020-01-20T20:03:02Z</time>
      </trkpt>
      <trkpt lat="17.116898130" lon="-96.435135230">
        <ele>3054.600</ele>
        <time>2020-01-20T20:03:04Z</time>
      </trkpt>
      <trkpt lat="17.116869790" lon="-96.435095100">
        <ele>3055.600</ele>
        <time>2020-01-20T20:03:06Z</time>
      </trkpt>
      <trkpt lat="17.116826990" lon="-96.435046850">
        <ele>3054.600</ele>
        <time>2020-01-20T20:03:08Z</time>
      </trkpt>
      <trkpt lat="17.116783130" lon="-96.435012900">
        <ele>3054.500</ele>
        <time>2020-01-20T20:03:10Z</time>
      </trkpt>
      <trkpt lat="17.116728990" lon="-96.434983790">
        <ele>3055.200</ele>
        <time>2020-01-20T20:03:12Z</time>
      </trkpt>
      <trkpt lat="17.116674580" lon="-96.434960330">
        <ele>3055.600</ele>
        <time>2020-01-20T20:03:14Z</time>
      </trkpt>
      <trkpt lat="17.116619270" lon="-96.434937330">
        <ele>3054.400</ele>
        <time>2020-01-20T20:03:16Z</time>
      </trkpt>
      <trkpt lat="17.116561630" lon="-96.434913770">
        <ele>3054.100</ele>
        <time>2020-01-20T20:03:18Z</time>
      </trkpt>
      <trkpt lat="17.116510730" lon="-96.434885790">
        <ele>3054.700</ele>
        <time>2020-01-20T20:03:20Z</time>
      </trkpt>
      <trkpt lat="17.116469590" lon="-96.434854450">
        <ele>3054.800</ele>
        <time>2020-01-20T20:03:22Z</time>
      </trkpt>
      <trkpt lat="17.116439690" lon="-96.434831530">
        <ele>3052.800</ele>
        <time>2020-01-20T20:03:24Z</time>
      </trkpt>
      <trkpt lat="17.116404120" lon="-96.434803190">
        <ele>3048.100</ele>
        <time>2020-01-20T20:03:26Z</time>
      </trkpt>
      <trkpt lat="17.116370920" lon="-96.434773990">
        <ele>3048.500</ele>
        <time>2020-01-20T20:03:28Z</time>
      </trkpt>
      <trkpt lat="17.116331110" lon="-96.434745140">
        <ele>3048.900</ele>
        <time>2020-01-20T20:03:30Z</time>
      </trkpt>
      <trkpt lat="17.116289570" lon="-96.434721050">
        <ele>3049.400</ele>
        <time>2020-01-20T20:03:32Z</time>
      </trkpt>
      <trkpt lat="17.116245840" lon="-96.434690920">
        <ele>3047.200</ele>
        <time>2020-01-20T20:03:34Z</time>
      </trkpt>
      <trkpt lat="17.116196960" lon="-96.434657020">
        <ele>3045.800</ele>
        <time>2020-01-20T20:03:36Z</time>
      </trkpt>
      <trkpt lat="17.116151880" lon="-96.434616350">
        <ele>3044.700</ele>
        <time>2020-01-20T20:03:38Z</time>
      </trkpt>
      <trkpt lat="17.116124410" lon="-96.434579960">
        <ele>3045.000</ele>
        <time>2020-01-20T20:03:40Z</time>
      </trkpt>
      <trkpt lat="17.116094710" lon="-96.434541330">
        <ele>3044.300</ele>
        <time>2020-01-20T20:03:42Z</time>
      </trkpt>
      <trkpt lat="17.116058510" lon="-96.434492070">
        <ele>3044.600</ele>
        <time>2020-01-20T20:03:44Z</time>
      </trkpt>
      <trkpt lat="17.116026970" lon="-96.434449240">
        <ele>3044.900</ele>
        <time>2020-01-20T20:03:46Z</time>
      </trkpt>
      <trkpt lat="17.115990100" lon="-96.434411370">
        <ele>3043.700</ele>
        <time>2020-01-20T20:03:48Z</time>
      </trkpt>
      <trkpt lat="17.115944860" lon="-96.434380620">
        <ele>3042.600</ele>
        <time>2020-01-20T20:03:50Z</time>
      </trkpt>
      <trkpt lat="17.115897430" lon="-96.434342750">
        <ele>3043.500</ele>
        <time>2020-01-20T20:03:52Z</time>
      </trkpt>
      <trkpt lat="17.115862660" lon="-96.434311260">
        <ele>3045.200</ele>
        <time>2020-01-20T20:03:54Z</time>
      </trkpt>
      <trkpt lat="17.115836130" lon="-96.434277350">
        <ele>3043.800</ele>
        <time>2020-01-20T20:03:56Z</time>
      </trkpt>
      <trkpt lat="17.115813760" lon="-96.434235580">
        <ele>3043.500</ele>
        <time>2020-01-20T20:03:58Z</time>
      </trkpt>
      <trkpt lat="17.115807110" lon="-96.434197780">
        <ele>3042.300</ele>
        <time>2020-01-20T20:04:00Z</time>
      </trkpt>
      <trkpt lat="17.115808780" lon="-96.434155340">
        <ele>3041.300</ele>
        <time>2020-01-20T20:04:02Z</time>
      </trkpt>
      <trkpt lat="17.115817940" lon="-96.434112880">
        <ele>3040.200</ele>
        <time>2020-01-20T20:04:04Z</time>
      </trkpt>
      <trkpt lat="17.115830250" lon="-96.434072560">
        <ele>3040.200</ele>
        <time>2020-01-20T20:04:06Z</time>
      </trkpt>
      <trkpt lat="17.115851490" lon="-96.434032320">
        <ele>3042.400</ele>
        <time>2020-01-20T20:04:08Z</time>
      </trkpt>
      <trkpt lat="17.115874060" lon="-96.433983700">
        <ele>3042.300</ele>
        <time>2020-01-20T20:04:10Z</time>
      </trkpt>
      <trkpt lat="17.115894270" lon="-96.433930390">
        <ele>3042.200</ele>
        <time>2020-01-20T20:04:12Z</time>
      </trkpt>
      <trkpt lat="17.115908030" lon="-96.433875070">
        <ele>3041.200</ele>
        <time>2020-01-20T20:04:14Z</time>
      </trkpt>
      <trkpt lat="17.115919290" lon="-96.433825800">
        <ele>3041.300</ele>
        <time>2020-01-20T20:04:16Z</time>
      </trkpt>
      <trkpt lat="17.115934260" lon="-96.433776090">
        <ele>3041.900</ele>
        <time>2020-01-20T20:04:18Z</time>
      </trkpt>
      <trkpt lat="17.115952740" lon="-96.433729420">
        <ele>3045.600</ele>
        <time>2020-01-20T20:04:20Z</time>
      </trkpt>
      <trkpt lat="17.115968610" lon="-96.433680780">
        <ele>3045.200</ele>
        <time>2020-01-20T20:04:22Z</time>
      </trkpt>
      <trkpt lat="17.115977300" lon="-96.433618140">
        <ele>3043.800</ele>
        <time>2020-01-20T20:04:24Z</time>
      </trkpt>
      <trkpt lat="17.115977960" lon="-96.433563280">
        <ele>3042.000</ele>
        <time>2020-01-20T20:04:26Z</time>
      </trkpt>
      <trkpt lat="17.115965120" lon="-96.433508000">
        <ele>3039.000</ele>
        <time>2020-01-20T20:04:28Z</time>
      </trkpt>
      <trkpt lat="17.115943870" lon="-96.433451970">
        <ele>3041.100</ele>
        <time>2020-01-20T20:04:30Z</time>
      </trkpt>
      <trkpt lat="17.115906420" lon="-96.433401080">
        <ele>3041.000</ele>
        <time>2020-01-20T20:04:32Z</time>
      </trkpt>
      <trkpt lat="17.115857940" lon="-96.433365210">
        <ele>3037.200</ele>
        <time>2020-01-20T20:04:34Z</time>
      </trkpt>
      <trkpt lat="17.115804820" lon="-96.433340710">
        <ele>3035.800</ele>
        <time>2020-01-20T20:04:36Z</time>
      </trkpt>
      <trkpt lat="17.115741250" lon="-96.433323480">
        <ele>3034.400</ele>
        <time>2020-01-20T20:04:38Z</time>
      </trkpt>
      <trkpt lat="17.115681980" lon="-96.433307540">
        <ele>3036.100</ele>
        <time>2020-01-20T20:04:40Z</time>
      </trkpt>
      <trkpt lat="17.115630100" lon="-96.433294360">
        <ele>3036.000</ele>
        <time>2020-01-20T20:04:42Z</time>
      </trkpt>
      <trkpt lat="17.115588130" lon="-96.433272930">
        <ele>3036.600</ele>
        <time>2020-01-20T20:04:44Z</time>
      </trkpt>
      <trkpt lat="17.115554510" lon="-96.433245760">
        <ele>3036.700</ele>
        <time>2020-01-20T20:04:46Z</time>
      </trkpt>
      <trkpt lat="17.115529820" lon="-96.433218060">
        <ele>3036.800</ele>
        <time>2020-01-20T20:04:48Z</time>
      </trkpt>
      <trkpt lat="17.115494700" lon="-96.433169260">
        <ele>3038.100</ele>
        <time>2020-01-20T20:04:51Z</time>
      </trkpt>
      <trkpt lat="17.115459620" lon="-96.433125960">
        <ele>3037.200</ele>
        <time>2020-01-20T20:04:53Z</time>
      </trkpt>
      <trkpt lat="17.115419970" lon="-96.433086870">
        <ele>3037.100</ele>
        <time>2020-01-20T20:04:55Z</time>
      </trkpt>
      <trkpt lat="17.115378090" lon="-96.433058010">
        <ele>3035.700</ele>
        <time>2020-01-20T20:04:57Z</time>
      </trkpt>
      <trkpt lat="17.115339240" lon="-96.433039030">
        <ele>3033.600</ele>
        <time>2020-01-20T20:04:59Z</time>
      </trkpt>
      <trkpt lat="17.115299750" lon="-96.433026730">
        <ele>3032.800</ele>
        <time>2020-01-20T20:05:01Z</time>
      </trkpt>
      <trkpt lat="17.115259370" lon="-96.433030300">
        <ele>3031.100</ele>
        <time>2020-01-20T20:05:03Z</time>
      </trkpt>
      <trkpt lat="17.115213600" lon="-96.433034020">
        <ele>3031.300</ele>
        <time>2020-01-20T20:05:05Z</time>
      </trkpt>
      <trkpt lat="17.115168010" lon="-96.433031350">
        <ele>3031.100</ele>
        <time>2020-01-20T20:05:07Z</time>
      </trkpt>
      <trkpt lat="17.115129620" lon="-96.433016470">
        <ele>3031.200</ele>
        <time>2020-01-20T20:05:09Z</time>
      </trkpt>
      <trkpt lat="17.115099610" lon="-96.432993700">
        <ele>3032.400</ele>
        <time>2020-01-20T20:05:11Z</time>
      </trkpt>
      <trkpt lat="17.115069630" lon="-96.432963130">
        <ele>3033.700</ele>
        <time>2020-01-20T20:05:13Z</time>
      </trkpt>
      <trkpt lat="17.115032260" lon="-96.432937330">
        <ele>3032.300</ele>
        <time>2020-01-20T20:05:15Z</time>
      </trkpt>
      <trkpt lat="17.114997010" lon="-96.432913870">
        <ele>3032.700</ele>
        <time>2020-01-20T20:05:17Z</time>
      </trkpt>
      <trkpt lat="17.114960890" lon="-96.432895220">
        <ele>3032.600</ele>
        <time>2020-01-20T20:05:19Z</time>
      </trkpt>
      <trkpt lat="17.114913500" lon="-96.432872280">
        <ele>3031.500</ele>
        <time>2020-01-20T20:05:22Z</time>
      </trkpt>
      <trkpt lat="17.114873130" lon="-96.432847920">
        <ele>3029.800</ele>
        <time>2020-01-20T20:05:24Z</time>
      </trkpt>
      <trkpt lat="17.114832750" lon="-96.432812180">
        <ele>3029.800</ele>
        <time>2020-01-20T20:05:26Z</time>
      </trkpt>
      <trkpt lat="17.114796330" lon="-96.432778500">
        <ele>3028.400</ele>
        <time>2020-01-20T20:05:28Z</time>
      </trkpt>
      <trkpt lat="17.114760600" lon="-96.432748770">
        <ele>3027.500</ele>
        <time>2020-01-20T20:05:30Z</time>
      </trkpt>
      <trkpt lat="17.114733620" lon="-96.432715820">
        <ele>3028.600</ele>
        <time>2020-01-20T20:05:33Z</time>
      </trkpt>
      <trkpt lat="17.114716550" lon="-96.432678460">
        <ele>3028.900</ele>
        <time>2020-01-20T20:05:35Z</time>
      </trkpt>
      <trkpt lat="17.114703400" lon="-96.432628480">
        <ele>3027.900</ele>
        <time>2020-01-20T20:05:37Z</time>
      </trkpt>
      <trkpt lat="17.114691300" lon="-96.432584180">
        <ele>3025.600</ele>
        <time>2020-01-20T20:05:39Z</time>
      </trkpt>
      <trkpt lat="17.114677460" lon="-96.432547150">
        <ele>3025.600</ele>
        <time>2020-01-20T20:05:41Z</time>
      </trkpt>
      <trkpt lat="17.114647060" lon="-96.432494530">
        <ele>3025.100</ele>
        <time>2020-01-20T20:05:43Z</time>
      </trkpt>
      <trkpt lat="17.114603770" lon="-96.432437180">
        <ele>3026.200</ele>
        <time>2020-01-20T20:05:45Z</time>
      </trkpt>
      <trkpt lat="17.114548630" lon="-96.432388070">
        <ele>3026.400</ele>
        <time>2020-01-20T20:05:47Z</time>
      </trkpt>
      <trkpt lat="17.114517170" lon="-96.432367960">
        <ele>3026.600</ele>
        <time>2020-01-20T20:05:48Z</time>
      </trkpt>
      <trkpt lat="17.114482580" lon="-96.432349720">
        <ele>3026.400</ele>
        <time>2020-01-20T20:05:49Z</time>
      </trkpt>
      <trkpt lat="17.114419490" lon="-96.432329920">
        <ele>3026.100</ele>
        <time>2020-01-20T20:05:51Z</time>
      </trkpt>
      <trkpt lat="17.114355310" lon="-96.432322530">
        <ele>3025.800</ele>
        <time>2020-01-20T20:05:53Z</time>
      </trkpt>
      <trkpt lat="17.114297150" lon="-96.432327900">
        <ele>3025.600</ele>
        <time>2020-01-20T20:05:55Z</time>
      </trkpt>
      <trkpt lat="17.114238690" lon="-96.432332540">
        <ele>3026.100</ele>
        <time>2020-01-20T20:05:57Z</time>
      </trkpt>
      <trkpt lat="17.114182060" lon="-96.432344550">
        <ele>3026.700</ele>
        <time>2020-01-20T20:05:59Z</time>
      </trkpt>
      <trkpt lat="17.114120510" lon="-96.432354560">
        <ele>3026.100</ele>
        <time>2020-01-20T20:06:01Z</time>
      </trkpt>
      <trkpt lat="17.114056700" lon="-96.432357780">
        <ele>3025.600</ele>
        <time>2020-01-20T20:06:03Z</time>
      </trkpt>
      <trkpt lat="17.113995750" lon="-96.432354850">
        <ele>3025.500</ele>
        <time>2020-01-20T20:06:05Z</time>
      </trkpt>
      <trkpt lat="17.113944780" lon="-96.432356920">
        <ele>3023.400</ele>
        <time>2020-01-20T20:06:07Z</time>
      </trkpt>
      <trkpt lat="17.113900590" lon="-96.432362650">
        <ele>3022.600</ele>
        <time>2020-01-20T20:06:09Z</time>
      </trkpt>
      <trkpt lat="17.113845280" lon="-96.432378340">
        <ele>3022.000</ele>
        <time>2020-01-20T20:06:11Z</time>
      </trkpt>
      <trkpt lat="17.113791960" lon="-96.432393850">
        <ele>3021.400</ele>
        <time>2020-01-20T20:06:13Z</time>
      </trkpt>
      <trkpt lat="17.113737030" lon="-96.432406190">
        <ele>3021.200</ele>
        <time>2020-01-20T20:06:15Z</time>
      </trkpt>
      <trkpt lat="17.113672290" lon="-96.432412290">
        <ele>3020.400</ele>
        <time>2020-01-20T20:06:17Z</time>
      </trkpt>
      <trkpt lat="17.113612390" lon="-96.432416320">
        <ele>3020.600</ele>
        <time>2020-01-20T20:06:19Z</time>
      </trkpt>
      <trkpt lat="17.113558040" lon="-96.432412730">
        <ele>3020.500</ele>
        <time>2020-01-20T20:06:21Z</time>
      </trkpt>
      <trkpt lat="17.113502150" lon="-96.432403870">
        <ele>3019.600</ele>
        <time>2020-01-20T20:06:23Z</time>
      </trkpt>
      <trkpt lat="17.113444020" lon="-96.432391880">
        <ele>3019.500</ele>
        <time>2020-01-20T20:06:25Z</time>
      </trkpt>
      <trkpt lat="17.113388510" lon="-96.432379840">
        <ele>3019.000</ele>
        <time>2020-01-20T20:06:27Z</time>
      </trkpt>
      <trkpt lat="17.113334070" lon="-96.432366710">
        <ele>3018.200</ele>
        <time>2020-01-20T20:06:29Z</time>
      </trkpt>
      <trkpt lat="17.113278960" lon="-96.432354470">
        <ele>3020.100</ele>
        <time>2020-01-20T20:06:31Z</time>
      </trkpt>
      <trkpt lat="17.113226090" lon="-96.432336320">
        <ele>3019.700</ele>
        <time>2020-01-20T20:06:33Z</time>
      </trkpt>
      <trkpt lat="17.113173670" lon="-96.432313550">
        <ele>3019.600</ele>
        <time>2020-01-20T20:06:35Z</time>
      </trkpt>
      <trkpt lat="17.113124290" lon="-96.432294890">
        <ele>3019.800</ele>
        <time>2020-01-20T20:06:37Z</time>
      </trkpt>
      <trkpt lat="17.113075160" lon="-96.432281450">
        <ele>3019.400</ele>
        <time>2020-01-20T20:06:39Z</time>
      </trkpt>
      <trkpt lat="17.113027590" lon="-96.432272160">
        <ele>3019.800</ele>
        <time>2020-01-20T20:06:41Z</time>
      </trkpt>
      <trkpt lat="17.112981880" lon="-96.432267900">
        <ele>3019.900</ele>
        <time>2020-01-20T20:06:43Z</time>
      </trkpt>
      <trkpt lat="17.112931500" lon="-96.432271180">
        <ele>3020.000</ele>
        <time>2020-01-20T20:06:45Z</time>
      </trkpt>
      <trkpt lat="17.112877040" lon="-96.432281040">
        <ele>3020.100</ele>
        <time>2020-01-20T20:06:47Z</time>
      </trkpt>
      <trkpt lat="17.112827380" lon="-96.432292630">
        <ele>3019.800</ele>
        <time>2020-01-20T20:06:49Z</time>
      </trkpt>
      <trkpt lat="17.112779480" lon="-96.432310740">
        <ele>3019.400</ele>
        <time>2020-01-20T20:06:51Z</time>
      </trkpt>
      <trkpt lat="17.112730340" lon="-96.432337490">
        <ele>3018.400</ele>
        <time>2020-01-20T20:06:53Z</time>
      </trkpt>
      <trkpt lat="17.112674790" lon="-96.432366510">
        <ele>3019.800</ele>
        <time>2020-01-20T20:06:55Z</time>
      </trkpt>
      <trkpt lat="17.112614960" lon="-96.432395860">
        <ele>3019.700</ele>
        <time>2020-01-20T20:06:57Z</time>
      </trkpt>
      <trkpt lat="17.112554490" lon="-96.432421430">
        <ele>3020.500</ele>
        <time>2020-01-20T20:06:59Z</time>
      </trkpt>
      <trkpt lat="17.112494750" lon="-96.432434010">
        <ele>3022.300</ele>
        <time>2020-01-20T20:07:01Z</time>
      </trkpt>
      <trkpt lat="17.112435840" lon="-96.432452210">
        <ele>3024.700</ele>
        <time>2020-01-20T20:07:03Z</time>
      </trkpt>
      <trkpt lat="17.112381370" lon="-96.432473400">
        <ele>3025.800</ele>
        <time>2020-01-20T20:07:05Z</time>
      </trkpt>
      <trkpt lat="17.112332110" lon="-96.432493790">
        <ele>3025.800</ele>
        <time>2020-01-20T20:07:07Z</time>
      </trkpt>
      <trkpt lat="17.112281300" lon="-96.432520640">
        <ele>3025.700</ele>
        <time>2020-01-20T20:07:09Z</time>
      </trkpt>
      <trkpt lat="17.112229250" lon="-96.432546380">
        <ele>3027.000</ele>
        <time>2020-01-20T20:07:11Z</time>
      </trkpt>
      <trkpt lat="17.112180940" lon="-96.432556370">
        <ele>3026.400</ele>
        <time>2020-01-20T20:07:13Z</time>
      </trkpt>
      <trkpt lat="17.112142380" lon="-96.432546660">
        <ele>3026.400</ele>
        <time>2020-01-20T20:07:15Z</time>
      </trkpt>
      <trkpt lat="17.112112520" lon="-96.432524880">
        <ele>3025.600</ele>
        <time>2020-01-20T20:07:17Z</time>
      </trkpt>
      <trkpt lat="17.112076490" lon="-96.432491100">
        <ele>3024.300</ele>
        <time>2020-01-20T20:07:19Z</time>
      </trkpt>
      <trkpt lat="17.112027920" lon="-96.432448230">
        <ele>3024.700</ele>
        <time>2020-01-20T20:07:21Z</time>
      </trkpt>
      <trkpt lat="17.111982450" lon="-96.432402980">
        <ele>3024.600</ele>
        <time>2020-01-20T20:07:23Z</time>
      </trkpt>
      <trkpt lat="17.111959110" lon="-96.432352050">
        <ele>3025.800</ele>
        <time>2020-01-20T20:07:25Z</time>
      </trkpt>
      <trkpt lat="17.111939300" lon="-96.432299110">
        <ele>3026.300</ele>
        <time>2020-01-20T20:07:27Z</time>
      </trkpt>
      <trkpt lat="17.111922280" lon="-96.432255460">
        <ele>3028.500</ele>
        <time>2020-01-20T20:07:29Z</time>
      </trkpt>
      <trkpt lat="17.111898030" lon="-96.432205440">
        <ele>3028.500</ele>
        <time>2020-01-20T20:07:31Z</time>
      </trkpt>
      <trkpt lat="17.111875010" lon="-96.432171560">
        <ele>3027.600</ele>
        <time>2020-01-20T20:07:33Z</time>
      </trkpt>
      <trkpt lat="17.111841390" lon="-96.432132830">
        <ele>3029.200</ele>
        <time>2020-01-20T20:07:35Z</time>
      </trkpt>
      <trkpt lat="17.111804250" lon="-96.432097360">
        <ele>3029.700</ele>
        <time>2020-01-20T20:07:37Z</time>
      </trkpt>
      <trkpt lat="17.111760460" lon="-96.432080070">
        <ele>3029.700</ele>
        <time>2020-01-20T20:07:39Z</time>
      </trkpt>
      <trkpt lat="17.111704330" lon="-96.432066910">
        <ele>3029.900</ele>
        <time>2020-01-20T20:07:41Z</time>
      </trkpt>
      <trkpt lat="17.111639160" lon="-96.432047780">
        <ele>3030.500</ele>
        <time>2020-01-20T20:07:43Z</time>
      </trkpt>
      <trkpt lat="17.111577850" lon="-96.432023890">
        <ele>3030.200</ele>
        <time>2020-01-20T20:07:45Z</time>
      </trkpt>
      <trkpt lat="17.111538090" lon="-96.432007500">
        <ele>3031.300</ele>
        <time>2020-01-20T20:07:47Z</time>
      </trkpt>
      <trkpt lat="17.111495240" lon="-96.431986430">
        <ele>3031.400</ele>
        <time>2020-01-20T20:07:50Z</time>
      </trkpt>
      <trkpt lat="17.111448620" lon="-96.431950850">
        <ele>3032.600</ele>
        <time>2020-01-20T20:07:53Z</time>
      </trkpt>
      <trkpt lat="17.111407790" lon="-96.431920000">
        <ele>3032.000</ele>
        <time>2020-01-20T20:07:55Z</time>
      </trkpt>
      <trkpt lat="17.111366180" lon="-96.431896370">
        <ele>3031.800</ele>
        <time>2020-01-20T20:07:57Z</time>
      </trkpt>
      <trkpt lat="17.111328880" lon="-96.431874100">
        <ele>3032.500</ele>
        <time>2020-01-20T20:07:59Z</time>
      </trkpt>
      <trkpt lat="17.111299450" lon="-96.431841050">
        <ele>3032.700</ele>
        <time>2020-01-20T20:08:01Z</time>
      </trkpt>
      <trkpt lat="17.111281970" lon="-96.431799940">
        <ele>3033.100</ele>
        <time>2020-01-20T20:08:03Z</time>
      </trkpt>
      <trkpt lat="17.111267850" lon="-96.431752320">
        <ele>3032.900</ele>
        <time>2020-01-20T20:08:05Z</time>
      </trkpt>
      <trkpt lat="17.111255950" lon="-96.431710440">
        <ele>3034.000</ele>
        <time>2020-01-20T20:08:07Z</time>
      </trkpt>
      <trkpt lat="17.111245930" lon="-96.431668810">
        <ele>3034.000</ele>
        <time>2020-01-20T20:08:09Z</time>
      </trkpt>
      <trkpt lat="17.111248730" lon="-96.431623880">
        <ele>3036.900</ele>
        <time>2020-01-20T20:08:11Z</time>
      </trkpt>
      <trkpt lat="17.111258400" lon="-96.431572660">
        <ele>3035.600</ele>
        <time>2020-01-20T20:08:13Z</time>
      </trkpt>
      <trkpt lat="17.111267800" lon="-96.431521010">
        <ele>3036.400</ele>
        <time>2020-01-20T20:08:15Z</time>
      </trkpt>
      <trkpt lat="17.111286270" lon="-96.431472310">
        <ele>3035.900</ele>
        <time>2020-01-20T20:08:17Z</time>
      </trkpt>
      <trkpt lat="17.111295350" lon="-96.431416590">
        <ele>3035.800</ele>
        <time>2020-01-20T20:08:19Z</time>
      </trkpt>
      <trkpt lat="17.111288820" lon="-96.431377030">
        <ele>3036.800</ele>
        <time>2020-01-20T20:08:21Z</time>
      </trkpt>
      <trkpt lat="17.111249980" lon="-96.431350480">
        <ele>3037.400</ele>
        <time>2020-01-20T20:08:24Z</time>
      </trkpt>
      <trkpt lat="17.111198950" lon="-96.431352910">
        <ele>3037.900</ele>
        <time>2020-01-20T20:08:26Z</time>
      </trkpt>
      <trkpt lat="17.111151290" lon="-96.431362200">
        <ele>3038.000</ele>
        <time>2020-01-20T20:08:28Z</time>
      </trkpt>
      <trkpt lat="17.111115160" lon="-96.431368240">
        <ele>3038.300</ele>
        <time>2020-01-20T20:08:30Z</time>
      </trkpt>
      <trkpt lat="17.111070570" lon="-96.431370600">
        <ele>3037.700</ele>
        <time>2020-01-20T20:08:33Z</time>
      </trkpt>
      <trkpt lat="17.111026090" lon="-96.431351990">
        <ele>3039.500</ele>
        <time>2020-01-20T20:08:36Z</time>
      </trkpt>
      <trkpt lat="17.110998120" lon="-96.431310880">
        <ele>3039.400</ele>
        <time>2020-01-20T20:08:39Z</time>
      </trkpt>
      <trkpt lat="17.110984020" lon="-96.431270540">
        <ele>3037.200</ele>
        <time>2020-01-20T20:08:41Z</time>
      </trkpt>
      <trkpt lat="17.110973260" lon="-96.431221880">
        <ele>3037.000</ele>
        <time>2020-01-20T20:08:43Z</time>
      </trkpt>
      <trkpt lat="17.110963520" lon="-96.431179700">
        <ele>3037.200</ele>
        <time>2020-01-20T20:08:45Z</time>
      </trkpt>
      <trkpt lat="17.110945010" lon="-96.431130910">
        <ele>3038.300</ele>
        <time>2020-01-20T20:08:47Z</time>
      </trkpt>
      <trkpt lat="17.110910610" lon="-96.431092880">
        <ele>3039.500</ele>
        <time>2020-01-20T20:08:50Z</time>
      </trkpt>
      <trkpt lat="17.110878150" lon="-96.431067850">
        <ele>3039.500</ele>
        <time>2020-01-20T20:08:52Z</time>
      </trkpt>
      <trkpt lat="17.110842750" lon="-96.431049210">
        <ele>3037.600</ele>
        <time>2020-01-20T20:08:54Z</time>
      </trkpt>
      <trkpt lat="17.110802720" lon="-96.431027440">
        <ele>3037.700</ele>
        <time>2020-01-20T20:08:56Z</time>
      </trkpt>
      <trkpt lat="17.110768550" lon="-96.431009780">
        <ele>3039.200</ele>
        <time>2020-01-20T20:08:58Z</time>
      </trkpt>
      <trkpt lat="17.110730960" lon="-96.430991030">
        <ele>3039.400</ele>
        <time>2020-01-20T20:09:00Z</time>
      </trkpt>
      <trkpt lat="17.110690000" lon="-96.430974640">
        <ele>3037.100</ele>
        <time>2020-01-20T20:09:02Z</time>
      </trkpt>
      <trkpt lat="17.110642670" lon="-96.430959020">
        <ele>3037.100</ele>
        <time>2020-01-20T20:09:04Z</time>
      </trkpt>
      <trkpt lat="17.110601750" lon="-96.430948660">
        <ele>3036.000</ele>
        <time>2020-01-20T20:09:06Z</time>
      </trkpt>
      <trkpt lat="17.110557640" lon="-96.430934750">
        <ele>3035.800</ele>
        <time>2020-01-20T20:09:08Z</time>
      </trkpt>
      <trkpt lat="17.110508580" lon="-96.430922720">
        <ele>3037.800</ele>
        <time>2020-01-20T20:09:10Z</time>
      </trkpt>
      <trkpt lat="17.110465660" lon="-96.430919410">
        <ele>3034.500</ele>
        <time>2020-01-20T20:09:12Z</time>
      </trkpt>
      <trkpt lat="17.110431860" lon="-96.430935610">
        <ele>3028.700</ele>
        <time>2020-01-20T20:09:37Z</time>
      </trkpt>
      <trkpt lat="17.110435580" lon="-96.430952970">
        <ele>3034.200</ele>
        <time>2020-01-20T20:09:52Z</time>
      </trkpt>
    </trkseg>
  </trk>
</gpx>
